<?xml version="1.0" encoding="UTF-8" standalone="no" ?>
<gpx xmlns="http://www.topografix.com/GPX/1/1" xmlns:xsi="http://www.w3.org/2001/XMLSchema-instance" xsi:schemaLocation="http://www.topografix.com/GPX/1/1 http://www.topografix.com/GPX/1/1/gpx.xsd" version="1.1" creator="VisuGPX - https://www.visugpx.com">
  <metadata>
    <name>2015-12-16 Mont Peney et Croix du Nivolet par les crêtes</name>
    <desc><![CDATA[Chemin de crête - Sortie CAF tour des sommets de Chambéry 6/7]]></desc>
  </metadata>
  <trk>
    <name><![CDATA[2015-12-16 Peney-Nivolet]]></name>
    <trkseg>
      <trkpt lat="45.60624" lon="6.01004">
        <ele>986</ele>
        <time>2015-12-16T08:02:46Z</time>
      </trkpt>
      <trkpt lat="45.60634" lon="6.01013">
        <ele>1014.579952329</ele>
        <time>2015-12-16T08:03:03Z</time>
      </trkpt>
      <trkpt lat="45.60634" lon="6.01013">
        <ele>1014.579952329</ele>
        <time>2015-12-16T08:03:06Z</time>
      </trkpt>
      <trkpt lat="45.6063" lon="6.01013">
        <ele>1014.579952329</ele>
        <time>2015-12-16T08:03:21Z</time>
      </trkpt>
      <trkpt lat="45.6063" lon="6.01012">
        <ele>1014.579952329</ele>
        <time>2015-12-16T08:03:26Z</time>
      </trkpt>
      <trkpt lat="45.60631" lon="6.01013">
        <ele>1014.579952329</ele>
        <time>2015-12-16T08:03:32Z</time>
      </trkpt>
      <trkpt lat="45.60631" lon="6.01013">
        <ele>1014.579952329</ele>
        <time>2015-12-16T08:03:37Z</time>
      </trkpt>
      <trkpt lat="45.60631" lon="6.01012">
        <ele>1014.579952329</ele>
        <time>2015-12-16T08:03:42Z</time>
      </trkpt>
      <trkpt lat="45.60631" lon="6.01012">
        <ele>1014.579952329</ele>
        <time>2015-12-16T08:03:52Z</time>
      </trkpt>
      <trkpt lat="45.60631" lon="6.01012">
        <ele>1014.579952329</ele>
        <time>2015-12-16T08:03:57Z</time>
      </trkpt>
      <trkpt lat="45.60631" lon="6.01012">
        <ele>1014.579952329</ele>
        <time>2015-12-16T08:04:11Z</time>
      </trkpt>
      <trkpt lat="45.60631" lon="6.01012">
        <ele>1014.579952329</ele>
        <time>2015-12-16T08:04:12Z</time>
      </trkpt>
      <trkpt lat="45.60629" lon="6.0101">
        <ele>1020.332468951</ele>
        <time>2015-12-16T08:04:22Z</time>
      </trkpt>
      <trkpt lat="45.60629" lon="6.01009">
        <ele>1020.332468951</ele>
        <time>2015-12-16T08:04:26Z</time>
      </trkpt>
      <trkpt lat="45.60626" lon="6.01009">
        <ele>1020.332468951</ele>
        <time>2015-12-16T08:04:37Z</time>
      </trkpt>
      <trkpt lat="45.60626" lon="6.01009">
        <ele>1020.332468951</ele>
        <time>2015-12-16T08:04:42Z</time>
      </trkpt>
      <trkpt lat="45.60627" lon="6.0101">
        <ele>1020.332468951</ele>
        <time>2015-12-16T08:04:56Z</time>
      </trkpt>
      <trkpt lat="45.60629" lon="6.01013">
        <ele>1020.332468951</ele>
        <time>2015-12-16T08:05:12Z</time>
      </trkpt>
      <trkpt lat="45.60629" lon="6.01013">
        <ele>1020.332468951</ele>
        <time>2015-12-16T08:05:17Z</time>
      </trkpt>
      <trkpt lat="45.6063" lon="6.01012">
        <ele>1020.332468951</ele>
        <time>2015-12-16T08:05:28Z</time>
      </trkpt>
      <trkpt lat="45.6063" lon="6.01011">
        <ele>1020.332468951</ele>
        <time>2015-12-16T08:05:32Z</time>
      </trkpt>
      <trkpt lat="45.60631" lon="6.01011">
        <ele>1025.584423295</ele>
        <time>2015-12-16T08:05:41Z</time>
      </trkpt>
      <trkpt lat="45.60631" lon="6.01011">
        <ele>1025.584423295</ele>
        <time>2015-12-16T08:05:56Z</time>
      </trkpt>
      <trkpt lat="45.60632" lon="6.01012">
        <ele>1025.584423295</ele>
        <time>2015-12-16T08:06:01Z</time>
      </trkpt>
      <trkpt lat="45.60632" lon="6.01011">
        <ele>1025.584423295</ele>
        <time>2015-12-16T08:06:12Z</time>
      </trkpt>
      <trkpt lat="45.60632" lon="6.01011">
        <ele>1025.584423295</ele>
        <time>2015-12-16T08:06:17Z</time>
      </trkpt>
      <trkpt lat="45.60623" lon="6.0101">
        <ele>1026.474174029</ele>
        <time>2015-12-16T08:06:27Z</time>
      </trkpt>
      <trkpt lat="45.6062" lon="6.01009">
        <ele>1026.474174029</ele>
        <time>2015-12-16T08:06:31Z</time>
      </trkpt>
      <trkpt lat="45.6062" lon="6.01012">
        <ele>1026.474174029</ele>
        <time>2015-12-16T08:06:41Z</time>
      </trkpt>
      <trkpt lat="45.60621" lon="6.01012">
        <ele>1026.474174029</ele>
        <time>2015-12-16T08:06:47Z</time>
      </trkpt>
      <trkpt lat="45.60622" lon="6.0101">
        <ele>1026.474174029</ele>
        <time>2015-12-16T08:06:56Z</time>
      </trkpt>
      <trkpt lat="45.60623" lon="6.0101">
        <ele>1029.436374494</ele>
        <time>2015-12-16T08:07:01Z</time>
      </trkpt>
      <trkpt lat="45.60622" lon="6.0101">
        <ele>1029.436374494</ele>
        <time>2015-12-16T08:07:13Z</time>
      </trkpt>
      <trkpt lat="45.60622" lon="6.01009">
        <ele>1029.436374494</ele>
        <time>2015-12-16T08:07:17Z</time>
      </trkpt>
      <trkpt lat="45.60625" lon="6.01012">
        <ele>1029.436374494</ele>
        <time>2015-12-16T08:07:32Z</time>
      </trkpt>
      <trkpt lat="45.60625" lon="6.01012">
        <ele>1029.436374494</ele>
        <time>2015-12-16T08:07:36Z</time>
      </trkpt>
      <trkpt lat="45.60626" lon="6.01013">
        <ele>1029.436374494</ele>
        <time>2015-12-16T08:07:46Z</time>
      </trkpt>
      <trkpt lat="45.60626" lon="6.01013">
        <ele>1029.436374494</ele>
        <time>2015-12-16T08:07:51Z</time>
      </trkpt>
      <trkpt lat="45.60624" lon="6.01011">
        <ele>1031.70167125</ele>
        <time>2015-12-16T08:08:01Z</time>
      </trkpt>
      <trkpt lat="45.60623" lon="6.01006">
        <ele>1031.70167125</ele>
        <time>2015-12-16T08:08:06Z</time>
      </trkpt>
      <trkpt lat="45.60626" lon="6.01009">
        <ele>1031.70167125</ele>
        <time>2015-12-16T08:08:16Z</time>
      </trkpt>
      <trkpt lat="45.60624" lon="6.0101">
        <ele>1031.70167125</ele>
        <time>2015-12-16T08:08:21Z</time>
      </trkpt>
      <trkpt lat="45.60623" lon="6.01012">
        <ele>1033.669210456</ele>
        <time>2015-12-16T08:08:31Z</time>
      </trkpt>
      <trkpt lat="45.60624" lon="6.01012">
        <ele>1033.669210456</ele>
        <time>2015-12-16T08:08:36Z</time>
      </trkpt>
      <trkpt lat="45.60625" lon="6.01012">
        <ele>1033.669210456</ele>
        <time>2015-12-16T08:08:46Z</time>
      </trkpt>
      <trkpt lat="45.60628" lon="6.01011">
        <ele>1033.669210456</ele>
        <time>2015-12-16T08:08:51Z</time>
      </trkpt>
      <trkpt lat="45.60631" lon="6.01009">
        <ele>1033.669210456</ele>
        <time>2015-12-16T08:09:01Z</time>
      </trkpt>
      <trkpt lat="45.6063" lon="6.01009">
        <ele>1033.669210456</ele>
        <time>2015-12-16T08:09:06Z</time>
      </trkpt>
      <trkpt lat="45.60626" lon="6.0101">
        <ele>1036.12642062</ele>
        <time>2015-12-16T08:09:11Z</time>
      </trkpt>
      <trkpt lat="45.60624" lon="6.01009">
        <ele>1036.12642062</ele>
        <time>2015-12-16T08:09:16Z</time>
      </trkpt>
      <trkpt lat="45.60623" lon="6.01009">
        <ele>1036.12642062</ele>
        <time>2015-12-16T08:09:21Z</time>
      </trkpt>
      <trkpt lat="45.60623" lon="6.01009">
        <ele>1036.12642062</ele>
        <time>2015-12-16T08:09:26Z</time>
      </trkpt>
      <trkpt lat="45.60623" lon="6.01009">
        <ele>1036.12642062</ele>
        <time>2015-12-16T08:09:31Z</time>
      </trkpt>
      <trkpt lat="45.60623" lon="6.01009">
        <ele>1036.12642062</ele>
        <time>2015-12-16T08:09:36Z</time>
      </trkpt>
      <trkpt lat="45.60623" lon="6.01009">
        <ele>1036.12642062</ele>
        <time>2015-12-16T08:09:41Z</time>
      </trkpt>
      <trkpt lat="45.60626" lon="6.01009">
        <ele>1036.12642062</ele>
        <time>2015-12-16T08:09:46Z</time>
      </trkpt>
      <trkpt lat="45.60626" lon="6.0101">
        <ele>1036.12642062</ele>
        <time>2015-12-16T08:09:52Z</time>
      </trkpt>
      <trkpt lat="45.60627" lon="6.01009">
        <ele>1036.12642062</ele>
        <time>2015-12-16T08:10:01Z</time>
      </trkpt>
      <trkpt lat="45.60626" lon="6.01009">
        <ele>1037.453315357</ele>
        <time>2015-12-16T08:10:06Z</time>
      </trkpt>
      <trkpt lat="45.60628" lon="6.01009">
        <ele>1037.453315357</ele>
        <time>2015-12-16T08:10:21Z</time>
      </trkpt>
      <trkpt lat="45.60628" lon="6.01009">
        <ele>1037.453315357</ele>
        <time>2015-12-16T08:10:26Z</time>
      </trkpt>
      <trkpt lat="45.60626" lon="6.01009">
        <ele>1037.453315357</ele>
        <time>2015-12-16T08:10:36Z</time>
      </trkpt>
      <trkpt lat="45.60628" lon="6.0101">
        <ele>1037.453315357</ele>
        <time>2015-12-16T08:10:51Z</time>
      </trkpt>
      <trkpt lat="45.60628" lon="6.01012">
        <ele>1037.453315357</ele>
        <time>2015-12-16T08:10:57Z</time>
      </trkpt>
      <trkpt lat="45.60628" lon="6.01013">
        <ele>1038.669654663</ele>
        <time>2015-12-16T08:11:06Z</time>
      </trkpt>
      <trkpt lat="45.60628" lon="6.0101">
        <ele>1038.669654663</ele>
        <time>2015-12-16T08:11:11Z</time>
      </trkpt>
      <trkpt lat="45.60626" lon="6.01008">
        <ele>1038.669654663</ele>
        <time>2015-12-16T08:11:22Z</time>
      </trkpt>
      <trkpt lat="45.60623" lon="6.01006">
        <ele>1038.669654663</ele>
        <time>2015-12-16T08:11:27Z</time>
      </trkpt>
      <trkpt lat="45.60615" lon="6.01004">
        <ele>1040.413221205</ele>
        <time>2015-12-16T08:11:37Z</time>
      </trkpt>
      <trkpt lat="45.60614" lon="6.01003">
        <ele>1040.413221205</ele>
        <time>2015-12-16T08:11:41Z</time>
      </trkpt>
      <trkpt lat="45.60612" lon="6.01">
        <ele>1040.413221205</ele>
        <time>2015-12-16T08:11:51Z</time>
      </trkpt>
      <trkpt lat="45.6061" lon="6.00997">
        <ele>1040.413221205</ele>
        <time>2015-12-16T08:11:57Z</time>
      </trkpt>
      <trkpt lat="45.60598" lon="6.0099">
        <ele>1041.818177171</ele>
        <time>2015-12-16T08:12:11Z</time>
      </trkpt>
      <trkpt lat="45.60596" lon="6.00985">
        <ele>1041.818177171</ele>
        <time>2015-12-16T08:12:16Z</time>
      </trkpt>
      <trkpt lat="45.60584" lon="6.00983">
        <ele>1043.117200132</ele>
        <time>2015-12-16T08:12:31Z</time>
      </trkpt>
      <trkpt lat="45.60571" lon="6.00982">
        <ele>1044.534459954</ele>
        <time>2015-12-16T08:12:47Z</time>
      </trkpt>
      <trkpt lat="45.60567" lon="6.00982">
        <ele>1044.534459954</ele>
        <time>2015-12-16T08:12:52Z</time>
      </trkpt>
      <trkpt lat="45.6056" lon="6.00974">
        <ele>1045.442249058</ele>
        <time>2015-12-16T08:13:02Z</time>
      </trkpt>
      <trkpt lat="45.60557" lon="6.00973">
        <ele>1045.442249058</ele>
        <time>2015-12-16T08:13:06Z</time>
      </trkpt>
      <trkpt lat="45.60549" lon="6.00973">
        <ele>1046.925412951</ele>
        <time>2015-12-16T08:13:17Z</time>
      </trkpt>
      <trkpt lat="45.60545" lon="6.0097">
        <ele>1046.925412951</ele>
        <time>2015-12-16T08:13:22Z</time>
      </trkpt>
      <trkpt lat="45.60534" lon="6.00973">
        <ele>1047.816949937</ele>
        <time>2015-12-16T08:13:31Z</time>
      </trkpt>
      <trkpt lat="45.60533" lon="6.00966">
        <ele>1047.816949937</ele>
        <time>2015-12-16T08:13:37Z</time>
      </trkpt>
      <trkpt lat="45.60525" lon="6.00966">
        <ele>1048.051368188</ele>
        <time>2015-12-16T08:13:46Z</time>
      </trkpt>
      <trkpt lat="45.60523" lon="6.00955">
        <ele>1048.051368188</ele>
        <time>2015-12-16T08:13:51Z</time>
      </trkpt>
      <trkpt lat="45.60515" lon="6.00962">
        <ele>1047.731896114</ele>
        <time>2015-12-16T08:14:02Z</time>
      </trkpt>
      <trkpt lat="45.60514" lon="6.00964">
        <ele>1047.731896114</ele>
        <time>2015-12-16T08:14:07Z</time>
      </trkpt>
      <trkpt lat="45.60504" lon="6.00953">
        <ele>1047.41862488</ele>
        <time>2015-12-16T08:14:17Z</time>
      </trkpt>
      <trkpt lat="45.60497" lon="6.00954">
        <ele>1047.41862488</ele>
        <time>2015-12-16T08:14:22Z</time>
      </trkpt>
      <trkpt lat="45.60493" lon="6.0095">
        <ele>1047.285287201</ele>
        <time>2015-12-16T08:14:34Z</time>
      </trkpt>
      <trkpt lat="45.60489" lon="6.00951">
        <ele>1047.285287201</ele>
        <time>2015-12-16T08:14:36Z</time>
      </trkpt>
      <trkpt lat="45.6048" lon="6.00951">
        <ele>1048.237772051</ele>
        <time>2015-12-16T08:14:47Z</time>
      </trkpt>
      <trkpt lat="45.60478" lon="6.00952">
        <ele>1048.237772051</ele>
        <time>2015-12-16T08:14:52Z</time>
      </trkpt>
      <trkpt lat="45.60467" lon="6.00946">
        <ele>1049.110105301</ele>
        <time>2015-12-16T08:15:02Z</time>
      </trkpt>
      <trkpt lat="45.60465" lon="6.00946">
        <ele>1049.110105301</ele>
        <time>2015-12-16T08:15:06Z</time>
      </trkpt>
      <trkpt lat="45.60451" lon="6.00942">
        <ele>1050.062804106</ele>
        <time>2015-12-16T08:15:22Z</time>
      </trkpt>
      <trkpt lat="45.60448" lon="6.00941">
        <ele>1050.062804106</ele>
        <time>2015-12-16T08:15:26Z</time>
      </trkpt>
      <trkpt lat="45.60441" lon="6.00937">
        <ele>1050.943120365</ele>
        <time>2015-12-16T08:15:36Z</time>
      </trkpt>
      <trkpt lat="45.60435" lon="6.00937">
        <ele>1050.943120365</ele>
        <time>2015-12-16T08:15:41Z</time>
      </trkpt>
      <trkpt lat="45.6043" lon="6.0093">
        <ele>1051.327006614</ele>
        <time>2015-12-16T08:15:52Z</time>
      </trkpt>
      <trkpt lat="45.60428" lon="6.00924">
        <ele>1051.327006614</ele>
        <time>2015-12-16T08:15:57Z</time>
      </trkpt>
      <trkpt lat="45.6042" lon="6.00918">
        <ele>1052.403386438</ele>
        <time>2015-12-16T08:16:06Z</time>
      </trkpt>
      <trkpt lat="45.60417" lon="6.00914">
        <ele>1052.403386438</ele>
        <time>2015-12-16T08:16:12Z</time>
      </trkpt>
      <trkpt lat="45.60409" lon="6.00913">
        <ele>1053.962322336</ele>
        <time>2015-12-16T08:16:22Z</time>
      </trkpt>
      <trkpt lat="45.60408" lon="6.00915">
        <ele>1053.962322336</ele>
        <time>2015-12-16T08:16:27Z</time>
      </trkpt>
      <trkpt lat="45.60401" lon="6.0091">
        <ele>1055.256434932</ele>
        <time>2015-12-16T08:16:36Z</time>
      </trkpt>
      <trkpt lat="45.604" lon="6.0091">
        <ele>1055.256434932</ele>
        <time>2015-12-16T08:16:42Z</time>
      </trkpt>
      <trkpt lat="45.60397" lon="6.00911">
        <ele>1055.256434932</ele>
        <time>2015-12-16T08:16:51Z</time>
      </trkpt>
      <trkpt lat="45.60392" lon="6.00911">
        <ele>1057.143006893</ele>
        <time>2015-12-16T08:16:56Z</time>
      </trkpt>
      <trkpt lat="45.6038" lon="6.00915">
        <ele>1058.737315263</ele>
        <time>2015-12-16T08:17:07Z</time>
      </trkpt>
      <trkpt lat="45.60376" lon="6.00915">
        <ele>1058.737315263</ele>
        <time>2015-12-16T08:17:12Z</time>
      </trkpt>
      <trkpt lat="45.60371" lon="6.00917">
        <ele>1058.737315263</ele>
        <time>2015-12-16T08:17:22Z</time>
      </trkpt>
      <trkpt lat="45.60368" lon="6.00914">
        <ele>1060.476203972</ele>
        <time>2015-12-16T08:17:27Z</time>
      </trkpt>
      <trkpt lat="45.6036" lon="6.00892">
        <ele>1062.763749023</ele>
        <time>2015-12-16T08:17:42Z</time>
      </trkpt>
      <trkpt lat="45.6036" lon="6.00887">
        <ele>1062.763749023</ele>
        <time>2015-12-16T08:17:47Z</time>
      </trkpt>
      <trkpt lat="45.60351" lon="6.00882">
        <ele>1064.86519306</ele>
        <time>2015-12-16T08:17:57Z</time>
      </trkpt>
      <trkpt lat="45.60348" lon="6.00881">
        <ele>1064.86519306</ele>
        <time>2015-12-16T08:18:02Z</time>
      </trkpt>
      <trkpt lat="45.60342" lon="6.00876">
        <ele>1067.070369965</ele>
        <time>2015-12-16T08:18:11Z</time>
      </trkpt>
      <trkpt lat="45.60339" lon="6.00876">
        <ele>1067.070369965</ele>
        <time>2015-12-16T08:18:16Z</time>
      </trkpt>
      <trkpt lat="45.60332" lon="6.00869">
        <ele>1069.231496691</ele>
        <time>2015-12-16T08:18:27Z</time>
      </trkpt>
      <trkpt lat="45.60331" lon="6.00865">
        <ele>1069.231496691</ele>
        <time>2015-12-16T08:18:33Z</time>
      </trkpt>
      <trkpt lat="45.60321" lon="6.00859">
        <ele>1071.068509263</ele>
        <time>2015-12-16T08:18:41Z</time>
      </trkpt>
      <trkpt lat="45.60311" lon="6.00858">
        <ele>1073.025750463</ele>
        <time>2015-12-16T08:18:47Z</time>
      </trkpt>
      <trkpt lat="45.60306" lon="6.00852">
        <ele>1073.025750463</ele>
        <time>2015-12-16T08:18:57Z</time>
      </trkpt>
      <trkpt lat="45.60305" lon="6.00847">
        <ele>1074.240262827</ele>
        <time>2015-12-16T08:19:02Z</time>
      </trkpt>
      <trkpt lat="45.60295" lon="6.00851">
        <ele>1075.044329623</ele>
        <time>2015-12-16T08:19:11Z</time>
      </trkpt>
      <trkpt lat="45.6029" lon="6.00848">
        <ele>1075.044329623</ele>
        <time>2015-12-16T08:19:16Z</time>
      </trkpt>
      <trkpt lat="45.6028" lon="6.00849">
        <ele>1075.755685075</ele>
        <time>2015-12-16T08:19:27Z</time>
      </trkpt>
      <trkpt lat="45.60278" lon="6.00847">
        <ele>1075.755685075</ele>
        <time>2015-12-16T08:19:32Z</time>
      </trkpt>
      <trkpt lat="45.60277" lon="6.00844">
        <ele>1075.755685075</ele>
        <time>2015-12-16T08:19:36Z</time>
      </trkpt>
      <trkpt lat="45.60272" lon="6.00837">
        <ele>1076.968519101</ele>
        <time>2015-12-16T08:19:47Z</time>
      </trkpt>
      <trkpt lat="45.60263" lon="6.00833">
        <ele>1076.968519101</ele>
        <time>2015-12-16T08:19:57Z</time>
      </trkpt>
      <trkpt lat="45.6026" lon="6.00838">
        <ele>1078.218188521</ele>
        <time>2015-12-16T08:20:01Z</time>
      </trkpt>
      <trkpt lat="45.60258" lon="6.00835">
        <ele>1078.218188521</ele>
        <time>2015-12-16T08:20:06Z</time>
      </trkpt>
      <trkpt lat="45.60257" lon="6.00835">
        <ele>1078.218188521</ele>
        <time>2015-12-16T08:20:12Z</time>
      </trkpt>
      <trkpt lat="45.60252" lon="6.00834">
        <ele>1079.949275497</ele>
        <time>2015-12-16T08:20:17Z</time>
      </trkpt>
      <trkpt lat="45.60247" lon="6.00831">
        <ele>1079.949275497</ele>
        <time>2015-12-16T08:20:22Z</time>
      </trkpt>
      <trkpt lat="45.60238" lon="6.00829">
        <ele>1081.541271211</ele>
        <time>2015-12-16T08:20:32Z</time>
      </trkpt>
      <trkpt lat="45.60236" lon="6.00827">
        <ele>1081.541271211</ele>
        <time>2015-12-16T08:20:36Z</time>
      </trkpt>
      <trkpt lat="45.60223" lon="6.00819">
        <ele>1083.154559249</ele>
        <time>2015-12-16T08:20:47Z</time>
      </trkpt>
      <trkpt lat="45.60221" lon="6.00817">
        <ele>1083.154559249</ele>
        <time>2015-12-16T08:20:52Z</time>
      </trkpt>
      <trkpt lat="45.60218" lon="6.00808">
        <ele>1084.640642202</ele>
        <time>2015-12-16T08:21:02Z</time>
      </trkpt>
      <trkpt lat="45.60218" lon="6.00805">
        <ele>1084.640642202</ele>
        <time>2015-12-16T08:21:07Z</time>
      </trkpt>
      <trkpt lat="45.60218" lon="6.00801">
        <ele>1084.640642202</ele>
        <time>2015-12-16T08:21:16Z</time>
      </trkpt>
      <trkpt lat="45.60218" lon="6.00795">
        <ele>1086.161050081</ele>
        <time>2015-12-16T08:21:22Z</time>
      </trkpt>
      <trkpt lat="45.60217" lon="6.00769">
        <ele>1087.866495802</ele>
        <time>2015-12-16T08:21:32Z</time>
      </trkpt>
      <trkpt lat="45.60219" lon="6.00761">
        <ele>1087.866495802</ele>
        <time>2015-12-16T08:21:36Z</time>
      </trkpt>
      <trkpt lat="45.60212" lon="6.00753">
        <ele>1089.594791331</ele>
        <time>2015-12-16T08:21:46Z</time>
      </trkpt>
      <trkpt lat="45.60206" lon="6.00753">
        <ele>1089.594791331</ele>
        <time>2015-12-16T08:21:52Z</time>
      </trkpt>
      <trkpt lat="45.60195" lon="6.00752">
        <ele>1092.100162507</ele>
        <time>2015-12-16T08:22:01Z</time>
      </trkpt>
      <trkpt lat="45.6019" lon="6.00753">
        <ele>1092.100162507</ele>
        <time>2015-12-16T08:22:07Z</time>
      </trkpt>
      <trkpt lat="45.60176" lon="6.00758">
        <ele>1093.813080128</ele>
        <time>2015-12-16T08:22:17Z</time>
      </trkpt>
      <trkpt lat="45.60174" lon="6.00751">
        <ele>1093.813080128</ele>
        <time>2015-12-16T08:22:22Z</time>
      </trkpt>
      <trkpt lat="45.60167" lon="6.00753">
        <ele>1095.700967809</ele>
        <time>2015-12-16T08:22:26Z</time>
      </trkpt>
      <trkpt lat="45.60155" lon="6.00748">
        <ele>1097.147368716</ele>
        <time>2015-12-16T08:22:36Z</time>
      </trkpt>
      <trkpt lat="45.60149" lon="6.00751">
        <ele>1097.147368716</ele>
        <time>2015-12-16T08:22:41Z</time>
      </trkpt>
      <trkpt lat="45.60145" lon="6.00739">
        <ele>1098.641389276</ele>
        <time>2015-12-16T08:22:52Z</time>
      </trkpt>
      <trkpt lat="45.60134" lon="6.00741">
        <ele>1099.729587713</ele>
        <time>2015-12-16T08:22:57Z</time>
      </trkpt>
      <trkpt lat="45.6013" lon="6.00741">
        <ele>1099.729587713</ele>
        <time>2015-12-16T08:23:01Z</time>
      </trkpt>
      <trkpt lat="45.60126" lon="6.00742">
        <ele>1099.729587713</ele>
        <time>2015-12-16T08:23:06Z</time>
      </trkpt>
      <trkpt lat="45.60122" lon="6.00741">
        <ele>1100.748309712</ele>
        <time>2015-12-16T08:23:11Z</time>
      </trkpt>
      <trkpt lat="45.60123" lon="6.00737">
        <ele>1100.748309712</ele>
        <time>2015-12-16T08:23:22Z</time>
      </trkpt>
      <trkpt lat="45.60122" lon="6.00738">
        <ele>1100.748309712</ele>
        <time>2015-12-16T08:23:27Z</time>
      </trkpt>
      <trkpt lat="45.60122" lon="6.00738">
        <ele>1100.748309712</ele>
        <time>2015-12-16T08:23:31Z</time>
      </trkpt>
      <trkpt lat="45.60115" lon="6.00735">
        <ele>1101.106539649</ele>
        <time>2015-12-16T08:23:42Z</time>
      </trkpt>
      <trkpt lat="45.60109" lon="6.00733">
        <ele>1101.106539649</ele>
        <time>2015-12-16T08:23:46Z</time>
      </trkpt>
      <trkpt lat="45.60097" lon="6.00732">
        <ele>1101.312175764</ele>
        <time>2015-12-16T08:23:57Z</time>
      </trkpt>
      <trkpt lat="45.60098" lon="6.00726">
        <ele>1101.312175764</ele>
        <time>2015-12-16T08:24:01Z</time>
      </trkpt>
      <trkpt lat="45.60089" lon="6.00718">
        <ele>1102.876092238</ele>
        <time>2015-12-16T08:24:18Z</time>
      </trkpt>
      <trkpt lat="45.60084" lon="6.00716">
        <ele>1102.876092238</ele>
        <time>2015-12-16T08:24:27Z</time>
      </trkpt>
      <trkpt lat="45.6008" lon="6.00714">
        <ele>1104.794580385</ele>
        <time>2015-12-16T08:24:32Z</time>
      </trkpt>
      <trkpt lat="45.60076" lon="6.00701">
        <ele>1106.147219588</ele>
        <time>2015-12-16T08:24:47Z</time>
      </trkpt>
      <trkpt lat="45.60075" lon="6.00696">
        <ele>1106.147219588</ele>
        <time>2015-12-16T08:24:52Z</time>
      </trkpt>
      <trkpt lat="45.60067" lon="6.00697">
        <ele>1107.574672359</ele>
        <time>2015-12-16T08:25:02Z</time>
      </trkpt>
      <trkpt lat="45.60063" lon="6.00698">
        <ele>1107.574672359</ele>
        <time>2015-12-16T08:25:07Z</time>
      </trkpt>
      <trkpt lat="45.60061" lon="6.00695">
        <ele>1107.574672359</ele>
        <time>2015-12-16T08:25:17Z</time>
      </trkpt>
      <trkpt lat="45.60062" lon="6.00692">
        <ele>1107.574672359</ele>
        <time>2015-12-16T08:25:22Z</time>
      </trkpt>
      <trkpt lat="45.60058" lon="6.00683">
        <ele>1109.219970335</ele>
        <time>2015-12-16T08:25:31Z</time>
      </trkpt>
      <trkpt lat="45.60056" lon="6.00682">
        <ele>1109.219970335</ele>
        <time>2015-12-16T08:25:36Z</time>
      </trkpt>
      <trkpt lat="45.60056" lon="6.00682">
        <ele>1109.219970335</ele>
        <time>2015-12-16T08:25:47Z</time>
      </trkpt>
      <trkpt lat="45.60054" lon="6.0068">
        <ele>1109.219970335</ele>
        <time>2015-12-16T08:25:52Z</time>
      </trkpt>
      <trkpt lat="45.6005" lon="6.00674">
        <ele>1110.771128413</ele>
        <time>2015-12-16T08:26:02Z</time>
      </trkpt>
      <trkpt lat="45.60048" lon="6.00674">
        <ele>1110.771128413</ele>
        <time>2015-12-16T08:26:06Z</time>
      </trkpt>
      <trkpt lat="45.60037" lon="6.0067">
        <ele>1113.119370566</ele>
        <time>2015-12-16T08:26:22Z</time>
      </trkpt>
      <trkpt lat="45.60035" lon="6.00668">
        <ele>1113.119370566</ele>
        <time>2015-12-16T08:26:26Z</time>
      </trkpt>
      <trkpt lat="45.60027" lon="6.00669">
        <ele>1115.612041274</ele>
        <time>2015-12-16T08:26:37Z</time>
      </trkpt>
      <trkpt lat="45.60024" lon="6.00669">
        <ele>1115.612041274</ele>
        <time>2015-12-16T08:26:41Z</time>
      </trkpt>
      <trkpt lat="45.6002" lon="6.00667">
        <ele>1115.612041274</ele>
        <time>2015-12-16T08:26:53Z</time>
      </trkpt>
      <trkpt lat="45.60016" lon="6.00666">
        <ele>1118.528915842</ele>
        <time>2015-12-16T08:26:56Z</time>
      </trkpt>
      <trkpt lat="45.60012" lon="6.00661">
        <ele>1118.528915842</ele>
        <time>2015-12-16T08:27:07Z</time>
      </trkpt>
      <trkpt lat="45.60008" lon="6.00658">
        <ele>1121.248785904</ele>
        <time>2015-12-16T08:27:11Z</time>
      </trkpt>
      <trkpt lat="45.60001" lon="6.00654">
        <ele>1121.248785904</ele>
        <time>2015-12-16T08:27:21Z</time>
      </trkpt>
      <trkpt lat="45.59999" lon="6.00653">
        <ele>1123.931011852</ele>
        <time>2015-12-16T08:27:27Z</time>
      </trkpt>
      <trkpt lat="45.59995" lon="6.00646">
        <ele>1123.931011852</ele>
        <time>2015-12-16T08:27:37Z</time>
      </trkpt>
      <trkpt lat="45.59993" lon="6.00644">
        <ele>1123.931011852</ele>
        <time>2015-12-16T08:27:42Z</time>
      </trkpt>
      <trkpt lat="45.59987" lon="6.00642">
        <ele>1127.450381369</ele>
        <time>2015-12-16T08:27:51Z</time>
      </trkpt>
      <trkpt lat="45.59986" lon="6.00639">
        <ele>1127.450381369</ele>
        <time>2015-12-16T08:27:56Z</time>
      </trkpt>
      <trkpt lat="45.59977" lon="6.00637">
        <ele>1131.155433899</ele>
        <time>2015-12-16T08:28:06Z</time>
      </trkpt>
      <trkpt lat="45.59973" lon="6.00637">
        <ele>1131.155433899</ele>
        <time>2015-12-16T08:28:11Z</time>
      </trkpt>
      <trkpt lat="45.59963" lon="6.00638">
        <ele>1134.881834677</ele>
        <time>2015-12-16T08:28:27Z</time>
      </trkpt>
      <trkpt lat="45.59959" lon="6.00639">
        <ele>1134.881834677</ele>
        <time>2015-12-16T08:28:31Z</time>
      </trkpt>
      <trkpt lat="45.59951" lon="6.0064">
        <ele>1138.043050368</ele>
        <time>2015-12-16T08:28:41Z</time>
      </trkpt>
      <trkpt lat="45.59951" lon="6.00641">
        <ele>1138.043050368</ele>
        <time>2015-12-16T08:28:46Z</time>
      </trkpt>
      <trkpt lat="45.5994" lon="6.0064">
        <ele>1140.968953464</ele>
        <time>2015-12-16T08:28:57Z</time>
      </trkpt>
      <trkpt lat="45.59935" lon="6.00641">
        <ele>1140.968953464</ele>
        <time>2015-12-16T08:29:01Z</time>
      </trkpt>
      <trkpt lat="45.5993" lon="6.00638">
        <ele>1143.385313989</ele>
        <time>2015-12-16T08:29:11Z</time>
      </trkpt>
      <trkpt lat="45.5993" lon="6.00639">
        <ele>1143.385313989</ele>
        <time>2015-12-16T08:29:16Z</time>
      </trkpt>
      <trkpt lat="45.59923" lon="6.0064">
        <ele>1143.385313989</ele>
        <time>2015-12-16T08:29:26Z</time>
      </trkpt>
      <trkpt lat="45.59915" lon="6.00641">
        <ele>1145.907890728</ele>
        <time>2015-12-16T08:29:42Z</time>
      </trkpt>
      <trkpt lat="45.59913" lon="6.00642">
        <ele>1145.907890728</ele>
        <time>2015-12-16T08:29:47Z</time>
      </trkpt>
      <trkpt lat="45.59907" lon="6.00644">
        <ele>1145.907890728</ele>
        <time>2015-12-16T08:29:57Z</time>
      </trkpt>
      <trkpt lat="45.59906" lon="6.0064">
        <ele>1148.237935035</ele>
        <time>2015-12-16T08:30:01Z</time>
      </trkpt>
      <trkpt lat="45.59906" lon="6.00642">
        <ele>1148.237935035</ele>
        <time>2015-12-16T08:30:11Z</time>
      </trkpt>
      <trkpt lat="45.59906" lon="6.00642">
        <ele>1148.237935035</ele>
        <time>2015-12-16T08:30:17Z</time>
      </trkpt>
      <trkpt lat="45.59906" lon="6.00642">
        <ele>1148.237935035</ele>
        <time>2015-12-16T08:30:27Z</time>
      </trkpt>
      <trkpt lat="45.59905" lon="6.00642">
        <ele>1148.237935035</ele>
        <time>2015-12-16T08:30:31Z</time>
      </trkpt>
      <trkpt lat="45.5989" lon="6.00632">
        <ele>1151.255352273</ele>
        <time>2015-12-16T08:30:42Z</time>
      </trkpt>
      <trkpt lat="45.59887" lon="6.00632">
        <ele>1151.255352273</ele>
        <time>2015-12-16T08:30:47Z</time>
      </trkpt>
      <trkpt lat="45.59882" lon="6.00629">
        <ele>1151.255352273</ele>
        <time>2015-12-16T08:30:52Z</time>
      </trkpt>
      <trkpt lat="45.59877" lon="6.00626">
        <ele>1153.606485138</ele>
        <time>2015-12-16T08:31:02Z</time>
      </trkpt>
      <trkpt lat="45.59877" lon="6.00624">
        <ele>1153.606485138</ele>
        <time>2015-12-16T08:31:07Z</time>
      </trkpt>
      <trkpt lat="45.59869" lon="6.00621">
        <ele>1156.350092139</ele>
        <time>2015-12-16T08:31:16Z</time>
      </trkpt>
      <trkpt lat="45.59866" lon="6.00617">
        <ele>1156.350092139</ele>
        <time>2015-12-16T08:31:22Z</time>
      </trkpt>
      <trkpt lat="45.59861" lon="6.00621">
        <ele>1159.599103883</ele>
        <time>2015-12-16T08:31:32Z</time>
      </trkpt>
      <trkpt lat="45.5986" lon="6.00621">
        <ele>1159.599103883</ele>
        <time>2015-12-16T08:31:36Z</time>
      </trkpt>
      <trkpt lat="45.59859" lon="6.00623">
        <ele>1159.599103883</ele>
        <time>2015-12-16T08:31:47Z</time>
      </trkpt>
      <trkpt lat="45.59856" lon="6.00618">
        <ele>1159.599103883</ele>
        <time>2015-12-16T08:31:52Z</time>
      </trkpt>
      <trkpt lat="45.59851" lon="6.00614">
        <ele>1162.591467791</ele>
        <time>2015-12-16T08:32:01Z</time>
      </trkpt>
      <trkpt lat="45.59848" lon="6.00612">
        <ele>1162.591467791</ele>
        <time>2015-12-16T08:32:07Z</time>
      </trkpt>
      <trkpt lat="45.59841" lon="6.00609">
        <ele>1164.478278017</ele>
        <time>2015-12-16T08:32:16Z</time>
      </trkpt>
      <trkpt lat="45.59839" lon="6.00606">
        <ele>1164.478278017</ele>
        <time>2015-12-16T08:32:22Z</time>
      </trkpt>
      <trkpt lat="45.59831" lon="6.00603">
        <ele>1166.639232673</ele>
        <time>2015-12-16T08:32:31Z</time>
      </trkpt>
      <trkpt lat="45.59833" lon="6.00592">
        <ele>1166.639232673</ele>
        <time>2015-12-16T08:32:37Z</time>
      </trkpt>
      <trkpt lat="45.59829" lon="6.00594">
        <ele>1169.197977854</ele>
        <time>2015-12-16T08:32:47Z</time>
      </trkpt>
      <trkpt lat="45.59828" lon="6.00594">
        <ele>1169.197977854</ele>
        <time>2015-12-16T08:32:52Z</time>
      </trkpt>
      <trkpt lat="45.5982" lon="6.00598">
        <ele>1172.700585149</ele>
        <time>2015-12-16T08:33:02Z</time>
      </trkpt>
      <trkpt lat="45.59819" lon="6.00595">
        <ele>1172.700585149</ele>
        <time>2015-12-16T08:33:07Z</time>
      </trkpt>
      <trkpt lat="45.59812" lon="6.00592">
        <ele>1176.352875783</ele>
        <time>2015-12-16T08:33:22Z</time>
      </trkpt>
      <trkpt lat="45.59807" lon="6.00594">
        <ele>1176.352875783</ele>
        <time>2015-12-16T08:33:37Z</time>
      </trkpt>
      <trkpt lat="45.59806" lon="6.00592">
        <ele>1176.352875783</ele>
        <time>2015-12-16T08:33:42Z</time>
      </trkpt>
      <trkpt lat="45.59798" lon="6.00583">
        <ele>1179.274508688</ele>
        <time>2015-12-16T08:33:51Z</time>
      </trkpt>
      <trkpt lat="45.59795" lon="6.00577">
        <ele>1179.274508688</ele>
        <time>2015-12-16T08:33:56Z</time>
      </trkpt>
      <trkpt lat="45.59792" lon="6.00568">
        <ele>1182.670450435</ele>
        <time>2015-12-16T08:34:07Z</time>
      </trkpt>
      <trkpt lat="45.59789" lon="6.00566">
        <ele>1182.670450435</ele>
        <time>2015-12-16T08:34:11Z</time>
      </trkpt>
      <trkpt lat="45.59784" lon="6.00562">
        <ele>1182.670450435</ele>
        <time>2015-12-16T08:34:21Z</time>
      </trkpt>
      <trkpt lat="45.59784" lon="6.00558">
        <ele>1185.637301773</ele>
        <time>2015-12-16T08:34:27Z</time>
      </trkpt>
      <trkpt lat="45.5978" lon="6.00557">
        <ele>1185.637301773</ele>
        <time>2015-12-16T08:34:42Z</time>
      </trkpt>
      <trkpt lat="45.5978" lon="6.00557">
        <ele>1185.637301773</ele>
        <time>2015-12-16T08:34:46Z</time>
      </trkpt>
      <trkpt lat="45.5978" lon="6.00557">
        <ele>1185.637301773</ele>
        <time>2015-12-16T08:34:57Z</time>
      </trkpt>
      <trkpt lat="45.5978" lon="6.00557">
        <ele>1185.637301773</ele>
        <time>2015-12-16T08:35:01Z</time>
      </trkpt>
      <trkpt lat="45.59767" lon="6.00567">
        <ele>1189.069610575</ele>
        <time>2015-12-16T08:35:11Z</time>
      </trkpt>
      <trkpt lat="45.59765" lon="6.00568">
        <ele>1189.069610575</ele>
        <time>2015-12-16T08:35:16Z</time>
      </trkpt>
      <trkpt lat="45.59758" lon="6.00566">
        <ele>1192.929848742</ele>
        <time>2015-12-16T08:35:27Z</time>
      </trkpt>
      <trkpt lat="45.59753" lon="6.00566">
        <ele>1192.929848742</ele>
        <time>2015-12-16T08:35:31Z</time>
      </trkpt>
      <trkpt lat="45.59753" lon="6.00568">
        <ele>1192.929848742</ele>
        <time>2015-12-16T08:35:36Z</time>
      </trkpt>
      <trkpt lat="45.59753" lon="6.00568">
        <ele>1192.929848742</ele>
        <time>2015-12-16T08:35:41Z</time>
      </trkpt>
      <trkpt lat="45.59749" lon="6.00566">
        <ele>1197.037897142</ele>
        <time>2015-12-16T08:35:46Z</time>
      </trkpt>
      <trkpt lat="45.59747" lon="6.00567">
        <ele>1197.037897142</ele>
        <time>2015-12-16T08:35:51Z</time>
      </trkpt>
      <trkpt lat="45.59744" lon="6.0057">
        <ele>1197.037897142</ele>
        <time>2015-12-16T08:35:57Z</time>
      </trkpt>
      <trkpt lat="45.59734" lon="6.00563">
        <ele>1200.937778917</ele>
        <time>2015-12-16T08:36:07Z</time>
      </trkpt>
      <trkpt lat="45.5973" lon="6.00562">
        <ele>1200.937778917</ele>
        <time>2015-12-16T08:36:13Z</time>
      </trkpt>
      <trkpt lat="45.59718" lon="6.00558">
        <ele>1204.351879973</ele>
        <time>2015-12-16T08:36:27Z</time>
      </trkpt>
      <trkpt lat="45.59717" lon="6.00559">
        <ele>1204.351879973</ele>
        <time>2015-12-16T08:36:31Z</time>
      </trkpt>
      <trkpt lat="45.59712" lon="6.00559">
        <ele>1204.351879973</ele>
        <time>2015-12-16T08:36:37Z</time>
      </trkpt>
      <trkpt lat="45.59712" lon="6.00559">
        <ele>1204.351879973</ele>
        <time>2015-12-16T08:36:41Z</time>
      </trkpt>
      <trkpt lat="45.59711" lon="6.0056">
        <ele>1204.351879973</ele>
        <time>2015-12-16T08:36:46Z</time>
      </trkpt>
      <trkpt lat="45.59709" lon="6.00554">
        <ele>1207.601389461</ele>
        <time>2015-12-16T08:36:56Z</time>
      </trkpt>
      <trkpt lat="45.59709" lon="6.00553">
        <ele>1207.601389461</ele>
        <time>2015-12-16T08:37:01Z</time>
      </trkpt>
      <trkpt lat="45.59708" lon="6.0054">
        <ele>1210.263291836</ele>
        <time>2015-12-16T08:37:11Z</time>
      </trkpt>
      <trkpt lat="45.59709" lon="6.0054">
        <ele>1210.263291836</ele>
        <time>2015-12-16T08:37:17Z</time>
      </trkpt>
      <trkpt lat="45.59706" lon="6.00541">
        <ele>1210.263291836</ele>
        <time>2015-12-16T08:37:26Z</time>
      </trkpt>
      <trkpt lat="45.59706" lon="6.00542">
        <ele>1210.263291836</ele>
        <time>2015-12-16T08:37:31Z</time>
      </trkpt>
      <trkpt lat="45.597" lon="6.0054">
        <ele>1213.245602636</ele>
        <time>2015-12-16T08:37:42Z</time>
      </trkpt>
      <trkpt lat="45.59699" lon="6.0054">
        <ele>1213.245602636</ele>
        <time>2015-12-16T08:37:46Z</time>
      </trkpt>
      <trkpt lat="45.59691" lon="6.0054">
        <ele>1216.523352262</ele>
        <time>2015-12-16T08:37:56Z</time>
      </trkpt>
      <trkpt lat="45.59688" lon="6.0054">
        <ele>1216.523352262</ele>
        <time>2015-12-16T08:38:02Z</time>
      </trkpt>
      <trkpt lat="45.59685" lon="6.00539">
        <ele>1216.523352262</ele>
        <time>2015-12-16T08:38:12Z</time>
      </trkpt>
      <trkpt lat="45.59682" lon="6.00538">
        <ele>1216.523352262</ele>
        <time>2015-12-16T08:38:17Z</time>
      </trkpt>
      <trkpt lat="45.59674" lon="6.0053">
        <ele>1220.361149109</ele>
        <time>2015-12-16T08:38:33Z</time>
      </trkpt>
      <trkpt lat="45.59668" lon="6.00529">
        <ele>1220.361149109</ele>
        <time>2015-12-16T08:38:36Z</time>
      </trkpt>
      <trkpt lat="45.59665" lon="6.00522">
        <ele>1223.992956488</ele>
        <time>2015-12-16T08:38:47Z</time>
      </trkpt>
      <trkpt lat="45.59663" lon="6.00518">
        <ele>1223.992956488</ele>
        <time>2015-12-16T08:38:52Z</time>
      </trkpt>
      <trkpt lat="45.59657" lon="6.00515">
        <ele>1227.430967621</ele>
        <time>2015-12-16T08:39:02Z</time>
      </trkpt>
      <trkpt lat="45.59656" lon="6.00514">
        <ele>1227.430967621</ele>
        <time>2015-12-16T08:39:06Z</time>
      </trkpt>
      <trkpt lat="45.5965" lon="6.00514">
        <ele>1227.430967621</ele>
        <time>2015-12-16T08:39:17Z</time>
      </trkpt>
      <trkpt lat="45.59648" lon="6.00515">
        <ele>1230.831363673</ele>
        <time>2015-12-16T08:39:21Z</time>
      </trkpt>
      <trkpt lat="45.59648" lon="6.00514">
        <ele>1230.831363673</ele>
        <time>2015-12-16T08:39:31Z</time>
      </trkpt>
      <trkpt lat="45.59647" lon="6.00514">
        <ele>1230.831363673</ele>
        <time>2015-12-16T08:39:36Z</time>
      </trkpt>
      <trkpt lat="45.59647" lon="6.00515">
        <ele>1230.831363673</ele>
        <time>2015-12-16T08:39:41Z</time>
      </trkpt>
      <trkpt lat="45.59647" lon="6.00515">
        <ele>1230.831363673</ele>
        <time>2015-12-16T08:39:46Z</time>
      </trkpt>
      <trkpt lat="45.59648" lon="6.00513">
        <ele>1230.831363673</ele>
        <time>2015-12-16T08:39:57Z</time>
      </trkpt>
      <trkpt lat="45.59646" lon="6.00513">
        <ele>1230.831363673</ele>
        <time>2015-12-16T08:40:01Z</time>
      </trkpt>
      <trkpt lat="45.59645" lon="6.00513">
        <ele>1230.831363673</ele>
        <time>2015-12-16T08:40:12Z</time>
      </trkpt>
      <trkpt lat="45.59645" lon="6.00513">
        <ele>1230.831363673</ele>
        <time>2015-12-16T08:40:17Z</time>
      </trkpt>
      <trkpt lat="45.59645" lon="6.00513">
        <ele>1230.831363673</ele>
        <time>2015-12-16T08:40:26Z</time>
      </trkpt>
      <trkpt lat="45.59645" lon="6.00513">
        <ele>1230.831363673</ele>
        <time>2015-12-16T08:40:32Z</time>
      </trkpt>
      <trkpt lat="45.59645" lon="6.00513">
        <ele>1230.831363673</ele>
        <time>2015-12-16T08:40:41Z</time>
      </trkpt>
      <trkpt lat="45.59645" lon="6.00513">
        <ele>1230.831363673</ele>
        <time>2015-12-16T08:40:46Z</time>
      </trkpt>
      <trkpt lat="45.59645" lon="6.00513">
        <ele>1230.831363673</ele>
        <time>2015-12-16T08:40:56Z</time>
      </trkpt>
      <trkpt lat="45.59645" lon="6.00513">
        <ele>1230.831363673</ele>
        <time>2015-12-16T08:41:01Z</time>
      </trkpt>
      <trkpt lat="45.59645" lon="6.00513">
        <ele>1230.831363673</ele>
        <time>2015-12-16T08:41:11Z</time>
      </trkpt>
      <trkpt lat="45.59645" lon="6.00513">
        <ele>1230.831363673</ele>
        <time>2015-12-16T08:41:16Z</time>
      </trkpt>
      <trkpt lat="45.59645" lon="6.00513">
        <ele>1230.831363673</ele>
        <time>2015-12-16T08:41:31Z</time>
      </trkpt>
      <trkpt lat="45.59645" lon="6.00513">
        <ele>1230.831363673</ele>
        <time>2015-12-16T08:41:36Z</time>
      </trkpt>
      <trkpt lat="45.59645" lon="6.00513">
        <ele>1230.831363673</ele>
        <time>2015-12-16T08:41:46Z</time>
      </trkpt>
      <trkpt lat="45.59644" lon="6.00513">
        <ele>1230.831363673</ele>
        <time>2015-12-16T08:41:51Z</time>
      </trkpt>
      <trkpt lat="45.59644" lon="6.00513">
        <ele>1230.831363673</ele>
        <time>2015-12-16T08:42:01Z</time>
      </trkpt>
      <trkpt lat="45.59644" lon="6.00513">
        <ele>1230.831363673</ele>
        <time>2015-12-16T08:42:06Z</time>
      </trkpt>
      <trkpt lat="45.59644" lon="6.00513">
        <ele>1230.831363673</ele>
        <time>2015-12-16T08:42:16Z</time>
      </trkpt>
      <trkpt lat="45.59645" lon="6.00513">
        <ele>1230.831363673</ele>
        <time>2015-12-16T08:42:21Z</time>
      </trkpt>
      <trkpt lat="45.59645" lon="6.00514">
        <ele>1230.831363673</ele>
        <time>2015-12-16T08:42:31Z</time>
      </trkpt>
      <trkpt lat="45.59645" lon="6.00514">
        <ele>1234.627494318</ele>
        <time>2015-12-16T08:42:36Z</time>
      </trkpt>
      <trkpt lat="45.59645" lon="6.00514">
        <ele>1234.627494318</ele>
        <time>2015-12-16T08:42:46Z</time>
      </trkpt>
      <trkpt lat="45.59645" lon="6.00514">
        <ele>1234.627494318</ele>
        <time>2015-12-16T08:42:51Z</time>
      </trkpt>
      <trkpt lat="45.59644" lon="6.00511">
        <ele>1234.627494318</ele>
        <time>2015-12-16T08:43:01Z</time>
      </trkpt>
      <trkpt lat="45.59644" lon="6.00511">
        <ele>1234.627494318</ele>
        <time>2015-12-16T08:43:06Z</time>
      </trkpt>
      <trkpt lat="45.59644" lon="6.00511">
        <ele>1234.627494318</ele>
        <time>2015-12-16T08:43:16Z</time>
      </trkpt>
      <trkpt lat="45.59644" lon="6.00511">
        <ele>1234.627494318</ele>
        <time>2015-12-16T08:43:21Z</time>
      </trkpt>
      <trkpt lat="45.59644" lon="6.00511">
        <ele>1234.627494318</ele>
        <time>2015-12-16T08:43:26Z</time>
      </trkpt>
      <trkpt lat="45.59644" lon="6.00511">
        <ele>1234.627494318</ele>
        <time>2015-12-16T08:43:36Z</time>
      </trkpt>
      <trkpt lat="45.59644" lon="6.00511">
        <ele>1234.627494318</ele>
        <time>2015-12-16T08:43:41Z</time>
      </trkpt>
      <trkpt lat="45.59644" lon="6.00511">
        <ele>1234.627494318</ele>
        <time>2015-12-16T08:43:51Z</time>
      </trkpt>
      <trkpt lat="45.59644" lon="6.00511">
        <ele>1234.627494318</ele>
        <time>2015-12-16T08:43:56Z</time>
      </trkpt>
      <trkpt lat="45.59644" lon="6.00511">
        <ele>1234.627494318</ele>
        <time>2015-12-16T08:44:06Z</time>
      </trkpt>
      <trkpt lat="45.59644" lon="6.00511">
        <ele>1234.627494318</ele>
        <time>2015-12-16T08:44:11Z</time>
      </trkpt>
      <trkpt lat="45.59644" lon="6.00511">
        <ele>1234.627494318</ele>
        <time>2015-12-16T08:44:21Z</time>
      </trkpt>
      <trkpt lat="45.59644" lon="6.00511">
        <ele>1234.627494318</ele>
        <time>2015-12-16T08:44:26Z</time>
      </trkpt>
      <trkpt lat="45.59644" lon="6.00511">
        <ele>1234.627494318</ele>
        <time>2015-12-16T08:44:36Z</time>
      </trkpt>
      <trkpt lat="45.59644" lon="6.00511">
        <ele>1234.627494318</ele>
        <time>2015-12-16T08:44:42Z</time>
      </trkpt>
      <trkpt lat="45.59644" lon="6.00511">
        <ele>1234.627494318</ele>
        <time>2015-12-16T08:44:56Z</time>
      </trkpt>
      <trkpt lat="45.59644" lon="6.00511">
        <ele>1234.627494318</ele>
        <time>2015-12-16T08:45:01Z</time>
      </trkpt>
      <trkpt lat="45.59644" lon="6.00511">
        <ele>1234.627494318</ele>
        <time>2015-12-16T08:45:11Z</time>
      </trkpt>
      <trkpt lat="45.59644" lon="6.00511">
        <ele>1234.627494318</ele>
        <time>2015-12-16T08:45:16Z</time>
      </trkpt>
      <trkpt lat="45.59644" lon="6.00511">
        <ele>1234.627494318</ele>
        <time>2015-12-16T08:45:26Z</time>
      </trkpt>
      <trkpt lat="45.59644" lon="6.00511">
        <ele>1234.627494318</ele>
        <time>2015-12-16T08:45:31Z</time>
      </trkpt>
      <trkpt lat="45.59644" lon="6.00511">
        <ele>1234.627494318</ele>
        <time>2015-12-16T08:45:41Z</time>
      </trkpt>
      <trkpt lat="45.59644" lon="6.00511">
        <ele>1234.627494318</ele>
        <time>2015-12-16T08:45:46Z</time>
      </trkpt>
      <trkpt lat="45.59644" lon="6.00511">
        <ele>1234.627494318</ele>
        <time>2015-12-16T08:45:58Z</time>
      </trkpt>
      <trkpt lat="45.59644" lon="6.00511">
        <ele>1234.627494318</ele>
        <time>2015-12-16T08:46:01Z</time>
      </trkpt>
      <trkpt lat="45.59644" lon="6.00511">
        <ele>1234.627494318</ele>
        <time>2015-12-16T08:46:11Z</time>
      </trkpt>
      <trkpt lat="45.59644" lon="6.00511">
        <ele>1234.627494318</ele>
        <time>2015-12-16T08:46:16Z</time>
      </trkpt>
      <trkpt lat="45.59644" lon="6.00511">
        <ele>1234.627494318</ele>
        <time>2015-12-16T08:46:26Z</time>
      </trkpt>
      <trkpt lat="45.59644" lon="6.00511">
        <ele>1234.627494318</ele>
        <time>2015-12-16T08:46:31Z</time>
      </trkpt>
      <trkpt lat="45.59644" lon="6.00511">
        <ele>1234.627494318</ele>
        <time>2015-12-16T08:46:41Z</time>
      </trkpt>
      <trkpt lat="45.59644" lon="6.00511">
        <ele>1234.627494318</ele>
        <time>2015-12-16T08:46:46Z</time>
      </trkpt>
      <trkpt lat="45.59644" lon="6.0051">
        <ele>1234.627494318</ele>
        <time>2015-12-16T08:47:01Z</time>
      </trkpt>
      <trkpt lat="45.59644" lon="6.00506">
        <ele>1234.627494318</ele>
        <time>2015-12-16T08:47:06Z</time>
      </trkpt>
      <trkpt lat="45.59639" lon="6.005">
        <ele>1238.787110011</ele>
        <time>2015-12-16T08:47:16Z</time>
      </trkpt>
      <trkpt lat="45.59639" lon="6.00497">
        <ele>1238.787110011</ele>
        <time>2015-12-16T08:47:21Z</time>
      </trkpt>
      <trkpt lat="45.59636" lon="6.00488">
        <ele>1242.269891977</ele>
        <time>2015-12-16T08:47:32Z</time>
      </trkpt>
      <trkpt lat="45.59635" lon="6.00484">
        <ele>1242.269891977</ele>
        <time>2015-12-16T08:47:36Z</time>
      </trkpt>
      <trkpt lat="45.59634" lon="6.00477">
        <ele>1242.269891977</ele>
        <time>2015-12-16T08:47:47Z</time>
      </trkpt>
      <trkpt lat="45.59632" lon="6.00475">
        <ele>1245.412057705</ele>
        <time>2015-12-16T08:47:52Z</time>
      </trkpt>
      <trkpt lat="45.59627" lon="6.00467">
        <ele>1245.412057705</ele>
        <time>2015-12-16T08:48:01Z</time>
      </trkpt>
      <trkpt lat="45.59622" lon="6.00466">
        <ele>1248.381911292</ele>
        <time>2015-12-16T08:48:07Z</time>
      </trkpt>
      <trkpt lat="45.59625" lon="6.00459">
        <ele>1248.381911292</ele>
        <time>2015-12-16T08:48:23Z</time>
      </trkpt>
      <trkpt lat="45.59628" lon="6.0046">
        <ele>1248.381911292</ele>
        <time>2015-12-16T08:48:26Z</time>
      </trkpt>
      <trkpt lat="45.59627" lon="6.00456">
        <ele>1251.191741163</ele>
        <time>2015-12-16T08:48:36Z</time>
      </trkpt>
      <trkpt lat="45.59621" lon="6.00446">
        <ele>1253.709280425</ele>
        <time>2015-12-16T08:48:51Z</time>
      </trkpt>
      <trkpt lat="45.59619" lon="6.00442">
        <ele>1253.709280425</ele>
        <time>2015-12-16T08:48:56Z</time>
      </trkpt>
      <trkpt lat="45.59618" lon="6.00433">
        <ele>1256.389630862</ele>
        <time>2015-12-16T08:49:07Z</time>
      </trkpt>
      <trkpt lat="45.59618" lon="6.00428">
        <ele>1256.389630862</ele>
        <time>2015-12-16T08:49:11Z</time>
      </trkpt>
      <trkpt lat="45.59618" lon="6.00424">
        <ele>1256.389630862</ele>
        <time>2015-12-16T08:49:22Z</time>
      </trkpt>
      <trkpt lat="45.59622" lon="6.00425">
        <ele>1258.500595472</ele>
        <time>2015-12-16T08:49:27Z</time>
      </trkpt>
      <trkpt lat="45.59626" lon="6.00427">
        <ele>1258.500595472</ele>
        <time>2015-12-16T08:49:43Z</time>
      </trkpt>
      <trkpt lat="45.59627" lon="6.00425">
        <ele>1258.500595472</ele>
        <time>2015-12-16T08:49:47Z</time>
      </trkpt>
      <trkpt lat="45.59625" lon="6.00421">
        <ele>1261.095569179</ele>
        <time>2015-12-16T08:49:52Z</time>
      </trkpt>
      <trkpt lat="45.59624" lon="6.00418">
        <ele>1261.095569179</ele>
        <time>2015-12-16T08:49:56Z</time>
      </trkpt>
      <trkpt lat="45.59623" lon="6.00415">
        <ele>1261.095569179</ele>
        <time>2015-12-16T08:50:02Z</time>
      </trkpt>
      <trkpt lat="45.59624" lon="6.00409">
        <ele>1261.095569179</ele>
        <time>2015-12-16T08:50:12Z</time>
      </trkpt>
      <trkpt lat="45.59626" lon="6.00411">
        <ele>1264.428263793</ele>
        <time>2015-12-16T08:50:16Z</time>
      </trkpt>
      <trkpt lat="45.59631" lon="6.00413">
        <ele>1264.428263793</ele>
        <time>2015-12-16T08:50:26Z</time>
      </trkpt>
      <trkpt lat="45.59633" lon="6.00408">
        <ele>1264.428263793</ele>
        <time>2015-12-16T08:50:32Z</time>
      </trkpt>
      <trkpt lat="45.59633" lon="6.00407">
        <ele>1267.578468295</ele>
        <time>2015-12-16T08:50:46Z</time>
      </trkpt>
      <trkpt lat="45.59635" lon="6.00402">
        <ele>1267.578468295</ele>
        <time>2015-12-16T08:50:51Z</time>
      </trkpt>
      <trkpt lat="45.59634" lon="6.00385">
        <ele>1270.559171789</ele>
        <time>2015-12-16T08:51:03Z</time>
      </trkpt>
      <trkpt lat="45.59634" lon="6.00374">
        <ele>1270.559171789</ele>
        <time>2015-12-16T08:51:06Z</time>
      </trkpt>
      <trkpt lat="45.59637" lon="6.00361">
        <ele>1272.950495067</ele>
        <time>2015-12-16T08:51:16Z</time>
      </trkpt>
      <trkpt lat="45.59637" lon="6.00356">
        <ele>1272.950495067</ele>
        <time>2015-12-16T08:51:21Z</time>
      </trkpt>
      <trkpt lat="45.5964" lon="6.00348">
        <ele>1275.229972159</ele>
        <time>2015-12-16T08:51:31Z</time>
      </trkpt>
      <trkpt lat="45.5964" lon="6.00345">
        <ele>1275.229972159</ele>
        <time>2015-12-16T08:51:36Z</time>
      </trkpt>
      <trkpt lat="45.5964" lon="6.00332">
        <ele>1277.984472236</ele>
        <time>2015-12-16T08:51:47Z</time>
      </trkpt>
      <trkpt lat="45.5964" lon="6.00326">
        <ele>1277.984472236</ele>
        <time>2015-12-16T08:51:51Z</time>
      </trkpt>
      <trkpt lat="45.59638" lon="6.00313">
        <ele>1280.170961208</ele>
        <time>2015-12-16T08:52:01Z</time>
      </trkpt>
      <trkpt lat="45.59636" lon="6.00305">
        <ele>1280.170961208</ele>
        <time>2015-12-16T08:52:07Z</time>
      </trkpt>
      <trkpt lat="45.59637" lon="6.003">
        <ele>1282.265997167</ele>
        <time>2015-12-16T08:52:16Z</time>
      </trkpt>
      <trkpt lat="45.59634" lon="6.00298">
        <ele>1282.265997167</ele>
        <time>2015-12-16T08:52:21Z</time>
      </trkpt>
      <trkpt lat="45.5963" lon="6.00296">
        <ele>1282.265997167</ele>
        <time>2015-12-16T08:52:32Z</time>
      </trkpt>
      <trkpt lat="45.5963" lon="6.00296">
        <ele>1282.265997167</ele>
        <time>2015-12-16T08:52:36Z</time>
      </trkpt>
      <trkpt lat="45.59631" lon="6.00296">
        <ele>1282.265997167</ele>
        <time>2015-12-16T08:52:52Z</time>
      </trkpt>
      <trkpt lat="45.59631" lon="6.00296">
        <ele>1282.265997167</ele>
        <time>2015-12-16T08:52:56Z</time>
      </trkpt>
      <trkpt lat="45.59635" lon="6.00296">
        <ele>1284.134859898</ele>
        <time>2015-12-16T08:53:07Z</time>
      </trkpt>
      <trkpt lat="45.59637" lon="6.00293">
        <ele>1284.134859898</ele>
        <time>2015-12-16T08:53:12Z</time>
      </trkpt>
      <trkpt lat="45.59638" lon="6.00293">
        <ele>1284.134859898</ele>
        <time>2015-12-16T08:53:21Z</time>
      </trkpt>
      <trkpt lat="45.59638" lon="6.0029">
        <ele>1284.134859898</ele>
        <time>2015-12-16T08:53:26Z</time>
      </trkpt>
      <trkpt lat="45.5964" lon="6.00273">
        <ele>1286.08573109</ele>
        <time>2015-12-16T08:53:37Z</time>
      </trkpt>
      <trkpt lat="45.59639" lon="6.00271">
        <ele>1286.08573109</ele>
        <time>2015-12-16T08:53:42Z</time>
      </trkpt>
      <trkpt lat="45.5964" lon="6.00266">
        <ele>1286.08573109</ele>
        <time>2015-12-16T08:53:52Z</time>
      </trkpt>
      <trkpt lat="45.59641" lon="6.0026">
        <ele>1287.106829172</ele>
        <time>2015-12-16T08:53:56Z</time>
      </trkpt>
      <trkpt lat="45.59637" lon="6.00246">
        <ele>1287.992732123</ele>
        <time>2015-12-16T08:54:07Z</time>
      </trkpt>
      <trkpt lat="45.59635" lon="6.00239">
        <ele>1287.992732123</ele>
        <time>2015-12-16T08:54:12Z</time>
      </trkpt>
      <trkpt lat="45.59632" lon="6.00229">
        <ele>1289.912305366</ele>
        <time>2015-12-16T08:54:21Z</time>
      </trkpt>
      <trkpt lat="45.5963" lon="6.00226">
        <ele>1289.912305366</ele>
        <time>2015-12-16T08:54:27Z</time>
      </trkpt>
      <trkpt lat="45.5963" lon="6.00221">
        <ele>1289.912305366</ele>
        <time>2015-12-16T08:54:41Z</time>
      </trkpt>
      <trkpt lat="45.5963" lon="6.0022">
        <ele>1289.912305366</ele>
        <time>2015-12-16T08:54:46Z</time>
      </trkpt>
      <trkpt lat="45.59627" lon="6.00207">
        <ele>1291.783860412</ele>
        <time>2015-12-16T08:54:56Z</time>
      </trkpt>
      <trkpt lat="45.59626" lon="6.00201">
        <ele>1291.783860412</ele>
        <time>2015-12-16T08:55:01Z</time>
      </trkpt>
      <trkpt lat="45.59623" lon="6.00187">
        <ele>1293.758191202</ele>
        <time>2015-12-16T08:55:12Z</time>
      </trkpt>
      <trkpt lat="45.59621" lon="6.00183">
        <ele>1293.758191202</ele>
        <time>2015-12-16T08:55:16Z</time>
      </trkpt>
      <trkpt lat="45.59617" lon="6.00174">
        <ele>1294.389419399</ele>
        <time>2015-12-16T08:55:27Z</time>
      </trkpt>
      <trkpt lat="45.59614" lon="6.00167">
        <ele>1294.389419399</ele>
        <time>2015-12-16T08:55:32Z</time>
      </trkpt>
      <trkpt lat="45.59612" lon="6.00159">
        <ele>1295.223847181</ele>
        <time>2015-12-16T08:55:41Z</time>
      </trkpt>
      <trkpt lat="45.59612" lon="6.00158">
        <ele>1295.223847181</ele>
        <time>2015-12-16T08:55:47Z</time>
      </trkpt>
      <trkpt lat="45.59612" lon="6.00143">
        <ele>1295.96417333</ele>
        <time>2015-12-16T08:55:56Z</time>
      </trkpt>
      <trkpt lat="45.59611" lon="6.0014">
        <ele>1295.96417333</ele>
        <time>2015-12-16T08:56:01Z</time>
      </trkpt>
      <trkpt lat="45.59614" lon="6.00123">
        <ele>1295.902773876</ele>
        <time>2015-12-16T08:56:12Z</time>
      </trkpt>
      <trkpt lat="45.59617" lon="6.00118">
        <ele>1295.902773876</ele>
        <time>2015-12-16T08:56:16Z</time>
      </trkpt>
      <trkpt lat="45.59625" lon="6.00105">
        <ele>1298.421307609</ele>
        <time>2015-12-16T08:56:27Z</time>
      </trkpt>
      <trkpt lat="45.59627" lon="6.00098">
        <ele>1298.421307609</ele>
        <time>2015-12-16T08:56:32Z</time>
      </trkpt>
      <trkpt lat="45.5964" lon="6.00077">
        <ele>1298.719477856</ele>
        <time>2015-12-16T08:56:47Z</time>
      </trkpt>
      <trkpt lat="45.59641" lon="6.00073">
        <ele>1298.719477856</ele>
        <time>2015-12-16T08:56:51Z</time>
      </trkpt>
      <trkpt lat="45.59644" lon="6.0006">
        <ele>1299.273132276</ele>
        <time>2015-12-16T08:57:01Z</time>
      </trkpt>
      <trkpt lat="45.59647" lon="6.00054">
        <ele>1299.273132276</ele>
        <time>2015-12-16T08:57:07Z</time>
      </trkpt>
      <trkpt lat="45.59654" lon="6.00053">
        <ele>1298.7725797</ele>
        <time>2015-12-16T08:57:17Z</time>
      </trkpt>
      <trkpt lat="45.59657" lon="6.0005">
        <ele>1298.7725797</ele>
        <time>2015-12-16T08:57:21Z</time>
      </trkpt>
      <trkpt lat="45.59664" lon="6.00043">
        <ele>1297.736512652</ele>
        <time>2015-12-16T08:57:32Z</time>
      </trkpt>
      <trkpt lat="45.59666" lon="6.00039">
        <ele>1297.736512652</ele>
        <time>2015-12-16T08:57:37Z</time>
      </trkpt>
      <trkpt lat="45.5967" lon="6.00026">
        <ele>1297.943898502</ele>
        <time>2015-12-16T08:57:46Z</time>
      </trkpt>
      <trkpt lat="45.59673" lon="6.00019">
        <ele>1297.943898502</ele>
        <time>2015-12-16T08:57:52Z</time>
      </trkpt>
      <trkpt lat="45.59681" lon="6.00011">
        <ele>1298.012985531</ele>
        <time>2015-12-16T08:58:01Z</time>
      </trkpt>
      <trkpt lat="45.59679" lon="6.00007">
        <ele>1298.012985531</ele>
        <time>2015-12-16T08:58:07Z</time>
      </trkpt>
      <trkpt lat="45.59678" lon="6.00005">
        <ele>1298.012985531</ele>
        <time>2015-12-16T08:58:17Z</time>
      </trkpt>
      <trkpt lat="45.59676" lon="5.99996">
        <ele>1297.672530023</ele>
        <time>2015-12-16T08:58:22Z</time>
      </trkpt>
      <trkpt lat="45.59671" lon="5.99981">
        <ele>1297.248633748</ele>
        <time>2015-12-16T08:58:32Z</time>
      </trkpt>
      <trkpt lat="45.59673" lon="5.99976">
        <ele>1297.248633748</ele>
        <time>2015-12-16T08:58:37Z</time>
      </trkpt>
      <trkpt lat="45.59676" lon="5.99964">
        <ele>1296.899370113</ele>
        <time>2015-12-16T08:58:47Z</time>
      </trkpt>
      <trkpt lat="45.59674" lon="5.9996">
        <ele>1296.899370113</ele>
        <time>2015-12-16T08:58:52Z</time>
      </trkpt>
      <trkpt lat="45.59675" lon="5.99952">
        <ele>1296.6266752</ele>
        <time>2015-12-16T08:58:56Z</time>
      </trkpt>
      <trkpt lat="45.59679" lon="5.99941">
        <ele>1296.6266752</ele>
        <time>2015-12-16T08:59:07Z</time>
      </trkpt>
      <trkpt lat="45.59682" lon="5.99936">
        <ele>1295.855459382</ele>
        <time>2015-12-16T08:59:12Z</time>
      </trkpt>
      <trkpt lat="45.59692" lon="5.99926">
        <ele>1294.486404628</ele>
        <time>2015-12-16T08:59:22Z</time>
      </trkpt>
      <trkpt lat="45.59692" lon="5.99927">
        <ele>1294.486404628</ele>
        <time>2015-12-16T08:59:28Z</time>
      </trkpt>
      <trkpt lat="45.59691" lon="5.99921">
        <ele>1294.486404628</ele>
        <time>2015-12-16T08:59:37Z</time>
      </trkpt>
      <trkpt lat="45.5969" lon="5.9992">
        <ele>1294.486404628</ele>
        <time>2015-12-16T08:59:42Z</time>
      </trkpt>
      <trkpt lat="45.59693" lon="5.9991">
        <ele>1294.01420547</ele>
        <time>2015-12-16T08:59:57Z</time>
      </trkpt>
      <trkpt lat="45.59692" lon="5.9991">
        <ele>1294.01420547</ele>
        <time>2015-12-16T09:00:01Z</time>
      </trkpt>
      <trkpt lat="45.59694" lon="5.99907">
        <ele>1294.01420547</ele>
        <time>2015-12-16T09:00:11Z</time>
      </trkpt>
      <trkpt lat="45.59694" lon="5.99906">
        <ele>1294.01420547</ele>
        <time>2015-12-16T09:00:17Z</time>
      </trkpt>
      <trkpt lat="45.59695" lon="5.99906">
        <ele>1294.01420547</ele>
        <time>2015-12-16T09:00:31Z</time>
      </trkpt>
      <trkpt lat="45.59693" lon="5.999">
        <ele>1294.01420547</ele>
        <time>2015-12-16T09:00:46Z</time>
      </trkpt>
      <trkpt lat="45.59693" lon="5.999">
        <ele>1294.01420547</ele>
        <time>2015-12-16T09:00:52Z</time>
      </trkpt>
      <trkpt lat="45.59693" lon="5.99901">
        <ele>1294.01420547</ele>
        <time>2015-12-16T09:01:02Z</time>
      </trkpt>
      <trkpt lat="45.59693" lon="5.99901">
        <ele>1294.01420547</ele>
        <time>2015-12-16T09:01:06Z</time>
      </trkpt>
      <trkpt lat="45.59693" lon="5.99901">
        <ele>1294.01420547</ele>
        <time>2015-12-16T09:01:17Z</time>
      </trkpt>
      <trkpt lat="45.59693" lon="5.99901">
        <ele>1294.01420547</ele>
        <time>2015-12-16T09:01:21Z</time>
      </trkpt>
      <trkpt lat="45.59692" lon="5.99899">
        <ele>1293.659284725</ele>
        <time>2015-12-16T09:01:31Z</time>
      </trkpt>
      <trkpt lat="45.59693" lon="5.99898">
        <ele>1293.659284725</ele>
        <time>2015-12-16T09:01:36Z</time>
      </trkpt>
      <trkpt lat="45.59692" lon="5.99898">
        <ele>1293.659284725</ele>
        <time>2015-12-16T09:01:46Z</time>
      </trkpt>
      <trkpt lat="45.59695" lon="5.99901">
        <ele>1293.659284725</ele>
        <time>2015-12-16T09:01:51Z</time>
      </trkpt>
      <trkpt lat="45.59696" lon="5.999">
        <ele>1293.659284725</ele>
        <time>2015-12-16T09:02:01Z</time>
      </trkpt>
      <trkpt lat="45.59696" lon="5.999">
        <ele>1293.659284725</ele>
        <time>2015-12-16T09:02:06Z</time>
      </trkpt>
      <trkpt lat="45.59696" lon="5.999">
        <ele>1293.659284725</ele>
        <time>2015-12-16T09:02:16Z</time>
      </trkpt>
      <trkpt lat="45.59696" lon="5.999">
        <ele>1293.659284725</ele>
        <time>2015-12-16T09:02:21Z</time>
      </trkpt>
      <trkpt lat="45.59705" lon="5.99897">
        <ele>1293.563458202</ele>
        <time>2015-12-16T09:02:36Z</time>
      </trkpt>
      <trkpt lat="45.59717" lon="5.99889">
        <ele>1293.136585266</ele>
        <time>2015-12-16T09:02:52Z</time>
      </trkpt>
      <trkpt lat="45.59721" lon="5.99885">
        <ele>1293.136585266</ele>
        <time>2015-12-16T09:02:57Z</time>
      </trkpt>
      <trkpt lat="45.59721" lon="5.99882">
        <ele>1293.136585266</ele>
        <time>2015-12-16T09:03:07Z</time>
      </trkpt>
      <trkpt lat="45.59726" lon="5.99876">
        <ele>1292.841371781</ele>
        <time>2015-12-16T09:03:12Z</time>
      </trkpt>
      <trkpt lat="45.59726" lon="5.99873">
        <ele>1292.841371781</ele>
        <time>2015-12-16T09:03:22Z</time>
      </trkpt>
      <trkpt lat="45.59726" lon="5.99871">
        <ele>1292.841371781</ele>
        <time>2015-12-16T09:03:26Z</time>
      </trkpt>
      <trkpt lat="45.59726" lon="5.99857">
        <ele>1293.538269987</ele>
        <time>2015-12-16T09:03:37Z</time>
      </trkpt>
      <trkpt lat="45.59724" lon="5.99855">
        <ele>1293.538269987</ele>
        <time>2015-12-16T09:03:41Z</time>
      </trkpt>
      <trkpt lat="45.59721" lon="5.99842">
        <ele>1294.292134875</ele>
        <time>2015-12-16T09:03:52Z</time>
      </trkpt>
      <trkpt lat="45.5972" lon="5.99839">
        <ele>1294.292134875</ele>
        <time>2015-12-16T09:03:57Z</time>
      </trkpt>
      <trkpt lat="45.59717" lon="5.99827">
        <ele>1295.389051172</ele>
        <time>2015-12-16T09:04:06Z</time>
      </trkpt>
      <trkpt lat="45.59716" lon="5.99821">
        <ele>1295.389051172</ele>
        <time>2015-12-16T09:04:12Z</time>
      </trkpt>
      <trkpt lat="45.59712" lon="5.99809">
        <ele>1295.939999894</ele>
        <time>2015-12-16T09:04:22Z</time>
      </trkpt>
      <trkpt lat="45.59713" lon="5.99806">
        <ele>1295.939999894</ele>
        <time>2015-12-16T09:04:26Z</time>
      </trkpt>
      <trkpt lat="45.59724" lon="5.99798">
        <ele>1296.419625628</ele>
        <time>2015-12-16T09:04:37Z</time>
      </trkpt>
      <trkpt lat="45.59729" lon="5.99793">
        <ele>1296.419625628</ele>
        <time>2015-12-16T09:04:41Z</time>
      </trkpt>
      <trkpt lat="45.5973" lon="5.9978">
        <ele>1297.123597223</ele>
        <time>2015-12-16T09:04:56Z</time>
      </trkpt>
      <trkpt lat="45.59733" lon="5.99776">
        <ele>1297.123597223</ele>
        <time>2015-12-16T09:05:02Z</time>
      </trkpt>
      <trkpt lat="45.59737" lon="5.9976">
        <ele>1297.748596996</ele>
        <time>2015-12-16T09:05:11Z</time>
      </trkpt>
      <trkpt lat="45.59738" lon="5.99753">
        <ele>1297.748596996</ele>
        <time>2015-12-16T09:05:17Z</time>
      </trkpt>
      <trkpt lat="45.59739" lon="5.99747">
        <ele>1298.878316971</ele>
        <time>2015-12-16T09:05:26Z</time>
      </trkpt>
      <trkpt lat="45.59745" lon="5.9974">
        <ele>1298.878316971</ele>
        <time>2015-12-16T09:05:32Z</time>
      </trkpt>
      <trkpt lat="45.59752" lon="5.99723">
        <ele>1299.899086868</ele>
        <time>2015-12-16T09:05:42Z</time>
      </trkpt>
      <trkpt lat="45.59754" lon="5.99717">
        <ele>1299.899086868</ele>
        <time>2015-12-16T09:05:46Z</time>
      </trkpt>
      <trkpt lat="45.59761" lon="5.99708">
        <ele>1300.3865849</ele>
        <time>2015-12-16T09:05:57Z</time>
      </trkpt>
      <trkpt lat="45.59763" lon="5.99706">
        <ele>1300.3865849</ele>
        <time>2015-12-16T09:06:02Z</time>
      </trkpt>
      <trkpt lat="45.59766" lon="5.99706">
        <ele>1300.3865849</ele>
        <time>2015-12-16T09:06:17Z</time>
      </trkpt>
      <trkpt lat="45.59766" lon="5.99707">
        <ele>1300.3865849</ele>
        <time>2015-12-16T09:06:21Z</time>
      </trkpt>
      <trkpt lat="45.59766" lon="5.99707">
        <ele>1300.3865849</ele>
        <time>2015-12-16T09:06:32Z</time>
      </trkpt>
      <trkpt lat="45.59767" lon="5.99706">
        <ele>1300.3865849</ele>
        <time>2015-12-16T09:06:37Z</time>
      </trkpt>
      <trkpt lat="45.59767" lon="5.99707">
        <ele>1300.3865849</ele>
        <time>2015-12-16T09:06:41Z</time>
      </trkpt>
      <trkpt lat="45.59767" lon="5.99707">
        <ele>1300.3865849</ele>
        <time>2015-12-16T09:06:46Z</time>
      </trkpt>
      <trkpt lat="45.59767" lon="5.99708">
        <ele>1300.957801666</ele>
        <time>2015-12-16T09:06:51Z</time>
      </trkpt>
      <trkpt lat="45.59768" lon="5.99708">
        <ele>1300.957801666</ele>
        <time>2015-12-16T09:06:56Z</time>
      </trkpt>
      <trkpt lat="45.59769" lon="5.99708">
        <ele>1300.957801666</ele>
        <time>2015-12-16T09:07:01Z</time>
      </trkpt>
      <trkpt lat="45.59769" lon="5.99708">
        <ele>1300.957801666</ele>
        <time>2015-12-16T09:07:06Z</time>
      </trkpt>
      <trkpt lat="45.59769" lon="5.99708">
        <ele>1300.957801666</ele>
        <time>2015-12-16T09:07:11Z</time>
      </trkpt>
      <trkpt lat="45.59769" lon="5.99708">
        <ele>1300.957801666</ele>
        <time>2015-12-16T09:07:16Z</time>
      </trkpt>
      <trkpt lat="45.59774" lon="5.9971">
        <ele>1300.957801666</ele>
        <time>2015-12-16T09:07:21Z</time>
      </trkpt>
      <trkpt lat="45.59782" lon="5.99713">
        <ele>1301.031132831</ele>
        <time>2015-12-16T09:07:37Z</time>
      </trkpt>
      <trkpt lat="45.59782" lon="5.99712">
        <ele>1301.031132831</ele>
        <time>2015-12-16T09:07:47Z</time>
      </trkpt>
      <trkpt lat="45.59785" lon="5.99713">
        <ele>1301.031132831</ele>
        <time>2015-12-16T09:07:52Z</time>
      </trkpt>
      <trkpt lat="45.59786" lon="5.99713">
        <ele>1301.031132831</ele>
        <time>2015-12-16T09:07:57Z</time>
      </trkpt>
      <trkpt lat="45.59787" lon="5.9971">
        <ele>1301.031132831</ele>
        <time>2015-12-16T09:08:07Z</time>
      </trkpt>
      <trkpt lat="45.59787" lon="5.9971">
        <ele>1301.031132831</ele>
        <time>2015-12-16T09:08:11Z</time>
      </trkpt>
      <trkpt lat="45.59792" lon="5.99711">
        <ele>1300.06896689</ele>
        <time>2015-12-16T09:08:22Z</time>
      </trkpt>
      <trkpt lat="45.59792" lon="5.99711">
        <ele>1300.06896689</ele>
        <time>2015-12-16T09:08:26Z</time>
      </trkpt>
      <trkpt lat="45.59792" lon="5.99711">
        <ele>1300.06896689</ele>
        <time>2015-12-16T09:08:37Z</time>
      </trkpt>
      <trkpt lat="45.59792" lon="5.99711">
        <ele>1300.06896689</ele>
        <time>2015-12-16T09:08:41Z</time>
      </trkpt>
      <trkpt lat="45.59799" lon="5.99703">
        <ele>1300.06896689</ele>
        <time>2015-12-16T09:08:52Z</time>
      </trkpt>
      <trkpt lat="45.59807" lon="5.99706">
        <ele>1298.440633197</ele>
        <time>2015-12-16T09:08:57Z</time>
      </trkpt>
      <trkpt lat="45.59815" lon="5.99695">
        <ele>1297.066511758</ele>
        <time>2015-12-16T09:09:06Z</time>
      </trkpt>
      <trkpt lat="45.59815" lon="5.99688">
        <ele>1297.066511758</ele>
        <time>2015-12-16T09:09:11Z</time>
      </trkpt>
      <trkpt lat="45.59817" lon="5.99669">
        <ele>1296.65440668</ele>
        <time>2015-12-16T09:09:21Z</time>
      </trkpt>
      <trkpt lat="45.59816" lon="5.99665">
        <ele>1296.65440668</ele>
        <time>2015-12-16T09:09:27Z</time>
      </trkpt>
      <trkpt lat="45.59822" lon="5.9964">
        <ele>1296.127945093</ele>
        <time>2015-12-16T09:09:42Z</time>
      </trkpt>
      <trkpt lat="45.59827" lon="5.99621">
        <ele>1295.787007384</ele>
        <time>2015-12-16T09:09:57Z</time>
      </trkpt>
      <trkpt lat="45.59827" lon="5.99618">
        <ele>1295.787007384</ele>
        <time>2015-12-16T09:10:02Z</time>
      </trkpt>
      <trkpt lat="45.59826" lon="5.99608">
        <ele>1295.787007384</ele>
        <time>2015-12-16T09:10:11Z</time>
      </trkpt>
      <trkpt lat="45.59825" lon="5.99606">
        <ele>1296.197004763</ele>
        <time>2015-12-16T09:10:17Z</time>
      </trkpt>
      <trkpt lat="45.59824" lon="5.996">
        <ele>1296.197004763</ele>
        <time>2015-12-16T09:10:27Z</time>
      </trkpt>
      <trkpt lat="45.59825" lon="5.99599">
        <ele>1296.197004763</ele>
        <time>2015-12-16T09:10:31Z</time>
      </trkpt>
      <trkpt lat="45.59824" lon="5.99599">
        <ele>1296.197004763</ele>
        <time>2015-12-16T09:10:42Z</time>
      </trkpt>
      <trkpt lat="45.59824" lon="5.99599">
        <ele>1296.197004763</ele>
        <time>2015-12-16T09:10:46Z</time>
      </trkpt>
      <trkpt lat="45.59824" lon="5.99599">
        <ele>1296.197004763</ele>
        <time>2015-12-16T09:10:57Z</time>
      </trkpt>
      <trkpt lat="45.59824" lon="5.99599">
        <ele>1296.197004763</ele>
        <time>2015-12-16T09:11:01Z</time>
      </trkpt>
      <trkpt lat="45.59824" lon="5.99599">
        <ele>1296.197004763</ele>
        <time>2015-12-16T09:11:11Z</time>
      </trkpt>
      <trkpt lat="45.59825" lon="5.996">
        <ele>1296.197004763</ele>
        <time>2015-12-16T09:11:16Z</time>
      </trkpt>
      <trkpt lat="45.59824" lon="5.996">
        <ele>1296.197004763</ele>
        <time>2015-12-16T09:11:26Z</time>
      </trkpt>
      <trkpt lat="45.59824" lon="5.996">
        <ele>1296.197004763</ele>
        <time>2015-12-16T09:11:31Z</time>
      </trkpt>
      <trkpt lat="45.59824" lon="5.996">
        <ele>1296.197004763</ele>
        <time>2015-12-16T09:11:36Z</time>
      </trkpt>
      <trkpt lat="45.59824" lon="5.996">
        <ele>1296.197004763</ele>
        <time>2015-12-16T09:11:46Z</time>
      </trkpt>
      <trkpt lat="45.59824" lon="5.996">
        <ele>1296.197004763</ele>
        <time>2015-12-16T09:11:51Z</time>
      </trkpt>
      <trkpt lat="45.59824" lon="5.996">
        <ele>1296.197004763</ele>
        <time>2015-12-16T09:12:01Z</time>
      </trkpt>
      <trkpt lat="45.59824" lon="5.996">
        <ele>1296.197004763</ele>
        <time>2015-12-16T09:12:06Z</time>
      </trkpt>
      <trkpt lat="45.59825" lon="5.99601">
        <ele>1296.870789641</ele>
        <time>2015-12-16T09:12:16Z</time>
      </trkpt>
      <trkpt lat="45.59825" lon="5.99602">
        <ele>1296.870789641</ele>
        <time>2015-12-16T09:12:21Z</time>
      </trkpt>
      <trkpt lat="45.59824" lon="5.99602">
        <ele>1296.870789641</ele>
        <time>2015-12-16T09:12:32Z</time>
      </trkpt>
      <trkpt lat="45.59824" lon="5.99602">
        <ele>1296.870789641</ele>
        <time>2015-12-16T09:12:36Z</time>
      </trkpt>
      <trkpt lat="45.59824" lon="5.99602">
        <ele>1296.870789641</ele>
        <time>2015-12-16T09:12:46Z</time>
      </trkpt>
      <trkpt lat="45.59824" lon="5.99602">
        <ele>1296.870789641</ele>
        <time>2015-12-16T09:12:51Z</time>
      </trkpt>
      <trkpt lat="45.59823" lon="5.99597">
        <ele>1296.870789641</ele>
        <time>2015-12-16T09:13:01Z</time>
      </trkpt>
      <trkpt lat="45.59823" lon="5.99597">
        <ele>1296.870789641</ele>
        <time>2015-12-16T09:13:06Z</time>
      </trkpt>
      <trkpt lat="45.59823" lon="5.99596">
        <ele>1296.870789641</ele>
        <time>2015-12-16T09:13:16Z</time>
      </trkpt>
      <trkpt lat="45.59823" lon="5.99596">
        <ele>1296.870789641</ele>
        <time>2015-12-16T09:13:21Z</time>
      </trkpt>
      <trkpt lat="45.59823" lon="5.99596">
        <ele>1296.870789641</ele>
        <time>2015-12-16T09:13:31Z</time>
      </trkpt>
      <trkpt lat="45.59823" lon="5.99596">
        <ele>1296.870789641</ele>
        <time>2015-12-16T09:13:36Z</time>
      </trkpt>
      <trkpt lat="45.59834" lon="5.99599">
        <ele>1298.364912504</ele>
        <time>2015-12-16T09:13:52Z</time>
      </trkpt>
      <trkpt lat="45.59836" lon="5.99597">
        <ele>1298.364912504</ele>
        <time>2015-12-16T09:13:56Z</time>
      </trkpt>
      <trkpt lat="45.59839" lon="5.99592">
        <ele>1298.364912504</ele>
        <time>2015-12-16T09:14:07Z</time>
      </trkpt>
      <trkpt lat="45.59839" lon="5.99589">
        <ele>1298.364912504</ele>
        <time>2015-12-16T09:14:11Z</time>
      </trkpt>
      <trkpt lat="45.59837" lon="5.99585">
        <ele>1299.895620455</ele>
        <time>2015-12-16T09:14:22Z</time>
      </trkpt>
      <trkpt lat="45.59837" lon="5.99581">
        <ele>1299.895620455</ele>
        <time>2015-12-16T09:14:27Z</time>
      </trkpt>
      <trkpt lat="45.59832" lon="5.99562">
        <ele>1301.168865094</ele>
        <time>2015-12-16T09:14:42Z</time>
      </trkpt>
      <trkpt lat="45.59829" lon="5.99553">
        <ele>1301.168865094</ele>
        <time>2015-12-16T09:14:47Z</time>
      </trkpt>
      <trkpt lat="45.59824" lon="5.99541">
        <ele>1303.209837253</ele>
        <time>2015-12-16T09:14:57Z</time>
      </trkpt>
      <trkpt lat="45.59825" lon="5.99534">
        <ele>1303.209837253</ele>
        <time>2015-12-16T09:15:01Z</time>
      </trkpt>
      <trkpt lat="45.59826" lon="5.99532">
        <ele>1303.209837253</ele>
        <time>2015-12-16T09:15:12Z</time>
      </trkpt>
      <trkpt lat="45.59827" lon="5.99527">
        <ele>1303.939857624</ele>
        <time>2015-12-16T09:15:17Z</time>
      </trkpt>
      <trkpt lat="45.59831" lon="5.99511">
        <ele>1304.895236749</ele>
        <time>2015-12-16T09:15:27Z</time>
      </trkpt>
      <trkpt lat="45.59828" lon="5.99503">
        <ele>1304.895236749</ele>
        <time>2015-12-16T09:15:31Z</time>
      </trkpt>
      <trkpt lat="45.59827" lon="5.99492">
        <ele>1305.769416649</ele>
        <time>2015-12-16T09:15:42Z</time>
      </trkpt>
      <trkpt lat="45.59828" lon="5.99487">
        <ele>1305.769416649</ele>
        <time>2015-12-16T09:15:47Z</time>
      </trkpt>
      <trkpt lat="45.59822" lon="5.99475">
        <ele>1306.710885272</ele>
        <time>2015-12-16T09:15:58Z</time>
      </trkpt>
      <trkpt lat="45.59823" lon="5.99469">
        <ele>1306.710885272</ele>
        <time>2015-12-16T09:16:01Z</time>
      </trkpt>
      <trkpt lat="45.59827" lon="5.99452">
        <ele>1307.424672487</ele>
        <time>2015-12-16T09:16:12Z</time>
      </trkpt>
      <trkpt lat="45.59829" lon="5.99442">
        <ele>1307.424672487</ele>
        <time>2015-12-16T09:16:17Z</time>
      </trkpt>
      <trkpt lat="45.59835" lon="5.99427">
        <ele>1308.358650546</ele>
        <time>2015-12-16T09:16:26Z</time>
      </trkpt>
      <trkpt lat="45.59838" lon="5.99425">
        <ele>1308.358650546</ele>
        <time>2015-12-16T09:16:31Z</time>
      </trkpt>
      <trkpt lat="45.59846" lon="5.99416">
        <ele>1308.486045898</ele>
        <time>2015-12-16T09:16:46Z</time>
      </trkpt>
      <trkpt lat="45.59849" lon="5.99415">
        <ele>1308.486045898</ele>
        <time>2015-12-16T09:16:51Z</time>
      </trkpt>
      <trkpt lat="45.59859" lon="5.99415">
        <ele>1307.57831627</ele>
        <time>2015-12-16T09:17:01Z</time>
      </trkpt>
      <trkpt lat="45.59863" lon="5.99419">
        <ele>1307.57831627</ele>
        <time>2015-12-16T09:17:06Z</time>
      </trkpt>
      <trkpt lat="45.59867" lon="5.99412">
        <ele>1307.155932647</ele>
        <time>2015-12-16T09:17:16Z</time>
      </trkpt>
      <trkpt lat="45.5987" lon="5.99413">
        <ele>1307.155932647</ele>
        <time>2015-12-16T09:17:22Z</time>
      </trkpt>
      <trkpt lat="45.59873" lon="5.99411">
        <ele>1307.155932647</ele>
        <time>2015-12-16T09:17:31Z</time>
      </trkpt>
      <trkpt lat="45.59874" lon="5.99411">
        <ele>1307.155932647</ele>
        <time>2015-12-16T09:17:37Z</time>
      </trkpt>
      <trkpt lat="45.59879" lon="5.99411">
        <ele>1305.888180191</ele>
        <time>2015-12-16T09:17:46Z</time>
      </trkpt>
      <trkpt lat="45.59884" lon="5.99405">
        <ele>1305.888180191</ele>
        <time>2015-12-16T09:17:52Z</time>
      </trkpt>
      <trkpt lat="45.59888" lon="5.99403">
        <ele>1304.56200066</ele>
        <time>2015-12-16T09:18:02Z</time>
      </trkpt>
      <trkpt lat="45.59889" lon="5.99401">
        <ele>1304.56200066</ele>
        <time>2015-12-16T09:18:06Z</time>
      </trkpt>
      <trkpt lat="45.5989" lon="5.99397">
        <ele>1304.56200066</ele>
        <time>2015-12-16T09:18:11Z</time>
      </trkpt>
      <trkpt lat="45.59891" lon="5.99397">
        <ele>1304.56200066</ele>
        <time>2015-12-16T09:18:17Z</time>
      </trkpt>
      <trkpt lat="45.59891" lon="5.99397">
        <ele>1304.56200066</ele>
        <time>2015-12-16T09:18:21Z</time>
      </trkpt>
      <trkpt lat="45.59891" lon="5.99397">
        <ele>1304.56200066</ele>
        <time>2015-12-16T09:18:27Z</time>
      </trkpt>
      <trkpt lat="45.59891" lon="5.99397">
        <ele>1304.56200066</ele>
        <time>2015-12-16T09:18:31Z</time>
      </trkpt>
      <trkpt lat="45.59897" lon="5.99393">
        <ele>1304.194881075</ele>
        <time>2015-12-16T09:18:36Z</time>
      </trkpt>
      <trkpt lat="45.59898" lon="5.99392">
        <ele>1304.194881075</ele>
        <time>2015-12-16T09:18:46Z</time>
      </trkpt>
      <trkpt lat="45.59897" lon="5.99392">
        <ele>1304.194881075</ele>
        <time>2015-12-16T09:18:52Z</time>
      </trkpt>
      <trkpt lat="45.59897" lon="5.99392">
        <ele>1304.194881075</ele>
        <time>2015-12-16T09:19:02Z</time>
      </trkpt>
      <trkpt lat="45.59897" lon="5.99392">
        <ele>1304.194881075</ele>
        <time>2015-12-16T09:19:07Z</time>
      </trkpt>
      <trkpt lat="45.59896" lon="5.99392">
        <ele>1304.194881075</ele>
        <time>2015-12-16T09:19:16Z</time>
      </trkpt>
      <trkpt lat="45.59896" lon="5.99392">
        <ele>1304.194881075</ele>
        <time>2015-12-16T09:19:21Z</time>
      </trkpt>
      <trkpt lat="45.59893" lon="5.99391">
        <ele>1304.194881075</ele>
        <time>2015-12-16T09:19:31Z</time>
      </trkpt>
      <trkpt lat="45.59893" lon="5.9939">
        <ele>1304.194881075</ele>
        <time>2015-12-16T09:19:36Z</time>
      </trkpt>
      <trkpt lat="45.59893" lon="5.9939">
        <ele>1304.194881075</ele>
        <time>2015-12-16T09:19:46Z</time>
      </trkpt>
      <trkpt lat="45.59893" lon="5.9939">
        <ele>1304.194881075</ele>
        <time>2015-12-16T09:19:51Z</time>
      </trkpt>
      <trkpt lat="45.59893" lon="5.9939">
        <ele>1304.194881075</ele>
        <time>2015-12-16T09:20:06Z</time>
      </trkpt>
      <trkpt lat="45.59893" lon="5.9939">
        <ele>1304.194881075</ele>
        <time>2015-12-16T09:20:11Z</time>
      </trkpt>
      <trkpt lat="45.59893" lon="5.9939">
        <ele>1304.194881075</ele>
        <time>2015-12-16T09:20:21Z</time>
      </trkpt>
      <trkpt lat="45.59893" lon="5.9939">
        <ele>1304.194881075</ele>
        <time>2015-12-16T09:20:26Z</time>
      </trkpt>
      <trkpt lat="45.59893" lon="5.9939">
        <ele>1304.194881075</ele>
        <time>2015-12-16T09:20:36Z</time>
      </trkpt>
      <trkpt lat="45.59893" lon="5.9939">
        <ele>1304.194881075</ele>
        <time>2015-12-16T09:20:41Z</time>
      </trkpt>
      <trkpt lat="45.59893" lon="5.9939">
        <ele>1304.194881075</ele>
        <time>2015-12-16T09:20:46Z</time>
      </trkpt>
      <trkpt lat="45.59893" lon="5.9939">
        <ele>1304.194881075</ele>
        <time>2015-12-16T09:20:51Z</time>
      </trkpt>
      <trkpt lat="45.59893" lon="5.9939">
        <ele>1304.194881075</ele>
        <time>2015-12-16T09:20:56Z</time>
      </trkpt>
      <trkpt lat="45.59889" lon="5.99382">
        <ele>1303.4210539</ele>
        <time>2015-12-16T09:21:06Z</time>
      </trkpt>
      <trkpt lat="45.59888" lon="5.99376">
        <ele>1303.4210539</ele>
        <time>2015-12-16T09:21:11Z</time>
      </trkpt>
      <trkpt lat="45.59889" lon="5.99367">
        <ele>1302.561397906</ele>
        <time>2015-12-16T09:21:22Z</time>
      </trkpt>
      <trkpt lat="45.5989" lon="5.99364">
        <ele>1302.561397906</ele>
        <time>2015-12-16T09:21:26Z</time>
      </trkpt>
      <trkpt lat="45.59891" lon="5.99359">
        <ele>1302.561397906</ele>
        <time>2015-12-16T09:21:37Z</time>
      </trkpt>
      <trkpt lat="45.5989" lon="5.99353">
        <ele>1302.633967172</ele>
        <time>2015-12-16T09:21:41Z</time>
      </trkpt>
      <trkpt lat="45.59887" lon="5.99342">
        <ele>1302.633967172</ele>
        <time>2015-12-16T09:21:52Z</time>
      </trkpt>
      <trkpt lat="45.59887" lon="5.99338">
        <ele>1302.850028432</ele>
        <time>2015-12-16T09:21:56Z</time>
      </trkpt>
      <trkpt lat="45.59885" lon="5.99328">
        <ele>1302.850028432</ele>
        <time>2015-12-16T09:22:07Z</time>
      </trkpt>
      <trkpt lat="45.59886" lon="5.99326">
        <ele>1302.850028432</ele>
        <time>2015-12-16T09:22:11Z</time>
      </trkpt>
      <trkpt lat="45.59881" lon="5.99316">
        <ele>1302.910668275</ele>
        <time>2015-12-16T09:22:27Z</time>
      </trkpt>
      <trkpt lat="45.59884" lon="5.99305">
        <ele>1302.910668275</ele>
        <time>2015-12-16T09:22:41Z</time>
      </trkpt>
      <trkpt lat="45.59884" lon="5.99304">
        <ele>1302.82754047</ele>
        <time>2015-12-16T09:22:47Z</time>
      </trkpt>
      <trkpt lat="45.59884" lon="5.99302">
        <ele>1302.82754047</ele>
        <time>2015-12-16T09:22:57Z</time>
      </trkpt>
      <trkpt lat="45.5988" lon="5.99294">
        <ele>1302.82754047</ele>
        <time>2015-12-16T09:23:01Z</time>
      </trkpt>
      <trkpt lat="45.59879" lon="5.99295">
        <ele>1303.044133902</ele>
        <time>2015-12-16T09:23:12Z</time>
      </trkpt>
      <trkpt lat="45.59877" lon="5.99294">
        <ele>1303.044133902</ele>
        <time>2015-12-16T09:23:16Z</time>
      </trkpt>
      <trkpt lat="45.59869" lon="5.99289">
        <ele>1304.546922882</ele>
        <time>2015-12-16T09:23:27Z</time>
      </trkpt>
      <trkpt lat="45.59868" lon="5.99287">
        <ele>1304.546922882</ele>
        <time>2015-12-16T09:23:32Z</time>
      </trkpt>
      <trkpt lat="45.59864" lon="5.99286">
        <ele>1304.546922882</ele>
        <time>2015-12-16T09:23:42Z</time>
      </trkpt>
      <trkpt lat="45.59862" lon="5.99284">
        <ele>1304.546922882</ele>
        <time>2015-12-16T09:23:46Z</time>
      </trkpt>
      <trkpt lat="45.59854" lon="5.99286">
        <ele>1307.093386106</ele>
        <time>2015-12-16T09:23:57Z</time>
      </trkpt>
      <trkpt lat="45.59852" lon="5.99282">
        <ele>1307.093386106</ele>
        <time>2015-12-16T09:24:01Z</time>
      </trkpt>
      <trkpt lat="45.5985" lon="5.99273">
        <ele>1308.150088554</ele>
        <time>2015-12-16T09:24:12Z</time>
      </trkpt>
      <trkpt lat="45.59849" lon="5.99267">
        <ele>1308.150088554</ele>
        <time>2015-12-16T09:24:16Z</time>
      </trkpt>
      <trkpt lat="45.59842" lon="5.99256">
        <ele>1309.26487469</ele>
        <time>2015-12-16T09:24:27Z</time>
      </trkpt>
      <trkpt lat="45.59838" lon="5.99255">
        <ele>1309.26487469</ele>
        <time>2015-12-16T09:24:32Z</time>
      </trkpt>
      <trkpt lat="45.59837" lon="5.99256">
        <ele>1309.26487469</ele>
        <time>2015-12-16T09:24:36Z</time>
      </trkpt>
      <trkpt lat="45.59831" lon="5.99253">
        <ele>1310.862948225</ele>
        <time>2015-12-16T09:24:51Z</time>
      </trkpt>
      <trkpt lat="45.59827" lon="5.99252">
        <ele>1310.862948225</ele>
        <time>2015-12-16T09:24:56Z</time>
      </trkpt>
      <trkpt lat="45.59827" lon="5.99252">
        <ele>1310.862948225</ele>
        <time>2015-12-16T09:25:07Z</time>
      </trkpt>
      <trkpt lat="45.59824" lon="5.9925">
        <ele>1310.862948225</ele>
        <time>2015-12-16T09:25:11Z</time>
      </trkpt>
      <trkpt lat="45.59821" lon="5.99244">
        <ele>1312.760493851</ele>
        <time>2015-12-16T09:25:16Z</time>
      </trkpt>
      <trkpt lat="45.59817" lon="5.99233">
        <ele>1312.760493851</ele>
        <time>2015-12-16T09:25:26Z</time>
      </trkpt>
      <trkpt lat="45.59815" lon="5.99229">
        <ele>1314.498164039</ele>
        <time>2015-12-16T09:25:32Z</time>
      </trkpt>
      <trkpt lat="45.59813" lon="5.99224">
        <ele>1314.498164039</ele>
        <time>2015-12-16T09:25:42Z</time>
      </trkpt>
      <trkpt lat="45.59809" lon="5.9922">
        <ele>1314.498164039</ele>
        <time>2015-12-16T09:25:46Z</time>
      </trkpt>
      <trkpt lat="45.598" lon="5.99223">
        <ele>1317.956624285</ele>
        <time>2015-12-16T09:25:56Z</time>
      </trkpt>
      <trkpt lat="45.59798" lon="5.99222">
        <ele>1317.956624285</ele>
        <time>2015-12-16T09:26:01Z</time>
      </trkpt>
      <trkpt lat="45.59791" lon="5.99219">
        <ele>1321.559059124</ele>
        <time>2015-12-16T09:26:11Z</time>
      </trkpt>
      <trkpt lat="45.59792" lon="5.99218">
        <ele>1321.559059124</ele>
        <time>2015-12-16T09:26:16Z</time>
      </trkpt>
      <trkpt lat="45.59792" lon="5.99218">
        <ele>1321.559059124</ele>
        <time>2015-12-16T09:26:27Z</time>
      </trkpt>
      <trkpt lat="45.59792" lon="5.99218">
        <ele>1321.559059124</ele>
        <time>2015-12-16T09:26:32Z</time>
      </trkpt>
      <trkpt lat="45.59791" lon="5.99217">
        <ele>1321.559059124</ele>
        <time>2015-12-16T09:26:46Z</time>
      </trkpt>
      <trkpt lat="45.59787" lon="5.99212">
        <ele>1321.559059124</ele>
        <time>2015-12-16T09:26:51Z</time>
      </trkpt>
      <trkpt lat="45.59783" lon="5.99206">
        <ele>1323.844155256</ele>
        <time>2015-12-16T09:27:01Z</time>
      </trkpt>
      <trkpt lat="45.59781" lon="5.99207">
        <ele>1323.844155256</ele>
        <time>2015-12-16T09:27:07Z</time>
      </trkpt>
      <trkpt lat="45.59779" lon="5.99206">
        <ele>1323.844155256</ele>
        <time>2015-12-16T09:27:21Z</time>
      </trkpt>
      <trkpt lat="45.59779" lon="5.99208">
        <ele>1323.844155256</ele>
        <time>2015-12-16T09:27:26Z</time>
      </trkpt>
      <trkpt lat="45.59779" lon="5.99209">
        <ele>1323.844155256</ele>
        <time>2015-12-16T09:27:36Z</time>
      </trkpt>
      <trkpt lat="45.59779" lon="5.99209">
        <ele>1323.844155256</ele>
        <time>2015-12-16T09:27:41Z</time>
      </trkpt>
      <trkpt lat="45.59779" lon="5.99209">
        <ele>1323.844155256</ele>
        <time>2015-12-16T09:27:52Z</time>
      </trkpt>
      <trkpt lat="45.59779" lon="5.99209">
        <ele>1323.844155256</ele>
        <time>2015-12-16T09:27:56Z</time>
      </trkpt>
      <trkpt lat="45.59779" lon="5.99209">
        <ele>1323.844155256</ele>
        <time>2015-12-16T09:28:06Z</time>
      </trkpt>
      <trkpt lat="45.59779" lon="5.99209">
        <ele>1323.844155256</ele>
        <time>2015-12-16T09:28:11Z</time>
      </trkpt>
      <trkpt lat="45.59779" lon="5.99209">
        <ele>1323.844155256</ele>
        <time>2015-12-16T09:28:26Z</time>
      </trkpt>
      <trkpt lat="45.59779" lon="5.99209">
        <ele>1323.844155256</ele>
        <time>2015-12-16T09:28:31Z</time>
      </trkpt>
      <trkpt lat="45.59779" lon="5.99209">
        <ele>1323.844155256</ele>
        <time>2015-12-16T09:28:42Z</time>
      </trkpt>
      <trkpt lat="45.59779" lon="5.99209">
        <ele>1323.844155256</ele>
        <time>2015-12-16T09:28:46Z</time>
      </trkpt>
      <trkpt lat="45.59779" lon="5.99209">
        <ele>1323.844155256</ele>
        <time>2015-12-16T09:28:56Z</time>
      </trkpt>
      <trkpt lat="45.5978" lon="5.99208">
        <ele>1323.844155256</ele>
        <time>2015-12-16T09:29:01Z</time>
      </trkpt>
      <trkpt lat="45.59777" lon="5.99204">
        <ele>1326.776291993</ele>
        <time>2015-12-16T09:29:11Z</time>
      </trkpt>
      <trkpt lat="45.59776" lon="5.99198">
        <ele>1326.776291993</ele>
        <time>2015-12-16T09:29:16Z</time>
      </trkpt>
      <trkpt lat="45.59774" lon="5.99196">
        <ele>1326.776291993</ele>
        <time>2015-12-16T09:29:27Z</time>
      </trkpt>
      <trkpt lat="45.59774" lon="5.99188">
        <ele>1328.282834316</ele>
        <time>2015-12-16T09:29:31Z</time>
      </trkpt>
      <trkpt lat="45.59769" lon="5.99186">
        <ele>1328.282834316</ele>
        <time>2015-12-16T09:29:41Z</time>
      </trkpt>
      <trkpt lat="45.59767" lon="5.99181">
        <ele>1330.914966689</ele>
        <time>2015-12-16T09:29:47Z</time>
      </trkpt>
      <trkpt lat="45.59761" lon="5.9918">
        <ele>1330.914966689</ele>
        <time>2015-12-16T09:29:57Z</time>
      </trkpt>
      <trkpt lat="45.59758" lon="5.99178">
        <ele>1333.574764977</ele>
        <time>2015-12-16T09:30:01Z</time>
      </trkpt>
      <trkpt lat="45.59752" lon="5.99178">
        <ele>1333.574764977</ele>
        <time>2015-12-16T09:30:12Z</time>
      </trkpt>
      <trkpt lat="45.59751" lon="5.99184">
        <ele>1336.253793761</ele>
        <time>2015-12-16T09:30:16Z</time>
      </trkpt>
      <trkpt lat="45.59749" lon="5.99188">
        <ele>1336.253793761</ele>
        <time>2015-12-16T09:30:26Z</time>
      </trkpt>
      <trkpt lat="45.59749" lon="5.99189">
        <ele>1336.253793761</ele>
        <time>2015-12-16T09:30:32Z</time>
      </trkpt>
      <trkpt lat="45.59749" lon="5.99191">
        <ele>1336.253793761</ele>
        <time>2015-12-16T09:30:46Z</time>
      </trkpt>
      <trkpt lat="45.59749" lon="5.99191">
        <ele>1336.253793761</ele>
        <time>2015-12-16T09:30:52Z</time>
      </trkpt>
      <trkpt lat="45.59748" lon="5.9919">
        <ele>1336.253793761</ele>
        <time>2015-12-16T09:31:01Z</time>
      </trkpt>
      <trkpt lat="45.59747" lon="5.99187">
        <ele>1336.253793761</ele>
        <time>2015-12-16T09:31:07Z</time>
      </trkpt>
      <trkpt lat="45.59745" lon="5.99178">
        <ele>1338.223768584</ele>
        <time>2015-12-16T09:31:17Z</time>
      </trkpt>
      <trkpt lat="45.59744" lon="5.99177">
        <ele>1338.223768584</ele>
        <time>2015-12-16T09:31:21Z</time>
      </trkpt>
      <trkpt lat="45.59741" lon="5.99174">
        <ele>1338.223768584</ele>
        <time>2015-12-16T09:31:32Z</time>
      </trkpt>
      <trkpt lat="45.5974" lon="5.99171">
        <ele>1338.223768584</ele>
        <time>2015-12-16T09:31:37Z</time>
      </trkpt>
      <trkpt lat="45.59738" lon="5.99166">
        <ele>1340.541375689</ele>
        <time>2015-12-16T09:31:47Z</time>
      </trkpt>
      <trkpt lat="45.59735" lon="5.99164">
        <ele>1340.541375689</ele>
        <time>2015-12-16T09:31:51Z</time>
      </trkpt>
      <trkpt lat="45.59731" lon="5.99162">
        <ele>1340.541375689</ele>
        <time>2015-12-16T09:31:56Z</time>
      </trkpt>
      <trkpt lat="45.59727" lon="5.99154">
        <ele>1342.743743052</ele>
        <time>2015-12-16T09:32:07Z</time>
      </trkpt>
      <trkpt lat="45.59725" lon="5.99152">
        <ele>1342.743743052</ele>
        <time>2015-12-16T09:32:11Z</time>
      </trkpt>
      <trkpt lat="45.59721" lon="5.99142">
        <ele>1344.978924493</ele>
        <time>2015-12-16T09:32:24Z</time>
      </trkpt>
      <trkpt lat="45.59721" lon="5.99141">
        <ele>1344.978924493</ele>
        <time>2015-12-16T09:32:26Z</time>
      </trkpt>
      <trkpt lat="45.59719" lon="5.99128">
        <ele>1346.807717722</ele>
        <time>2015-12-16T09:32:36Z</time>
      </trkpt>
      <trkpt lat="45.59718" lon="5.99124">
        <ele>1346.807717722</ele>
        <time>2015-12-16T09:32:42Z</time>
      </trkpt>
      <trkpt lat="45.59719" lon="5.99113">
        <ele>1348.833259608</ele>
        <time>2015-12-16T09:32:52Z</time>
      </trkpt>
      <trkpt lat="45.59718" lon="5.99106">
        <ele>1348.833259608</ele>
        <time>2015-12-16T09:32:56Z</time>
      </trkpt>
      <trkpt lat="45.59728" lon="5.991">
        <ele>1350.02876139</ele>
        <time>2015-12-16T09:33:07Z</time>
      </trkpt>
      <trkpt lat="45.59731" lon="5.99094">
        <ele>1350.02876139</ele>
        <time>2015-12-16T09:33:12Z</time>
      </trkpt>
      <trkpt lat="45.59733" lon="5.99087">
        <ele>1351.174675773</ele>
        <time>2015-12-16T09:33:21Z</time>
      </trkpt>
      <trkpt lat="45.59734" lon="5.99085">
        <ele>1351.174675773</ele>
        <time>2015-12-16T09:33:27Z</time>
      </trkpt>
      <trkpt lat="45.59735" lon="5.9908">
        <ele>1351.174675773</ele>
        <time>2015-12-16T09:33:37Z</time>
      </trkpt>
      <trkpt lat="45.59734" lon="5.9907">
        <ele>1352.562075432</ele>
        <time>2015-12-16T09:33:42Z</time>
      </trkpt>
      <trkpt lat="45.59734" lon="5.99064">
        <ele>1352.562075432</ele>
        <time>2015-12-16T09:33:52Z</time>
      </trkpt>
      <trkpt lat="45.59734" lon="5.99063">
        <ele>1352.562075432</ele>
        <time>2015-12-16T09:33:56Z</time>
      </trkpt>
      <trkpt lat="45.59734" lon="5.99062">
        <ele>1352.562075432</ele>
        <time>2015-12-16T09:34:02Z</time>
      </trkpt>
      <trkpt lat="45.59734" lon="5.99062">
        <ele>1352.562075432</ele>
        <time>2015-12-16T09:34:12Z</time>
      </trkpt>
      <trkpt lat="45.59735" lon="5.99061">
        <ele>1352.562075432</ele>
        <time>2015-12-16T09:34:17Z</time>
      </trkpt>
      <trkpt lat="45.59737" lon="5.99051">
        <ele>1354.171890927</ele>
        <time>2015-12-16T09:34:27Z</time>
      </trkpt>
      <trkpt lat="45.59738" lon="5.99047">
        <ele>1354.171890927</ele>
        <time>2015-12-16T09:34:31Z</time>
      </trkpt>
      <trkpt lat="45.59738" lon="5.9904">
        <ele>1354.171890927</ele>
        <time>2015-12-16T09:34:42Z</time>
      </trkpt>
      <trkpt lat="45.59738" lon="5.99039">
        <ele>1354.171890927</ele>
        <time>2015-12-16T09:34:46Z</time>
      </trkpt>
      <trkpt lat="45.59739" lon="5.9903">
        <ele>1356.274185921</ele>
        <time>2015-12-16T09:34:57Z</time>
      </trkpt>
      <trkpt lat="45.59741" lon="5.99023">
        <ele>1356.274185921</ele>
        <time>2015-12-16T09:35:02Z</time>
      </trkpt>
      <trkpt lat="45.59735" lon="5.99004">
        <ele>1357.820931934</ele>
        <time>2015-12-16T09:35:11Z</time>
      </trkpt>
      <trkpt lat="45.59734" lon="5.98997">
        <ele>1357.820931934</ele>
        <time>2015-12-16T09:35:17Z</time>
      </trkpt>
      <trkpt lat="45.59736" lon="5.98983">
        <ele>1358.851548297</ele>
        <time>2015-12-16T09:35:26Z</time>
      </trkpt>
      <trkpt lat="45.5974" lon="5.98981">
        <ele>1358.851548297</ele>
        <time>2015-12-16T09:35:32Z</time>
      </trkpt>
      <trkpt lat="45.59747" lon="5.98972">
        <ele>1359.115900815</ele>
        <time>2015-12-16T09:35:42Z</time>
      </trkpt>
      <trkpt lat="45.59749" lon="5.98967">
        <ele>1359.115900815</ele>
        <time>2015-12-16T09:35:47Z</time>
      </trkpt>
      <trkpt lat="45.59751" lon="5.98955">
        <ele>1360.113822226</ele>
        <time>2015-12-16T09:36:02Z</time>
      </trkpt>
      <trkpt lat="45.59754" lon="5.98945">
        <ele>1360.113822226</ele>
        <time>2015-12-16T09:36:17Z</time>
      </trkpt>
      <trkpt lat="45.59754" lon="5.98941">
        <ele>1360.927230055</ele>
        <time>2015-12-16T09:36:21Z</time>
      </trkpt>
      <trkpt lat="45.59759" lon="5.98932">
        <ele>1360.927230055</ele>
        <time>2015-12-16T09:36:32Z</time>
      </trkpt>
      <trkpt lat="45.59761" lon="5.98926">
        <ele>1361.2825324</ele>
        <time>2015-12-16T09:36:37Z</time>
      </trkpt>
      <trkpt lat="45.59764" lon="5.98916">
        <ele>1361.2825324</ele>
        <time>2015-12-16T09:36:48Z</time>
      </trkpt>
      <trkpt lat="45.59762" lon="5.98909">
        <ele>1361.504039661</ele>
        <time>2015-12-16T09:36:51Z</time>
      </trkpt>
      <trkpt lat="45.59761" lon="5.98896">
        <ele>1362.036788556</ele>
        <time>2015-12-16T09:37:01Z</time>
      </trkpt>
      <trkpt lat="45.5976" lon="5.98893">
        <ele>1362.036788556</ele>
        <time>2015-12-16T09:37:06Z</time>
      </trkpt>
      <trkpt lat="45.59756" lon="5.9889">
        <ele>1362.036788556</ele>
        <time>2015-12-16T09:37:17Z</time>
      </trkpt>
      <trkpt lat="45.59752" lon="5.98886">
        <ele>1362.859969503</ele>
        <time>2015-12-16T09:37:21Z</time>
      </trkpt>
      <trkpt lat="45.59754" lon="5.98877">
        <ele>1362.859969503</ele>
        <time>2015-12-16T09:37:31Z</time>
      </trkpt>
      <trkpt lat="45.59756" lon="5.98873">
        <ele>1363.521195323</ele>
        <time>2015-12-16T09:37:36Z</time>
      </trkpt>
      <trkpt lat="45.59758" lon="5.98863">
        <ele>1363.521195323</ele>
        <time>2015-12-16T09:37:46Z</time>
      </trkpt>
      <trkpt lat="45.59765" lon="5.98861">
        <ele>1364.178242953</ele>
        <time>2015-12-16T09:37:52Z</time>
      </trkpt>
      <trkpt lat="45.59773" lon="5.98854">
        <ele>1364.400890703</ele>
        <time>2015-12-16T09:38:01Z</time>
      </trkpt>
      <trkpt lat="45.59779" lon="5.98848">
        <ele>1364.400890703</ele>
        <time>2015-12-16T09:38:07Z</time>
      </trkpt>
      <trkpt lat="45.59779" lon="5.98846">
        <ele>1364.400890703</ele>
        <time>2015-12-16T09:38:17Z</time>
      </trkpt>
      <trkpt lat="45.59779" lon="5.98846">
        <ele>1364.400890703</ele>
        <time>2015-12-16T09:38:21Z</time>
      </trkpt>
      <trkpt lat="45.59776" lon="5.98824">
        <ele>1365.521091002</ele>
        <time>2015-12-16T09:38:37Z</time>
      </trkpt>
      <trkpt lat="45.59773" lon="5.98821">
        <ele>1365.521091002</ele>
        <time>2015-12-16T09:38:42Z</time>
      </trkpt>
      <trkpt lat="45.59771" lon="5.98813">
        <ele>1366.464666267</ele>
        <time>2015-12-16T09:38:52Z</time>
      </trkpt>
      <trkpt lat="45.59771" lon="5.98812">
        <ele>1366.464666267</ele>
        <time>2015-12-16T09:38:57Z</time>
      </trkpt>
      <trkpt lat="45.59769" lon="5.98807">
        <ele>1366.464666267</ele>
        <time>2015-12-16T09:39:07Z</time>
      </trkpt>
      <trkpt lat="45.59766" lon="5.98805">
        <ele>1366.464666267</ele>
        <time>2015-12-16T09:39:11Z</time>
      </trkpt>
      <trkpt lat="45.59763" lon="5.98803">
        <ele>1368.110294863</ele>
        <time>2015-12-16T09:39:22Z</time>
      </trkpt>
      <trkpt lat="45.59763" lon="5.98803">
        <ele>1368.110294863</ele>
        <time>2015-12-16T09:39:27Z</time>
      </trkpt>
      <trkpt lat="45.59766" lon="5.98801">
        <ele>1368.110294863</ele>
        <time>2015-12-16T09:39:37Z</time>
      </trkpt>
      <trkpt lat="45.59766" lon="5.98801">
        <ele>1368.110294863</ele>
        <time>2015-12-16T09:39:41Z</time>
      </trkpt>
      <trkpt lat="45.59767" lon="5.988">
        <ele>1368.110294863</ele>
        <time>2015-12-16T09:39:51Z</time>
      </trkpt>
      <trkpt lat="45.59766" lon="5.988">
        <ele>1368.110294863</ele>
        <time>2015-12-16T09:39:56Z</time>
      </trkpt>
      <trkpt lat="45.59767" lon="5.988">
        <ele>1368.110294863</ele>
        <time>2015-12-16T09:40:06Z</time>
      </trkpt>
      <trkpt lat="45.59767" lon="5.988">
        <ele>1368.110294863</ele>
        <time>2015-12-16T09:40:11Z</time>
      </trkpt>
      <trkpt lat="45.59767" lon="5.988">
        <ele>1368.110294863</ele>
        <time>2015-12-16T09:40:21Z</time>
      </trkpt>
      <trkpt lat="45.59767" lon="5.988">
        <ele>1368.110294863</ele>
        <time>2015-12-16T09:40:26Z</time>
      </trkpt>
      <trkpt lat="45.59768" lon="5.988">
        <ele>1368.110294863</ele>
        <time>2015-12-16T09:40:36Z</time>
      </trkpt>
      <trkpt lat="45.59768" lon="5.988">
        <ele>1368.110294863</ele>
        <time>2015-12-16T09:40:42Z</time>
      </trkpt>
      <trkpt lat="45.59767" lon="5.98801">
        <ele>1368.110294863</ele>
        <time>2015-12-16T09:40:52Z</time>
      </trkpt>
      <trkpt lat="45.59767" lon="5.98801">
        <ele>1368.110294863</ele>
        <time>2015-12-16T09:40:57Z</time>
      </trkpt>
      <trkpt lat="45.59767" lon="5.98801">
        <ele>1368.110294863</ele>
        <time>2015-12-16T09:41:07Z</time>
      </trkpt>
      <trkpt lat="45.59767" lon="5.98801">
        <ele>1368.110294863</ele>
        <time>2015-12-16T09:41:11Z</time>
      </trkpt>
      <trkpt lat="45.59767" lon="5.98801">
        <ele>1368.110294863</ele>
        <time>2015-12-16T09:41:17Z</time>
      </trkpt>
      <trkpt lat="45.59767" lon="5.98801">
        <ele>1368.110294863</ele>
        <time>2015-12-16T09:41:28Z</time>
      </trkpt>
      <trkpt lat="45.59767" lon="5.98801">
        <ele>1368.110294863</ele>
        <time>2015-12-16T09:41:31Z</time>
      </trkpt>
      <trkpt lat="45.59767" lon="5.98801">
        <ele>1368.110294863</ele>
        <time>2015-12-16T09:41:41Z</time>
      </trkpt>
      <trkpt lat="45.59767" lon="5.98801">
        <ele>1368.110294863</ele>
        <time>2015-12-16T09:41:46Z</time>
      </trkpt>
      <trkpt lat="45.59767" lon="5.98801">
        <ele>1368.110294863</ele>
        <time>2015-12-16T09:41:56Z</time>
      </trkpt>
      <trkpt lat="45.59767" lon="5.98801">
        <ele>1368.110294863</ele>
        <time>2015-12-16T09:42:01Z</time>
      </trkpt>
      <trkpt lat="45.59767" lon="5.98801">
        <ele>1368.110294863</ele>
        <time>2015-12-16T09:42:12Z</time>
      </trkpt>
      <trkpt lat="45.59767" lon="5.98801">
        <ele>1368.110294863</ele>
        <time>2015-12-16T09:42:16Z</time>
      </trkpt>
      <trkpt lat="45.59767" lon="5.98801">
        <ele>1368.110294863</ele>
        <time>2015-12-16T09:42:26Z</time>
      </trkpt>
      <trkpt lat="45.59767" lon="5.98801">
        <ele>1368.110294863</ele>
        <time>2015-12-16T09:42:31Z</time>
      </trkpt>
      <trkpt lat="45.59767" lon="5.988">
        <ele>1368.110294863</ele>
        <time>2015-12-16T09:42:42Z</time>
      </trkpt>
      <trkpt lat="45.59767" lon="5.988">
        <ele>1368.110294863</ele>
        <time>2015-12-16T09:42:46Z</time>
      </trkpt>
      <trkpt lat="45.59767" lon="5.988">
        <ele>1368.110294863</ele>
        <time>2015-12-16T09:42:51Z</time>
      </trkpt>
      <trkpt lat="45.59767" lon="5.988">
        <ele>1368.110294863</ele>
        <time>2015-12-16T09:43:01Z</time>
      </trkpt>
      <trkpt lat="45.59767" lon="5.988">
        <ele>1368.110294863</ele>
        <time>2015-12-16T09:43:07Z</time>
      </trkpt>
      <trkpt lat="45.59767" lon="5.988">
        <ele>1368.110294863</ele>
        <time>2015-12-16T09:43:16Z</time>
      </trkpt>
      <trkpt lat="45.59767" lon="5.988">
        <ele>1368.110294863</ele>
        <time>2015-12-16T09:43:21Z</time>
      </trkpt>
      <trkpt lat="45.59767" lon="5.988">
        <ele>1368.110294863</ele>
        <time>2015-12-16T09:43:31Z</time>
      </trkpt>
      <trkpt lat="45.59767" lon="5.988">
        <ele>1368.110294863</ele>
        <time>2015-12-16T09:43:36Z</time>
      </trkpt>
      <trkpt lat="45.59767" lon="5.988">
        <ele>1368.110294863</ele>
        <time>2015-12-16T09:43:46Z</time>
      </trkpt>
      <trkpt lat="45.59767" lon="5.98801">
        <ele>1368.110294863</ele>
        <time>2015-12-16T09:43:51Z</time>
      </trkpt>
      <trkpt lat="45.59767" lon="5.98801">
        <ele>1368.110294863</ele>
        <time>2015-12-16T09:44:06Z</time>
      </trkpt>
      <trkpt lat="45.59764" lon="5.988">
        <ele>1368.676140275</ele>
        <time>2015-12-16T09:44:11Z</time>
      </trkpt>
      <trkpt lat="45.59765" lon="5.98802">
        <ele>1368.676140275</ele>
        <time>2015-12-16T09:44:21Z</time>
      </trkpt>
      <trkpt lat="45.59765" lon="5.98802">
        <ele>1368.676140275</ele>
        <time>2015-12-16T09:44:26Z</time>
      </trkpt>
      <trkpt lat="45.59765" lon="5.98802">
        <ele>1368.676140275</ele>
        <time>2015-12-16T09:44:36Z</time>
      </trkpt>
      <trkpt lat="45.59765" lon="5.98801">
        <ele>1368.676140275</ele>
        <time>2015-12-16T09:44:41Z</time>
      </trkpt>
      <trkpt lat="45.59765" lon="5.98801">
        <ele>1368.676140275</ele>
        <time>2015-12-16T09:44:51Z</time>
      </trkpt>
      <trkpt lat="45.59765" lon="5.98801">
        <ele>1368.676140275</ele>
        <time>2015-12-16T09:44:56Z</time>
      </trkpt>
      <trkpt lat="45.59765" lon="5.98801">
        <ele>1368.676140275</ele>
        <time>2015-12-16T09:45:06Z</time>
      </trkpt>
      <trkpt lat="45.59765" lon="5.98801">
        <ele>1368.676140275</ele>
        <time>2015-12-16T09:45:11Z</time>
      </trkpt>
      <trkpt lat="45.59765" lon="5.98801">
        <ele>1368.676140275</ele>
        <time>2015-12-16T09:45:27Z</time>
      </trkpt>
      <trkpt lat="45.59765" lon="5.98801">
        <ele>1368.676140275</ele>
        <time>2015-12-16T09:45:41Z</time>
      </trkpt>
      <trkpt lat="45.59765" lon="5.98801">
        <ele>1368.676140275</ele>
        <time>2015-12-16T09:45:52Z</time>
      </trkpt>
      <trkpt lat="45.59765" lon="5.98801">
        <ele>1368.676140275</ele>
        <time>2015-12-16T09:45:57Z</time>
      </trkpt>
      <trkpt lat="45.59765" lon="5.98801">
        <ele>1368.676140275</ele>
        <time>2015-12-16T09:46:02Z</time>
      </trkpt>
      <trkpt lat="45.59765" lon="5.98801">
        <ele>1368.676140275</ele>
        <time>2015-12-16T09:46:12Z</time>
      </trkpt>
      <trkpt lat="45.59765" lon="5.98801">
        <ele>1368.676140275</ele>
        <time>2015-12-16T09:46:17Z</time>
      </trkpt>
      <trkpt lat="45.59765" lon="5.98801">
        <ele>1368.676140275</ele>
        <time>2015-12-16T09:46:27Z</time>
      </trkpt>
      <trkpt lat="45.59765" lon="5.98801">
        <ele>1368.676140275</ele>
        <time>2015-12-16T09:46:31Z</time>
      </trkpt>
      <trkpt lat="45.59765" lon="5.98805">
        <ele>1368.676140275</ele>
        <time>2015-12-16T09:46:42Z</time>
      </trkpt>
      <trkpt lat="45.59763" lon="5.98805">
        <ele>1368.676140275</ele>
        <time>2015-12-16T09:46:47Z</time>
      </trkpt>
      <trkpt lat="45.59764" lon="5.98805">
        <ele>1368.676140275</ele>
        <time>2015-12-16T09:46:57Z</time>
      </trkpt>
      <trkpt lat="45.59764" lon="5.98805">
        <ele>1368.676140275</ele>
        <time>2015-12-16T09:47:02Z</time>
      </trkpt>
      <trkpt lat="45.59764" lon="5.98805">
        <ele>1368.676140275</ele>
        <time>2015-12-16T09:47:12Z</time>
      </trkpt>
      <trkpt lat="45.59764" lon="5.98805">
        <ele>1368.676140275</ele>
        <time>2015-12-16T09:47:17Z</time>
      </trkpt>
      <trkpt lat="45.59764" lon="5.98802">
        <ele>1369.540622812</ele>
        <time>2015-12-16T09:47:26Z</time>
      </trkpt>
      <trkpt lat="45.59764" lon="5.98802">
        <ele>1369.540622812</ele>
        <time>2015-12-16T09:47:34Z</time>
      </trkpt>
      <trkpt lat="45.59764" lon="5.98802">
        <ele>1369.540622812</ele>
        <time>2015-12-16T09:47:46Z</time>
      </trkpt>
      <trkpt lat="45.59764" lon="5.98802">
        <ele>1369.540622812</ele>
        <time>2015-12-16T09:47:51Z</time>
      </trkpt>
      <trkpt lat="45.59764" lon="5.98802">
        <ele>1369.540622812</ele>
        <time>2015-12-16T09:48:02Z</time>
      </trkpt>
      <trkpt lat="45.59764" lon="5.98802">
        <ele>1369.540622812</ele>
        <time>2015-12-16T09:48:06Z</time>
      </trkpt>
      <trkpt lat="45.59772" lon="5.98806">
        <ele>1369.540622812</ele>
        <time>2015-12-16T09:48:17Z</time>
      </trkpt>
      <trkpt lat="45.59775" lon="5.98804">
        <ele>1369.81839621</ele>
        <time>2015-12-16T09:48:22Z</time>
      </trkpt>
      <trkpt lat="45.59776" lon="5.98798">
        <ele>1369.81839621</ele>
        <time>2015-12-16T09:48:31Z</time>
      </trkpt>
      <trkpt lat="45.59781" lon="5.98792">
        <ele>1368.834897868</ele>
        <time>2015-12-16T09:48:37Z</time>
      </trkpt>
      <trkpt lat="45.5979" lon="5.98791">
        <ele>1367.69796946</ele>
        <time>2015-12-16T09:48:47Z</time>
      </trkpt>
      <trkpt lat="45.59794" lon="5.98797">
        <ele>1367.69796946</ele>
        <time>2015-12-16T09:48:52Z</time>
      </trkpt>
      <trkpt lat="45.59803" lon="5.98793">
        <ele>1366.137466198</ele>
        <time>2015-12-16T09:49:02Z</time>
      </trkpt>
      <trkpt lat="45.59804" lon="5.98793">
        <ele>1366.137466198</ele>
        <time>2015-12-16T09:49:07Z</time>
      </trkpt>
      <trkpt lat="45.59813" lon="5.98791">
        <ele>1364.336557348</ele>
        <time>2015-12-16T09:49:17Z</time>
      </trkpt>
      <trkpt lat="45.59815" lon="5.98791">
        <ele>1364.336557348</ele>
        <time>2015-12-16T09:49:22Z</time>
      </trkpt>
      <trkpt lat="45.59818" lon="5.98794">
        <ele>1364.336557348</ele>
        <time>2015-12-16T09:49:31Z</time>
      </trkpt>
      <trkpt lat="45.59819" lon="5.98795">
        <ele>1364.336557348</ele>
        <time>2015-12-16T09:49:36Z</time>
      </trkpt>
      <trkpt lat="45.59832" lon="5.98796">
        <ele>1362.321447999</ele>
        <time>2015-12-16T09:49:46Z</time>
      </trkpt>
      <trkpt lat="45.59835" lon="5.98791">
        <ele>1362.321447999</ele>
        <time>2015-12-16T09:49:51Z</time>
      </trkpt>
      <trkpt lat="45.5985" lon="5.98786">
        <ele>1360.116927232</ele>
        <time>2015-12-16T09:50:06Z</time>
      </trkpt>
      <trkpt lat="45.59855" lon="5.98785">
        <ele>1360.116927232</ele>
        <time>2015-12-16T09:50:11Z</time>
      </trkpt>
      <trkpt lat="45.59868" lon="5.98792">
        <ele>1358.034605217</ele>
        <time>2015-12-16T09:50:21Z</time>
      </trkpt>
      <trkpt lat="45.59871" lon="5.98793">
        <ele>1358.034605217</ele>
        <time>2015-12-16T09:50:26Z</time>
      </trkpt>
      <trkpt lat="45.59878" lon="5.98793">
        <ele>1355.498060348</ele>
        <time>2015-12-16T09:50:37Z</time>
      </trkpt>
      <trkpt lat="45.59879" lon="5.98788">
        <ele>1355.498060348</ele>
        <time>2015-12-16T09:50:41Z</time>
      </trkpt>
      <trkpt lat="45.59885" lon="5.98783">
        <ele>1352.550782771</ele>
        <time>2015-12-16T09:50:52Z</time>
      </trkpt>
      <trkpt lat="45.59889" lon="5.98779">
        <ele>1352.550782771</ele>
        <time>2015-12-16T09:50:56Z</time>
      </trkpt>
      <trkpt lat="45.5989" lon="5.98766">
        <ele>1349.66638391</ele>
        <time>2015-12-16T09:51:07Z</time>
      </trkpt>
      <trkpt lat="45.59895" lon="5.98769">
        <ele>1349.66638391</ele>
        <time>2015-12-16T09:51:12Z</time>
      </trkpt>
      <trkpt lat="45.59901" lon="5.98764">
        <ele>1346.418651771</ele>
        <time>2015-12-16T09:51:21Z</time>
      </trkpt>
      <trkpt lat="45.59901" lon="5.98764">
        <ele>1346.418651771</ele>
        <time>2015-12-16T09:51:27Z</time>
      </trkpt>
      <trkpt lat="45.59916" lon="5.98752">
        <ele>1342.989939576</ele>
        <time>2015-12-16T09:51:37Z</time>
      </trkpt>
      <trkpt lat="45.5992" lon="5.98756">
        <ele>1342.989939576</ele>
        <time>2015-12-16T09:51:41Z</time>
      </trkpt>
      <trkpt lat="45.59925" lon="5.98753">
        <ele>1339.261263315</ele>
        <time>2015-12-16T09:51:51Z</time>
      </trkpt>
      <trkpt lat="45.59928" lon="5.98748">
        <ele>1339.261263315</ele>
        <time>2015-12-16T09:51:57Z</time>
      </trkpt>
      <trkpt lat="45.59933" lon="5.98749">
        <ele>1334.978863476</ele>
        <time>2015-12-16T09:52:06Z</time>
      </trkpt>
      <trkpt lat="45.59935" lon="5.98747">
        <ele>1334.978863476</ele>
        <time>2015-12-16T09:52:12Z</time>
      </trkpt>
      <trkpt lat="45.59945" lon="5.9874">
        <ele>1330.629465051</ele>
        <time>2015-12-16T09:52:27Z</time>
      </trkpt>
      <trkpt lat="45.59946" lon="5.98741">
        <ele>1330.629465051</ele>
        <time>2015-12-16T09:52:32Z</time>
      </trkpt>
      <trkpt lat="45.59953" lon="5.98736">
        <ele>1330.629465051</ele>
        <time>2015-12-16T09:52:41Z</time>
      </trkpt>
      <trkpt lat="45.59955" lon="5.98736">
        <ele>1325.655162287</ele>
        <time>2015-12-16T09:52:47Z</time>
      </trkpt>
      <trkpt lat="45.59969" lon="5.98745">
        <ele>1320.837480348</ele>
        <time>2015-12-16T09:52:57Z</time>
      </trkpt>
      <trkpt lat="45.59974" lon="5.98745">
        <ele>1320.837480348</ele>
        <time>2015-12-16T09:53:01Z</time>
      </trkpt>
      <trkpt lat="45.59989" lon="5.98747">
        <ele>1316.467436277</ele>
        <time>2015-12-16T09:53:12Z</time>
      </trkpt>
      <trkpt lat="45.59989" lon="5.9875">
        <ele>1316.467436277</ele>
        <time>2015-12-16T09:53:17Z</time>
      </trkpt>
      <trkpt lat="45.59997" lon="5.98748">
        <ele>1311.804293071</ele>
        <time>2015-12-16T09:53:26Z</time>
      </trkpt>
      <trkpt lat="45.60002" lon="5.9875">
        <ele>1311.804293071</ele>
        <time>2015-12-16T09:53:32Z</time>
      </trkpt>
      <trkpt lat="45.60012" lon="5.98754">
        <ele>1306.882748315</ele>
        <time>2015-12-16T09:53:41Z</time>
      </trkpt>
      <trkpt lat="45.60011" lon="5.98755">
        <ele>1306.882748315</ele>
        <time>2015-12-16T09:53:47Z</time>
      </trkpt>
      <trkpt lat="45.6002" lon="5.98757">
        <ele>1301.735304639</ele>
        <time>2015-12-16T09:53:57Z</time>
      </trkpt>
      <trkpt lat="45.60024" lon="5.98759">
        <ele>1301.735304639</ele>
        <time>2015-12-16T09:54:01Z</time>
      </trkpt>
      <trkpt lat="45.60028" lon="5.98758">
        <ele>1301.735304639</ele>
        <time>2015-12-16T09:54:13Z</time>
      </trkpt>
      <trkpt lat="45.60031" lon="5.98753">
        <ele>1297.401107308</ele>
        <time>2015-12-16T09:54:16Z</time>
      </trkpt>
      <trkpt lat="45.60048" lon="5.98736">
        <ele>1294.407963429</ele>
        <time>2015-12-16T09:54:32Z</time>
      </trkpt>
      <trkpt lat="45.6006" lon="5.98744">
        <ele>1291.079087032</ele>
        <time>2015-12-16T09:54:46Z</time>
      </trkpt>
      <trkpt lat="45.60072" lon="5.98745">
        <ele>1287.158420199</ele>
        <time>2015-12-16T09:55:01Z</time>
      </trkpt>
      <trkpt lat="45.60079" lon="5.98747">
        <ele>1287.158420199</ele>
        <time>2015-12-16T09:55:06Z</time>
      </trkpt>
      <trkpt lat="45.60085" lon="5.98741">
        <ele>1283.418768028</ele>
        <time>2015-12-16T09:55:17Z</time>
      </trkpt>
      <trkpt lat="45.60088" lon="5.98741">
        <ele>1283.418768028</ele>
        <time>2015-12-16T09:55:21Z</time>
      </trkpt>
      <trkpt lat="45.6009" lon="5.98742">
        <ele>1283.418768028</ele>
        <time>2015-12-16T09:55:33Z</time>
      </trkpt>
      <trkpt lat="45.6009" lon="5.98742">
        <ele>1283.418768028</ele>
        <time>2015-12-16T09:55:37Z</time>
      </trkpt>
      <trkpt lat="45.60107" lon="5.98746">
        <ele>1279.422388875</ele>
        <time>2015-12-16T09:55:46Z</time>
      </trkpt>
      <trkpt lat="45.60113" lon="5.98744">
        <ele>1279.422388875</ele>
        <time>2015-12-16T09:55:52Z</time>
      </trkpt>
      <trkpt lat="45.6012" lon="5.9874">
        <ele>1275.052263911</ele>
        <time>2015-12-16T09:56:01Z</time>
      </trkpt>
      <trkpt lat="45.60129" lon="5.98738">
        <ele>1271.209425253</ele>
        <time>2015-12-16T09:56:06Z</time>
      </trkpt>
      <trkpt lat="45.60145" lon="5.98753">
        <ele>1267.28575752</ele>
        <time>2015-12-16T09:56:17Z</time>
      </trkpt>
      <trkpt lat="45.60148" lon="5.98758">
        <ele>1267.28575752</ele>
        <time>2015-12-16T09:56:21Z</time>
      </trkpt>
      <trkpt lat="45.60153" lon="5.98759">
        <ele>1267.28575752</ele>
        <time>2015-12-16T09:56:26Z</time>
      </trkpt>
      <trkpt lat="45.60155" lon="5.98758">
        <ele>1264.44701754</ele>
        <time>2015-12-16T09:56:32Z</time>
      </trkpt>
      <trkpt lat="45.60158" lon="5.98763">
        <ele>1264.44701754</ele>
        <time>2015-12-16T09:56:37Z</time>
      </trkpt>
      <trkpt lat="45.60166" lon="5.98764">
        <ele>1262.184710029</ele>
        <time>2015-12-16T09:56:41Z</time>
      </trkpt>
      <trkpt lat="45.60176" lon="5.98768">
        <ele>1260.025740882</ele>
        <time>2015-12-16T09:56:52Z</time>
      </trkpt>
      <trkpt lat="45.6018" lon="5.98773">
        <ele>1260.025740882</ele>
        <time>2015-12-16T09:56:56Z</time>
      </trkpt>
      <trkpt lat="45.60187" lon="5.98777">
        <ele>1258.251718003</ele>
        <time>2015-12-16T09:57:06Z</time>
      </trkpt>
      <trkpt lat="45.6019" lon="5.9878">
        <ele>1258.251718003</ele>
        <time>2015-12-16T09:57:12Z</time>
      </trkpt>
      <trkpt lat="45.60203" lon="5.988">
        <ele>1256.401630829</ele>
        <time>2015-12-16T09:57:21Z</time>
      </trkpt>
      <trkpt lat="45.60207" lon="5.98804">
        <ele>1256.401630829</ele>
        <time>2015-12-16T09:57:26Z</time>
      </trkpt>
      <trkpt lat="45.6021" lon="5.98808">
        <ele>1255.057052909</ele>
        <time>2015-12-16T09:57:37Z</time>
      </trkpt>
      <trkpt lat="45.60211" lon="5.9881">
        <ele>1255.057052909</ele>
        <time>2015-12-16T09:57:41Z</time>
      </trkpt>
      <trkpt lat="45.60216" lon="5.98825">
        <ele>1253.746390025</ele>
        <time>2015-12-16T09:57:52Z</time>
      </trkpt>
      <trkpt lat="45.60216" lon="5.9883">
        <ele>1253.746390025</ele>
        <time>2015-12-16T09:57:57Z</time>
      </trkpt>
      <trkpt lat="45.60218" lon="5.98834">
        <ele>1253.746390025</ele>
        <time>2015-12-16T09:58:01Z</time>
      </trkpt>
      <trkpt lat="45.60226" lon="5.98845">
        <ele>1252.752926757</ele>
        <time>2015-12-16T09:58:07Z</time>
      </trkpt>
      <trkpt lat="45.60226" lon="5.98849">
        <ele>1252.752926757</ele>
        <time>2015-12-16T09:58:12Z</time>
      </trkpt>
      <trkpt lat="45.60228" lon="5.98851">
        <ele>1252.752926757</ele>
        <time>2015-12-16T09:58:17Z</time>
      </trkpt>
      <trkpt lat="45.60233" lon="5.9886">
        <ele>1251.76160307</ele>
        <time>2015-12-16T09:58:23Z</time>
      </trkpt>
      <trkpt lat="45.60237" lon="5.98863">
        <ele>1251.76160307</ele>
        <time>2015-12-16T09:58:26Z</time>
      </trkpt>
      <trkpt lat="45.60238" lon="5.98871">
        <ele>1250.91265547</ele>
        <time>2015-12-16T09:58:31Z</time>
      </trkpt>
      <trkpt lat="45.60236" lon="5.98868">
        <ele>1250.91265547</ele>
        <time>2015-12-16T09:58:36Z</time>
      </trkpt>
      <trkpt lat="45.60238" lon="5.98866">
        <ele>1250.91265547</ele>
        <time>2015-12-16T09:58:41Z</time>
      </trkpt>
      <trkpt lat="45.60245" lon="5.98862">
        <ele>1252.208917782</ele>
        <time>2015-12-16T09:58:52Z</time>
      </trkpt>
      <trkpt lat="45.6025" lon="5.9886">
        <ele>1252.208917782</ele>
        <time>2015-12-16T09:58:57Z</time>
      </trkpt>
      <trkpt lat="45.60253" lon="5.98858">
        <ele>1252.208917782</ele>
        <time>2015-12-16T09:59:07Z</time>
      </trkpt>
      <trkpt lat="45.60256" lon="5.98858">
        <ele>1272.055222438</ele>
        <time>2015-12-16T09:59:12Z</time>
      </trkpt>
      <trkpt lat="45.6026" lon="5.98854">
        <ele>1272.055222438</ele>
        <time>2015-12-16T09:59:21Z</time>
      </trkpt>
      <trkpt lat="45.60263" lon="5.98848">
        <ele>1270.116440449</ele>
        <time>2015-12-16T09:59:27Z</time>
      </trkpt>
      <trkpt lat="45.60267" lon="5.9884">
        <ele>1270.116440449</ele>
        <time>2015-12-16T09:59:37Z</time>
      </trkpt>
      <trkpt lat="45.60269" lon="5.98839">
        <ele>1267.734820103</ele>
        <time>2015-12-16T09:59:41Z</time>
      </trkpt>
      <trkpt lat="45.60272" lon="5.98842">
        <ele>1267.734820103</ele>
        <time>2015-12-16T09:59:52Z</time>
      </trkpt>
      <trkpt lat="45.60273" lon="5.98843">
        <ele>1267.734820103</ele>
        <time>2015-12-16T09:59:56Z</time>
      </trkpt>
      <trkpt lat="45.60277" lon="5.9884">
        <ele>1264.510570768</ele>
        <time>2015-12-16T10:00:07Z</time>
      </trkpt>
      <trkpt lat="45.60279" lon="5.98839">
        <ele>1264.510570768</ele>
        <time>2015-12-16T10:00:12Z</time>
      </trkpt>
      <trkpt lat="45.6028" lon="5.9884">
        <ele>1264.510570768</ele>
        <time>2015-12-16T10:00:16Z</time>
      </trkpt>
      <trkpt lat="45.60296" lon="5.98844">
        <ele>1260.652171727</ele>
        <time>2015-12-16T10:00:27Z</time>
      </trkpt>
      <trkpt lat="45.603" lon="5.98851">
        <ele>1260.652171727</ele>
        <time>2015-12-16T10:00:31Z</time>
      </trkpt>
      <trkpt lat="45.60303" lon="5.98852">
        <ele>1256.354645653</ele>
        <time>2015-12-16T10:00:41Z</time>
      </trkpt>
      <trkpt lat="45.60307" lon="5.98855">
        <ele>1256.354645653</ele>
        <time>2015-12-16T10:00:46Z</time>
      </trkpt>
      <trkpt lat="45.60314" lon="5.98857">
        <ele>1252.088205205</ele>
        <time>2015-12-16T10:00:57Z</time>
      </trkpt>
      <trkpt lat="45.60316" lon="5.98856">
        <ele>1252.088205205</ele>
        <time>2015-12-16T10:01:02Z</time>
      </trkpt>
      <trkpt lat="45.60323" lon="5.98865">
        <ele>1247.712032145</ele>
        <time>2015-12-16T10:01:12Z</time>
      </trkpt>
      <trkpt lat="45.60325" lon="5.98861">
        <ele>1247.712032145</ele>
        <time>2015-12-16T10:01:17Z</time>
      </trkpt>
      <trkpt lat="45.60333" lon="5.98866">
        <ele>1243.240094048</ele>
        <time>2015-12-16T10:01:27Z</time>
      </trkpt>
      <trkpt lat="45.60336" lon="5.98868">
        <ele>1243.240094048</ele>
        <time>2015-12-16T10:01:32Z</time>
      </trkpt>
      <trkpt lat="45.6034" lon="5.98866">
        <ele>1243.240094048</ele>
        <time>2015-12-16T10:01:42Z</time>
      </trkpt>
      <trkpt lat="45.60341" lon="5.98863">
        <ele>1238.253269528</ele>
        <time>2015-12-16T10:01:46Z</time>
      </trkpt>
      <trkpt lat="45.60352" lon="5.98861">
        <ele>1234.238098862</ele>
        <time>2015-12-16T10:01:57Z</time>
      </trkpt>
      <trkpt lat="45.60358" lon="5.98867">
        <ele>1234.238098862</ele>
        <time>2015-12-16T10:02:01Z</time>
      </trkpt>
      <trkpt lat="45.60365" lon="5.98866">
        <ele>1229.831050079</ele>
        <time>2015-12-16T10:02:12Z</time>
      </trkpt>
      <trkpt lat="45.6037" lon="5.98868">
        <ele>1229.831050079</ele>
        <time>2015-12-16T10:02:16Z</time>
      </trkpt>
      <trkpt lat="45.60384" lon="5.98874">
        <ele>1225.787361996</ele>
        <time>2015-12-16T10:02:31Z</time>
      </trkpt>
      <trkpt lat="45.60385" lon="5.98873">
        <ele>1225.787361996</ele>
        <time>2015-12-16T10:02:36Z</time>
      </trkpt>
      <trkpt lat="45.60386" lon="5.98873">
        <ele>1225.787361996</ele>
        <time>2015-12-16T10:02:47Z</time>
      </trkpt>
      <trkpt lat="45.60388" lon="5.98873">
        <ele>1225.787361996</ele>
        <time>2015-12-16T10:02:51Z</time>
      </trkpt>
      <trkpt lat="45.60392" lon="5.98872">
        <ele>1225.787361996</ele>
        <time>2015-12-16T10:03:01Z</time>
      </trkpt>
      <trkpt lat="45.60395" lon="5.9887">
        <ele>1222.085157335</ele>
        <time>2015-12-16T10:03:07Z</time>
      </trkpt>
      <trkpt lat="45.604" lon="5.9888">
        <ele>1217.694357547</ele>
        <time>2015-12-16T10:03:16Z</time>
      </trkpt>
      <trkpt lat="45.60405" lon="5.98886">
        <ele>1217.694357547</ele>
        <time>2015-12-16T10:03:24Z</time>
      </trkpt>
      <trkpt lat="45.60415" lon="5.98881">
        <ele>1213.535848388</ele>
        <time>2015-12-16T10:03:32Z</time>
      </trkpt>
      <trkpt lat="45.60416" lon="5.98881">
        <ele>1213.535848388</ele>
        <time>2015-12-16T10:03:36Z</time>
      </trkpt>
      <trkpt lat="45.60418" lon="5.98884">
        <ele>1213.535848388</ele>
        <time>2015-12-16T10:03:47Z</time>
      </trkpt>
      <trkpt lat="45.60424" lon="5.98885">
        <ele>1209.453348396</ele>
        <time>2015-12-16T10:03:52Z</time>
      </trkpt>
      <trkpt lat="45.60437" lon="5.98892">
        <ele>1205.157634431</ele>
        <time>2015-12-16T10:04:07Z</time>
      </trkpt>
      <trkpt lat="45.6044" lon="5.98894">
        <ele>1205.157634431</ele>
        <time>2015-12-16T10:04:12Z</time>
      </trkpt>
      <trkpt lat="45.60443" lon="5.98899">
        <ele>1205.157634431</ele>
        <time>2015-12-16T10:04:22Z</time>
      </trkpt>
      <trkpt lat="45.60444" lon="5.98898">
        <ele>1200.381221523</ele>
        <time>2015-12-16T10:04:27Z</time>
      </trkpt>
      <trkpt lat="45.60448" lon="5.98897">
        <ele>1200.381221523</ele>
        <time>2015-12-16T10:04:37Z</time>
      </trkpt>
      <trkpt lat="45.60452" lon="5.98898">
        <ele>1200.381221523</ele>
        <time>2015-12-16T10:04:42Z</time>
      </trkpt>
      <trkpt lat="45.60461" lon="5.98896">
        <ele>1195.453952646</ele>
        <time>2015-12-16T10:04:51Z</time>
      </trkpt>
      <trkpt lat="45.60465" lon="5.98893">
        <ele>1195.453952646</ele>
        <time>2015-12-16T10:04:56Z</time>
      </trkpt>
      <trkpt lat="45.60476" lon="5.98896">
        <ele>1190.969963566</ele>
        <time>2015-12-16T10:05:06Z</time>
      </trkpt>
      <trkpt lat="45.60479" lon="5.98889">
        <ele>1190.969963566</ele>
        <time>2015-12-16T10:05:11Z</time>
      </trkpt>
      <trkpt lat="45.60486" lon="5.98888">
        <ele>1187.334261171</ele>
        <time>2015-12-16T10:05:22Z</time>
      </trkpt>
      <trkpt lat="45.6049" lon="5.98887">
        <ele>1187.334261171</ele>
        <time>2015-12-16T10:05:26Z</time>
      </trkpt>
      <trkpt lat="45.60498" lon="5.98887">
        <ele>1183.622586488</ele>
        <time>2015-12-16T10:05:36Z</time>
      </trkpt>
      <trkpt lat="45.605" lon="5.98887">
        <ele>1183.622586488</ele>
        <time>2015-12-16T10:05:42Z</time>
      </trkpt>
      <trkpt lat="45.60512" lon="5.98888">
        <ele>1179.843320277</ele>
        <time>2015-12-16T10:05:51Z</time>
      </trkpt>
      <trkpt lat="45.60516" lon="5.98888">
        <ele>1179.843320277</ele>
        <time>2015-12-16T10:05:57Z</time>
      </trkpt>
      <trkpt lat="45.60524" lon="5.98889">
        <ele>1176.148393454</ele>
        <time>2015-12-16T10:06:07Z</time>
      </trkpt>
      <trkpt lat="45.60526" lon="5.98888">
        <ele>1176.148393454</ele>
        <time>2015-12-16T10:06:11Z</time>
      </trkpt>
      <trkpt lat="45.60532" lon="5.98896">
        <ele>1173.254652904</ele>
        <time>2015-12-16T10:06:16Z</time>
      </trkpt>
      <trkpt lat="45.60545" lon="5.98903">
        <ele>1170.959246265</ele>
        <time>2015-12-16T10:06:27Z</time>
      </trkpt>
      <trkpt lat="45.6055" lon="5.98906">
        <ele>1170.959246265</ele>
        <time>2015-12-16T10:06:31Z</time>
      </trkpt>
      <trkpt lat="45.60562" lon="5.98913">
        <ele>1168.784204701</ele>
        <time>2015-12-16T10:06:42Z</time>
      </trkpt>
      <trkpt lat="45.60565" lon="5.98917">
        <ele>1168.784204701</ele>
        <time>2015-12-16T10:06:47Z</time>
      </trkpt>
      <trkpt lat="45.60569" lon="5.98918">
        <ele>1168.784204701</ele>
        <time>2015-12-16T10:06:57Z</time>
      </trkpt>
      <trkpt lat="45.60571" lon="5.9892">
        <ele>1165.998003869</ele>
        <time>2015-12-16T10:07:01Z</time>
      </trkpt>
      <trkpt lat="45.60573" lon="5.98919">
        <ele>1165.998003869</ele>
        <time>2015-12-16T10:07:11Z</time>
      </trkpt>
      <trkpt lat="45.60573" lon="5.98919">
        <ele>1165.998003869</ele>
        <time>2015-12-16T10:07:16Z</time>
      </trkpt>
      <trkpt lat="45.60579" lon="5.98918">
        <ele>1165.998003869</ele>
        <time>2015-12-16T10:07:27Z</time>
      </trkpt>
      <trkpt lat="45.60582" lon="5.98918">
        <ele>1162.933253596</ele>
        <time>2015-12-16T10:07:31Z</time>
      </trkpt>
      <trkpt lat="45.60586" lon="5.98918">
        <ele>1162.933253596</ele>
        <time>2015-12-16T10:07:42Z</time>
      </trkpt>
      <trkpt lat="45.60591" lon="5.9892">
        <ele>1162.933253596</ele>
        <time>2015-12-16T10:07:47Z</time>
      </trkpt>
      <trkpt lat="45.60608" lon="5.98937">
        <ele>1160.042937317</ele>
        <time>2015-12-16T10:08:02Z</time>
      </trkpt>
      <trkpt lat="45.60609" lon="5.98945">
        <ele>1160.042937317</ele>
        <time>2015-12-16T10:08:07Z</time>
      </trkpt>
      <trkpt lat="45.60613" lon="5.98953">
        <ele>1157.60208546</ele>
        <time>2015-12-16T10:08:18Z</time>
      </trkpt>
      <trkpt lat="45.60615" lon="5.98955">
        <ele>1157.60208546</ele>
        <time>2015-12-16T10:08:21Z</time>
      </trkpt>
      <trkpt lat="45.60624" lon="5.98966">
        <ele>1154.999528276</ele>
        <time>2015-12-16T10:08:31Z</time>
      </trkpt>
      <trkpt lat="45.60627" lon="5.98963">
        <ele>1154.999528276</ele>
        <time>2015-12-16T10:08:37Z</time>
      </trkpt>
      <trkpt lat="45.60634" lon="5.98963">
        <ele>1152.534052498</ele>
        <time>2015-12-16T10:08:47Z</time>
      </trkpt>
      <trkpt lat="45.60635" lon="5.98958">
        <ele>1152.534052498</ele>
        <time>2015-12-16T10:08:51Z</time>
      </trkpt>
      <trkpt lat="45.60644" lon="5.98954">
        <ele>1150.193838107</ele>
        <time>2015-12-16T10:09:02Z</time>
      </trkpt>
      <trkpt lat="45.60648" lon="5.98947">
        <ele>1150.193838107</ele>
        <time>2015-12-16T10:09:07Z</time>
      </trkpt>
      <trkpt lat="45.60654" lon="5.98947">
        <ele>1148.688097437</ele>
        <time>2015-12-16T10:09:19Z</time>
      </trkpt>
      <trkpt lat="45.60657" lon="5.98945">
        <ele>1148.688097437</ele>
        <time>2015-12-16T10:09:22Z</time>
      </trkpt>
      <trkpt lat="45.60655" lon="5.98943">
        <ele>1148.688097437</ele>
        <time>2015-12-16T10:09:31Z</time>
      </trkpt>
      <trkpt lat="45.60655" lon="5.98942">
        <ele>1148.688097437</ele>
        <time>2015-12-16T10:09:37Z</time>
      </trkpt>
      <trkpt lat="45.60656" lon="5.9894">
        <ele>1148.688097437</ele>
        <time>2015-12-16T10:09:46Z</time>
      </trkpt>
      <trkpt lat="45.60656" lon="5.9894">
        <ele>1148.688097437</ele>
        <time>2015-12-16T10:09:51Z</time>
      </trkpt>
      <trkpt lat="45.60655" lon="5.9894">
        <ele>1148.688097437</ele>
        <time>2015-12-16T10:10:02Z</time>
      </trkpt>
      <trkpt lat="45.60654" lon="5.98938">
        <ele>1146.798128874</ele>
        <time>2015-12-16T10:10:06Z</time>
      </trkpt>
      <trkpt lat="45.60661" lon="5.9893">
        <ele>1144.548704726</ele>
        <time>2015-12-16T10:10:16Z</time>
      </trkpt>
      <trkpt lat="45.60663" lon="5.98928">
        <ele>1144.548704726</ele>
        <time>2015-12-16T10:10:22Z</time>
      </trkpt>
      <trkpt lat="45.60667" lon="5.98919">
        <ele>1142.107889264</ele>
        <time>2015-12-16T10:10:31Z</time>
      </trkpt>
      <trkpt lat="45.60669" lon="5.98922">
        <ele>1142.107889264</ele>
        <time>2015-12-16T10:10:36Z</time>
      </trkpt>
      <trkpt lat="45.60677" lon="5.98926">
        <ele>1139.05549337</ele>
        <time>2015-12-16T10:10:47Z</time>
      </trkpt>
      <trkpt lat="45.60678" lon="5.98923">
        <ele>1139.05549337</ele>
        <time>2015-12-16T10:10:51Z</time>
      </trkpt>
      <trkpt lat="45.60684" lon="5.98925">
        <ele>1139.05549337</ele>
        <time>2015-12-16T10:10:56Z</time>
      </trkpt>
      <trkpt lat="45.60685" lon="5.98926">
        <ele>1136.877362409</ele>
        <time>2015-12-16T10:11:02Z</time>
      </trkpt>
      <trkpt lat="45.6069" lon="5.98926">
        <ele>1136.877362409</ele>
        <time>2015-12-16T10:11:06Z</time>
      </trkpt>
      <trkpt lat="45.60695" lon="5.98926">
        <ele>1135.794864299</ele>
        <time>2015-12-16T10:11:11Z</time>
      </trkpt>
      <trkpt lat="45.60705" lon="5.98926">
        <ele>1134.424830463</ele>
        <time>2015-12-16T10:11:22Z</time>
      </trkpt>
      <trkpt lat="45.6071" lon="5.98927">
        <ele>1134.424830463</ele>
        <time>2015-12-16T10:11:27Z</time>
      </trkpt>
      <trkpt lat="45.60716" lon="5.98928">
        <ele>1133.504094099</ele>
        <time>2015-12-16T10:11:36Z</time>
      </trkpt>
      <trkpt lat="45.6072" lon="5.98926">
        <ele>1133.504094099</ele>
        <time>2015-12-16T10:11:42Z</time>
      </trkpt>
      <trkpt lat="45.60723" lon="5.98925">
        <ele>1133.504094099</ele>
        <time>2015-12-16T10:11:51Z</time>
      </trkpt>
      <trkpt lat="45.60723" lon="5.98925">
        <ele>1133.504094099</ele>
        <time>2015-12-16T10:11:56Z</time>
      </trkpt>
      <trkpt lat="45.60723" lon="5.98925">
        <ele>1133.504094099</ele>
        <time>2015-12-16T10:12:07Z</time>
      </trkpt>
      <trkpt lat="45.60723" lon="5.98925">
        <ele>1133.504094099</ele>
        <time>2015-12-16T10:12:11Z</time>
      </trkpt>
      <trkpt lat="45.60723" lon="5.98925">
        <ele>1133.504094099</ele>
        <time>2015-12-16T10:12:21Z</time>
      </trkpt>
      <trkpt lat="45.60728" lon="5.9892">
        <ele>1133.137702096</ele>
        <time>2015-12-16T10:12:27Z</time>
      </trkpt>
      <trkpt lat="45.60737" lon="5.98909">
        <ele>1133.13326938</ele>
        <time>2015-12-16T10:12:36Z</time>
      </trkpt>
      <trkpt lat="45.6074" lon="5.98903">
        <ele>1133.13326938</ele>
        <time>2015-12-16T10:12:42Z</time>
      </trkpt>
      <trkpt lat="45.60743" lon="5.98898">
        <ele>1133.743941446</ele>
        <time>2015-12-16T10:12:52Z</time>
      </trkpt>
      <trkpt lat="45.60744" lon="5.98897">
        <ele>1133.743941446</ele>
        <time>2015-12-16T10:12:56Z</time>
      </trkpt>
      <trkpt lat="45.60748" lon="5.98894">
        <ele>1133.743941446</ele>
        <time>2015-12-16T10:13:08Z</time>
      </trkpt>
      <trkpt lat="45.6075" lon="5.98887">
        <ele>1134.914420453</ele>
        <time>2015-12-16T10:13:11Z</time>
      </trkpt>
      <trkpt lat="45.60753" lon="5.9888">
        <ele>1134.914420453</ele>
        <time>2015-12-16T10:13:16Z</time>
      </trkpt>
      <trkpt lat="45.60754" lon="5.98868">
        <ele>1137.024357999</ele>
        <time>2015-12-16T10:13:27Z</time>
      </trkpt>
      <trkpt lat="45.60757" lon="5.9886">
        <ele>1137.024357999</ele>
        <time>2015-12-16T10:13:32Z</time>
      </trkpt>
      <trkpt lat="45.60761" lon="5.98854">
        <ele>1139.702476297</ele>
        <time>2015-12-16T10:13:44Z</time>
      </trkpt>
      <trkpt lat="45.60762" lon="5.98847">
        <ele>1139.702476297</ele>
        <time>2015-12-16T10:13:46Z</time>
      </trkpt>
      <trkpt lat="45.60768" lon="5.98832">
        <ele>1142.026911935</ele>
        <time>2015-12-16T10:13:56Z</time>
      </trkpt>
      <trkpt lat="45.60768" lon="5.98828">
        <ele>1142.026911935</ele>
        <time>2015-12-16T10:14:01Z</time>
      </trkpt>
      <trkpt lat="45.60774" lon="5.98814">
        <ele>1144.874056098</ele>
        <time>2015-12-16T10:14:12Z</time>
      </trkpt>
      <trkpt lat="45.60774" lon="5.9881">
        <ele>1144.874056098</ele>
        <time>2015-12-16T10:14:16Z</time>
      </trkpt>
      <trkpt lat="45.60784" lon="5.98802">
        <ele>1147.901803529</ele>
        <time>2015-12-16T10:14:27Z</time>
      </trkpt>
      <trkpt lat="45.60787" lon="5.98799">
        <ele>1147.901803529</ele>
        <time>2015-12-16T10:14:32Z</time>
      </trkpt>
      <trkpt lat="45.60791" lon="5.98788">
        <ele>1150.648827912</ele>
        <time>2015-12-16T10:14:41Z</time>
      </trkpt>
      <trkpt lat="45.60796" lon="5.98789">
        <ele>1150.648827912</ele>
        <time>2015-12-16T10:14:46Z</time>
      </trkpt>
      <trkpt lat="45.60807" lon="5.98778">
        <ele>1153.841660344</ele>
        <time>2015-12-16T10:14:56Z</time>
      </trkpt>
      <trkpt lat="45.6081" lon="5.98778">
        <ele>1153.841660344</ele>
        <time>2015-12-16T10:15:01Z</time>
      </trkpt>
      <trkpt lat="45.6081" lon="5.98774">
        <ele>1153.841660344</ele>
        <time>2015-12-16T10:15:12Z</time>
      </trkpt>
      <trkpt lat="45.6081" lon="5.98774">
        <ele>1153.841660344</ele>
        <time>2015-12-16T10:15:16Z</time>
      </trkpt>
      <trkpt lat="45.60812" lon="5.9875">
        <ele>1157.287860141</ele>
        <time>2015-12-16T10:15:28Z</time>
      </trkpt>
      <trkpt lat="45.60812" lon="5.98746">
        <ele>1157.287860141</ele>
        <time>2015-12-16T10:15:31Z</time>
      </trkpt>
      <trkpt lat="45.60814" lon="5.98735">
        <ele>1160.520528806</ele>
        <time>2015-12-16T10:15:36Z</time>
      </trkpt>
      <trkpt lat="45.60815" lon="5.98711">
        <ele>1163.684468544</ele>
        <time>2015-12-16T10:15:47Z</time>
      </trkpt>
      <trkpt lat="45.60814" lon="5.98704">
        <ele>1163.684468544</ele>
        <time>2015-12-16T10:15:52Z</time>
      </trkpt>
      <trkpt lat="45.60814" lon="5.98689">
        <ele>1166.770303069</ele>
        <time>2015-12-16T10:16:01Z</time>
      </trkpt>
      <trkpt lat="45.60811" lon="5.98687">
        <ele>1166.770303069</ele>
        <time>2015-12-16T10:16:07Z</time>
      </trkpt>
      <trkpt lat="45.6081" lon="5.98672">
        <ele>1170.202290229</ele>
        <time>2015-12-16T10:16:16Z</time>
      </trkpt>
      <trkpt lat="45.60811" lon="5.9867">
        <ele>1170.202290229</ele>
        <time>2015-12-16T10:16:21Z</time>
      </trkpt>
      <trkpt lat="45.60814" lon="5.98661">
        <ele>1170.202290229</ele>
        <time>2015-12-16T10:16:32Z</time>
      </trkpt>
      <trkpt lat="45.60818" lon="5.98655">
        <ele>1173.796512718</ele>
        <time>2015-12-16T10:16:36Z</time>
      </trkpt>
      <trkpt lat="45.60825" lon="5.98645">
        <ele>1176.661969748</ele>
        <time>2015-12-16T10:16:47Z</time>
      </trkpt>
      <trkpt lat="45.60827" lon="5.98639">
        <ele>1176.661969748</ele>
        <time>2015-12-16T10:16:52Z</time>
      </trkpt>
      <trkpt lat="45.60828" lon="5.98631">
        <ele>1179.84902863</ele>
        <time>2015-12-16T10:17:08Z</time>
      </trkpt>
      <trkpt lat="45.60828" lon="5.98626">
        <ele>1179.84902863</ele>
        <time>2015-12-16T10:17:11Z</time>
      </trkpt>
      <trkpt lat="45.6083" lon="5.98621">
        <ele>1179.84902863</ele>
        <time>2015-12-16T10:17:16Z</time>
      </trkpt>
      <trkpt lat="45.6083" lon="5.98616">
        <ele>1183.321650462</ele>
        <time>2015-12-16T10:17:22Z</time>
      </trkpt>
      <trkpt lat="45.60831" lon="5.98614">
        <ele>1183.321650462</ele>
        <time>2015-12-16T10:17:27Z</time>
      </trkpt>
      <trkpt lat="45.60829" lon="5.986">
        <ele>1186.469636223</ele>
        <time>2015-12-16T10:17:36Z</time>
      </trkpt>
      <trkpt lat="45.60828" lon="5.98598">
        <ele>1186.469636223</ele>
        <time>2015-12-16T10:17:41Z</time>
      </trkpt>
      <trkpt lat="45.60828" lon="5.98583">
        <ele>1189.017184839</ele>
        <time>2015-12-16T10:17:52Z</time>
      </trkpt>
      <trkpt lat="45.60828" lon="5.98581">
        <ele>1189.017184839</ele>
        <time>2015-12-16T10:17:56Z</time>
      </trkpt>
      <trkpt lat="45.60827" lon="5.98566">
        <ele>1191.575546768</ele>
        <time>2015-12-16T10:18:08Z</time>
      </trkpt>
      <trkpt lat="45.60826" lon="5.98555">
        <ele>1191.575546768</ele>
        <time>2015-12-16T10:18:12Z</time>
      </trkpt>
      <trkpt lat="45.60826" lon="5.98538">
        <ele>1193.702698151</ele>
        <time>2015-12-16T10:18:21Z</time>
      </trkpt>
      <trkpt lat="45.60825" lon="5.98525">
        <ele>1193.702698151</ele>
        <time>2015-12-16T10:18:27Z</time>
      </trkpt>
      <trkpt lat="45.60824" lon="5.98507">
        <ele>1195.711280628</ele>
        <time>2015-12-16T10:18:41Z</time>
      </trkpt>
      <trkpt lat="45.60823" lon="5.98499">
        <ele>1195.711280628</ele>
        <time>2015-12-16T10:18:47Z</time>
      </trkpt>
      <trkpt lat="45.60828" lon="5.98475">
        <ele>1197.89172177</ele>
        <time>2015-12-16T10:18:57Z</time>
      </trkpt>
      <trkpt lat="45.60833" lon="5.98469">
        <ele>1197.89172177</ele>
        <time>2015-12-16T10:19:01Z</time>
      </trkpt>
      <trkpt lat="45.6084" lon="5.98454">
        <ele>1200.224819294</ele>
        <time>2015-12-16T10:19:12Z</time>
      </trkpt>
      <trkpt lat="45.60842" lon="5.98454">
        <ele>1200.224819294</ele>
        <time>2015-12-16T10:19:16Z</time>
      </trkpt>
      <trkpt lat="45.60852" lon="5.98446">
        <ele>1202.404528647</ele>
        <time>2015-12-16T10:19:27Z</time>
      </trkpt>
      <trkpt lat="45.60852" lon="5.98446">
        <ele>1202.404528647</ele>
        <time>2015-12-16T10:19:32Z</time>
      </trkpt>
      <trkpt lat="45.60861" lon="5.98439">
        <ele>1205.156882764</ele>
        <time>2015-12-16T10:19:47Z</time>
      </trkpt>
      <trkpt lat="45.60866" lon="5.98435">
        <ele>1205.156882764</ele>
        <time>2015-12-16T10:19:51Z</time>
      </trkpt>
      <trkpt lat="45.60867" lon="5.98434">
        <ele>1205.156882764</ele>
        <time>2015-12-16T10:20:01Z</time>
      </trkpt>
      <trkpt lat="45.60868" lon="5.98434">
        <ele>1205.156882764</ele>
        <time>2015-12-16T10:20:07Z</time>
      </trkpt>
      <trkpt lat="45.60869" lon="5.98435">
        <ele>1205.156882764</ele>
        <time>2015-12-16T10:20:11Z</time>
      </trkpt>
      <trkpt lat="45.6087" lon="5.98434">
        <ele>1208.144573673</ele>
        <time>2015-12-16T10:20:16Z</time>
      </trkpt>
      <trkpt lat="45.6087" lon="5.98434">
        <ele>1208.144573673</ele>
        <time>2015-12-16T10:20:21Z</time>
      </trkpt>
      <trkpt lat="45.6087" lon="5.98434">
        <ele>1208.144573673</ele>
        <time>2015-12-16T10:20:26Z</time>
      </trkpt>
      <trkpt lat="45.60871" lon="5.98434">
        <ele>1208.144573673</ele>
        <time>2015-12-16T10:20:31Z</time>
      </trkpt>
      <trkpt lat="45.60871" lon="5.98434">
        <ele>1208.144573673</ele>
        <time>2015-12-16T10:20:36Z</time>
      </trkpt>
      <trkpt lat="45.60871" lon="5.98434">
        <ele>1208.144573673</ele>
        <time>2015-12-16T10:20:41Z</time>
      </trkpt>
      <trkpt lat="45.60871" lon="5.98433">
        <ele>1208.144573673</ele>
        <time>2015-12-16T10:20:46Z</time>
      </trkpt>
      <trkpt lat="45.60872" lon="5.98433">
        <ele>1208.144573673</ele>
        <time>2015-12-16T10:20:51Z</time>
      </trkpt>
      <trkpt lat="45.60872" lon="5.98434">
        <ele>1208.144573673</ele>
        <time>2015-12-16T10:20:56Z</time>
      </trkpt>
      <trkpt lat="45.60883" lon="5.98434">
        <ele>1210.62244638</ele>
        <time>2015-12-16T10:21:07Z</time>
      </trkpt>
      <trkpt lat="45.6089" lon="5.98436">
        <ele>1210.62244638</ele>
        <time>2015-12-16T10:21:12Z</time>
      </trkpt>
      <trkpt lat="45.60897" lon="5.98432">
        <ele>1212.478317448</ele>
        <time>2015-12-16T10:21:16Z</time>
      </trkpt>
      <trkpt lat="45.60901" lon="5.98429">
        <ele>1212.478317448</ele>
        <time>2015-12-16T10:21:27Z</time>
      </trkpt>
      <trkpt lat="45.60909" lon="5.98424">
        <ele>1214.186780612</ele>
        <time>2015-12-16T10:21:32Z</time>
      </trkpt>
      <trkpt lat="45.60917" lon="5.98413">
        <ele>1215.755978964</ele>
        <time>2015-12-16T10:21:42Z</time>
      </trkpt>
      <trkpt lat="45.60924" lon="5.98394">
        <ele>1217.194164236</ele>
        <time>2015-12-16T10:21:56Z</time>
      </trkpt>
      <trkpt lat="45.60924" lon="5.98389">
        <ele>1217.194164236</ele>
        <time>2015-12-16T10:22:01Z</time>
      </trkpt>
      <trkpt lat="45.60931" lon="5.98373">
        <ele>1218.941981852</ele>
        <time>2015-12-16T10:22:12Z</time>
      </trkpt>
      <trkpt lat="45.60935" lon="5.9837">
        <ele>1218.941981852</ele>
        <time>2015-12-16T10:22:16Z</time>
      </trkpt>
      <trkpt lat="45.60944" lon="5.98356">
        <ele>1219.677784911</ele>
        <time>2015-12-16T10:22:27Z</time>
      </trkpt>
      <trkpt lat="45.60946" lon="5.98353">
        <ele>1219.677784911</ele>
        <time>2015-12-16T10:22:32Z</time>
      </trkpt>
      <trkpt lat="45.60951" lon="5.98341">
        <ele>1221.06233765</ele>
        <time>2015-12-16T10:22:47Z</time>
      </trkpt>
      <trkpt lat="45.60951" lon="5.98339">
        <ele>1221.06233765</ele>
        <time>2015-12-16T10:22:52Z</time>
      </trkpt>
      <trkpt lat="45.60963" lon="5.98332">
        <ele>1222.471160957</ele>
        <time>2015-12-16T10:23:01Z</time>
      </trkpt>
      <trkpt lat="45.60969" lon="5.98328">
        <ele>1222.471160957</ele>
        <time>2015-12-16T10:23:08Z</time>
      </trkpt>
      <trkpt lat="45.60976" lon="5.98318">
        <ele>1223.037582458</ele>
        <time>2015-12-16T10:23:17Z</time>
      </trkpt>
      <trkpt lat="45.60981" lon="5.98316">
        <ele>1223.037582458</ele>
        <time>2015-12-16T10:23:22Z</time>
      </trkpt>
      <trkpt lat="45.6099" lon="5.98303">
        <ele>1224.266941401</ele>
        <time>2015-12-16T10:23:32Z</time>
      </trkpt>
      <trkpt lat="45.60994" lon="5.98299">
        <ele>1224.266941401</ele>
        <time>2015-12-16T10:23:37Z</time>
      </trkpt>
      <trkpt lat="45.61" lon="5.98288">
        <ele>1225.390654945</ele>
        <time>2015-12-16T10:23:47Z</time>
      </trkpt>
      <trkpt lat="45.61005" lon="5.98285">
        <ele>1225.390654945</ele>
        <time>2015-12-16T10:23:52Z</time>
      </trkpt>
      <trkpt lat="45.61013" lon="5.98269">
        <ele>1225.985286505</ele>
        <time>2015-12-16T10:24:02Z</time>
      </trkpt>
      <trkpt lat="45.61014" lon="5.98259">
        <ele>1225.985286505</ele>
        <time>2015-12-16T10:24:07Z</time>
      </trkpt>
      <trkpt lat="45.61017" lon="5.98245">
        <ele>1226.3806941</ele>
        <time>2015-12-16T10:24:17Z</time>
      </trkpt>
      <trkpt lat="45.61017" lon="5.9824">
        <ele>1226.3806941</ele>
        <time>2015-12-16T10:24:22Z</time>
      </trkpt>
      <trkpt lat="45.61025" lon="5.98225">
        <ele>1226.739082919</ele>
        <time>2015-12-16T10:24:32Z</time>
      </trkpt>
      <trkpt lat="45.61026" lon="5.98221">
        <ele>1226.739082919</ele>
        <time>2015-12-16T10:24:36Z</time>
      </trkpt>
      <trkpt lat="45.61026" lon="5.98221">
        <ele>1226.739082919</ele>
        <time>2015-12-16T10:24:46Z</time>
      </trkpt>
      <trkpt lat="45.61026" lon="5.9822">
        <ele>1226.739082919</ele>
        <time>2015-12-16T10:24:51Z</time>
      </trkpt>
      <trkpt lat="45.61026" lon="5.9822">
        <ele>1226.739082919</ele>
        <time>2015-12-16T10:24:56Z</time>
      </trkpt>
      <trkpt lat="45.61023" lon="5.98196">
        <ele>1227.64329242</ele>
        <time>2015-12-16T10:25:07Z</time>
      </trkpt>
      <trkpt lat="45.61024" lon="5.98192">
        <ele>1227.64329242</ele>
        <time>2015-12-16T10:25:12Z</time>
      </trkpt>
      <trkpt lat="45.61026" lon="5.98179">
        <ele>1228.190798344</ele>
        <time>2015-12-16T10:25:21Z</time>
      </trkpt>
      <trkpt lat="45.61027" lon="5.98179">
        <ele>1228.190798344</ele>
        <time>2015-12-16T10:25:26Z</time>
      </trkpt>
      <trkpt lat="45.61032" lon="5.98161">
        <ele>1229.131676857</ele>
        <time>2015-12-16T10:25:36Z</time>
      </trkpt>
      <trkpt lat="45.61035" lon="5.98152">
        <ele>1229.131676857</ele>
        <time>2015-12-16T10:25:41Z</time>
      </trkpt>
      <trkpt lat="45.61039" lon="5.98138">
        <ele>1230.006974707</ele>
        <time>2015-12-16T10:25:52Z</time>
      </trkpt>
      <trkpt lat="45.61042" lon="5.98129">
        <ele>1230.006974707</ele>
        <time>2015-12-16T10:25:57Z</time>
      </trkpt>
      <trkpt lat="45.6104" lon="5.98119">
        <ele>1230.535798433</ele>
        <time>2015-12-16T10:26:07Z</time>
      </trkpt>
      <trkpt lat="45.61042" lon="5.98117">
        <ele>1230.535798433</ele>
        <time>2015-12-16T10:26:11Z</time>
      </trkpt>
      <trkpt lat="45.61043" lon="5.98109">
        <ele>1230.535798433</ele>
        <time>2015-12-16T10:26:22Z</time>
      </trkpt>
      <trkpt lat="45.61047" lon="5.98102">
        <ele>1231.035342825</ele>
        <time>2015-12-16T10:26:26Z</time>
      </trkpt>
      <trkpt lat="45.6105" lon="5.9809">
        <ele>1231.035342825</ele>
        <time>2015-12-16T10:26:37Z</time>
      </trkpt>
      <trkpt lat="45.61056" lon="5.98084">
        <ele>1232.087832176</ele>
        <time>2015-12-16T10:26:42Z</time>
      </trkpt>
      <trkpt lat="45.61058" lon="5.98072">
        <ele>1232.087832176</ele>
        <time>2015-12-16T10:26:56Z</time>
      </trkpt>
      <trkpt lat="45.61061" lon="5.98071">
        <ele>1232.790072757</ele>
        <time>2015-12-16T10:27:01Z</time>
      </trkpt>
      <trkpt lat="45.61069" lon="5.98071">
        <ele>1232.790072757</ele>
        <time>2015-12-16T10:27:07Z</time>
      </trkpt>
      <trkpt lat="45.61072" lon="5.98052">
        <ele>1232.450315159</ele>
        <time>2015-12-16T10:27:17Z</time>
      </trkpt>
      <trkpt lat="45.61072" lon="5.98041">
        <ele>1232.450315159</ele>
        <time>2015-12-16T10:27:21Z</time>
      </trkpt>
      <trkpt lat="45.61078" lon="5.98021">
        <ele>1232.303984319</ele>
        <time>2015-12-16T10:27:36Z</time>
      </trkpt>
      <trkpt lat="45.61081" lon="5.98004">
        <ele>1232.774631923</ele>
        <time>2015-12-16T10:27:47Z</time>
      </trkpt>
      <trkpt lat="45.61083" lon="5.97996">
        <ele>1232.774631923</ele>
        <time>2015-12-16T10:27:51Z</time>
      </trkpt>
      <trkpt lat="45.61085" lon="5.97982">
        <ele>1233.964710563</ele>
        <time>2015-12-16T10:28:06Z</time>
      </trkpt>
      <trkpt lat="45.61089" lon="5.97977">
        <ele>1233.964710563</ele>
        <time>2015-12-16T10:28:11Z</time>
      </trkpt>
      <trkpt lat="45.61088" lon="5.97961">
        <ele>1235.534754815</ele>
        <time>2015-12-16T10:28:22Z</time>
      </trkpt>
      <trkpt lat="45.61087" lon="5.97955">
        <ele>1235.534754815</ele>
        <time>2015-12-16T10:28:27Z</time>
      </trkpt>
      <trkpt lat="45.61088" lon="5.9794">
        <ele>1237.601460567</ele>
        <time>2015-12-16T10:28:37Z</time>
      </trkpt>
      <trkpt lat="45.6109" lon="5.97935">
        <ele>1237.601460567</ele>
        <time>2015-12-16T10:28:42Z</time>
      </trkpt>
      <trkpt lat="45.61095" lon="5.97927">
        <ele>1239.406848426</ele>
        <time>2015-12-16T10:28:52Z</time>
      </trkpt>
      <trkpt lat="45.61095" lon="5.97926">
        <ele>1239.406848426</ele>
        <time>2015-12-16T10:28:57Z</time>
      </trkpt>
      <trkpt lat="45.61098" lon="5.97922">
        <ele>1239.406848426</ele>
        <time>2015-12-16T10:29:07Z</time>
      </trkpt>
      <trkpt lat="45.61098" lon="5.97917">
        <ele>1239.406848426</ele>
        <time>2015-12-16T10:29:12Z</time>
      </trkpt>
      <trkpt lat="45.61101" lon="5.97899">
        <ele>1240.681645889</ele>
        <time>2015-12-16T10:29:22Z</time>
      </trkpt>
      <trkpt lat="45.61101" lon="5.97893">
        <ele>1240.681645889</ele>
        <time>2015-12-16T10:29:27Z</time>
      </trkpt>
      <trkpt lat="45.61104" lon="5.97883">
        <ele>1242.763035735</ele>
        <time>2015-12-16T10:29:36Z</time>
      </trkpt>
      <trkpt lat="45.61105" lon="5.97877">
        <ele>1242.763035735</ele>
        <time>2015-12-16T10:29:41Z</time>
      </trkpt>
      <trkpt lat="45.61107" lon="5.97874">
        <ele>1242.763035735</ele>
        <time>2015-12-16T10:29:52Z</time>
      </trkpt>
      <trkpt lat="45.61111" lon="5.97868">
        <ele>1244.726008803</ele>
        <time>2015-12-16T10:29:57Z</time>
      </trkpt>
      <trkpt lat="45.6112" lon="5.97856">
        <ele>1245.857918891</ele>
        <time>2015-12-16T10:30:11Z</time>
      </trkpt>
      <trkpt lat="45.6112" lon="5.97855">
        <ele>1245.857918891</ele>
        <time>2015-12-16T10:30:16Z</time>
      </trkpt>
      <trkpt lat="45.6112" lon="5.97853">
        <ele>1245.857918891</ele>
        <time>2015-12-16T10:30:26Z</time>
      </trkpt>
      <trkpt lat="45.6112" lon="5.97853">
        <ele>1245.857918891</ele>
        <time>2015-12-16T10:30:31Z</time>
      </trkpt>
      <trkpt lat="45.61125" lon="5.97844">
        <ele>1248.094775138</ele>
        <time>2015-12-16T10:30:42Z</time>
      </trkpt>
      <trkpt lat="45.61124" lon="5.9784">
        <ele>1248.094775138</ele>
        <time>2015-12-16T10:30:46Z</time>
      </trkpt>
      <trkpt lat="45.61125" lon="5.97832">
        <ele>1248.094775138</ele>
        <time>2015-12-16T10:30:56Z</time>
      </trkpt>
      <trkpt lat="45.61124" lon="5.97823">
        <ele>1250.77735609</ele>
        <time>2015-12-16T10:31:02Z</time>
      </trkpt>
      <trkpt lat="45.61127" lon="5.97814">
        <ele>1250.77735609</ele>
        <time>2015-12-16T10:31:11Z</time>
      </trkpt>
      <trkpt lat="45.61128" lon="5.97812">
        <ele>1250.77735609</ele>
        <time>2015-12-16T10:31:19Z</time>
      </trkpt>
      <trkpt lat="45.61129" lon="5.97805">
        <ele>1253.437709509</ele>
        <time>2015-12-16T10:31:28Z</time>
      </trkpt>
      <trkpt lat="45.61131" lon="5.97802">
        <ele>1253.437709509</ele>
        <time>2015-12-16T10:31:31Z</time>
      </trkpt>
      <trkpt lat="45.61131" lon="5.97801">
        <ele>1253.437709509</ele>
        <time>2015-12-16T10:31:41Z</time>
      </trkpt>
      <trkpt lat="45.61133" lon="5.97798">
        <ele>1253.437709509</ele>
        <time>2015-12-16T10:31:47Z</time>
      </trkpt>
      <trkpt lat="45.61142" lon="5.97789">
        <ele>1255.930532445</ele>
        <time>2015-12-16T10:32:02Z</time>
      </trkpt>
      <trkpt lat="45.61144" lon="5.97787">
        <ele>1255.930532445</ele>
        <time>2015-12-16T10:32:07Z</time>
      </trkpt>
      <trkpt lat="45.61145" lon="5.97786">
        <ele>1255.930532445</ele>
        <time>2015-12-16T10:32:20Z</time>
      </trkpt>
      <trkpt lat="45.61151" lon="5.97784">
        <ele>1258.121662697</ele>
        <time>2015-12-16T10:32:22Z</time>
      </trkpt>
      <trkpt lat="45.61156" lon="5.9778">
        <ele>1258.121662697</ele>
        <time>2015-12-16T10:32:31Z</time>
      </trkpt>
      <trkpt lat="45.61158" lon="5.97778">
        <ele>1258.121662697</ele>
        <time>2015-12-16T10:32:36Z</time>
      </trkpt>
      <trkpt lat="45.61161" lon="5.97774">
        <ele>1260.464088755</ele>
        <time>2015-12-16T10:32:46Z</time>
      </trkpt>
      <trkpt lat="45.61162" lon="5.97773">
        <ele>1260.464088755</ele>
        <time>2015-12-16T10:32:51Z</time>
      </trkpt>
      <trkpt lat="45.61165" lon="5.97769">
        <ele>1260.464088755</ele>
        <time>2015-12-16T10:33:07Z</time>
      </trkpt>
      <trkpt lat="45.61165" lon="5.97768">
        <ele>1260.464088755</ele>
        <time>2015-12-16T10:33:11Z</time>
      </trkpt>
      <trkpt lat="45.61165" lon="5.97742">
        <ele>1263.95355522</ele>
        <time>2015-12-16T10:33:23Z</time>
      </trkpt>
      <trkpt lat="45.61164" lon="5.97735">
        <ele>1263.95355522</ele>
        <time>2015-12-16T10:33:27Z</time>
      </trkpt>
      <trkpt lat="45.61163" lon="5.97728">
        <ele>1267.636017731</ele>
        <time>2015-12-16T10:33:38Z</time>
      </trkpt>
      <trkpt lat="45.61163" lon="5.97726">
        <ele>1267.636017731</ele>
        <time>2015-12-16T10:33:41Z</time>
      </trkpt>
      <trkpt lat="45.61158" lon="5.97719">
        <ele>1267.636017731</ele>
        <time>2015-12-16T10:33:51Z</time>
      </trkpt>
      <trkpt lat="45.61158" lon="5.9771">
        <ele>1270.915226928</ele>
        <time>2015-12-16T10:33:59Z</time>
      </trkpt>
      <trkpt lat="45.61148" lon="5.97697">
        <ele>1274.536907709</ele>
        <time>2015-12-16T10:34:07Z</time>
      </trkpt>
      <trkpt lat="45.61144" lon="5.97696">
        <ele>1274.536907709</ele>
        <time>2015-12-16T10:34:11Z</time>
      </trkpt>
      <trkpt lat="45.61142" lon="5.97692">
        <ele>1274.536907709</ele>
        <time>2015-12-16T10:34:16Z</time>
      </trkpt>
      <trkpt lat="45.61141" lon="5.97689">
        <ele>1278.326431799</ele>
        <time>2015-12-16T10:34:22Z</time>
      </trkpt>
      <trkpt lat="45.61137" lon="5.97684">
        <ele>1278.326431799</ele>
        <time>2015-12-16T10:34:26Z</time>
      </trkpt>
      <trkpt lat="45.61133" lon="5.97683">
        <ele>1281.977483763</ele>
        <time>2015-12-16T10:34:31Z</time>
      </trkpt>
      <trkpt lat="45.61123" lon="5.97675">
        <ele>1284.77438105</ele>
        <time>2015-12-16T10:34:42Z</time>
      </trkpt>
      <trkpt lat="45.61121" lon="5.97671">
        <ele>1284.77438105</ele>
        <time>2015-12-16T10:34:48Z</time>
      </trkpt>
      <trkpt lat="45.61108" lon="5.97663">
        <ele>1287.209383594</ele>
        <time>2015-12-16T10:34:56Z</time>
      </trkpt>
      <trkpt lat="45.61097" lon="5.97657">
        <ele>1290.460250167</ele>
        <time>2015-12-16T10:35:11Z</time>
      </trkpt>
      <trkpt lat="45.61093" lon="5.97652">
        <ele>1290.460250167</ele>
        <time>2015-12-16T10:35:16Z</time>
      </trkpt>
      <trkpt lat="45.61084" lon="5.97647">
        <ele>1292.589689093</ele>
        <time>2015-12-16T10:35:27Z</time>
      </trkpt>
      <trkpt lat="45.61079" lon="5.97649">
        <ele>1292.589689093</ele>
        <time>2015-12-16T10:35:31Z</time>
      </trkpt>
      <trkpt lat="45.61077" lon="5.97642">
        <ele>1294.976402565</ele>
        <time>2015-12-16T10:35:36Z</time>
      </trkpt>
      <trkpt lat="45.61071" lon="5.97641">
        <ele>1294.976402565</ele>
        <time>2015-12-16T10:35:42Z</time>
      </trkpt>
      <trkpt lat="45.61066" lon="5.97637">
        <ele>1296.447289573</ele>
        <time>2015-12-16T10:35:46Z</time>
      </trkpt>
      <trkpt lat="45.61061" lon="5.97635">
        <ele>1296.447289573</ele>
        <time>2015-12-16T10:35:51Z</time>
      </trkpt>
      <trkpt lat="45.6105" lon="5.97622">
        <ele>1297.070963621</ele>
        <time>2015-12-16T10:36:02Z</time>
      </trkpt>
      <trkpt lat="45.61046" lon="5.97623">
        <ele>1297.070963621</ele>
        <time>2015-12-16T10:36:07Z</time>
      </trkpt>
      <trkpt lat="45.61039" lon="5.97612">
        <ele>1296.913443851</ele>
        <time>2015-12-16T10:36:16Z</time>
      </trkpt>
      <trkpt lat="45.6104" lon="5.9761">
        <ele>1296.913443851</ele>
        <time>2015-12-16T10:36:22Z</time>
      </trkpt>
      <trkpt lat="45.61041" lon="5.97608">
        <ele>1296.913443851</ele>
        <time>2015-12-16T10:36:31Z</time>
      </trkpt>
      <trkpt lat="45.61041" lon="5.97608">
        <ele>1296.913443851</ele>
        <time>2015-12-16T10:36:36Z</time>
      </trkpt>
      <trkpt lat="45.61041" lon="5.97608">
        <ele>1296.913443851</ele>
        <time>2015-12-16T10:36:46Z</time>
      </trkpt>
      <trkpt lat="45.61043" lon="5.97601">
        <ele>1296.913443851</ele>
        <time>2015-12-16T10:36:51Z</time>
      </trkpt>
      <trkpt lat="45.61046" lon="5.97586">
        <ele>1297.046924037</ele>
        <time>2015-12-16T10:37:01Z</time>
      </trkpt>
      <trkpt lat="45.61051" lon="5.9758">
        <ele>1297.046924037</ele>
        <time>2015-12-16T10:37:07Z</time>
      </trkpt>
      <trkpt lat="45.61054" lon="5.97568">
        <ele>1297.599389577</ele>
        <time>2015-12-16T10:37:21Z</time>
      </trkpt>
      <trkpt lat="45.61055" lon="5.97567">
        <ele>1297.599389577</ele>
        <time>2015-12-16T10:37:26Z</time>
      </trkpt>
      <trkpt lat="45.61054" lon="5.97559">
        <ele>1297.599389577</ele>
        <time>2015-12-16T10:37:37Z</time>
      </trkpt>
      <trkpt lat="45.61051" lon="5.9755">
        <ele>1298.111824327</ele>
        <time>2015-12-16T10:37:42Z</time>
      </trkpt>
      <trkpt lat="45.61048" lon="5.97543">
        <ele>1298.111824327</ele>
        <time>2015-12-16T10:37:52Z</time>
      </trkpt>
      <trkpt lat="45.61046" lon="5.97536">
        <ele>1299.888384064</ele>
        <time>2015-12-16T10:37:57Z</time>
      </trkpt>
      <trkpt lat="45.61042" lon="5.97528">
        <ele>1299.888384064</ele>
        <time>2015-12-16T10:38:06Z</time>
      </trkpt>
      <trkpt lat="45.6104" lon="5.97526">
        <ele>1301.828094199</ele>
        <time>2015-12-16T10:38:12Z</time>
      </trkpt>
      <trkpt lat="45.6104" lon="5.97522">
        <ele>1301.828094199</ele>
        <time>2015-12-16T10:38:16Z</time>
      </trkpt>
      <trkpt lat="45.6104" lon="5.97522">
        <ele>1301.828094199</ele>
        <time>2015-12-16T10:38:21Z</time>
      </trkpt>
      <trkpt lat="45.61039" lon="5.97523">
        <ele>1301.828094199</ele>
        <time>2015-12-16T10:38:26Z</time>
      </trkpt>
      <trkpt lat="45.6104" lon="5.97523">
        <ele>1301.828094199</ele>
        <time>2015-12-16T10:38:31Z</time>
      </trkpt>
      <trkpt lat="45.6104" lon="5.97523">
        <ele>1301.828094199</ele>
        <time>2015-12-16T10:38:42Z</time>
      </trkpt>
      <trkpt lat="45.6104" lon="5.97523">
        <ele>1301.828094199</ele>
        <time>2015-12-16T10:38:47Z</time>
      </trkpt>
      <trkpt lat="45.61044" lon="5.97506">
        <ele>1303.198612335</ele>
        <time>2015-12-16T10:38:57Z</time>
      </trkpt>
      <trkpt lat="45.61046" lon="5.97501">
        <ele>1303.198612335</ele>
        <time>2015-12-16T10:39:02Z</time>
      </trkpt>
      <trkpt lat="45.61046" lon="5.97495">
        <ele>1303.198612335</ele>
        <time>2015-12-16T10:39:16Z</time>
      </trkpt>
      <trkpt lat="45.61046" lon="5.97494">
        <ele>1304.1876433</ele>
        <time>2015-12-16T10:39:21Z</time>
      </trkpt>
      <trkpt lat="45.61046" lon="5.97494">
        <ele>1304.1876433</ele>
        <time>2015-12-16T10:39:27Z</time>
      </trkpt>
      <trkpt lat="45.61046" lon="5.97494">
        <ele>1304.1876433</ele>
        <time>2015-12-16T10:39:31Z</time>
      </trkpt>
      <trkpt lat="45.61048" lon="5.97492">
        <ele>1304.1876433</ele>
        <time>2015-12-16T10:39:36Z</time>
      </trkpt>
      <trkpt lat="45.61056" lon="5.97488">
        <ele>1305.402489535</ele>
        <time>2015-12-16T10:39:47Z</time>
      </trkpt>
      <trkpt lat="45.61058" lon="5.97488">
        <ele>1305.402489535</ele>
        <time>2015-12-16T10:39:51Z</time>
      </trkpt>
      <trkpt lat="45.6106" lon="5.97485">
        <ele>1305.402489535</ele>
        <time>2015-12-16T10:40:01Z</time>
      </trkpt>
      <trkpt lat="45.61061" lon="5.97485">
        <ele>1305.402489535</ele>
        <time>2015-12-16T10:40:07Z</time>
      </trkpt>
      <trkpt lat="45.61061" lon="5.97485">
        <ele>1305.402489535</ele>
        <time>2015-12-16T10:40:16Z</time>
      </trkpt>
      <trkpt lat="45.61061" lon="5.97481">
        <ele>1307.405187398</ele>
        <time>2015-12-16T10:40:22Z</time>
      </trkpt>
      <trkpt lat="45.61061" lon="5.97477">
        <ele>1307.405187398</ele>
        <time>2015-12-16T10:40:31Z</time>
      </trkpt>
      <trkpt lat="45.61062" lon="5.97477">
        <ele>1307.405187398</ele>
        <time>2015-12-16T10:40:36Z</time>
      </trkpt>
      <trkpt lat="45.61062" lon="5.97473">
        <ele>1307.405187398</ele>
        <time>2015-12-16T10:40:46Z</time>
      </trkpt>
      <trkpt lat="45.61062" lon="5.97472">
        <ele>1307.405187398</ele>
        <time>2015-12-16T10:40:51Z</time>
      </trkpt>
      <trkpt lat="45.61062" lon="5.97472">
        <ele>1307.405187398</ele>
        <time>2015-12-16T10:41:01Z</time>
      </trkpt>
      <trkpt lat="45.61062" lon="5.97472">
        <ele>1307.405187398</ele>
        <time>2015-12-16T10:41:06Z</time>
      </trkpt>
      <trkpt lat="45.61066" lon="5.97472">
        <ele>1309.561363804</ele>
        <time>2015-12-16T10:41:17Z</time>
      </trkpt>
      <trkpt lat="45.61066" lon="5.97467">
        <ele>1309.561363804</ele>
        <time>2015-12-16T10:41:21Z</time>
      </trkpt>
      <trkpt lat="45.61065" lon="5.9746">
        <ele>1309.561363804</ele>
        <time>2015-12-16T10:41:32Z</time>
      </trkpt>
      <trkpt lat="45.61066" lon="5.97459">
        <ele>1312.579794136</ele>
        <time>2015-12-16T10:41:37Z</time>
      </trkpt>
      <trkpt lat="45.61065" lon="5.97457">
        <ele>1312.579794136</ele>
        <time>2015-12-16T10:41:42Z</time>
      </trkpt>
      <trkpt lat="45.61066" lon="5.97451">
        <ele>1312.579794136</ele>
        <time>2015-12-16T10:41:53Z</time>
      </trkpt>
      <trkpt lat="45.61066" lon="5.97451">
        <ele>1312.579794136</ele>
        <time>2015-12-16T10:41:56Z</time>
      </trkpt>
      <trkpt lat="45.61067" lon="5.97448">
        <ele>1312.579794136</ele>
        <time>2015-12-16T10:42:06Z</time>
      </trkpt>
      <trkpt lat="45.61069" lon="5.97446">
        <ele>1315.673639285</ele>
        <time>2015-12-16T10:42:11Z</time>
      </trkpt>
      <trkpt lat="45.61069" lon="5.97442">
        <ele>1315.673639285</ele>
        <time>2015-12-16T10:42:21Z</time>
      </trkpt>
      <trkpt lat="45.61068" lon="5.9744">
        <ele>1315.673639285</ele>
        <time>2015-12-16T10:42:27Z</time>
      </trkpt>
      <trkpt lat="45.6107" lon="5.97437">
        <ele>1315.673639285</ele>
        <time>2015-12-16T10:42:37Z</time>
      </trkpt>
      <trkpt lat="45.6107" lon="5.97435">
        <ele>1319.410640599</ele>
        <time>2015-12-16T10:42:42Z</time>
      </trkpt>
      <trkpt lat="45.6107" lon="5.97435">
        <ele>1319.410640599</ele>
        <time>2015-12-16T10:42:51Z</time>
      </trkpt>
      <trkpt lat="45.61072" lon="5.97434">
        <ele>1319.410640599</ele>
        <time>2015-12-16T10:42:57Z</time>
      </trkpt>
      <trkpt lat="45.61074" lon="5.97433">
        <ele>1319.410640599</ele>
        <time>2015-12-16T10:43:06Z</time>
      </trkpt>
      <trkpt lat="45.61074" lon="5.97433">
        <ele>1319.410640599</ele>
        <time>2015-12-16T10:43:12Z</time>
      </trkpt>
      <trkpt lat="45.61079" lon="5.97423">
        <ele>1322.729807294</ele>
        <time>2015-12-16T10:43:22Z</time>
      </trkpt>
      <trkpt lat="45.61079" lon="5.97422">
        <ele>1322.729807294</ele>
        <time>2015-12-16T10:43:27Z</time>
      </trkpt>
      <trkpt lat="45.61078" lon="5.97416">
        <ele>1322.729807294</ele>
        <time>2015-12-16T10:43:41Z</time>
      </trkpt>
      <trkpt lat="45.6108" lon="5.97414">
        <ele>1322.729807294</ele>
        <time>2015-12-16T10:43:46Z</time>
      </trkpt>
      <trkpt lat="45.6108" lon="5.97411">
        <ele>1326.234495954</ele>
        <time>2015-12-16T10:43:56Z</time>
      </trkpt>
      <trkpt lat="45.61084" lon="5.97407">
        <ele>1326.234495954</ele>
        <time>2015-12-16T10:44:01Z</time>
      </trkpt>
      <trkpt lat="45.61087" lon="5.97407">
        <ele>1326.234495954</ele>
        <time>2015-12-16T10:44:12Z</time>
      </trkpt>
      <trkpt lat="45.61088" lon="5.97405">
        <ele>1329.330354663</ele>
        <time>2015-12-16T10:44:17Z</time>
      </trkpt>
      <trkpt lat="45.61088" lon="5.97404">
        <ele>1329.330354663</ele>
        <time>2015-12-16T10:44:27Z</time>
      </trkpt>
      <trkpt lat="45.61087" lon="5.97401">
        <ele>1329.330354663</ele>
        <time>2015-12-16T10:44:33Z</time>
      </trkpt>
      <trkpt lat="45.61087" lon="5.97402">
        <ele>1329.330354663</ele>
        <time>2015-12-16T10:44:42Z</time>
      </trkpt>
      <trkpt lat="45.61087" lon="5.97402">
        <ele>1329.330354663</ele>
        <time>2015-12-16T10:44:47Z</time>
      </trkpt>
      <trkpt lat="45.61088" lon="5.97397">
        <ele>1329.330354663</ele>
        <time>2015-12-16T10:44:56Z</time>
      </trkpt>
      <trkpt lat="45.61089" lon="5.97398">
        <ele>1329.330354663</ele>
        <time>2015-12-16T10:45:02Z</time>
      </trkpt>
      <trkpt lat="45.6109" lon="5.97393">
        <ele>1333.485430649</ele>
        <time>2015-12-16T10:45:17Z</time>
      </trkpt>
      <trkpt lat="45.61091" lon="5.97392">
        <ele>1333.485430649</ele>
        <time>2015-12-16T10:45:21Z</time>
      </trkpt>
      <trkpt lat="45.61095" lon="5.97396">
        <ele>1333.485430649</ele>
        <time>2015-12-16T10:45:32Z</time>
      </trkpt>
      <trkpt lat="45.61095" lon="5.97396">
        <ele>1333.485430649</ele>
        <time>2015-12-16T10:45:36Z</time>
      </trkpt>
      <trkpt lat="45.61095" lon="5.97396">
        <ele>1333.485430649</ele>
        <time>2015-12-16T10:45:46Z</time>
      </trkpt>
      <trkpt lat="45.61095" lon="5.97396">
        <ele>1333.485430649</ele>
        <time>2015-12-16T10:45:51Z</time>
      </trkpt>
      <trkpt lat="45.61095" lon="5.97396">
        <ele>1333.485430649</ele>
        <time>2015-12-16T10:46:01Z</time>
      </trkpt>
      <trkpt lat="45.61096" lon="5.97395">
        <ele>1333.485430649</ele>
        <time>2015-12-16T10:46:07Z</time>
      </trkpt>
      <trkpt lat="45.61099" lon="5.97394">
        <ele>1336.886557118</ele>
        <time>2015-12-16T10:46:16Z</time>
      </trkpt>
      <trkpt lat="45.61099" lon="5.97394">
        <ele>1336.886557118</ele>
        <time>2015-12-16T10:46:22Z</time>
      </trkpt>
      <trkpt lat="45.61099" lon="5.97394">
        <ele>1336.886557118</ele>
        <time>2015-12-16T10:46:31Z</time>
      </trkpt>
      <trkpt lat="45.61099" lon="5.97394">
        <ele>1336.886557118</ele>
        <time>2015-12-16T10:46:36Z</time>
      </trkpt>
      <trkpt lat="45.61102" lon="5.97381">
        <ele>1340.449932193</ele>
        <time>2015-12-16T10:46:47Z</time>
      </trkpt>
      <trkpt lat="45.61103" lon="5.97378">
        <ele>1340.449932193</ele>
        <time>2015-12-16T10:46:51Z</time>
      </trkpt>
      <trkpt lat="45.61103" lon="5.97378">
        <ele>1340.449932193</ele>
        <time>2015-12-16T10:47:02Z</time>
      </trkpt>
      <trkpt lat="45.61103" lon="5.97378">
        <ele>1340.449932193</ele>
        <time>2015-12-16T10:47:06Z</time>
      </trkpt>
      <trkpt lat="45.61103" lon="5.97378">
        <ele>1340.449932193</ele>
        <time>2015-12-16T10:47:17Z</time>
      </trkpt>
      <trkpt lat="45.61105" lon="5.97372">
        <ele>1340.449932193</ele>
        <time>2015-12-16T10:47:22Z</time>
      </trkpt>
      <trkpt lat="45.61109" lon="5.9737">
        <ele>1344.159392509</ele>
        <time>2015-12-16T10:47:32Z</time>
      </trkpt>
      <trkpt lat="45.6111" lon="5.97367">
        <ele>1344.159392509</ele>
        <time>2015-12-16T10:47:37Z</time>
      </trkpt>
      <trkpt lat="45.6111" lon="5.97368">
        <ele>1344.159392509</ele>
        <time>2015-12-16T10:47:42Z</time>
      </trkpt>
      <trkpt lat="45.61106" lon="5.9736">
        <ele>1348.43195965</ele>
        <time>2015-12-16T10:47:52Z</time>
      </trkpt>
      <trkpt lat="45.61108" lon="5.9736">
        <ele>1348.43195965</ele>
        <time>2015-12-16T10:47:56Z</time>
      </trkpt>
      <trkpt lat="45.61108" lon="5.97357">
        <ele>1348.43195965</ele>
        <time>2015-12-16T10:48:08Z</time>
      </trkpt>
      <trkpt lat="45.61107" lon="5.97357">
        <ele>1348.43195965</ele>
        <time>2015-12-16T10:48:11Z</time>
      </trkpt>
      <trkpt lat="45.61107" lon="5.97357">
        <ele>1348.43195965</ele>
        <time>2015-12-16T10:48:21Z</time>
      </trkpt>
      <trkpt lat="45.61107" lon="5.97359">
        <ele>1348.43195965</ele>
        <time>2015-12-16T10:48:27Z</time>
      </trkpt>
      <trkpt lat="45.61105" lon="5.97355">
        <ele>1351.346743491</ele>
        <time>2015-12-16T10:48:36Z</time>
      </trkpt>
      <trkpt lat="45.61103" lon="5.97355">
        <ele>1351.346743491</ele>
        <time>2015-12-16T10:48:41Z</time>
      </trkpt>
      <trkpt lat="45.61103" lon="5.97355">
        <ele>1351.346743491</ele>
        <time>2015-12-16T10:48:46Z</time>
      </trkpt>
      <trkpt lat="45.61103" lon="5.97354">
        <ele>1351.346743491</ele>
        <time>2015-12-16T10:48:51Z</time>
      </trkpt>
      <trkpt lat="45.61103" lon="5.97354">
        <ele>1351.346743491</ele>
        <time>2015-12-16T10:48:56Z</time>
      </trkpt>
      <trkpt lat="45.61103" lon="5.97354">
        <ele>1351.346743491</ele>
        <time>2015-12-16T10:49:08Z</time>
      </trkpt>
      <trkpt lat="45.61103" lon="5.97354">
        <ele>1351.346743491</ele>
        <time>2015-12-16T10:49:11Z</time>
      </trkpt>
      <trkpt lat="45.61103" lon="5.97354">
        <ele>1351.346743491</ele>
        <time>2015-12-16T10:49:21Z</time>
      </trkpt>
      <trkpt lat="45.61103" lon="5.97354">
        <ele>1351.346743491</ele>
        <time>2015-12-16T10:49:27Z</time>
      </trkpt>
      <trkpt lat="45.61103" lon="5.97354">
        <ele>1351.346743491</ele>
        <time>2015-12-16T10:49:36Z</time>
      </trkpt>
      <trkpt lat="45.61103" lon="5.97354">
        <ele>1351.346743491</ele>
        <time>2015-12-16T10:49:41Z</time>
      </trkpt>
      <trkpt lat="45.61103" lon="5.97354">
        <ele>1351.346743491</ele>
        <time>2015-12-16T10:49:51Z</time>
      </trkpt>
      <trkpt lat="45.61103" lon="5.97354">
        <ele>1351.346743491</ele>
        <time>2015-12-16T10:49:56Z</time>
      </trkpt>
      <trkpt lat="45.61103" lon="5.97354">
        <ele>1351.346743491</ele>
        <time>2015-12-16T10:50:06Z</time>
      </trkpt>
      <trkpt lat="45.61103" lon="5.97354">
        <ele>1351.346743491</ele>
        <time>2015-12-16T10:50:11Z</time>
      </trkpt>
      <trkpt lat="45.61103" lon="5.97354">
        <ele>1351.346743491</ele>
        <time>2015-12-16T10:50:21Z</time>
      </trkpt>
      <trkpt lat="45.61103" lon="5.97354">
        <ele>1351.346743491</ele>
        <time>2015-12-16T10:50:26Z</time>
      </trkpt>
      <trkpt lat="45.61103" lon="5.97354">
        <ele>1351.346743491</ele>
        <time>2015-12-16T10:50:31Z</time>
      </trkpt>
      <trkpt lat="45.61103" lon="5.97354">
        <ele>1351.346743491</ele>
        <time>2015-12-16T10:50:41Z</time>
      </trkpt>
      <trkpt lat="45.61103" lon="5.97354">
        <ele>1351.346743491</ele>
        <time>2015-12-16T10:50:46Z</time>
      </trkpt>
      <trkpt lat="45.61103" lon="5.97353">
        <ele>1351.346743491</ele>
        <time>2015-12-16T10:50:56Z</time>
      </trkpt>
      <trkpt lat="45.61102" lon="5.97352">
        <ele>1351.346743491</ele>
        <time>2015-12-16T10:51:01Z</time>
      </trkpt>
      <trkpt lat="45.61102" lon="5.97352">
        <ele>1351.346743491</ele>
        <time>2015-12-16T10:51:12Z</time>
      </trkpt>
      <trkpt lat="45.61102" lon="5.97352">
        <ele>1351.346743491</ele>
        <time>2015-12-16T10:51:16Z</time>
      </trkpt>
      <trkpt lat="45.61102" lon="5.97349">
        <ele>1351.346743491</ele>
        <time>2015-12-16T10:51:26Z</time>
      </trkpt>
      <trkpt lat="45.61102" lon="5.97346">
        <ele>1351.346743491</ele>
        <time>2015-12-16T10:51:32Z</time>
      </trkpt>
      <trkpt lat="45.61103" lon="5.9734">
        <ele>1354.298302846</ele>
        <time>2015-12-16T10:51:42Z</time>
      </trkpt>
      <trkpt lat="45.61104" lon="5.97337">
        <ele>1354.298302846</ele>
        <time>2015-12-16T10:51:47Z</time>
      </trkpt>
      <trkpt lat="45.61106" lon="5.97336">
        <ele>1354.298302846</ele>
        <time>2015-12-16T10:51:56Z</time>
      </trkpt>
      <trkpt lat="45.61106" lon="5.97336">
        <ele>1354.298302846</ele>
        <time>2015-12-16T10:52:01Z</time>
      </trkpt>
      <trkpt lat="45.61106" lon="5.97335">
        <ele>1354.298302846</ele>
        <time>2015-12-16T10:52:11Z</time>
      </trkpt>
      <trkpt lat="45.61107" lon="5.97336">
        <ele>1354.298302846</ele>
        <time>2015-12-16T10:52:16Z</time>
      </trkpt>
      <trkpt lat="45.61107" lon="5.97337">
        <ele>1354.298302846</ele>
        <time>2015-12-16T10:52:26Z</time>
      </trkpt>
      <trkpt lat="45.61107" lon="5.97337">
        <ele>1354.298302846</ele>
        <time>2015-12-16T10:52:31Z</time>
      </trkpt>
      <trkpt lat="45.61109" lon="5.97339">
        <ele>1357.569963003</ele>
        <time>2015-12-16T10:52:47Z</time>
      </trkpt>
      <trkpt lat="45.61109" lon="5.97339">
        <ele>1357.569963003</ele>
        <time>2015-12-16T10:53:01Z</time>
      </trkpt>
      <trkpt lat="45.61109" lon="5.97339">
        <ele>1357.569963003</ele>
        <time>2015-12-16T10:53:06Z</time>
      </trkpt>
      <trkpt lat="45.61109" lon="5.97339">
        <ele>1357.569963003</ele>
        <time>2015-12-16T10:53:17Z</time>
      </trkpt>
      <trkpt lat="45.61109" lon="5.97339">
        <ele>1357.569963003</ele>
        <time>2015-12-16T10:53:21Z</time>
      </trkpt>
      <trkpt lat="45.61109" lon="5.97339">
        <ele>1357.569963003</ele>
        <time>2015-12-16T10:53:31Z</time>
      </trkpt>
      <trkpt lat="45.61112" lon="5.9734">
        <ele>1357.569963003</ele>
        <time>2015-12-16T10:53:37Z</time>
      </trkpt>
      <trkpt lat="45.61113" lon="5.9734">
        <ele>1357.569963003</ele>
        <time>2015-12-16T10:53:46Z</time>
      </trkpt>
      <trkpt lat="45.61113" lon="5.97339">
        <ele>1357.569963003</ele>
        <time>2015-12-16T10:53:51Z</time>
      </trkpt>
      <trkpt lat="45.61114" lon="5.9734">
        <ele>1357.569963003</ele>
        <time>2015-12-16T10:53:56Z</time>
      </trkpt>
      <trkpt lat="45.61114" lon="5.9734">
        <ele>1357.569963003</ele>
        <time>2015-12-16T10:54:01Z</time>
      </trkpt>
      <trkpt lat="45.61114" lon="5.9734">
        <ele>1357.569963003</ele>
        <time>2015-12-16T10:54:06Z</time>
      </trkpt>
      <trkpt lat="45.61116" lon="5.9734">
        <ele>1357.569963003</ele>
        <time>2015-12-16T10:54:16Z</time>
      </trkpt>
      <trkpt lat="45.61117" lon="5.9734">
        <ele>1361.423433037</ele>
        <time>2015-12-16T10:54:21Z</time>
      </trkpt>
      <trkpt lat="45.61116" lon="5.97337">
        <ele>1361.423433037</ele>
        <time>2015-12-16T10:54:26Z</time>
      </trkpt>
      <trkpt lat="45.61117" lon="5.97338">
        <ele>1361.423433037</ele>
        <time>2015-12-16T10:54:31Z</time>
      </trkpt>
      <trkpt lat="45.61119" lon="5.97338">
        <ele>1361.423433037</ele>
        <time>2015-12-16T10:54:47Z</time>
      </trkpt>
      <trkpt lat="45.61119" lon="5.97338">
        <ele>1361.423433037</ele>
        <time>2015-12-16T10:54:52Z</time>
      </trkpt>
      <trkpt lat="45.61118" lon="5.97339">
        <ele>1361.423433037</ele>
        <time>2015-12-16T10:55:02Z</time>
      </trkpt>
      <trkpt lat="45.61118" lon="5.97339">
        <ele>1361.423433037</ele>
        <time>2015-12-16T10:55:07Z</time>
      </trkpt>
      <trkpt lat="45.61119" lon="5.97336">
        <ele>1361.423433037</ele>
        <time>2015-12-16T10:55:16Z</time>
      </trkpt>
      <trkpt lat="45.61119" lon="5.97331">
        <ele>1365.090883597</ele>
        <time>2015-12-16T10:55:22Z</time>
      </trkpt>
      <trkpt lat="45.6112" lon="5.97323">
        <ele>1365.090883597</ele>
        <time>2015-12-16T10:55:31Z</time>
      </trkpt>
      <trkpt lat="45.61121" lon="5.97323">
        <ele>1365.090883597</ele>
        <time>2015-12-16T10:55:36Z</time>
      </trkpt>
      <trkpt lat="45.61125" lon="5.9732">
        <ele>1368.149732989</ele>
        <time>2015-12-16T10:55:47Z</time>
      </trkpt>
      <trkpt lat="45.61124" lon="5.97319">
        <ele>1368.149732989</ele>
        <time>2015-12-16T10:55:51Z</time>
      </trkpt>
      <trkpt lat="45.61126" lon="5.97314">
        <ele>1368.149732989</ele>
        <time>2015-12-16T10:56:01Z</time>
      </trkpt>
      <trkpt lat="45.61127" lon="5.97314">
        <ele>1368.149732989</ele>
        <time>2015-12-16T10:56:06Z</time>
      </trkpt>
      <trkpt lat="45.61127" lon="5.97314">
        <ele>1368.149732989</ele>
        <time>2015-12-16T10:56:18Z</time>
      </trkpt>
      <trkpt lat="45.61127" lon="5.97314">
        <ele>1368.149732989</ele>
        <time>2015-12-16T10:56:21Z</time>
      </trkpt>
      <trkpt lat="45.61127" lon="5.97314">
        <ele>1368.149732989</ele>
        <time>2015-12-16T10:56:26Z</time>
      </trkpt>
      <trkpt lat="45.61127" lon="5.97314">
        <ele>1368.149732989</ele>
        <time>2015-12-16T10:56:36Z</time>
      </trkpt>
      <trkpt lat="45.61127" lon="5.97314">
        <ele>1368.149732989</ele>
        <time>2015-12-16T10:56:41Z</time>
      </trkpt>
      <trkpt lat="45.61127" lon="5.97313">
        <ele>1368.149732989</ele>
        <time>2015-12-16T10:56:51Z</time>
      </trkpt>
      <trkpt lat="45.61127" lon="5.97313">
        <ele>1368.149732989</ele>
        <time>2015-12-16T10:56:56Z</time>
      </trkpt>
      <trkpt lat="45.61131" lon="5.9731">
        <ele>1371.219029048</ele>
        <time>2015-12-16T10:57:01Z</time>
      </trkpt>
      <trkpt lat="45.61137" lon="5.97305">
        <ele>1371.219029048</ele>
        <time>2015-12-16T10:57:11Z</time>
      </trkpt>
      <trkpt lat="45.61136" lon="5.97304">
        <ele>1371.219029048</ele>
        <time>2015-12-16T10:57:16Z</time>
      </trkpt>
      <trkpt lat="45.61138" lon="5.97296">
        <ele>1374.872418833</ele>
        <time>2015-12-16T10:57:26Z</time>
      </trkpt>
      <trkpt lat="45.6114" lon="5.97288">
        <ele>1374.872418833</ele>
        <time>2015-12-16T10:57:31Z</time>
      </trkpt>
      <trkpt lat="45.61146" lon="5.97285">
        <ele>1378.631097362</ele>
        <time>2015-12-16T10:57:41Z</time>
      </trkpt>
      <trkpt lat="45.61147" lon="5.97283">
        <ele>1378.631097362</ele>
        <time>2015-12-16T10:57:46Z</time>
      </trkpt>
      <trkpt lat="45.61155" lon="5.97272">
        <ele>1382.05124206</ele>
        <time>2015-12-16T10:58:01Z</time>
      </trkpt>
      <trkpt lat="45.61155" lon="5.97272">
        <ele>1382.05124206</ele>
        <time>2015-12-16T10:58:06Z</time>
      </trkpt>
      <trkpt lat="45.61155" lon="5.97272">
        <ele>1382.05124206</ele>
        <time>2015-12-16T10:58:16Z</time>
      </trkpt>
      <trkpt lat="45.61158" lon="5.97274">
        <ele>1382.05124206</ele>
        <time>2015-12-16T10:58:21Z</time>
      </trkpt>
      <trkpt lat="45.61168" lon="5.97267">
        <ele>1385.587356385</ele>
        <time>2015-12-16T10:58:31Z</time>
      </trkpt>
      <trkpt lat="45.6117" lon="5.97266">
        <ele>1385.587356385</ele>
        <time>2015-12-16T10:58:36Z</time>
      </trkpt>
      <trkpt lat="45.6117" lon="5.97266">
        <ele>1385.587356385</ele>
        <time>2015-12-16T10:58:41Z</time>
      </trkpt>
      <trkpt lat="45.6117" lon="5.97266">
        <ele>1385.587356385</ele>
        <time>2015-12-16T10:58:46Z</time>
      </trkpt>
      <trkpt lat="45.6117" lon="5.97266">
        <ele>1385.587356385</ele>
        <time>2015-12-16T10:58:51Z</time>
      </trkpt>
      <trkpt lat="45.61172" lon="5.97264">
        <ele>1385.587356385</ele>
        <time>2015-12-16T10:58:56Z</time>
      </trkpt>
      <trkpt lat="45.61175" lon="5.97264">
        <ele>1385.587356385</ele>
        <time>2015-12-16T10:59:01Z</time>
      </trkpt>
      <trkpt lat="45.61177" lon="5.97264">
        <ele>1388.939782565</ele>
        <time>2015-12-16T10:59:11Z</time>
      </trkpt>
      <trkpt lat="45.61178" lon="5.97264">
        <ele>1388.939782565</ele>
        <time>2015-12-16T10:59:16Z</time>
      </trkpt>
      <trkpt lat="45.61179" lon="5.97264">
        <ele>1388.939782565</ele>
        <time>2015-12-16T10:59:26Z</time>
      </trkpt>
      <trkpt lat="45.61181" lon="5.97263">
        <ele>1388.939782565</ele>
        <time>2015-12-16T10:59:31Z</time>
      </trkpt>
      <trkpt lat="45.61193" lon="5.97256">
        <ele>1391.831497631</ele>
        <time>2015-12-16T10:59:41Z</time>
      </trkpt>
      <trkpt lat="45.61195" lon="5.97254">
        <ele>1391.831497631</ele>
        <time>2015-12-16T10:59:46Z</time>
      </trkpt>
      <trkpt lat="45.61195" lon="5.97253">
        <ele>1391.831497631</ele>
        <time>2015-12-16T11:00:01Z</time>
      </trkpt>
      <trkpt lat="45.61201" lon="5.97257">
        <ele>1394.439558652</ele>
        <time>2015-12-16T11:00:06Z</time>
      </trkpt>
      <trkpt lat="45.61214" lon="5.97249">
        <ele>1396.784800155</ele>
        <time>2015-12-16T11:00:16Z</time>
      </trkpt>
      <trkpt lat="45.6122" lon="5.9725">
        <ele>1396.784800155</ele>
        <time>2015-12-16T11:00:21Z</time>
      </trkpt>
      <trkpt lat="45.61225" lon="5.97248">
        <ele>1399.607912719</ele>
        <time>2015-12-16T11:00:31Z</time>
      </trkpt>
      <trkpt lat="45.61226" lon="5.97247">
        <ele>1399.607912719</ele>
        <time>2015-12-16T11:00:36Z</time>
      </trkpt>
      <trkpt lat="45.61226" lon="5.97247">
        <ele>1399.607912719</ele>
        <time>2015-12-16T11:00:46Z</time>
      </trkpt>
      <trkpt lat="45.61227" lon="5.97246">
        <ele>1399.607912719</ele>
        <time>2015-12-16T11:00:52Z</time>
      </trkpt>
      <trkpt lat="45.61233" lon="5.97236">
        <ele>1403.161589965</ele>
        <time>2015-12-16T11:01:01Z</time>
      </trkpt>
      <trkpt lat="45.61234" lon="5.97236">
        <ele>1403.161589965</ele>
        <time>2015-12-16T11:01:06Z</time>
      </trkpt>
      <trkpt lat="45.61243" lon="5.97235">
        <ele>1405.660438573</ele>
        <time>2015-12-16T11:01:16Z</time>
      </trkpt>
      <trkpt lat="45.61246" lon="5.97231">
        <ele>1405.660438573</ele>
        <time>2015-12-16T11:01:21Z</time>
      </trkpt>
      <trkpt lat="45.61248" lon="5.97221">
        <ele>1408.767812399</ele>
        <time>2015-12-16T11:01:31Z</time>
      </trkpt>
      <trkpt lat="45.61249" lon="5.9722">
        <ele>1408.767812399</ele>
        <time>2015-12-16T11:01:36Z</time>
      </trkpt>
      <trkpt lat="45.61251" lon="5.97214">
        <ele>1408.767812399</ele>
        <time>2015-12-16T11:01:46Z</time>
      </trkpt>
      <trkpt lat="45.61252" lon="5.97213">
        <ele>1408.767812399</ele>
        <time>2015-12-16T11:01:51Z</time>
      </trkpt>
      <trkpt lat="45.61257" lon="5.972">
        <ele>1412.582132643</ele>
        <time>2015-12-16T11:02:02Z</time>
      </trkpt>
      <trkpt lat="45.61259" lon="5.97203">
        <ele>1412.582132643</ele>
        <time>2015-12-16T11:02:06Z</time>
      </trkpt>
      <trkpt lat="45.61263" lon="5.972">
        <ele>1412.582132643</ele>
        <time>2015-12-16T11:02:11Z</time>
      </trkpt>
      <trkpt lat="45.61267" lon="5.97198">
        <ele>1415.607457084</ele>
        <time>2015-12-16T11:02:21Z</time>
      </trkpt>
      <trkpt lat="45.61267" lon="5.97198">
        <ele>1415.607457084</ele>
        <time>2015-12-16T11:02:26Z</time>
      </trkpt>
      <trkpt lat="45.61265" lon="5.97197">
        <ele>1415.607457084</ele>
        <time>2015-12-16T11:02:36Z</time>
      </trkpt>
      <trkpt lat="45.61267" lon="5.97192">
        <ele>1415.607457084</ele>
        <time>2015-12-16T11:02:41Z</time>
      </trkpt>
      <trkpt lat="45.61268" lon="5.97194">
        <ele>1415.607457084</ele>
        <time>2015-12-16T11:02:51Z</time>
      </trkpt>
      <trkpt lat="45.61266" lon="5.97191">
        <ele>1418.909908386</ele>
        <time>2015-12-16T11:02:56Z</time>
      </trkpt>
      <trkpt lat="45.61268" lon="5.9719">
        <ele>1418.909908386</ele>
        <time>2015-12-16T11:03:06Z</time>
      </trkpt>
      <trkpt lat="45.61267" lon="5.97187">
        <ele>1418.909908386</ele>
        <time>2015-12-16T11:03:11Z</time>
      </trkpt>
      <trkpt lat="45.61266" lon="5.97184">
        <ele>1418.909908386</ele>
        <time>2015-12-16T11:03:22Z</time>
      </trkpt>
      <trkpt lat="45.61266" lon="5.97183">
        <ele>1418.909908386</ele>
        <time>2015-12-16T11:03:26Z</time>
      </trkpt>
      <trkpt lat="45.61266" lon="5.97178">
        <ele>1422.467806995</ele>
        <time>2015-12-16T11:03:36Z</time>
      </trkpt>
      <trkpt lat="45.61266" lon="5.97176">
        <ele>1422.467806995</ele>
        <time>2015-12-16T11:03:41Z</time>
      </trkpt>
      <trkpt lat="45.61267" lon="5.97172">
        <ele>1422.467806995</ele>
        <time>2015-12-16T11:03:51Z</time>
      </trkpt>
      <trkpt lat="45.61269" lon="5.97168">
        <ele>1422.467806995</ele>
        <time>2015-12-16T11:03:56Z</time>
      </trkpt>
      <trkpt lat="45.61272" lon="5.97162">
        <ele>1426.548642256</ele>
        <time>2015-12-16T11:04:07Z</time>
      </trkpt>
      <trkpt lat="45.61273" lon="5.97161">
        <ele>1426.548642256</ele>
        <time>2015-12-16T11:04:11Z</time>
      </trkpt>
      <trkpt lat="45.61275" lon="5.9716">
        <ele>1426.548642256</ele>
        <time>2015-12-16T11:04:26Z</time>
      </trkpt>
      <trkpt lat="45.61275" lon="5.9716">
        <ele>1426.548642256</ele>
        <time>2015-12-16T11:04:31Z</time>
      </trkpt>
      <trkpt lat="45.61282" lon="5.97159">
        <ele>1429.813634217</ele>
        <time>2015-12-16T11:04:41Z</time>
      </trkpt>
      <trkpt lat="45.61283" lon="5.97157">
        <ele>1429.813634217</ele>
        <time>2015-12-16T11:04:46Z</time>
      </trkpt>
      <trkpt lat="45.61289" lon="5.97141">
        <ele>1433.47459847</ele>
        <time>2015-12-16T11:04:56Z</time>
      </trkpt>
      <trkpt lat="45.6129" lon="5.97138">
        <ele>1433.47459847</ele>
        <time>2015-12-16T11:05:01Z</time>
      </trkpt>
      <trkpt lat="45.61292" lon="5.97136">
        <ele>1433.47459847</ele>
        <time>2015-12-16T11:05:11Z</time>
      </trkpt>
      <trkpt lat="45.61294" lon="5.97137">
        <ele>1433.47459847</ele>
        <time>2015-12-16T11:05:16Z</time>
      </trkpt>
      <trkpt lat="45.61296" lon="5.97136">
        <ele>1433.47459847</ele>
        <time>2015-12-16T11:05:31Z</time>
      </trkpt>
      <trkpt lat="45.61296" lon="5.97136">
        <ele>1433.47459847</ele>
        <time>2015-12-16T11:05:36Z</time>
      </trkpt>
      <trkpt lat="45.61296" lon="5.97136">
        <ele>1433.47459847</ele>
        <time>2015-12-16T11:05:41Z</time>
      </trkpt>
      <trkpt lat="45.61296" lon="5.9713">
        <ele>1437.644515163</ele>
        <time>2015-12-16T11:05:52Z</time>
      </trkpt>
      <trkpt lat="45.61295" lon="5.97128">
        <ele>1437.644515163</ele>
        <time>2015-12-16T11:05:56Z</time>
      </trkpt>
      <trkpt lat="45.61298" lon="5.97115">
        <ele>1441.562044568</ele>
        <time>2015-12-16T11:06:11Z</time>
      </trkpt>
      <trkpt lat="45.613" lon="5.9711">
        <ele>1441.562044568</ele>
        <time>2015-12-16T11:06:16Z</time>
      </trkpt>
      <trkpt lat="45.61301" lon="5.97093">
        <ele>1445.387225312</ele>
        <time>2015-12-16T11:06:26Z</time>
      </trkpt>
      <trkpt lat="45.613" lon="5.97087">
        <ele>1445.387225312</ele>
        <time>2015-12-16T11:06:31Z</time>
      </trkpt>
      <trkpt lat="45.61301" lon="5.97089">
        <ele>1445.387225312</ele>
        <time>2015-12-16T11:06:41Z</time>
      </trkpt>
      <trkpt lat="45.61301" lon="5.97089">
        <ele>1445.387225312</ele>
        <time>2015-12-16T11:06:46Z</time>
      </trkpt>
      <trkpt lat="45.61301" lon="5.97089">
        <ele>1445.387225312</ele>
        <time>2015-12-16T11:06:56Z</time>
      </trkpt>
      <trkpt lat="45.61301" lon="5.97089">
        <ele>1445.387225312</ele>
        <time>2015-12-16T11:07:01Z</time>
      </trkpt>
      <trkpt lat="45.61298" lon="5.97079">
        <ele>1448.980453777</ele>
        <time>2015-12-16T11:07:11Z</time>
      </trkpt>
      <trkpt lat="45.61297" lon="5.97076">
        <ele>1448.980453777</ele>
        <time>2015-12-16T11:07:16Z</time>
      </trkpt>
      <trkpt lat="45.61296" lon="5.97074">
        <ele>1448.980453777</ele>
        <time>2015-12-16T11:07:21Z</time>
      </trkpt>
      <trkpt lat="45.61296" lon="5.97074">
        <ele>1448.980453777</ele>
        <time>2015-12-16T11:07:26Z</time>
      </trkpt>
      <trkpt lat="45.61297" lon="5.97067">
        <ele>1452.789555574</ele>
        <time>2015-12-16T11:07:31Z</time>
      </trkpt>
      <trkpt lat="45.61302" lon="5.97061">
        <ele>1452.789555574</ele>
        <time>2015-12-16T11:07:52Z</time>
      </trkpt>
      <trkpt lat="45.61302" lon="5.97059">
        <ele>1452.789555574</ele>
        <time>2015-12-16T11:07:52Z</time>
      </trkpt>
      <trkpt lat="45.61302" lon="5.97059">
        <ele>1452.789555574</ele>
        <time>2015-12-16T11:08:01Z</time>
      </trkpt>
      <trkpt lat="45.61305" lon="5.97054">
        <ele>1456.508376643</ele>
        <time>2015-12-16T11:08:17Z</time>
      </trkpt>
      <trkpt lat="45.61305" lon="5.97054">
        <ele>1456.508376643</ele>
        <time>2015-12-16T11:08:21Z</time>
      </trkpt>
      <trkpt lat="45.61305" lon="5.97053">
        <ele>1456.508376643</ele>
        <time>2015-12-16T11:08:32Z</time>
      </trkpt>
      <trkpt lat="45.61309" lon="5.97049">
        <ele>1456.508376643</ele>
        <time>2015-12-16T11:08:36Z</time>
      </trkpt>
      <trkpt lat="45.61313" lon="5.97047">
        <ele>1459.853583785</ele>
        <time>2015-12-16T11:08:46Z</time>
      </trkpt>
      <trkpt lat="45.61314" lon="5.97047">
        <ele>1459.853583785</ele>
        <time>2015-12-16T11:08:52Z</time>
      </trkpt>
      <trkpt lat="45.61318" lon="5.9703">
        <ele>1462.996114434</ele>
        <time>2015-12-16T11:09:06Z</time>
      </trkpt>
      <trkpt lat="45.61319" lon="5.9703">
        <ele>1462.996114434</ele>
        <time>2015-12-16T11:09:11Z</time>
      </trkpt>
      <trkpt lat="45.61319" lon="5.9703">
        <ele>1462.996114434</ele>
        <time>2015-12-16T11:09:21Z</time>
      </trkpt>
      <trkpt lat="45.61319" lon="5.9703">
        <ele>1462.996114434</ele>
        <time>2015-12-16T11:09:26Z</time>
      </trkpt>
      <trkpt lat="45.61319" lon="5.9703">
        <ele>1462.996114434</ele>
        <time>2015-12-16T11:09:36Z</time>
      </trkpt>
      <trkpt lat="45.61319" lon="5.9703">
        <ele>1462.996114434</ele>
        <time>2015-12-16T11:09:41Z</time>
      </trkpt>
      <trkpt lat="45.61319" lon="5.97024">
        <ele>1462.996114434</ele>
        <time>2015-12-16T11:09:51Z</time>
      </trkpt>
      <trkpt lat="45.61319" lon="5.97024">
        <ele>1462.996114434</ele>
        <time>2015-12-16T11:09:56Z</time>
      </trkpt>
      <trkpt lat="45.61319" lon="5.97024">
        <ele>1462.996114434</ele>
        <time>2015-12-16T11:10:06Z</time>
      </trkpt>
      <trkpt lat="45.61324" lon="5.97014">
        <ele>1466.383212803</ele>
        <time>2015-12-16T11:10:11Z</time>
      </trkpt>
      <trkpt lat="45.61324" lon="5.97008">
        <ele>1466.383212803</ele>
        <time>2015-12-16T11:10:21Z</time>
      </trkpt>
      <trkpt lat="45.61328" lon="5.97">
        <ele>1470.284541605</ele>
        <time>2015-12-16T11:10:26Z</time>
      </trkpt>
      <trkpt lat="45.61329" lon="5.96998">
        <ele>1470.284541605</ele>
        <time>2015-12-16T11:10:36Z</time>
      </trkpt>
      <trkpt lat="45.61329" lon="5.96997">
        <ele>1470.284541605</ele>
        <time>2015-12-16T11:10:41Z</time>
      </trkpt>
      <trkpt lat="45.61329" lon="5.96997">
        <ele>1470.284541605</ele>
        <time>2015-12-16T11:10:51Z</time>
      </trkpt>
      <trkpt lat="45.61329" lon="5.96997">
        <ele>1470.284541605</ele>
        <time>2015-12-16T11:10:56Z</time>
      </trkpt>
      <trkpt lat="45.61329" lon="5.96996">
        <ele>1470.284541605</ele>
        <time>2015-12-16T11:11:07Z</time>
      </trkpt>
      <trkpt lat="45.61329" lon="5.96996">
        <ele>1470.284541605</ele>
        <time>2015-12-16T11:11:12Z</time>
      </trkpt>
      <trkpt lat="45.61329" lon="5.96986">
        <ele>1472.931020757</ele>
        <time>2015-12-16T11:11:21Z</time>
      </trkpt>
      <trkpt lat="45.61327" lon="5.96984">
        <ele>1472.931020757</ele>
        <time>2015-12-16T11:11:26Z</time>
      </trkpt>
      <trkpt lat="45.61326" lon="5.96982">
        <ele>1472.931020757</ele>
        <time>2015-12-16T11:11:36Z</time>
      </trkpt>
      <trkpt lat="45.61324" lon="5.9698">
        <ele>1472.931020757</ele>
        <time>2015-12-16T11:11:41Z</time>
      </trkpt>
      <trkpt lat="45.61322" lon="5.9697">
        <ele>1476.289886808</ele>
        <time>2015-12-16T11:11:51Z</time>
      </trkpt>
      <trkpt lat="45.61321" lon="5.96967">
        <ele>1476.289886808</ele>
        <time>2015-12-16T11:11:56Z</time>
      </trkpt>
      <trkpt lat="45.61317" lon="5.96958">
        <ele>1479.587922492</ele>
        <time>2015-12-16T11:12:13Z</time>
      </trkpt>
      <trkpt lat="45.61316" lon="5.96956">
        <ele>1479.587922492</ele>
        <time>2015-12-16T11:12:16Z</time>
      </trkpt>
      <trkpt lat="45.61315" lon="5.96951">
        <ele>1479.587922492</ele>
        <time>2015-12-16T11:12:26Z</time>
      </trkpt>
      <trkpt lat="45.61313" lon="5.96945">
        <ele>1482.253044758</ele>
        <time>2015-12-16T11:12:31Z</time>
      </trkpt>
      <trkpt lat="45.61312" lon="5.96941">
        <ele>1482.253044758</ele>
        <time>2015-12-16T11:12:41Z</time>
      </trkpt>
      <trkpt lat="45.61307" lon="5.9694">
        <ele>1482.253044758</ele>
        <time>2015-12-16T11:12:48Z</time>
      </trkpt>
      <trkpt lat="45.61306" lon="5.96939">
        <ele>1484.477571944</ele>
        <time>2015-12-16T11:12:56Z</time>
      </trkpt>
      <trkpt lat="45.61304" lon="5.96938">
        <ele>1484.477571944</ele>
        <time>2015-12-16T11:13:01Z</time>
      </trkpt>
      <trkpt lat="45.61304" lon="5.96938">
        <ele>1484.477571944</ele>
        <time>2015-12-16T11:13:06Z</time>
      </trkpt>
      <trkpt lat="45.61304" lon="5.96937">
        <ele>1484.477571944</ele>
        <time>2015-12-16T11:13:13Z</time>
      </trkpt>
      <trkpt lat="45.61304" lon="5.96936">
        <ele>1484.477571944</ele>
        <time>2015-12-16T11:13:24Z</time>
      </trkpt>
      <trkpt lat="45.61304" lon="5.96935">
        <ele>1484.477571944</ele>
        <time>2015-12-16T11:13:26Z</time>
      </trkpt>
      <trkpt lat="45.61301" lon="5.96924">
        <ele>1487.449747644</ele>
        <time>2015-12-16T11:13:36Z</time>
      </trkpt>
      <trkpt lat="45.613" lon="5.96918">
        <ele>1487.449747644</ele>
        <time>2015-12-16T11:13:42Z</time>
      </trkpt>
      <trkpt lat="45.61298" lon="5.96909">
        <ele>1490.106793686</ele>
        <time>2015-12-16T11:13:52Z</time>
      </trkpt>
      <trkpt lat="45.61298" lon="5.96904">
        <ele>1490.106793686</ele>
        <time>2015-12-16T11:13:57Z</time>
      </trkpt>
      <trkpt lat="45.61292" lon="5.96897">
        <ele>1492.041353164</ele>
        <time>2015-12-16T11:14:12Z</time>
      </trkpt>
      <trkpt lat="45.61289" lon="5.96895">
        <ele>1492.041353164</ele>
        <time>2015-12-16T11:14:16Z</time>
      </trkpt>
      <trkpt lat="45.61282" lon="5.96891">
        <ele>1493.598587491</ele>
        <time>2015-12-16T11:14:26Z</time>
      </trkpt>
      <trkpt lat="45.61277" lon="5.96885">
        <ele>1493.598587491</ele>
        <time>2015-12-16T11:14:31Z</time>
      </trkpt>
      <trkpt lat="45.61271" lon="5.96877">
        <ele>1495.099361749</ele>
        <time>2015-12-16T11:14:41Z</time>
      </trkpt>
      <trkpt lat="45.61265" lon="5.96867">
        <ele>1494.967668484</ele>
        <time>2015-12-16T11:14:56Z</time>
      </trkpt>
      <trkpt lat="45.61266" lon="5.96866">
        <ele>1494.967668484</ele>
        <time>2015-12-16T11:15:02Z</time>
      </trkpt>
      <trkpt lat="45.61265" lon="5.96865">
        <ele>1494.967668484</ele>
        <time>2015-12-16T11:15:11Z</time>
      </trkpt>
      <trkpt lat="45.61263" lon="5.9686">
        <ele>1494.967668484</ele>
        <time>2015-12-16T11:15:16Z</time>
      </trkpt>
      <trkpt lat="45.61263" lon="5.96858">
        <ele>1494.967668484</ele>
        <time>2015-12-16T11:15:27Z</time>
      </trkpt>
      <trkpt lat="45.6126" lon="5.96856">
        <ele>1494.197707399</ele>
        <time>2015-12-16T11:15:31Z</time>
      </trkpt>
      <trkpt lat="45.61259" lon="5.96855">
        <ele>1494.197707399</ele>
        <time>2015-12-16T11:15:36Z</time>
      </trkpt>
      <trkpt lat="45.6126" lon="5.96854">
        <ele>1494.197707399</ele>
        <time>2015-12-16T11:15:46Z</time>
      </trkpt>
      <trkpt lat="45.61262" lon="5.96854">
        <ele>1494.197707399</ele>
        <time>2015-12-16T11:15:51Z</time>
      </trkpt>
      <trkpt lat="45.61262" lon="5.96853">
        <ele>1494.197707399</ele>
        <time>2015-12-16T11:16:01Z</time>
      </trkpt>
      <trkpt lat="45.61262" lon="5.96853">
        <ele>1494.197707399</ele>
        <time>2015-12-16T11:16:06Z</time>
      </trkpt>
      <trkpt lat="45.61261" lon="5.9685">
        <ele>1494.197707399</ele>
        <time>2015-12-16T11:16:16Z</time>
      </trkpt>
      <trkpt lat="45.61263" lon="5.96847">
        <ele>1493.568266819</ele>
        <time>2015-12-16T11:16:21Z</time>
      </trkpt>
      <trkpt lat="45.61264" lon="5.96845">
        <ele>1493.568266819</ele>
        <time>2015-12-16T11:16:31Z</time>
      </trkpt>
      <trkpt lat="45.61263" lon="5.96844">
        <ele>1493.568266819</ele>
        <time>2015-12-16T11:16:36Z</time>
      </trkpt>
      <trkpt lat="45.61262" lon="5.96846">
        <ele>1493.568266819</ele>
        <time>2015-12-16T11:16:46Z</time>
      </trkpt>
      <trkpt lat="45.61262" lon="5.96846">
        <ele>1493.568266819</ele>
        <time>2015-12-16T11:16:51Z</time>
      </trkpt>
      <trkpt lat="45.61262" lon="5.96846">
        <ele>1493.568266819</ele>
        <time>2015-12-16T11:17:07Z</time>
      </trkpt>
      <trkpt lat="45.61262" lon="5.96846">
        <ele>1493.568266819</ele>
        <time>2015-12-16T11:17:11Z</time>
      </trkpt>
      <trkpt lat="45.61263" lon="5.96848">
        <ele>1493.568266819</ele>
        <time>2015-12-16T11:17:17Z</time>
      </trkpt>
      <trkpt lat="45.61262" lon="5.96849">
        <ele>1493.568266819</ele>
        <time>2015-12-16T11:17:21Z</time>
      </trkpt>
      <trkpt lat="45.61263" lon="5.9685">
        <ele>1493.568266819</ele>
        <time>2015-12-16T11:17:27Z</time>
      </trkpt>
      <trkpt lat="45.61264" lon="5.9685">
        <ele>1493.368116195</ele>
        <time>2015-12-16T11:17:36Z</time>
      </trkpt>
      <trkpt lat="45.61264" lon="5.9685">
        <ele>1493.368116195</ele>
        <time>2015-12-16T11:17:41Z</time>
      </trkpt>
      <trkpt lat="45.6126" lon="5.9685">
        <ele>1493.368116195</ele>
        <time>2015-12-16T11:17:51Z</time>
      </trkpt>
      <trkpt lat="45.6126" lon="5.9685">
        <ele>1493.368116195</ele>
        <time>2015-12-16T11:17:57Z</time>
      </trkpt>
      <trkpt lat="45.61257" lon="5.96848">
        <ele>1493.368116195</ele>
        <time>2015-12-16T11:18:07Z</time>
      </trkpt>
      <trkpt lat="45.61259" lon="5.9685">
        <ele>1493.368116195</ele>
        <time>2015-12-16T11:18:11Z</time>
      </trkpt>
      <trkpt lat="45.61264" lon="5.96859">
        <ele>1492.566499544</ele>
        <time>2015-12-16T11:18:22Z</time>
      </trkpt>
      <trkpt lat="45.61264" lon="5.96862">
        <ele>1492.566499544</ele>
        <time>2015-12-16T11:18:27Z</time>
      </trkpt>
      <trkpt lat="45.61263" lon="5.96861">
        <ele>1492.566499544</ele>
        <time>2015-12-16T11:18:37Z</time>
      </trkpt>
      <trkpt lat="45.61264" lon="5.96861">
        <ele>1492.566499544</ele>
        <time>2015-12-16T11:18:42Z</time>
      </trkpt>
      <trkpt lat="45.61264" lon="5.96861">
        <ele>1492.566499544</ele>
        <time>2015-12-16T11:18:52Z</time>
      </trkpt>
      <trkpt lat="45.61264" lon="5.96861">
        <ele>1492.566499544</ele>
        <time>2015-12-16T11:18:57Z</time>
      </trkpt>
      <trkpt lat="45.61271" lon="5.96862">
        <ele>1492.083380618</ele>
        <time>2015-12-16T11:19:06Z</time>
      </trkpt>
      <trkpt lat="45.61273" lon="5.96861">
        <ele>1492.083380618</ele>
        <time>2015-12-16T11:19:12Z</time>
      </trkpt>
      <trkpt lat="45.61274" lon="5.96859">
        <ele>1492.083380618</ele>
        <time>2015-12-16T11:19:22Z</time>
      </trkpt>
      <trkpt lat="45.61274" lon="5.96858">
        <ele>1492.083380618</ele>
        <time>2015-12-16T11:19:27Z</time>
      </trkpt>
      <trkpt lat="45.61274" lon="5.96857">
        <ele>1492.083380618</ele>
        <time>2015-12-16T11:19:38Z</time>
      </trkpt>
      <trkpt lat="45.61274" lon="5.96857">
        <ele>1492.083380618</ele>
        <time>2015-12-16T11:19:41Z</time>
      </trkpt>
      <trkpt lat="45.61282" lon="5.96845">
        <ele>1491.761319163</ele>
        <time>2015-12-16T11:19:58Z</time>
      </trkpt>
      <trkpt lat="45.61285" lon="5.96838">
        <ele>1491.761319163</ele>
        <time>2015-12-16T11:20:02Z</time>
      </trkpt>
      <trkpt lat="45.61285" lon="5.96837">
        <ele>1491.761319163</ele>
        <time>2015-12-16T11:20:11Z</time>
      </trkpt>
      <trkpt lat="45.61288" lon="5.96836">
        <ele>1491.886151894</ele>
        <time>2015-12-16T11:20:16Z</time>
      </trkpt>
      <trkpt lat="45.6129" lon="5.96831">
        <ele>1491.886151894</ele>
        <time>2015-12-16T11:20:26Z</time>
      </trkpt>
      <trkpt lat="45.61289" lon="5.96831">
        <ele>1491.886151894</ele>
        <time>2015-12-16T11:20:32Z</time>
      </trkpt>
      <trkpt lat="45.6129" lon="5.96828">
        <ele>1491.886151894</ele>
        <time>2015-12-16T11:20:42Z</time>
      </trkpt>
      <trkpt lat="45.61291" lon="5.96826">
        <ele>1491.886151894</ele>
        <time>2015-12-16T11:20:47Z</time>
      </trkpt>
      <trkpt lat="45.61294" lon="5.96824">
        <ele>1492.721280303</ele>
        <time>2015-12-16T11:20:56Z</time>
      </trkpt>
      <trkpt lat="45.61295" lon="5.9682">
        <ele>1492.721280303</ele>
        <time>2015-12-16T11:21:01Z</time>
      </trkpt>
      <trkpt lat="45.61302" lon="5.96812">
        <ele>1493.355680418</ele>
        <time>2015-12-16T11:21:12Z</time>
      </trkpt>
      <trkpt lat="45.61307" lon="5.96805">
        <ele>1493.355680418</ele>
        <time>2015-12-16T11:21:17Z</time>
      </trkpt>
      <trkpt lat="45.61308" lon="5.96785">
        <ele>1494.386726377</ele>
        <time>2015-12-16T11:21:27Z</time>
      </trkpt>
      <trkpt lat="45.61308" lon="5.96778">
        <ele>1494.386726377</ele>
        <time>2015-12-16T11:21:31Z</time>
      </trkpt>
      <trkpt lat="45.61309" lon="5.96774">
        <ele>1494.386726377</ele>
        <time>2015-12-16T11:21:36Z</time>
      </trkpt>
      <trkpt lat="45.61309" lon="5.9677">
        <ele>1495.790150353</ele>
        <time>2015-12-16T11:21:41Z</time>
      </trkpt>
      <trkpt lat="45.61308" lon="5.96768">
        <ele>1495.790150353</ele>
        <time>2015-12-16T11:21:48Z</time>
      </trkpt>
      <trkpt lat="45.61309" lon="5.96755">
        <ele>1497.542222106</ele>
        <time>2015-12-16T11:21:51Z</time>
      </trkpt>
      <trkpt lat="45.61307" lon="5.96741">
        <ele>1499.187445983</ele>
        <time>2015-12-16T11:22:01Z</time>
      </trkpt>
      <trkpt lat="45.61307" lon="5.96737">
        <ele>1499.187445983</ele>
        <time>2015-12-16T11:22:06Z</time>
      </trkpt>
      <trkpt lat="45.61306" lon="5.96731">
        <ele>1499.187445983</ele>
        <time>2015-12-16T11:22:16Z</time>
      </trkpt>
      <trkpt lat="45.61305" lon="5.96726">
        <ele>1500.880339809</ele>
        <time>2015-12-16T11:22:21Z</time>
      </trkpt>
      <trkpt lat="45.61303" lon="5.96712">
        <ele>1502.619641323</ele>
        <time>2015-12-16T11:22:31Z</time>
      </trkpt>
      <trkpt lat="45.61302" lon="5.96709">
        <ele>1502.619641323</ele>
        <time>2015-12-16T11:22:36Z</time>
      </trkpt>
      <trkpt lat="45.61301" lon="5.96707">
        <ele>1502.619641323</ele>
        <time>2015-12-16T11:22:46Z</time>
      </trkpt>
      <trkpt lat="45.61302" lon="5.96706">
        <ele>1502.619641323</ele>
        <time>2015-12-16T11:22:51Z</time>
      </trkpt>
      <trkpt lat="45.61302" lon="5.96704">
        <ele>1502.619641323</ele>
        <time>2015-12-16T11:23:01Z</time>
      </trkpt>
      <trkpt lat="45.61302" lon="5.96703">
        <ele>1502.619641323</ele>
        <time>2015-12-16T11:23:06Z</time>
      </trkpt>
      <trkpt lat="45.61303" lon="5.96691">
        <ele>1504.547985301</ele>
        <time>2015-12-16T11:23:17Z</time>
      </trkpt>
      <trkpt lat="45.61304" lon="5.9669">
        <ele>1504.547985301</ele>
        <time>2015-12-16T11:23:22Z</time>
      </trkpt>
      <trkpt lat="45.61307" lon="5.96684">
        <ele>1504.547985301</ele>
        <time>2015-12-16T11:23:31Z</time>
      </trkpt>
      <trkpt lat="45.61308" lon="5.96681">
        <ele>1504.547985301</ele>
        <time>2015-12-16T11:23:36Z</time>
      </trkpt>
      <trkpt lat="45.61309" lon="5.96674">
        <ele>1506.364495964</ele>
        <time>2015-12-16T11:23:51Z</time>
      </trkpt>
      <trkpt lat="45.61311" lon="5.96665">
        <ele>1506.364495964</ele>
        <time>2015-12-16T11:24:06Z</time>
      </trkpt>
      <trkpt lat="45.61312" lon="5.9666">
        <ele>1508.222886216</ele>
        <time>2015-12-16T11:24:11Z</time>
      </trkpt>
      <trkpt lat="45.61311" lon="5.96654">
        <ele>1508.222886216</ele>
        <time>2015-12-16T11:24:21Z</time>
      </trkpt>
      <trkpt lat="45.61312" lon="5.96651">
        <ele>1508.222886216</ele>
        <time>2015-12-16T11:24:26Z</time>
      </trkpt>
      <trkpt lat="45.61315" lon="5.96646">
        <ele>1510.985864828</ele>
        <time>2015-12-16T11:24:36Z</time>
      </trkpt>
      <trkpt lat="45.61316" lon="5.96641">
        <ele>1510.985864828</ele>
        <time>2015-12-16T11:24:41Z</time>
      </trkpt>
      <trkpt lat="45.61319" lon="5.96638">
        <ele>1510.985864828</ele>
        <time>2015-12-16T11:24:51Z</time>
      </trkpt>
      <trkpt lat="45.61319" lon="5.96637">
        <ele>1510.985864828</ele>
        <time>2015-12-16T11:24:56Z</time>
      </trkpt>
      <trkpt lat="45.6132" lon="5.96637">
        <ele>1510.985864828</ele>
        <time>2015-12-16T11:25:06Z</time>
      </trkpt>
      <trkpt lat="45.61325" lon="5.96635">
        <ele>1513.432532073</ele>
        <time>2015-12-16T11:25:11Z</time>
      </trkpt>
      <trkpt lat="45.61326" lon="5.96633">
        <ele>1513.432532073</ele>
        <time>2015-12-16T11:25:21Z</time>
      </trkpt>
      <trkpt lat="45.61326" lon="5.9663">
        <ele>1513.432532073</ele>
        <time>2015-12-16T11:25:27Z</time>
      </trkpt>
      <trkpt lat="45.61327" lon="5.96628">
        <ele>1513.432532073</ele>
        <time>2015-12-16T11:25:36Z</time>
      </trkpt>
      <trkpt lat="45.61328" lon="5.96624">
        <ele>1513.432532073</ele>
        <time>2015-12-16T11:25:41Z</time>
      </trkpt>
      <trkpt lat="45.61329" lon="5.96617">
        <ele>1516.161767546</ele>
        <time>2015-12-16T11:25:52Z</time>
      </trkpt>
      <trkpt lat="45.61329" lon="5.96616">
        <ele>1516.161767546</ele>
        <time>2015-12-16T11:25:56Z</time>
      </trkpt>
      <trkpt lat="45.61327" lon="5.96606">
        <ele>1516.161767546</ele>
        <time>2015-12-16T11:26:06Z</time>
      </trkpt>
      <trkpt lat="45.61328" lon="5.96601">
        <ele>1519.583439185</ele>
        <time>2015-12-16T11:26:11Z</time>
      </trkpt>
      <trkpt lat="45.61334" lon="5.96592">
        <ele>1519.583439185</ele>
        <time>2015-12-16T11:26:26Z</time>
      </trkpt>
      <trkpt lat="45.61335" lon="5.9659">
        <ele>1522.634152525</ele>
        <time>2015-12-16T11:26:31Z</time>
      </trkpt>
      <trkpt lat="45.61339" lon="5.96584">
        <ele>1522.634152525</ele>
        <time>2015-12-16T11:26:41Z</time>
      </trkpt>
      <trkpt lat="45.6134" lon="5.9658">
        <ele>1522.634152525</ele>
        <time>2015-12-16T11:26:46Z</time>
      </trkpt>
      <trkpt lat="45.61345" lon="5.96571">
        <ele>1526.058920235</ele>
        <time>2015-12-16T11:26:56Z</time>
      </trkpt>
      <trkpt lat="45.61347" lon="5.96569">
        <ele>1526.058920235</ele>
        <time>2015-12-16T11:27:01Z</time>
      </trkpt>
      <trkpt lat="45.61351" lon="5.96566">
        <ele>1526.058920235</ele>
        <time>2015-12-16T11:27:11Z</time>
      </trkpt>
      <trkpt lat="45.61352" lon="5.96561">
        <ele>1529.970466094</ele>
        <time>2015-12-16T11:27:16Z</time>
      </trkpt>
      <trkpt lat="45.61354" lon="5.96555">
        <ele>1529.970466094</ele>
        <time>2015-12-16T11:27:26Z</time>
      </trkpt>
      <trkpt lat="45.61354" lon="5.96555">
        <ele>1529.970466094</ele>
        <time>2015-12-16T11:27:31Z</time>
      </trkpt>
      <trkpt lat="45.61353" lon="5.96554">
        <ele>1529.970466094</ele>
        <time>2015-12-16T11:27:42Z</time>
      </trkpt>
      <trkpt lat="45.61353" lon="5.96554">
        <ele>1529.970466094</ele>
        <time>2015-12-16T11:27:47Z</time>
      </trkpt>
      <trkpt lat="45.61353" lon="5.96554">
        <ele>1529.970466094</ele>
        <time>2015-12-16T11:28:02Z</time>
      </trkpt>
      <trkpt lat="45.61353" lon="5.96554">
        <ele>1529.970466094</ele>
        <time>2015-12-16T11:28:07Z</time>
      </trkpt>
      <trkpt lat="45.61354" lon="5.96554">
        <ele>1529.970466094</ele>
        <time>2015-12-16T11:28:16Z</time>
      </trkpt>
      <trkpt lat="45.61354" lon="5.96553">
        <ele>1529.970466094</ele>
        <time>2015-12-16T11:28:21Z</time>
      </trkpt>
      <trkpt lat="45.61355" lon="5.96553">
        <ele>1529.970466094</ele>
        <time>2015-12-16T11:28:31Z</time>
      </trkpt>
      <trkpt lat="45.61355" lon="5.96553">
        <ele>1529.970466094</ele>
        <time>2015-12-16T11:28:36Z</time>
      </trkpt>
      <trkpt lat="45.61355" lon="5.96553">
        <ele>1529.970466094</ele>
        <time>2015-12-16T11:28:46Z</time>
      </trkpt>
      <trkpt lat="45.61355" lon="5.96554">
        <ele>1529.970466094</ele>
        <time>2015-12-16T11:28:51Z</time>
      </trkpt>
      <trkpt lat="45.61355" lon="5.96553">
        <ele>1529.970466094</ele>
        <time>2015-12-16T11:29:01Z</time>
      </trkpt>
      <trkpt lat="45.61355" lon="5.96553">
        <ele>1529.970466094</ele>
        <time>2015-12-16T11:29:06Z</time>
      </trkpt>
      <trkpt lat="45.61356" lon="5.96554">
        <ele>1533.463039778</ele>
        <time>2015-12-16T11:29:16Z</time>
      </trkpt>
      <trkpt lat="45.61357" lon="5.96553">
        <ele>1533.463039778</ele>
        <time>2015-12-16T11:29:21Z</time>
      </trkpt>
      <trkpt lat="45.61356" lon="5.96552">
        <ele>1533.463039778</ele>
        <time>2015-12-16T11:29:31Z</time>
      </trkpt>
      <trkpt lat="45.61356" lon="5.96552">
        <ele>1533.463039778</ele>
        <time>2015-12-16T11:29:36Z</time>
      </trkpt>
      <trkpt lat="45.61356" lon="5.96552">
        <ele>1533.463039778</ele>
        <time>2015-12-16T11:29:46Z</time>
      </trkpt>
      <trkpt lat="45.61356" lon="5.96552">
        <ele>1533.463039778</ele>
        <time>2015-12-16T11:29:51Z</time>
      </trkpt>
      <trkpt lat="45.61356" lon="5.96552">
        <ele>1533.463039778</ele>
        <time>2015-12-16T11:30:01Z</time>
      </trkpt>
      <trkpt lat="45.61356" lon="5.96551">
        <ele>1533.463039778</ele>
        <time>2015-12-16T11:30:06Z</time>
      </trkpt>
      <trkpt lat="45.61356" lon="5.96552">
        <ele>1533.463039778</ele>
        <time>2015-12-16T11:30:17Z</time>
      </trkpt>
      <trkpt lat="45.61355" lon="5.96552">
        <ele>1533.463039778</ele>
        <time>2015-12-16T11:30:22Z</time>
      </trkpt>
      <trkpt lat="45.61354" lon="5.9655">
        <ele>1533.463039778</ele>
        <time>2015-12-16T11:30:37Z</time>
      </trkpt>
      <trkpt lat="45.61354" lon="5.9655">
        <ele>1533.463039778</ele>
        <time>2015-12-16T11:30:51Z</time>
      </trkpt>
      <trkpt lat="45.61354" lon="5.9655">
        <ele>1533.463039778</ele>
        <time>2015-12-16T11:30:57Z</time>
      </trkpt>
      <trkpt lat="45.61356" lon="5.96549">
        <ele>1533.463039778</ele>
        <time>2015-12-16T11:31:06Z</time>
      </trkpt>
      <trkpt lat="45.61357" lon="5.96549">
        <ele>1533.463039778</ele>
        <time>2015-12-16T11:31:11Z</time>
      </trkpt>
      <trkpt lat="45.61357" lon="5.96549">
        <ele>1537.139680893</ele>
        <time>2015-12-16T11:31:21Z</time>
      </trkpt>
      <trkpt lat="45.61357" lon="5.96549">
        <ele>1537.139680893</ele>
        <time>2015-12-16T11:31:28Z</time>
      </trkpt>
      <trkpt lat="45.61358" lon="5.96549">
        <ele>1537.139680893</ele>
        <time>2015-12-16T11:31:36Z</time>
      </trkpt>
      <trkpt lat="45.61358" lon="5.96549">
        <ele>1537.139680893</ele>
        <time>2015-12-16T11:31:42Z</time>
      </trkpt>
      <trkpt lat="45.61358" lon="5.96548">
        <ele>1537.139680893</ele>
        <time>2015-12-16T11:31:51Z</time>
      </trkpt>
      <trkpt lat="45.61358" lon="5.96548">
        <ele>1537.139680893</ele>
        <time>2015-12-16T11:31:57Z</time>
      </trkpt>
      <trkpt lat="45.61357" lon="5.96548">
        <ele>1537.139680893</ele>
        <time>2015-12-16T11:32:07Z</time>
      </trkpt>
      <trkpt lat="45.61356" lon="5.96547">
        <ele>1537.139680893</ele>
        <time>2015-12-16T11:32:12Z</time>
      </trkpt>
      <trkpt lat="45.61356" lon="5.96547">
        <ele>1537.139680893</ele>
        <time>2015-12-16T11:32:22Z</time>
      </trkpt>
      <trkpt lat="45.61356" lon="5.96547">
        <ele>1537.139680893</ele>
        <time>2015-12-16T11:32:27Z</time>
      </trkpt>
      <trkpt lat="45.61356" lon="5.96547">
        <ele>1537.139680893</ele>
        <time>2015-12-16T11:32:37Z</time>
      </trkpt>
      <trkpt lat="45.61356" lon="5.96547">
        <ele>1537.139680893</ele>
        <time>2015-12-16T11:32:42Z</time>
      </trkpt>
      <trkpt lat="45.61354" lon="5.96549">
        <ele>1537.139680893</ele>
        <time>2015-12-16T11:32:52Z</time>
      </trkpt>
      <trkpt lat="45.61354" lon="5.96548">
        <ele>1537.139680893</ele>
        <time>2015-12-16T11:32:56Z</time>
      </trkpt>
      <trkpt lat="45.61354" lon="5.96549">
        <ele>1540.117484388</ele>
        <time>2015-12-16T11:33:01Z</time>
      </trkpt>
      <trkpt lat="45.61354" lon="5.96548">
        <ele>1540.117484388</ele>
        <time>2015-12-16T11:33:06Z</time>
      </trkpt>
      <trkpt lat="45.61355" lon="5.9655">
        <ele>1540.117484388</ele>
        <time>2015-12-16T11:33:16Z</time>
      </trkpt>
      <trkpt lat="45.61355" lon="5.9655">
        <ele>1540.117484388</ele>
        <time>2015-12-16T11:33:21Z</time>
      </trkpt>
      <trkpt lat="45.61355" lon="5.9655">
        <ele>1540.117484388</ele>
        <time>2015-12-16T11:33:31Z</time>
      </trkpt>
      <trkpt lat="45.61355" lon="5.96551">
        <ele>1540.117484388</ele>
        <time>2015-12-16T11:33:36Z</time>
      </trkpt>
      <trkpt lat="45.61355" lon="5.96551">
        <ele>1540.117484388</ele>
        <time>2015-12-16T11:33:46Z</time>
      </trkpt>
      <trkpt lat="45.61355" lon="5.96551">
        <ele>1540.117484388</ele>
        <time>2015-12-16T11:33:51Z</time>
      </trkpt>
      <trkpt lat="45.61356" lon="5.96552">
        <ele>1540.117484388</ele>
        <time>2015-12-16T11:34:01Z</time>
      </trkpt>
      <trkpt lat="45.61357" lon="5.96548">
        <ele>1540.117484388</ele>
        <time>2015-12-16T11:34:06Z</time>
      </trkpt>
      <trkpt lat="45.61356" lon="5.96548">
        <ele>1540.117484388</ele>
        <time>2015-12-16T11:34:16Z</time>
      </trkpt>
      <trkpt lat="45.61355" lon="5.96551">
        <ele>1540.117484388</ele>
        <time>2015-12-16T11:34:21Z</time>
      </trkpt>
      <trkpt lat="45.61356" lon="5.96553">
        <ele>1542.877359189</ele>
        <time>2015-12-16T11:34:36Z</time>
      </trkpt>
      <trkpt lat="45.61356" lon="5.96554">
        <ele>1542.877359189</ele>
        <time>2015-12-16T11:34:41Z</time>
      </trkpt>
      <trkpt lat="45.61354" lon="5.96564">
        <ele>1542.877359189</ele>
        <time>2015-12-16T11:34:52Z</time>
      </trkpt>
      <trkpt lat="45.61355" lon="5.96566">
        <ele>1544.568501411</ele>
        <time>2015-12-16T11:34:56Z</time>
      </trkpt>
      <trkpt lat="45.6135" lon="5.96569">
        <ele>1544.568501411</ele>
        <time>2015-12-16T11:35:06Z</time>
      </trkpt>
      <trkpt lat="45.61349" lon="5.96576">
        <ele>1545.702612588</ele>
        <time>2015-12-16T11:35:11Z</time>
      </trkpt>
      <trkpt lat="45.61346" lon="5.96581">
        <ele>1545.702612588</ele>
        <time>2015-12-16T11:35:21Z</time>
      </trkpt>
      <trkpt lat="45.61344" lon="5.96583">
        <ele>1545.702612588</ele>
        <time>2015-12-16T11:35:26Z</time>
      </trkpt>
      <trkpt lat="45.61347" lon="5.96584">
        <ele>1546.467150885</ele>
        <time>2015-12-16T11:35:36Z</time>
      </trkpt>
      <trkpt lat="45.61348" lon="5.96584">
        <ele>1546.467150885</ele>
        <time>2015-12-16T11:35:41Z</time>
      </trkpt>
      <trkpt lat="45.61348" lon="5.96584">
        <ele>1546.467150885</ele>
        <time>2015-12-16T11:35:52Z</time>
      </trkpt>
      <trkpt lat="45.61348" lon="5.96584">
        <ele>1546.467150885</ele>
        <time>2015-12-16T11:35:56Z</time>
      </trkpt>
      <trkpt lat="45.61347" lon="5.96585">
        <ele>1546.467150885</ele>
        <time>2015-12-16T11:36:06Z</time>
      </trkpt>
      <trkpt lat="45.61347" lon="5.96585">
        <ele>1546.467150885</ele>
        <time>2015-12-16T11:36:11Z</time>
      </trkpt>
      <trkpt lat="45.61347" lon="5.96585">
        <ele>1546.467150885</ele>
        <time>2015-12-16T11:36:21Z</time>
      </trkpt>
      <trkpt lat="45.61347" lon="5.96585">
        <ele>1546.467150885</ele>
        <time>2015-12-16T11:36:26Z</time>
      </trkpt>
      <trkpt lat="45.61347" lon="5.96585">
        <ele>1546.467150885</ele>
        <time>2015-12-16T11:36:36Z</time>
      </trkpt>
      <trkpt lat="45.61347" lon="5.96585">
        <ele>1546.467150885</ele>
        <time>2015-12-16T11:36:41Z</time>
      </trkpt>
      <trkpt lat="45.61347" lon="5.96585">
        <ele>1546.467150885</ele>
        <time>2015-12-16T11:36:51Z</time>
      </trkpt>
      <trkpt lat="45.61347" lon="5.96585">
        <ele>1546.467150885</ele>
        <time>2015-12-16T11:36:56Z</time>
      </trkpt>
      <trkpt lat="45.61347" lon="5.96585">
        <ele>1546.467150885</ele>
        <time>2015-12-16T11:37:11Z</time>
      </trkpt>
      <trkpt lat="45.61347" lon="5.96585">
        <ele>1546.467150885</ele>
        <time>2015-12-16T11:37:16Z</time>
      </trkpt>
      <trkpt lat="45.61347" lon="5.96585">
        <ele>1546.467150885</ele>
        <time>2015-12-16T11:37:26Z</time>
      </trkpt>
      <trkpt lat="45.61347" lon="5.96585">
        <ele>1546.467150885</ele>
        <time>2015-12-16T11:37:31Z</time>
      </trkpt>
      <trkpt lat="45.61347" lon="5.96585">
        <ele>1546.467150885</ele>
        <time>2015-12-16T11:37:41Z</time>
      </trkpt>
      <trkpt lat="45.61347" lon="5.96585">
        <ele>1546.467150885</ele>
        <time>2015-12-16T11:37:46Z</time>
      </trkpt>
      <trkpt lat="45.61347" lon="5.96585">
        <ele>1546.467150885</ele>
        <time>2015-12-16T11:37:56Z</time>
      </trkpt>
      <trkpt lat="45.61347" lon="5.96585">
        <ele>1546.467150885</ele>
        <time>2015-12-16T11:38:01Z</time>
      </trkpt>
      <trkpt lat="45.61347" lon="5.96585">
        <ele>1546.467150885</ele>
        <time>2015-12-16T11:38:11Z</time>
      </trkpt>
      <trkpt lat="45.61347" lon="5.96585">
        <ele>1546.467150885</ele>
        <time>2015-12-16T11:38:16Z</time>
      </trkpt>
      <trkpt lat="45.61347" lon="5.96585">
        <ele>1546.467150885</ele>
        <time>2015-12-16T11:38:26Z</time>
      </trkpt>
      <trkpt lat="45.61347" lon="5.96585">
        <ele>1546.467150885</ele>
        <time>2015-12-16T11:38:31Z</time>
      </trkpt>
      <trkpt lat="45.61347" lon="5.96585">
        <ele>1546.467150885</ele>
        <time>2015-12-16T11:38:41Z</time>
      </trkpt>
      <trkpt lat="45.61347" lon="5.96585">
        <ele>1546.467150885</ele>
        <time>2015-12-16T11:38:46Z</time>
      </trkpt>
      <trkpt lat="45.61347" lon="5.96585">
        <ele>1546.467150885</ele>
        <time>2015-12-16T11:38:56Z</time>
      </trkpt>
      <trkpt lat="45.61347" lon="5.96585">
        <ele>1546.467150885</ele>
        <time>2015-12-16T11:39:01Z</time>
      </trkpt>
      <trkpt lat="45.61347" lon="5.96585">
        <ele>1546.467150885</ele>
        <time>2015-12-16T11:39:11Z</time>
      </trkpt>
      <trkpt lat="45.61347" lon="5.96585">
        <ele>1546.467150885</ele>
        <time>2015-12-16T11:39:16Z</time>
      </trkpt>
      <trkpt lat="45.61347" lon="5.96585">
        <ele>1546.467150885</ele>
        <time>2015-12-16T11:39:31Z</time>
      </trkpt>
      <trkpt lat="45.61347" lon="5.96585">
        <ele>1546.467150885</ele>
        <time>2015-12-16T11:39:36Z</time>
      </trkpt>
      <trkpt lat="45.61347" lon="5.96585">
        <ele>1546.467150885</ele>
        <time>2015-12-16T11:39:46Z</time>
      </trkpt>
      <trkpt lat="45.61347" lon="5.96585">
        <ele>1546.467150885</ele>
        <time>2015-12-16T11:39:52Z</time>
      </trkpt>
      <trkpt lat="45.61347" lon="5.96585">
        <ele>1546.467150885</ele>
        <time>2015-12-16T11:40:02Z</time>
      </trkpt>
      <trkpt lat="45.61347" lon="5.96585">
        <ele>1546.467150885</ele>
        <time>2015-12-16T11:40:06Z</time>
      </trkpt>
      <trkpt lat="45.61347" lon="5.96585">
        <ele>1546.467150885</ele>
        <time>2015-12-16T11:40:16Z</time>
      </trkpt>
      <trkpt lat="45.61347" lon="5.96585">
        <ele>1546.467150885</ele>
        <time>2015-12-16T11:40:21Z</time>
      </trkpt>
      <trkpt lat="45.61347" lon="5.96585">
        <ele>1546.467150885</ele>
        <time>2015-12-16T11:40:45Z</time>
      </trkpt>
      <trkpt lat="45.61347" lon="5.96585">
        <ele>1546.467150885</ele>
        <time>2015-12-16T11:40:45Z</time>
      </trkpt>
      <trkpt lat="45.61347" lon="5.96585">
        <ele>1546.467150885</ele>
        <time>2015-12-16T11:41:00Z</time>
      </trkpt>
      <trkpt lat="45.61347" lon="5.96585">
        <ele>1546.467150885</ele>
        <time>2015-12-16T11:41:00Z</time>
      </trkpt>
      <trkpt lat="45.61347" lon="5.96585">
        <ele>1546.467150885</ele>
        <time>2015-12-16T11:41:19Z</time>
      </trkpt>
      <trkpt lat="45.61347" lon="5.96585">
        <ele>1546.467150885</ele>
        <time>2015-12-16T11:41:39Z</time>
      </trkpt>
      <trkpt lat="45.61347" lon="5.96585">
        <ele>1546.467150885</ele>
        <time>2015-12-16T11:41:53Z</time>
      </trkpt>
      <trkpt lat="45.61347" lon="5.96585">
        <ele>1546.467150885</ele>
        <time>2015-12-16T11:41:56Z</time>
      </trkpt>
      <trkpt lat="45.61347" lon="5.96585">
        <ele>1546.467150885</ele>
        <time>2015-12-16T11:42:12Z</time>
      </trkpt>
      <trkpt lat="45.61347" lon="5.96585">
        <ele>1546.467150885</ele>
        <time>2015-12-16T11:42:12Z</time>
      </trkpt>
      <trkpt lat="45.61347" lon="5.96585">
        <ele>1546.467150885</ele>
        <time>2015-12-16T11:42:16Z</time>
      </trkpt>
      <trkpt lat="45.61347" lon="5.96585">
        <ele>1546.467150885</ele>
        <time>2015-12-16T11:42:30Z</time>
      </trkpt>
      <trkpt lat="45.61346" lon="5.96585">
        <ele>1546.467150885</ele>
        <time>2015-12-16T11:42:46Z</time>
      </trkpt>
      <trkpt lat="45.61346" lon="5.96585">
        <ele>1546.467150885</ele>
        <time>2015-12-16T11:43:24Z</time>
      </trkpt>
      <trkpt lat="45.61346" lon="5.96585">
        <ele>1546.467150885</ele>
        <time>2015-12-16T11:43:33Z</time>
      </trkpt>
      <trkpt lat="45.61346" lon="5.96585">
        <ele>1546.467150885</ele>
        <time>2015-12-16T11:43:42Z</time>
      </trkpt>
      <trkpt lat="45.61346" lon="5.96585">
        <ele>1546.467150885</ele>
        <time>2015-12-16T11:43:54Z</time>
      </trkpt>
      <trkpt lat="45.61346" lon="5.96585">
        <ele>1546.467150885</ele>
        <time>2015-12-16T11:43:59Z</time>
      </trkpt>
      <trkpt lat="45.61346" lon="5.96585">
        <ele>1546.467150885</ele>
        <time>2015-12-16T11:44:29Z</time>
      </trkpt>
      <trkpt lat="45.61346" lon="5.96585">
        <ele>1546.467150885</ele>
        <time>2015-12-16T11:44:31Z</time>
      </trkpt>
      <trkpt lat="45.61346" lon="5.96584">
        <ele>1546.467150885</ele>
        <time>2015-12-16T11:44:48Z</time>
      </trkpt>
      <trkpt lat="45.61346" lon="5.96583">
        <ele>1546.467150885</ele>
        <time>2015-12-16T11:44:48Z</time>
      </trkpt>
      <trkpt lat="45.61346" lon="5.96583">
        <ele>1546.467150885</ele>
        <time>2015-12-16T11:44:51Z</time>
      </trkpt>
      <trkpt lat="45.61346" lon="5.96583">
        <ele>1546.467150885</ele>
        <time>2015-12-16T11:45:05Z</time>
      </trkpt>
      <trkpt lat="45.61345" lon="5.96584">
        <ele>1546.467150885</ele>
        <time>2015-12-16T11:45:06Z</time>
      </trkpt>
      <trkpt lat="45.61344" lon="5.96584">
        <ele>1546.467150885</ele>
        <time>2015-12-16T11:45:16Z</time>
      </trkpt>
      <trkpt lat="45.61344" lon="5.96583">
        <ele>1546.467150885</ele>
        <time>2015-12-16T11:45:21Z</time>
      </trkpt>
      <trkpt lat="45.61344" lon="5.96583">
        <ele>1546.467150885</ele>
        <time>2015-12-16T11:45:31Z</time>
      </trkpt>
      <trkpt lat="45.61344" lon="5.96583">
        <ele>1546.467150885</ele>
        <time>2015-12-16T11:45:36Z</time>
      </trkpt>
      <trkpt lat="45.61344" lon="5.96583">
        <ele>1546.467150885</ele>
        <time>2015-12-16T11:45:53Z</time>
      </trkpt>
      <trkpt lat="45.61344" lon="5.96583">
        <ele>1546.467150885</ele>
        <time>2015-12-16T11:46:06Z</time>
      </trkpt>
      <trkpt lat="45.61344" lon="5.96583">
        <ele>1546.467150885</ele>
        <time>2015-12-16T11:46:11Z</time>
      </trkpt>
      <trkpt lat="45.61344" lon="5.96583">
        <ele>1546.467150885</ele>
        <time>2015-12-16T11:46:21Z</time>
      </trkpt>
      <trkpt lat="45.61344" lon="5.96583">
        <ele>1546.467150885</ele>
        <time>2015-12-16T11:46:26Z</time>
      </trkpt>
      <trkpt lat="45.61344" lon="5.96583">
        <ele>1546.467150885</ele>
        <time>2015-12-16T11:46:36Z</time>
      </trkpt>
      <trkpt lat="45.61344" lon="5.96583">
        <ele>1546.467150885</ele>
        <time>2015-12-16T11:46:41Z</time>
      </trkpt>
      <trkpt lat="45.61344" lon="5.96583">
        <ele>1546.467150885</ele>
        <time>2015-12-16T11:46:51Z</time>
      </trkpt>
      <trkpt lat="45.61344" lon="5.96583">
        <ele>1546.467150885</ele>
        <time>2015-12-16T11:46:56Z</time>
      </trkpt>
      <trkpt lat="45.61344" lon="5.96583">
        <ele>1546.467150885</ele>
        <time>2015-12-16T11:47:06Z</time>
      </trkpt>
      <trkpt lat="45.61344" lon="5.96583">
        <ele>1546.467150885</ele>
        <time>2015-12-16T11:47:11Z</time>
      </trkpt>
      <trkpt lat="45.61344" lon="5.96583">
        <ele>1546.467150885</ele>
        <time>2015-12-16T11:47:22Z</time>
      </trkpt>
      <trkpt lat="45.61344" lon="5.96583">
        <ele>1546.467150885</ele>
        <time>2015-12-16T11:47:26Z</time>
      </trkpt>
      <trkpt lat="45.61344" lon="5.96583">
        <ele>1546.467150885</ele>
        <time>2015-12-16T11:47:36Z</time>
      </trkpt>
      <trkpt lat="45.61344" lon="5.96583">
        <ele>1546.467150885</ele>
        <time>2015-12-16T11:47:41Z</time>
      </trkpt>
      <trkpt lat="45.61344" lon="5.96583">
        <ele>1546.467150885</ele>
        <time>2015-12-16T11:47:51Z</time>
      </trkpt>
      <trkpt lat="45.61344" lon="5.96583">
        <ele>1546.467150885</ele>
        <time>2015-12-16T11:47:56Z</time>
      </trkpt>
      <trkpt lat="45.61344" lon="5.96583">
        <ele>1546.467150885</ele>
        <time>2015-12-16T11:48:07Z</time>
      </trkpt>
      <trkpt lat="45.61344" lon="5.96583">
        <ele>1546.467150885</ele>
        <time>2015-12-16T11:48:11Z</time>
      </trkpt>
      <trkpt lat="45.61344" lon="5.96583">
        <ele>1546.467150885</ele>
        <time>2015-12-16T11:48:22Z</time>
      </trkpt>
      <trkpt lat="45.61344" lon="5.96583">
        <ele>1546.467150885</ele>
        <time>2015-12-16T11:48:27Z</time>
      </trkpt>
      <trkpt lat="45.61344" lon="5.96583">
        <ele>1546.467150885</ele>
        <time>2015-12-16T11:48:41Z</time>
      </trkpt>
      <trkpt lat="45.61344" lon="5.96583">
        <ele>1546.467150885</ele>
        <time>2015-12-16T11:48:46Z</time>
      </trkpt>
      <trkpt lat="45.61344" lon="5.96583">
        <ele>1546.467150885</ele>
        <time>2015-12-16T11:48:56Z</time>
      </trkpt>
      <trkpt lat="45.61344" lon="5.96583">
        <ele>1546.467150885</ele>
        <time>2015-12-16T11:49:01Z</time>
      </trkpt>
      <trkpt lat="45.61344" lon="5.96583">
        <ele>1546.467150885</ele>
        <time>2015-12-16T11:49:11Z</time>
      </trkpt>
      <trkpt lat="45.61344" lon="5.96583">
        <ele>1546.467150885</ele>
        <time>2015-12-16T11:49:16Z</time>
      </trkpt>
      <trkpt lat="45.61344" lon="5.96583">
        <ele>1546.467150885</ele>
        <time>2015-12-16T11:49:26Z</time>
      </trkpt>
      <trkpt lat="45.61344" lon="5.96583">
        <ele>1546.467150885</ele>
        <time>2015-12-16T11:49:31Z</time>
      </trkpt>
      <trkpt lat="45.61344" lon="5.96583">
        <ele>1546.467150885</ele>
        <time>2015-12-16T11:49:41Z</time>
      </trkpt>
      <trkpt lat="45.61344" lon="5.96583">
        <ele>1546.467150885</ele>
        <time>2015-12-16T11:49:46Z</time>
      </trkpt>
      <trkpt lat="45.61344" lon="5.96583">
        <ele>1546.467150885</ele>
        <time>2015-12-16T11:49:56Z</time>
      </trkpt>
      <trkpt lat="45.61344" lon="5.96583">
        <ele>1546.467150885</ele>
        <time>2015-12-16T11:50:01Z</time>
      </trkpt>
      <trkpt lat="45.61344" lon="5.96583">
        <ele>1546.467150885</ele>
        <time>2015-12-16T11:50:06Z</time>
      </trkpt>
      <trkpt lat="45.61345" lon="5.96584">
        <ele>1546.467150885</ele>
        <time>2015-12-16T11:50:16Z</time>
      </trkpt>
      <trkpt lat="45.61345" lon="5.96584">
        <ele>1546.467150885</ele>
        <time>2015-12-16T11:50:27Z</time>
      </trkpt>
      <trkpt lat="45.61345" lon="5.96584">
        <ele>1546.467150885</ele>
        <time>2015-12-16T11:50:28Z</time>
      </trkpt>
      <trkpt lat="45.61345" lon="5.96584">
        <ele>1546.467150885</ele>
        <time>2015-12-16T11:50:31Z</time>
      </trkpt>
      <trkpt lat="45.61345" lon="5.96584">
        <ele>1546.467150885</ele>
        <time>2015-12-16T11:50:36Z</time>
      </trkpt>
      <trkpt lat="45.61345" lon="5.96584">
        <ele>1546.467150885</ele>
        <time>2015-12-16T11:50:45Z</time>
      </trkpt>
      <trkpt lat="45.61345" lon="5.96584">
        <ele>1546.467150885</ele>
        <time>2015-12-16T11:50:46Z</time>
      </trkpt>
      <trkpt lat="45.61345" lon="5.96584">
        <ele>1546.467150885</ele>
        <time>2015-12-16T11:51:01Z</time>
      </trkpt>
      <trkpt lat="45.61345" lon="5.96584">
        <ele>1546.467150885</ele>
        <time>2015-12-16T11:51:02Z</time>
      </trkpt>
      <trkpt lat="45.61345" lon="5.96584">
        <ele>1546.467150885</ele>
        <time>2015-12-16T11:51:39Z</time>
      </trkpt>
      <trkpt lat="45.61345" lon="5.96584">
        <ele>1546.467150885</ele>
        <time>2015-12-16T11:51:41Z</time>
      </trkpt>
      <trkpt lat="45.61345" lon="5.96584">
        <ele>1546.467150885</ele>
        <time>2015-12-16T11:51:54Z</time>
      </trkpt>
      <trkpt lat="45.61345" lon="5.96584">
        <ele>1546.467150885</ele>
        <time>2015-12-16T11:52:01Z</time>
      </trkpt>
      <trkpt lat="45.61345" lon="5.96584">
        <ele>1546.467150885</ele>
        <time>2015-12-16T11:52:01Z</time>
      </trkpt>
      <trkpt lat="45.61345" lon="5.96584">
        <ele>1546.467150885</ele>
        <time>2015-12-16T11:52:12Z</time>
      </trkpt>
      <trkpt lat="45.61345" lon="5.96584">
        <ele>1546.467150885</ele>
        <time>2015-12-16T11:52:12Z</time>
      </trkpt>
      <trkpt lat="45.61345" lon="5.96584">
        <ele>1546.467150885</ele>
        <time>2015-12-16T11:52:26Z</time>
      </trkpt>
      <trkpt lat="45.61345" lon="5.96584">
        <ele>1546.467150885</ele>
        <time>2015-12-16T11:52:41Z</time>
      </trkpt>
      <trkpt lat="45.61345" lon="5.96584">
        <ele>1546.467150885</ele>
        <time>2015-12-16T11:52:46Z</time>
      </trkpt>
      <trkpt lat="45.61345" lon="5.96584">
        <ele>1546.467150885</ele>
        <time>2015-12-16T11:53:00Z</time>
      </trkpt>
      <trkpt lat="45.61344" lon="5.96585">
        <ele>1546.892728933</ele>
        <time>2015-12-16T11:53:14Z</time>
      </trkpt>
      <trkpt lat="45.61344" lon="5.96584">
        <ele>1546.892728933</ele>
        <time>2015-12-16T11:53:16Z</time>
      </trkpt>
      <trkpt lat="45.61344" lon="5.96585">
        <ele>1546.892728933</ele>
        <time>2015-12-16T11:53:21Z</time>
      </trkpt>
      <trkpt lat="45.61344" lon="5.96585">
        <ele>1546.892728933</ele>
        <time>2015-12-16T11:53:31Z</time>
      </trkpt>
      <trkpt lat="45.61344" lon="5.96585">
        <ele>1546.892728933</ele>
        <time>2015-12-16T11:53:36Z</time>
      </trkpt>
      <trkpt lat="45.61343" lon="5.96586">
        <ele>1546.892728933</ele>
        <time>2015-12-16T11:53:46Z</time>
      </trkpt>
      <trkpt lat="45.61343" lon="5.96586">
        <ele>1546.892728933</ele>
        <time>2015-12-16T11:53:51Z</time>
      </trkpt>
      <trkpt lat="45.61343" lon="5.96586">
        <ele>1546.892728933</ele>
        <time>2015-12-16T11:54:01Z</time>
      </trkpt>
      <trkpt lat="45.61343" lon="5.96586">
        <ele>1546.892728933</ele>
        <time>2015-12-16T11:54:06Z</time>
      </trkpt>
      <trkpt lat="45.61343" lon="5.96586">
        <ele>1546.892728933</ele>
        <time>2015-12-16T11:54:16Z</time>
      </trkpt>
      <trkpt lat="45.61343" lon="5.96586">
        <ele>1546.892728933</ele>
        <time>2015-12-16T11:54:21Z</time>
      </trkpt>
      <trkpt lat="45.61343" lon="5.96585">
        <ele>1546.892728933</ele>
        <time>2015-12-16T11:54:31Z</time>
      </trkpt>
      <trkpt lat="45.61342" lon="5.96585">
        <ele>1546.892728933</ele>
        <time>2015-12-16T11:54:36Z</time>
      </trkpt>
      <trkpt lat="45.61342" lon="5.96585">
        <ele>1546.892728933</ele>
        <time>2015-12-16T11:54:46Z</time>
      </trkpt>
      <trkpt lat="45.61342" lon="5.96585">
        <ele>1546.892728933</ele>
        <time>2015-12-16T11:54:52Z</time>
      </trkpt>
      <trkpt lat="45.61328" lon="5.96599">
        <ele>1546.720428036</ele>
        <time>2015-12-16T11:55:26Z</time>
      </trkpt>
      <trkpt lat="45.61341" lon="5.9659">
        <ele>1546.864892847</ele>
        <time>2015-12-16T11:55:31Z</time>
      </trkpt>
      <trkpt lat="45.6134" lon="5.96589">
        <ele>1546.864892847</ele>
        <time>2015-12-16T11:55:41Z</time>
      </trkpt>
      <trkpt lat="45.6134" lon="5.9659">
        <ele>1546.864892847</ele>
        <time>2015-12-16T11:55:46Z</time>
      </trkpt>
      <trkpt lat="45.6134" lon="5.9659">
        <ele>1546.864892847</ele>
        <time>2015-12-16T11:55:56Z</time>
      </trkpt>
      <trkpt lat="45.6134" lon="5.9659">
        <ele>1546.864892847</ele>
        <time>2015-12-16T11:56:01Z</time>
      </trkpt>
      <trkpt lat="45.6134" lon="5.9659">
        <ele>1546.864892847</ele>
        <time>2015-12-16T11:56:11Z</time>
      </trkpt>
      <trkpt lat="45.6134" lon="5.9659">
        <ele>1546.864892847</ele>
        <time>2015-12-16T11:56:16Z</time>
      </trkpt>
      <trkpt lat="45.6134" lon="5.9659">
        <ele>1546.864892847</ele>
        <time>2015-12-16T11:56:31Z</time>
      </trkpt>
      <trkpt lat="45.6134" lon="5.9659">
        <ele>1546.864892847</ele>
        <time>2015-12-16T11:56:36Z</time>
      </trkpt>
      <trkpt lat="45.6134" lon="5.9659">
        <ele>1546.864892847</ele>
        <time>2015-12-16T11:56:46Z</time>
      </trkpt>
      <trkpt lat="45.6134" lon="5.9659">
        <ele>1546.864892847</ele>
        <time>2015-12-16T11:56:51Z</time>
      </trkpt>
      <trkpt lat="45.6134" lon="5.9659">
        <ele>1546.864892847</ele>
        <time>2015-12-16T11:57:01Z</time>
      </trkpt>
      <trkpt lat="45.6134" lon="5.96589">
        <ele>1546.864892847</ele>
        <time>2015-12-16T11:57:06Z</time>
      </trkpt>
      <trkpt lat="45.6134" lon="5.9659">
        <ele>1546.864892847</ele>
        <time>2015-12-16T11:57:16Z</time>
      </trkpt>
      <trkpt lat="45.61341" lon="5.9659">
        <ele>1546.864892847</ele>
        <time>2015-12-16T11:57:21Z</time>
      </trkpt>
      <trkpt lat="45.61341" lon="5.96589">
        <ele>1546.864892847</ele>
        <time>2015-12-16T11:57:31Z</time>
      </trkpt>
      <trkpt lat="45.61341" lon="5.96589">
        <ele>1546.864892847</ele>
        <time>2015-12-16T11:57:36Z</time>
      </trkpt>
      <trkpt lat="45.61341" lon="5.96589">
        <ele>1546.864892847</ele>
        <time>2015-12-16T11:57:46Z</time>
      </trkpt>
      <trkpt lat="45.61341" lon="5.96589">
        <ele>1546.864892847</ele>
        <time>2015-12-16T11:57:51Z</time>
      </trkpt>
      <trkpt lat="45.61341" lon="5.96589">
        <ele>1546.864892847</ele>
        <time>2015-12-16T11:58:01Z</time>
      </trkpt>
      <trkpt lat="45.61341" lon="5.96589">
        <ele>1546.864892847</ele>
        <time>2015-12-16T11:58:06Z</time>
      </trkpt>
      <trkpt lat="45.61341" lon="5.96589">
        <ele>1546.864892847</ele>
        <time>2015-12-16T11:58:16Z</time>
      </trkpt>
      <trkpt lat="45.61341" lon="5.96589">
        <ele>1546.864892847</ele>
        <time>2015-12-16T11:58:21Z</time>
      </trkpt>
      <trkpt lat="45.61341" lon="5.96589">
        <ele>1546.864892847</ele>
        <time>2015-12-16T11:58:31Z</time>
      </trkpt>
      <trkpt lat="45.61341" lon="5.96589">
        <ele>1546.864892847</ele>
        <time>2015-12-16T11:58:37Z</time>
      </trkpt>
      <trkpt lat="45.61341" lon="5.96589">
        <ele>1546.864892847</ele>
        <time>2015-12-16T11:58:47Z</time>
      </trkpt>
      <trkpt lat="45.61341" lon="5.96589">
        <ele>1546.864892847</ele>
        <time>2015-12-16T11:58:52Z</time>
      </trkpt>
      <trkpt lat="45.61341" lon="5.96589">
        <ele>1546.864892847</ele>
        <time>2015-12-16T11:59:02Z</time>
      </trkpt>
      <trkpt lat="45.61341" lon="5.96589">
        <ele>1546.864892847</ele>
        <time>2015-12-16T11:59:07Z</time>
      </trkpt>
      <trkpt lat="45.61341" lon="5.96589">
        <ele>1546.864892847</ele>
        <time>2015-12-16T11:59:17Z</time>
      </trkpt>
      <trkpt lat="45.61341" lon="5.96589">
        <ele>1546.864892847</ele>
        <time>2015-12-16T11:59:21Z</time>
      </trkpt>
      <trkpt lat="45.61341" lon="5.96589">
        <ele>1546.864892847</ele>
        <time>2015-12-16T11:59:26Z</time>
      </trkpt>
      <trkpt lat="45.61341" lon="5.96589">
        <ele>1546.864892847</ele>
        <time>2015-12-16T11:59:36Z</time>
      </trkpt>
      <trkpt lat="45.61341" lon="5.96589">
        <ele>1546.864892847</ele>
        <time>2015-12-16T11:59:41Z</time>
      </trkpt>
      <trkpt lat="45.61341" lon="5.96581">
        <ele>1546.864892847</ele>
        <time>2015-12-16T11:59:51Z</time>
      </trkpt>
      <trkpt lat="45.61342" lon="5.9658">
        <ele>1546.864892847</ele>
        <time>2015-12-16T11:59:56Z</time>
      </trkpt>
      <trkpt lat="45.61342" lon="5.9658">
        <ele>1546.864892847</ele>
        <time>2015-12-16T12:00:06Z</time>
      </trkpt>
      <trkpt lat="45.61342" lon="5.9658">
        <ele>1546.864892847</ele>
        <time>2015-12-16T12:00:12Z</time>
      </trkpt>
      <trkpt lat="45.61342" lon="5.9658">
        <ele>1546.864892847</ele>
        <time>2015-12-16T12:00:21Z</time>
      </trkpt>
      <trkpt lat="45.61342" lon="5.9658">
        <ele>1546.864892847</ele>
        <time>2015-12-16T12:00:26Z</time>
      </trkpt>
      <trkpt lat="45.61342" lon="5.9658">
        <ele>1546.864892847</ele>
        <time>2015-12-16T12:00:37Z</time>
      </trkpt>
      <trkpt lat="45.61342" lon="5.9658">
        <ele>1546.864892847</ele>
        <time>2015-12-16T12:00:42Z</time>
      </trkpt>
      <trkpt lat="45.61342" lon="5.9658">
        <ele>1546.864892847</ele>
        <time>2015-12-16T12:00:52Z</time>
      </trkpt>
      <trkpt lat="45.61343" lon="5.96581">
        <ele>1546.010984562</ele>
        <time>2015-12-16T12:00:57Z</time>
      </trkpt>
      <trkpt lat="45.61343" lon="5.96583">
        <ele>1546.010984562</ele>
        <time>2015-12-16T12:01:06Z</time>
      </trkpt>
      <trkpt lat="45.61344" lon="5.96583">
        <ele>1546.010984562</ele>
        <time>2015-12-16T12:01:11Z</time>
      </trkpt>
      <trkpt lat="45.61344" lon="5.96583">
        <ele>1546.010984562</ele>
        <time>2015-12-16T12:01:16Z</time>
      </trkpt>
      <trkpt lat="45.61344" lon="5.96583">
        <ele>1546.010984562</ele>
        <time>2015-12-16T12:01:21Z</time>
      </trkpt>
      <trkpt lat="45.61344" lon="5.96583">
        <ele>1546.010984562</ele>
        <time>2015-12-16T12:01:26Z</time>
      </trkpt>
      <trkpt lat="45.61344" lon="5.96583">
        <ele>1546.010984562</ele>
        <time>2015-12-16T12:01:31Z</time>
      </trkpt>
      <trkpt lat="45.61344" lon="5.96583">
        <ele>1546.010984562</ele>
        <time>2015-12-16T12:01:36Z</time>
      </trkpt>
      <trkpt lat="45.61344" lon="5.96583">
        <ele>1546.010984562</ele>
        <time>2015-12-16T12:01:41Z</time>
      </trkpt>
      <trkpt lat="45.61344" lon="5.96583">
        <ele>1546.010984562</ele>
        <time>2015-12-16T12:01:46Z</time>
      </trkpt>
      <trkpt lat="45.61345" lon="5.96583">
        <ele>1546.010984562</ele>
        <time>2015-12-16T12:01:51Z</time>
      </trkpt>
      <trkpt lat="45.61346" lon="5.96583">
        <ele>1546.010984562</ele>
        <time>2015-12-16T12:01:56Z</time>
      </trkpt>
      <trkpt lat="45.61346" lon="5.96584">
        <ele>1546.010984562</ele>
        <time>2015-12-16T12:02:01Z</time>
      </trkpt>
      <trkpt lat="45.61346" lon="5.96584">
        <ele>1546.010984562</ele>
        <time>2015-12-16T12:02:06Z</time>
      </trkpt>
      <trkpt lat="45.61346" lon="5.96584">
        <ele>1546.010984562</ele>
        <time>2015-12-16T12:02:11Z</time>
      </trkpt>
      <trkpt lat="45.61346" lon="5.96584">
        <ele>1546.010984562</ele>
        <time>2015-12-16T12:02:16Z</time>
      </trkpt>
      <trkpt lat="45.61346" lon="5.96584">
        <ele>1546.010984562</ele>
        <time>2015-12-16T12:02:21Z</time>
      </trkpt>
      <trkpt lat="45.61346" lon="5.96584">
        <ele>1546.010984562</ele>
        <time>2015-12-16T12:02:26Z</time>
      </trkpt>
      <trkpt lat="45.61346" lon="5.96584">
        <ele>1546.010984562</ele>
        <time>2015-12-16T12:02:31Z</time>
      </trkpt>
      <trkpt lat="45.61346" lon="5.96584">
        <ele>1546.010984562</ele>
        <time>2015-12-16T12:02:36Z</time>
      </trkpt>
      <trkpt lat="45.61346" lon="5.96584">
        <ele>1546.010984562</ele>
        <time>2015-12-16T12:02:41Z</time>
      </trkpt>
      <trkpt lat="45.61345" lon="5.96584">
        <ele>1546.010984562</ele>
        <time>2015-12-16T12:02:46Z</time>
      </trkpt>
      <trkpt lat="45.61344" lon="5.96583">
        <ele>1546.010984562</ele>
        <time>2015-12-16T12:02:51Z</time>
      </trkpt>
      <trkpt lat="45.61344" lon="5.96584">
        <ele>1546.010984562</ele>
        <time>2015-12-16T12:02:56Z</time>
      </trkpt>
      <trkpt lat="45.61344" lon="5.96584">
        <ele>1546.010984562</ele>
        <time>2015-12-16T12:03:01Z</time>
      </trkpt>
      <trkpt lat="45.61344" lon="5.96584">
        <ele>1546.010984562</ele>
        <time>2015-12-16T12:03:11Z</time>
      </trkpt>
      <trkpt lat="45.61344" lon="5.96584">
        <ele>1546.010984562</ele>
        <time>2015-12-16T12:03:16Z</time>
      </trkpt>
      <trkpt lat="45.61345" lon="5.96585">
        <ele>1545.39281064</ele>
        <time>2015-12-16T12:03:26Z</time>
      </trkpt>
      <trkpt lat="45.61346" lon="5.96586">
        <ele>1545.39281064</ele>
        <time>2015-12-16T12:03:31Z</time>
      </trkpt>
      <trkpt lat="45.61345" lon="5.96585">
        <ele>1545.39281064</ele>
        <time>2015-12-16T12:03:41Z</time>
      </trkpt>
      <trkpt lat="45.61345" lon="5.96585">
        <ele>1545.39281064</ele>
        <time>2015-12-16T12:03:46Z</time>
      </trkpt>
      <trkpt lat="45.61344" lon="5.96584">
        <ele>1545.39281064</ele>
        <time>2015-12-16T12:04:02Z</time>
      </trkpt>
      <trkpt lat="45.61344" lon="5.96584">
        <ele>1545.39281064</ele>
        <time>2015-12-16T12:04:06Z</time>
      </trkpt>
      <trkpt lat="45.61344" lon="5.96584">
        <ele>1545.39281064</ele>
        <time>2015-12-16T12:04:16Z</time>
      </trkpt>
      <trkpt lat="45.61344" lon="5.96584">
        <ele>1545.39281064</ele>
        <time>2015-12-16T12:04:21Z</time>
      </trkpt>
      <trkpt lat="45.61344" lon="5.96584">
        <ele>1545.39281064</ele>
        <time>2015-12-16T12:04:32Z</time>
      </trkpt>
      <trkpt lat="45.61344" lon="5.96584">
        <ele>1545.39281064</ele>
        <time>2015-12-16T12:04:36Z</time>
      </trkpt>
      <trkpt lat="45.61345" lon="5.96585">
        <ele>1545.39281064</ele>
        <time>2015-12-16T12:04:47Z</time>
      </trkpt>
      <trkpt lat="45.61344" lon="5.96585">
        <ele>1545.39281064</ele>
        <time>2015-12-16T12:04:52Z</time>
      </trkpt>
      <trkpt lat="45.61346" lon="5.96583">
        <ele>1545.39281064</ele>
        <time>2015-12-16T12:05:01Z</time>
      </trkpt>
      <trkpt lat="45.61346" lon="5.96583">
        <ele>1545.39281064</ele>
        <time>2015-12-16T12:05:06Z</time>
      </trkpt>
      <trkpt lat="45.61346" lon="5.96583">
        <ele>1545.39281064</ele>
        <time>2015-12-16T12:05:17Z</time>
      </trkpt>
      <trkpt lat="45.61346" lon="5.96583">
        <ele>1545.39281064</ele>
        <time>2015-12-16T12:05:21Z</time>
      </trkpt>
      <trkpt lat="45.61346" lon="5.96583">
        <ele>1545.39281064</ele>
        <time>2015-12-16T12:05:32Z</time>
      </trkpt>
      <trkpt lat="45.61346" lon="5.96583">
        <ele>1545.39281064</ele>
        <time>2015-12-16T12:05:36Z</time>
      </trkpt>
      <trkpt lat="45.61347" lon="5.96585">
        <ele>1545.39281064</ele>
        <time>2015-12-16T12:05:47Z</time>
      </trkpt>
      <trkpt lat="45.61347" lon="5.96585">
        <ele>1545.39281064</ele>
        <time>2015-12-16T12:05:52Z</time>
      </trkpt>
      <trkpt lat="45.61347" lon="5.96585">
        <ele>1545.39281064</ele>
        <time>2015-12-16T12:05:57Z</time>
      </trkpt>
      <trkpt lat="45.61347" lon="5.96584">
        <ele>1545.39281064</ele>
        <time>2015-12-16T12:06:06Z</time>
      </trkpt>
      <trkpt lat="45.61346" lon="5.96585">
        <ele>1545.288424593</ele>
        <time>2015-12-16T12:06:23Z</time>
      </trkpt>
      <trkpt lat="45.61345" lon="5.96584">
        <ele>1545.288424593</ele>
        <time>2015-12-16T12:06:26Z</time>
      </trkpt>
      <trkpt lat="45.61345" lon="5.96585">
        <ele>1545.288424593</ele>
        <time>2015-12-16T12:06:36Z</time>
      </trkpt>
      <trkpt lat="45.61345" lon="5.96585">
        <ele>1545.288424593</ele>
        <time>2015-12-16T12:06:41Z</time>
      </trkpt>
      <trkpt lat="45.61344" lon="5.96587">
        <ele>1545.288424593</ele>
        <time>2015-12-16T12:06:52Z</time>
      </trkpt>
      <trkpt lat="45.61344" lon="5.96587">
        <ele>1545.288424593</ele>
        <time>2015-12-16T12:06:56Z</time>
      </trkpt>
      <trkpt lat="45.61344" lon="5.96588">
        <ele>1545.288424593</ele>
        <time>2015-12-16T12:07:11Z</time>
      </trkpt>
      <trkpt lat="45.61343" lon="5.96586">
        <ele>1545.288424593</ele>
        <time>2015-12-16T12:07:16Z</time>
      </trkpt>
      <trkpt lat="45.61343" lon="5.96586">
        <ele>1545.288424593</ele>
        <time>2015-12-16T12:07:26Z</time>
      </trkpt>
      <trkpt lat="45.61343" lon="5.96586">
        <ele>1545.288424593</ele>
        <time>2015-12-16T12:07:32Z</time>
      </trkpt>
      <trkpt lat="45.61343" lon="5.96586">
        <ele>1545.288424593</ele>
        <time>2015-12-16T12:07:41Z</time>
      </trkpt>
      <trkpt lat="45.61343" lon="5.96586">
        <ele>1545.288424593</ele>
        <time>2015-12-16T12:07:46Z</time>
      </trkpt>
      <trkpt lat="45.61343" lon="5.96586">
        <ele>1545.288424593</ele>
        <time>2015-12-16T12:07:56Z</time>
      </trkpt>
      <trkpt lat="45.61343" lon="5.96586">
        <ele>1545.288424593</ele>
        <time>2015-12-16T12:08:01Z</time>
      </trkpt>
      <trkpt lat="45.61343" lon="5.96586">
        <ele>1545.288424593</ele>
        <time>2015-12-16T12:08:11Z</time>
      </trkpt>
      <trkpt lat="45.61343" lon="5.96586">
        <ele>1545.288424593</ele>
        <time>2015-12-16T12:08:16Z</time>
      </trkpt>
      <trkpt lat="45.61343" lon="5.96587">
        <ele>1545.288424593</ele>
        <time>2015-12-16T12:08:26Z</time>
      </trkpt>
      <trkpt lat="45.61344" lon="5.96585">
        <ele>1545.288424593</ele>
        <time>2015-12-16T12:08:31Z</time>
      </trkpt>
      <trkpt lat="45.61345" lon="5.96584">
        <ele>1545.377485555</ele>
        <time>2015-12-16T12:08:41Z</time>
      </trkpt>
      <trkpt lat="45.61346" lon="5.96584">
        <ele>1545.377485555</ele>
        <time>2015-12-16T12:08:46Z</time>
      </trkpt>
      <trkpt lat="45.61347" lon="5.96583">
        <ele>1545.377485555</ele>
        <time>2015-12-16T12:08:56Z</time>
      </trkpt>
      <trkpt lat="45.61347" lon="5.96583">
        <ele>1545.377485555</ele>
        <time>2015-12-16T12:09:01Z</time>
      </trkpt>
      <trkpt lat="45.61347" lon="5.96583">
        <ele>1545.377485555</ele>
        <time>2015-12-16T12:09:11Z</time>
      </trkpt>
      <trkpt lat="45.61347" lon="5.96584">
        <ele>1545.377485555</ele>
        <time>2015-12-16T12:09:16Z</time>
      </trkpt>
      <trkpt lat="45.61346" lon="5.96583">
        <ele>1545.377485555</ele>
        <time>2015-12-16T12:09:31Z</time>
      </trkpt>
      <trkpt lat="45.61345" lon="5.96584">
        <ele>1545.377485555</ele>
        <time>2015-12-16T12:09:36Z</time>
      </trkpt>
      <trkpt lat="45.61347" lon="5.96591">
        <ele>1544.641989883</ele>
        <time>2015-12-16T12:09:46Z</time>
      </trkpt>
      <trkpt lat="45.61346" lon="5.96592">
        <ele>1544.641989883</ele>
        <time>2015-12-16T12:09:51Z</time>
      </trkpt>
      <trkpt lat="45.61351" lon="5.96599">
        <ele>1544.641989883</ele>
        <time>2015-12-16T12:10:01Z</time>
      </trkpt>
      <trkpt lat="45.61353" lon="5.96602">
        <ele>1543.437920737</ele>
        <time>2015-12-16T12:10:06Z</time>
      </trkpt>
      <trkpt lat="45.61357" lon="5.96612">
        <ele>1543.437920737</ele>
        <time>2015-12-16T12:10:17Z</time>
      </trkpt>
      <trkpt lat="45.61359" lon="5.96616">
        <ele>1541.808081205</ele>
        <time>2015-12-16T12:10:22Z</time>
      </trkpt>
      <trkpt lat="45.6136" lon="5.96626">
        <ele>1541.808081205</ele>
        <time>2015-12-16T12:10:32Z</time>
      </trkpt>
      <trkpt lat="45.61362" lon="5.96626">
        <ele>1540.22552148</ele>
        <time>2015-12-16T12:10:36Z</time>
      </trkpt>
      <trkpt lat="45.61366" lon="5.96637">
        <ele>1540.22552148</ele>
        <time>2015-12-16T12:10:47Z</time>
      </trkpt>
      <trkpt lat="45.61368" lon="5.96639">
        <ele>1538.40770042</ele>
        <time>2015-12-16T12:10:52Z</time>
      </trkpt>
      <trkpt lat="45.61366" lon="5.96644">
        <ele>1538.40770042</ele>
        <time>2015-12-16T12:10:57Z</time>
      </trkpt>
      <trkpt lat="45.61364" lon="5.96656">
        <ele>1536.09332208</ele>
        <time>2015-12-16T12:11:07Z</time>
      </trkpt>
      <trkpt lat="45.61363" lon="5.96658">
        <ele>1536.09332208</ele>
        <time>2015-12-16T12:11:12Z</time>
      </trkpt>
      <trkpt lat="45.61361" lon="5.96667">
        <ele>1536.09332208</ele>
        <time>2015-12-16T12:11:22Z</time>
      </trkpt>
      <trkpt lat="45.61361" lon="5.96676">
        <ele>1533.329712592</ele>
        <time>2015-12-16T12:11:26Z</time>
      </trkpt>
      <trkpt lat="45.61368" lon="5.96692">
        <ele>1530.738220934</ele>
        <time>2015-12-16T12:11:37Z</time>
      </trkpt>
      <trkpt lat="45.61371" lon="5.96695">
        <ele>1530.738220934</ele>
        <time>2015-12-16T12:11:42Z</time>
      </trkpt>
      <trkpt lat="45.61374" lon="5.96705">
        <ele>1527.885067552</ele>
        <time>2015-12-16T12:11:52Z</time>
      </trkpt>
      <trkpt lat="45.61374" lon="5.96707">
        <ele>1527.885067552</ele>
        <time>2015-12-16T12:11:57Z</time>
      </trkpt>
      <trkpt lat="45.61375" lon="5.96707">
        <ele>1527.885067552</ele>
        <time>2015-12-16T12:12:07Z</time>
      </trkpt>
      <trkpt lat="45.61381" lon="5.96708">
        <ele>1527.885067552</ele>
        <time>2015-12-16T12:12:12Z</time>
      </trkpt>
      <trkpt lat="45.61387" lon="5.96709">
        <ele>1525.954055354</ele>
        <time>2015-12-16T12:12:22Z</time>
      </trkpt>
      <trkpt lat="45.61387" lon="5.96708">
        <ele>1525.954055354</ele>
        <time>2015-12-16T12:12:26Z</time>
      </trkpt>
      <trkpt lat="45.61397" lon="5.96701">
        <ele>1524.886297841</ele>
        <time>2015-12-16T12:12:37Z</time>
      </trkpt>
      <trkpt lat="45.61405" lon="5.96702">
        <ele>1524.886297841</ele>
        <time>2015-12-16T12:12:41Z</time>
      </trkpt>
      <trkpt lat="45.61411" lon="5.967">
        <ele>1523.039329015</ele>
        <time>2015-12-16T12:12:57Z</time>
      </trkpt>
      <trkpt lat="45.61411" lon="5.967">
        <ele>1523.039329015</ele>
        <time>2015-12-16T12:13:02Z</time>
      </trkpt>
      <trkpt lat="45.61422" lon="5.96687">
        <ele>1521.199035961</ele>
        <time>2015-12-16T12:13:12Z</time>
      </trkpt>
      <trkpt lat="45.61426" lon="5.96681">
        <ele>1521.199035961</ele>
        <time>2015-12-16T12:13:17Z</time>
      </trkpt>
      <trkpt lat="45.6144" lon="5.96673">
        <ele>1519.228620193</ele>
        <time>2015-12-16T12:13:27Z</time>
      </trkpt>
      <trkpt lat="45.61441" lon="5.96669">
        <ele>1519.228620193</ele>
        <time>2015-12-16T12:13:32Z</time>
      </trkpt>
      <trkpt lat="45.61439" lon="5.96662">
        <ele>1516.857314025</ele>
        <time>2015-12-16T12:13:41Z</time>
      </trkpt>
      <trkpt lat="45.61438" lon="5.96661">
        <ele>1516.857314025</ele>
        <time>2015-12-16T12:13:47Z</time>
      </trkpt>
      <trkpt lat="45.61438" lon="5.96658">
        <ele>1516.857314025</ele>
        <time>2015-12-16T12:13:57Z</time>
      </trkpt>
      <trkpt lat="45.61438" lon="5.96658">
        <ele>1516.857314025</ele>
        <time>2015-12-16T12:14:01Z</time>
      </trkpt>
      <trkpt lat="45.61439" lon="5.96659">
        <ele>1516.857314025</ele>
        <time>2015-12-16T12:14:17Z</time>
      </trkpt>
      <trkpt lat="45.61439" lon="5.96659">
        <ele>1516.857314025</ele>
        <time>2015-12-16T12:14:21Z</time>
      </trkpt>
      <trkpt lat="45.61439" lon="5.96658">
        <ele>1516.857314025</ele>
        <time>2015-12-16T12:14:33Z</time>
      </trkpt>
      <trkpt lat="45.61439" lon="5.96658">
        <ele>1516.857314025</ele>
        <time>2015-12-16T12:14:36Z</time>
      </trkpt>
      <trkpt lat="45.61439" lon="5.96658">
        <ele>1516.857314025</ele>
        <time>2015-12-16T12:14:47Z</time>
      </trkpt>
      <trkpt lat="45.61439" lon="5.96658">
        <ele>1516.857314025</ele>
        <time>2015-12-16T12:14:52Z</time>
      </trkpt>
      <trkpt lat="45.61439" lon="5.96658">
        <ele>1516.857314025</ele>
        <time>2015-12-16T12:15:02Z</time>
      </trkpt>
      <trkpt lat="45.61439" lon="5.96659">
        <ele>1516.857314025</ele>
        <time>2015-12-16T12:15:06Z</time>
      </trkpt>
      <trkpt lat="45.6144" lon="5.96659">
        <ele>1516.857314025</ele>
        <time>2015-12-16T12:15:16Z</time>
      </trkpt>
      <trkpt lat="45.6144" lon="5.96659">
        <ele>1516.857314025</ele>
        <time>2015-12-16T12:15:21Z</time>
      </trkpt>
      <trkpt lat="45.6144" lon="5.96659">
        <ele>1516.857314025</ele>
        <time>2015-12-16T12:15:31Z</time>
      </trkpt>
      <trkpt lat="45.6144" lon="5.96659">
        <ele>1516.857314025</ele>
        <time>2015-12-16T12:15:36Z</time>
      </trkpt>
      <trkpt lat="45.6144" lon="5.96659">
        <ele>1516.857314025</ele>
        <time>2015-12-16T12:15:46Z</time>
      </trkpt>
      <trkpt lat="45.6144" lon="5.96659">
        <ele>1516.857314025</ele>
        <time>2015-12-16T12:15:51Z</time>
      </trkpt>
      <trkpt lat="45.6144" lon="5.96659">
        <ele>1516.857314025</ele>
        <time>2015-12-16T12:16:01Z</time>
      </trkpt>
      <trkpt lat="45.6144" lon="5.96659">
        <ele>1516.857314025</ele>
        <time>2015-12-16T12:16:06Z</time>
      </trkpt>
      <trkpt lat="45.6144" lon="5.96659">
        <ele>1516.857314025</ele>
        <time>2015-12-16T12:16:16Z</time>
      </trkpt>
      <trkpt lat="45.6144" lon="5.96659">
        <ele>1516.857314025</ele>
        <time>2015-12-16T12:16:21Z</time>
      </trkpt>
      <trkpt lat="45.6144" lon="5.96659">
        <ele>1516.857314025</ele>
        <time>2015-12-16T12:16:31Z</time>
      </trkpt>
      <trkpt lat="45.6144" lon="5.96659">
        <ele>1516.857314025</ele>
        <time>2015-12-16T12:16:36Z</time>
      </trkpt>
      <trkpt lat="45.6144" lon="5.96659">
        <ele>1516.857314025</ele>
        <time>2015-12-16T12:16:46Z</time>
      </trkpt>
      <trkpt lat="45.61441" lon="5.96658">
        <ele>1516.857314025</ele>
        <time>2015-12-16T12:16:51Z</time>
      </trkpt>
      <trkpt lat="45.6144" lon="5.96657">
        <ele>1517.870207221</ele>
        <time>2015-12-16T12:17:01Z</time>
      </trkpt>
      <trkpt lat="45.6144" lon="5.96658">
        <ele>1517.870207221</ele>
        <time>2015-12-16T12:17:06Z</time>
      </trkpt>
      <trkpt lat="45.6144" lon="5.96658">
        <ele>1517.870207221</ele>
        <time>2015-12-16T12:17:21Z</time>
      </trkpt>
      <trkpt lat="45.6144" lon="5.96658">
        <ele>1517.870207221</ele>
        <time>2015-12-16T12:17:26Z</time>
      </trkpt>
      <trkpt lat="45.6144" lon="5.96658">
        <ele>1517.870207221</ele>
        <time>2015-12-16T12:17:36Z</time>
      </trkpt>
      <trkpt lat="45.61441" lon="5.96656">
        <ele>1517.870207221</ele>
        <time>2015-12-16T12:17:41Z</time>
      </trkpt>
      <trkpt lat="45.61441" lon="5.96657">
        <ele>1517.870207221</ele>
        <time>2015-12-16T12:17:51Z</time>
      </trkpt>
      <trkpt lat="45.6144" lon="5.96655">
        <ele>1517.870207221</ele>
        <time>2015-12-16T12:17:56Z</time>
      </trkpt>
      <trkpt lat="45.61439" lon="5.96655">
        <ele>1517.870207221</ele>
        <time>2015-12-16T12:18:06Z</time>
      </trkpt>
      <trkpt lat="45.61438" lon="5.96654">
        <ele>1517.870207221</ele>
        <time>2015-12-16T12:18:11Z</time>
      </trkpt>
      <trkpt lat="45.61438" lon="5.96654">
        <ele>1517.870207221</ele>
        <time>2015-12-16T12:18:21Z</time>
      </trkpt>
      <trkpt lat="45.61439" lon="5.96654">
        <ele>1517.870207221</ele>
        <time>2015-12-16T12:18:26Z</time>
      </trkpt>
      <trkpt lat="45.61439" lon="5.96654">
        <ele>1517.870207221</ele>
        <time>2015-12-16T12:18:36Z</time>
      </trkpt>
      <trkpt lat="45.61439" lon="5.96654">
        <ele>1517.870207221</ele>
        <time>2015-12-16T12:18:41Z</time>
      </trkpt>
      <trkpt lat="45.61438" lon="5.96654">
        <ele>1517.870207221</ele>
        <time>2015-12-16T12:18:51Z</time>
      </trkpt>
      <trkpt lat="45.61438" lon="5.96654">
        <ele>1517.870207221</ele>
        <time>2015-12-16T12:18:56Z</time>
      </trkpt>
      <trkpt lat="45.61439" lon="5.96654">
        <ele>1517.870207221</ele>
        <time>2015-12-16T12:19:11Z</time>
      </trkpt>
      <trkpt lat="45.61439" lon="5.96654">
        <ele>1517.870207221</ele>
        <time>2015-12-16T12:19:16Z</time>
      </trkpt>
      <trkpt lat="45.61439" lon="5.96654">
        <ele>1517.870207221</ele>
        <time>2015-12-16T12:19:26Z</time>
      </trkpt>
      <trkpt lat="45.61439" lon="5.96654">
        <ele>1517.870207221</ele>
        <time>2015-12-16T12:19:31Z</time>
      </trkpt>
      <trkpt lat="45.61439" lon="5.96654">
        <ele>1517.870207221</ele>
        <time>2015-12-16T12:19:41Z</time>
      </trkpt>
      <trkpt lat="45.61439" lon="5.96654">
        <ele>1517.870207221</ele>
        <time>2015-12-16T12:19:46Z</time>
      </trkpt>
      <trkpt lat="45.61439" lon="5.96654">
        <ele>1517.870207221</ele>
        <time>2015-12-16T12:19:56Z</time>
      </trkpt>
      <trkpt lat="45.61439" lon="5.96654">
        <ele>1517.870207221</ele>
        <time>2015-12-16T12:20:01Z</time>
      </trkpt>
      <trkpt lat="45.61439" lon="5.96654">
        <ele>1517.870207221</ele>
        <time>2015-12-16T12:20:11Z</time>
      </trkpt>
      <trkpt lat="45.61439" lon="5.96654">
        <ele>1517.870207221</ele>
        <time>2015-12-16T12:20:16Z</time>
      </trkpt>
      <trkpt lat="45.61439" lon="5.96654">
        <ele>1517.870207221</ele>
        <time>2015-12-16T12:20:26Z</time>
      </trkpt>
      <trkpt lat="45.61439" lon="5.96654">
        <ele>1517.870207221</ele>
        <time>2015-12-16T12:20:31Z</time>
      </trkpt>
      <trkpt lat="45.61439" lon="5.96654">
        <ele>1517.870207221</ele>
        <time>2015-12-16T12:20:41Z</time>
      </trkpt>
      <trkpt lat="45.61439" lon="5.96654">
        <ele>1517.870207221</ele>
        <time>2015-12-16T12:20:46Z</time>
      </trkpt>
      <trkpt lat="45.61439" lon="5.96654">
        <ele>1517.870207221</ele>
        <time>2015-12-16T12:20:56Z</time>
      </trkpt>
      <trkpt lat="45.61439" lon="5.96654">
        <ele>1517.870207221</ele>
        <time>2015-12-16T12:21:01Z</time>
      </trkpt>
      <trkpt lat="45.6144" lon="5.96654">
        <ele>1517.870207221</ele>
        <time>2015-12-16T12:21:11Z</time>
      </trkpt>
      <trkpt lat="45.61439" lon="5.96653">
        <ele>1517.870207221</ele>
        <time>2015-12-16T12:21:16Z</time>
      </trkpt>
      <trkpt lat="45.61439" lon="5.96653">
        <ele>1517.838465232</ele>
        <time>2015-12-16T12:21:26Z</time>
      </trkpt>
      <trkpt lat="45.61439" lon="5.96653">
        <ele>1517.838465232</ele>
        <time>2015-12-16T12:21:31Z</time>
      </trkpt>
      <trkpt lat="45.61439" lon="5.96653">
        <ele>1517.838465232</ele>
        <time>2015-12-16T12:21:41Z</time>
      </trkpt>
      <trkpt lat="45.61439" lon="5.96653">
        <ele>1517.838465232</ele>
        <time>2015-12-16T12:21:46Z</time>
      </trkpt>
      <trkpt lat="45.61439" lon="5.96653">
        <ele>1517.838465232</ele>
        <time>2015-12-16T12:21:56Z</time>
      </trkpt>
      <trkpt lat="45.61439" lon="5.96653">
        <ele>1517.838465232</ele>
        <time>2015-12-16T12:22:01Z</time>
      </trkpt>
      <trkpt lat="45.61439" lon="5.96653">
        <ele>1517.838465232</ele>
        <time>2015-12-16T12:22:16Z</time>
      </trkpt>
      <trkpt lat="45.61439" lon="5.96653">
        <ele>1517.838465232</ele>
        <time>2015-12-16T12:22:21Z</time>
      </trkpt>
      <trkpt lat="45.61439" lon="5.96653">
        <ele>1517.838465232</ele>
        <time>2015-12-16T12:22:31Z</time>
      </trkpt>
      <trkpt lat="45.61439" lon="5.96653">
        <ele>1517.838465232</ele>
        <time>2015-12-16T12:22:36Z</time>
      </trkpt>
      <trkpt lat="45.6144" lon="5.96653">
        <ele>1517.838465232</ele>
        <time>2015-12-16T12:22:46Z</time>
      </trkpt>
      <trkpt lat="45.6144" lon="5.96652">
        <ele>1517.838465232</ele>
        <time>2015-12-16T12:22:51Z</time>
      </trkpt>
      <trkpt lat="45.61441" lon="5.96651">
        <ele>1517.838465232</ele>
        <time>2015-12-16T12:23:02Z</time>
      </trkpt>
      <trkpt lat="45.61441" lon="5.96651">
        <ele>1517.838465232</ele>
        <time>2015-12-16T12:23:06Z</time>
      </trkpt>
      <trkpt lat="45.6144" lon="5.96652">
        <ele>1517.838465232</ele>
        <time>2015-12-16T12:23:17Z</time>
      </trkpt>
      <trkpt lat="45.6144" lon="5.96652">
        <ele>1517.838465232</ele>
        <time>2015-12-16T12:23:22Z</time>
      </trkpt>
      <trkpt lat="45.61441" lon="5.96652">
        <ele>1517.838465232</ele>
        <time>2015-12-16T12:23:32Z</time>
      </trkpt>
      <trkpt lat="45.61442" lon="5.96652">
        <ele>1517.838465232</ele>
        <time>2015-12-16T12:23:37Z</time>
      </trkpt>
      <trkpt lat="45.61442" lon="5.96652">
        <ele>1517.838465232</ele>
        <time>2015-12-16T12:23:46Z</time>
      </trkpt>
      <trkpt lat="45.61442" lon="5.96652">
        <ele>1517.838465232</ele>
        <time>2015-12-16T12:23:51Z</time>
      </trkpt>
      <trkpt lat="45.61441" lon="5.96652">
        <ele>1517.838465232</ele>
        <time>2015-12-16T12:24:02Z</time>
      </trkpt>
      <trkpt lat="45.61441" lon="5.96652">
        <ele>1517.838465232</ele>
        <time>2015-12-16T12:24:07Z</time>
      </trkpt>
      <trkpt lat="45.61441" lon="5.96652">
        <ele>1517.838465232</ele>
        <time>2015-12-16T12:24:17Z</time>
      </trkpt>
      <trkpt lat="45.61441" lon="5.96652">
        <ele>1516.696377648</ele>
        <time>2015-12-16T12:24:22Z</time>
      </trkpt>
      <trkpt lat="45.61441" lon="5.96652">
        <ele>1516.696377648</ele>
        <time>2015-12-16T12:24:32Z</time>
      </trkpt>
      <trkpt lat="45.61441" lon="5.96652">
        <ele>1516.696377648</ele>
        <time>2015-12-16T12:24:37Z</time>
      </trkpt>
      <trkpt lat="45.61441" lon="5.96652">
        <ele>1516.696377648</ele>
        <time>2015-12-16T12:24:41Z</time>
      </trkpt>
      <trkpt lat="45.61441" lon="5.96652">
        <ele>1516.696377648</ele>
        <time>2015-12-16T12:24:51Z</time>
      </trkpt>
      <trkpt lat="45.61441" lon="5.96652">
        <ele>1516.696377648</ele>
        <time>2015-12-16T12:24:56Z</time>
      </trkpt>
      <trkpt lat="45.61441" lon="5.96652">
        <ele>1516.696377648</ele>
        <time>2015-12-16T12:25:07Z</time>
      </trkpt>
      <trkpt lat="45.61441" lon="5.96652">
        <ele>1516.696377648</ele>
        <time>2015-12-16T12:25:11Z</time>
      </trkpt>
      <trkpt lat="45.61441" lon="5.96652">
        <ele>1516.696377648</ele>
        <time>2015-12-16T12:25:21Z</time>
      </trkpt>
      <trkpt lat="45.61441" lon="5.96652">
        <ele>1516.696377648</ele>
        <time>2015-12-16T12:25:27Z</time>
      </trkpt>
      <trkpt lat="45.61442" lon="5.96649">
        <ele>1516.696377648</ele>
        <time>2015-12-16T12:25:37Z</time>
      </trkpt>
      <trkpt lat="45.61441" lon="5.96649">
        <ele>1516.696377648</ele>
        <time>2015-12-16T12:25:41Z</time>
      </trkpt>
      <trkpt lat="45.61441" lon="5.96649">
        <ele>1516.696377648</ele>
        <time>2015-12-16T12:25:51Z</time>
      </trkpt>
      <trkpt lat="45.61441" lon="5.96649">
        <ele>1516.696377648</ele>
        <time>2015-12-16T12:25:56Z</time>
      </trkpt>
      <trkpt lat="45.6144" lon="5.96649">
        <ele>1516.696377648</ele>
        <time>2015-12-16T12:26:06Z</time>
      </trkpt>
      <trkpt lat="45.61441" lon="5.9665">
        <ele>1516.696377648</ele>
        <time>2015-12-16T12:26:11Z</time>
      </trkpt>
      <trkpt lat="45.61441" lon="5.96651">
        <ele>1516.696377648</ele>
        <time>2015-12-16T12:26:21Z</time>
      </trkpt>
      <trkpt lat="45.61441" lon="5.96651">
        <ele>1516.696377648</ele>
        <time>2015-12-16T12:26:26Z</time>
      </trkpt>
      <trkpt lat="45.61441" lon="5.96651">
        <ele>1516.696377648</ele>
        <time>2015-12-16T12:26:36Z</time>
      </trkpt>
      <trkpt lat="45.61441" lon="5.96651">
        <ele>1516.696377648</ele>
        <time>2015-12-16T12:26:41Z</time>
      </trkpt>
      <trkpt lat="45.61441" lon="5.96651">
        <ele>1516.696377648</ele>
        <time>2015-12-16T12:26:51Z</time>
      </trkpt>
      <trkpt lat="45.61441" lon="5.9665">
        <ele>1516.696377648</ele>
        <time>2015-12-16T12:26:56Z</time>
      </trkpt>
      <trkpt lat="45.61441" lon="5.9665">
        <ele>1516.696377648</ele>
        <time>2015-12-16T12:27:11Z</time>
      </trkpt>
      <trkpt lat="45.6144" lon="5.9665">
        <ele>1516.696377648</ele>
        <time>2015-12-16T12:27:16Z</time>
      </trkpt>
      <trkpt lat="45.61441" lon="5.9665">
        <ele>1516.696377648</ele>
        <time>2015-12-16T12:27:26Z</time>
      </trkpt>
      <trkpt lat="45.61441" lon="5.9665">
        <ele>1516.696377648</ele>
        <time>2015-12-16T12:27:31Z</time>
      </trkpt>
      <trkpt lat="45.61441" lon="5.9665">
        <ele>1516.696377648</ele>
        <time>2015-12-16T12:27:41Z</time>
      </trkpt>
      <trkpt lat="45.61441" lon="5.9665">
        <ele>1516.696377648</ele>
        <time>2015-12-16T12:27:46Z</time>
      </trkpt>
      <trkpt lat="45.6144" lon="5.9665">
        <ele>1516.696377648</ele>
        <time>2015-12-16T12:27:56Z</time>
      </trkpt>
      <trkpt lat="45.6144" lon="5.9665">
        <ele>1516.696377648</ele>
        <time>2015-12-16T12:28:01Z</time>
      </trkpt>
      <trkpt lat="45.6144" lon="5.9665">
        <ele>1516.696377648</ele>
        <time>2015-12-16T12:28:11Z</time>
      </trkpt>
      <trkpt lat="45.6144" lon="5.9665">
        <ele>1516.696377648</ele>
        <time>2015-12-16T12:28:16Z</time>
      </trkpt>
      <trkpt lat="45.6144" lon="5.9665">
        <ele>1516.696377648</ele>
        <time>2015-12-16T12:28:26Z</time>
      </trkpt>
      <trkpt lat="45.6144" lon="5.9665">
        <ele>1516.696377648</ele>
        <time>2015-12-16T12:28:31Z</time>
      </trkpt>
      <trkpt lat="45.6144" lon="5.9665">
        <ele>1516.696377648</ele>
        <time>2015-12-16T12:28:41Z</time>
      </trkpt>
      <trkpt lat="45.6144" lon="5.9665">
        <ele>1516.696377648</ele>
        <time>2015-12-16T12:28:46Z</time>
      </trkpt>
      <trkpt lat="45.6144" lon="5.9665">
        <ele>1516.696377648</ele>
        <time>2015-12-16T12:29:01Z</time>
      </trkpt>
      <trkpt lat="45.6144" lon="5.9665">
        <ele>1516.696377648</ele>
        <time>2015-12-16T12:29:06Z</time>
      </trkpt>
      <trkpt lat="45.6144" lon="5.9665">
        <ele>1516.696377648</ele>
        <time>2015-12-16T12:29:16Z</time>
      </trkpt>
      <trkpt lat="45.6144" lon="5.9665">
        <ele>1516.696377648</ele>
        <time>2015-12-16T12:29:21Z</time>
      </trkpt>
      <trkpt lat="45.6144" lon="5.9665">
        <ele>1516.696377648</ele>
        <time>2015-12-16T12:29:31Z</time>
      </trkpt>
      <trkpt lat="45.6144" lon="5.9665">
        <ele>1516.696377648</ele>
        <time>2015-12-16T12:29:36Z</time>
      </trkpt>
      <trkpt lat="45.6144" lon="5.9665">
        <ele>1516.696377648</ele>
        <time>2015-12-16T12:29:46Z</time>
      </trkpt>
      <trkpt lat="45.6144" lon="5.9665">
        <ele>1516.696377648</ele>
        <time>2015-12-16T12:29:51Z</time>
      </trkpt>
      <trkpt lat="45.6144" lon="5.9665">
        <ele>1516.696377648</ele>
        <time>2015-12-16T12:30:01Z</time>
      </trkpt>
      <trkpt lat="45.6144" lon="5.96651">
        <ele>1516.696377648</ele>
        <time>2015-12-16T12:30:06Z</time>
      </trkpt>
      <trkpt lat="45.61439" lon="5.9665">
        <ele>1515.394705402</ele>
        <time>2015-12-16T12:30:16Z</time>
      </trkpt>
      <trkpt lat="45.61439" lon="5.9665">
        <ele>1515.394705402</ele>
        <time>2015-12-16T12:30:21Z</time>
      </trkpt>
      <trkpt lat="45.61437" lon="5.9665">
        <ele>1515.394705402</ele>
        <time>2015-12-16T12:30:31Z</time>
      </trkpt>
      <trkpt lat="45.61435" lon="5.96651">
        <ele>1515.394705402</ele>
        <time>2015-12-16T12:30:36Z</time>
      </trkpt>
      <trkpt lat="45.61435" lon="5.96651">
        <ele>1515.394705402</ele>
        <time>2015-12-16T12:30:46Z</time>
      </trkpt>
      <trkpt lat="45.61435" lon="5.96651">
        <ele>1515.394705402</ele>
        <time>2015-12-16T12:30:51Z</time>
      </trkpt>
      <trkpt lat="45.61435" lon="5.96651">
        <ele>1515.394705402</ele>
        <time>2015-12-16T12:31:01Z</time>
      </trkpt>
      <trkpt lat="45.61435" lon="5.96651">
        <ele>1515.394705402</ele>
        <time>2015-12-16T12:31:06Z</time>
      </trkpt>
      <trkpt lat="45.61435" lon="5.96651">
        <ele>1515.394705402</ele>
        <time>2015-12-16T12:31:16Z</time>
      </trkpt>
      <trkpt lat="45.61435" lon="5.96651">
        <ele>1515.394705402</ele>
        <time>2015-12-16T12:31:21Z</time>
      </trkpt>
      <trkpt lat="45.61435" lon="5.96651">
        <ele>1515.394705402</ele>
        <time>2015-12-16T12:31:36Z</time>
      </trkpt>
      <trkpt lat="45.61435" lon="5.96651">
        <ele>1515.394705402</ele>
        <time>2015-12-16T12:31:41Z</time>
      </trkpt>
      <trkpt lat="45.61435" lon="5.96651">
        <ele>1515.394705402</ele>
        <time>2015-12-16T12:31:51Z</time>
      </trkpt>
      <trkpt lat="45.61434" lon="5.96651">
        <ele>1515.394705402</ele>
        <time>2015-12-16T12:31:56Z</time>
      </trkpt>
      <trkpt lat="45.61434" lon="5.96651">
        <ele>1515.394705402</ele>
        <time>2015-12-16T12:32:06Z</time>
      </trkpt>
      <trkpt lat="45.61434" lon="5.96651">
        <ele>1515.394705402</ele>
        <time>2015-12-16T12:32:11Z</time>
      </trkpt>
      <trkpt lat="45.61434" lon="5.96651">
        <ele>1515.394705402</ele>
        <time>2015-12-16T12:32:21Z</time>
      </trkpt>
      <trkpt lat="45.61434" lon="5.96651">
        <ele>1515.394705402</ele>
        <time>2015-12-16T12:32:26Z</time>
      </trkpt>
      <trkpt lat="45.61434" lon="5.96651">
        <ele>1515.394705402</ele>
        <time>2015-12-16T12:32:36Z</time>
      </trkpt>
      <trkpt lat="45.61434" lon="5.96651">
        <ele>1515.394705402</ele>
        <time>2015-12-16T12:32:41Z</time>
      </trkpt>
      <trkpt lat="45.61434" lon="5.96651">
        <ele>1515.394705402</ele>
        <time>2015-12-16T12:32:51Z</time>
      </trkpt>
      <trkpt lat="45.61434" lon="5.96651">
        <ele>1515.394705402</ele>
        <time>2015-12-16T12:32:56Z</time>
      </trkpt>
      <trkpt lat="45.61434" lon="5.96651">
        <ele>1515.394705402</ele>
        <time>2015-12-16T12:33:06Z</time>
      </trkpt>
      <trkpt lat="45.61434" lon="5.96651">
        <ele>1515.394705402</ele>
        <time>2015-12-16T12:33:11Z</time>
      </trkpt>
      <trkpt lat="45.61435" lon="5.96652">
        <ele>1515.394705402</ele>
        <time>2015-12-16T12:33:22Z</time>
      </trkpt>
      <trkpt lat="45.61436" lon="5.96654">
        <ele>1515.394705402</ele>
        <time>2015-12-16T12:33:26Z</time>
      </trkpt>
      <trkpt lat="45.61436" lon="5.96654">
        <ele>1515.394705402</ele>
        <time>2015-12-16T12:33:37Z</time>
      </trkpt>
      <trkpt lat="45.61436" lon="5.96655">
        <ele>1515.394705402</ele>
        <time>2015-12-16T12:33:42Z</time>
      </trkpt>
      <trkpt lat="45.61436" lon="5.96655">
        <ele>1515.394705402</ele>
        <time>2015-12-16T12:33:52Z</time>
      </trkpt>
      <trkpt lat="45.61436" lon="5.96655">
        <ele>1515.394705402</ele>
        <time>2015-12-16T12:33:57Z</time>
      </trkpt>
      <trkpt lat="45.61436" lon="5.96655">
        <ele>1513.805797296</ele>
        <time>2015-12-16T12:34:11Z</time>
      </trkpt>
      <trkpt lat="45.61435" lon="5.96655">
        <ele>1513.805797296</ele>
        <time>2015-12-16T12:34:16Z</time>
      </trkpt>
      <trkpt lat="45.61436" lon="5.96655">
        <ele>1513.805797296</ele>
        <time>2015-12-16T12:34:26Z</time>
      </trkpt>
      <trkpt lat="45.61436" lon="5.96655">
        <ele>1513.805797296</ele>
        <time>2015-12-16T12:34:31Z</time>
      </trkpt>
      <trkpt lat="45.61436" lon="5.96655">
        <ele>1513.805797296</ele>
        <time>2015-12-16T12:34:41Z</time>
      </trkpt>
      <trkpt lat="45.61436" lon="5.96655">
        <ele>1513.805797296</ele>
        <time>2015-12-16T12:34:46Z</time>
      </trkpt>
      <trkpt lat="45.61436" lon="5.96655">
        <ele>1513.805797296</ele>
        <time>2015-12-16T12:34:56Z</time>
      </trkpt>
      <trkpt lat="45.61436" lon="5.96655">
        <ele>1513.805797296</ele>
        <time>2015-12-16T12:35:01Z</time>
      </trkpt>
      <trkpt lat="45.61438" lon="5.96655">
        <ele>1513.805797296</ele>
        <time>2015-12-16T12:35:11Z</time>
      </trkpt>
      <trkpt lat="45.61439" lon="5.96654">
        <ele>1513.805797296</ele>
        <time>2015-12-16T12:35:16Z</time>
      </trkpt>
      <trkpt lat="45.61439" lon="5.96656">
        <ele>1513.805797296</ele>
        <time>2015-12-16T12:35:26Z</time>
      </trkpt>
      <trkpt lat="45.61439" lon="5.96656">
        <ele>1513.805797296</ele>
        <time>2015-12-16T12:35:32Z</time>
      </trkpt>
      <trkpt lat="45.61439" lon="5.96656">
        <ele>1513.805797296</ele>
        <time>2015-12-16T12:35:47Z</time>
      </trkpt>
      <trkpt lat="45.61439" lon="5.96656">
        <ele>1513.805797296</ele>
        <time>2015-12-16T12:35:51Z</time>
      </trkpt>
      <trkpt lat="45.61439" lon="5.96656">
        <ele>1513.805797296</ele>
        <time>2015-12-16T12:35:57Z</time>
      </trkpt>
      <trkpt lat="45.61439" lon="5.96656">
        <ele>1513.805797296</ele>
        <time>2015-12-16T12:36:02Z</time>
      </trkpt>
      <trkpt lat="45.61439" lon="5.96655">
        <ele>1513.805797296</ele>
        <time>2015-12-16T12:36:07Z</time>
      </trkpt>
      <trkpt lat="45.6144" lon="5.96659">
        <ele>1511.52372732</ele>
        <time>2015-12-16T12:36:17Z</time>
      </trkpt>
      <trkpt lat="45.61439" lon="5.96659">
        <ele>1511.52372732</ele>
        <time>2015-12-16T12:36:22Z</time>
      </trkpt>
      <trkpt lat="45.61439" lon="5.96659">
        <ele>1511.52372732</ele>
        <time>2015-12-16T12:36:31Z</time>
      </trkpt>
      <trkpt lat="45.61439" lon="5.96659">
        <ele>1511.52372732</ele>
        <time>2015-12-16T12:36:36Z</time>
      </trkpt>
      <trkpt lat="45.61439" lon="5.96659">
        <ele>1511.52372732</ele>
        <time>2015-12-16T12:36:46Z</time>
      </trkpt>
      <trkpt lat="45.61439" lon="5.96659">
        <ele>1511.52372732</ele>
        <time>2015-12-16T12:36:51Z</time>
      </trkpt>
      <trkpt lat="45.61439" lon="5.96659">
        <ele>1511.52372732</ele>
        <time>2015-12-16T12:37:02Z</time>
      </trkpt>
      <trkpt lat="45.61439" lon="5.96659">
        <ele>1511.52372732</ele>
        <time>2015-12-16T12:37:06Z</time>
      </trkpt>
      <trkpt lat="45.61439" lon="5.96658">
        <ele>1511.52372732</ele>
        <time>2015-12-16T12:37:16Z</time>
      </trkpt>
      <trkpt lat="45.61438" lon="5.96657">
        <ele>1511.52372732</ele>
        <time>2015-12-16T12:37:21Z</time>
      </trkpt>
      <trkpt lat="45.61438" lon="5.96657">
        <ele>1511.52372732</ele>
        <time>2015-12-16T12:37:32Z</time>
      </trkpt>
      <trkpt lat="45.61438" lon="5.96657">
        <ele>1511.52372732</ele>
        <time>2015-12-16T12:37:37Z</time>
      </trkpt>
      <trkpt lat="45.61438" lon="5.96657">
        <ele>1511.52372732</ele>
        <time>2015-12-16T12:37:46Z</time>
      </trkpt>
      <trkpt lat="45.61438" lon="5.96657">
        <ele>1511.52372732</ele>
        <time>2015-12-16T12:37:51Z</time>
      </trkpt>
      <trkpt lat="45.61438" lon="5.96657">
        <ele>1511.52372732</ele>
        <time>2015-12-16T12:38:06Z</time>
      </trkpt>
      <trkpt lat="45.61438" lon="5.96657">
        <ele>1511.52372732</ele>
        <time>2015-12-16T12:38:11Z</time>
      </trkpt>
      <trkpt lat="45.61438" lon="5.96657">
        <ele>1511.52372732</ele>
        <time>2015-12-16T12:38:21Z</time>
      </trkpt>
      <trkpt lat="45.61438" lon="5.96657">
        <ele>1511.52372732</ele>
        <time>2015-12-16T12:38:26Z</time>
      </trkpt>
      <trkpt lat="45.61438" lon="5.96657">
        <ele>1511.52372732</ele>
        <time>2015-12-16T12:38:36Z</time>
      </trkpt>
      <trkpt lat="45.61438" lon="5.96657">
        <ele>1511.52372732</ele>
        <time>2015-12-16T12:38:41Z</time>
      </trkpt>
      <trkpt lat="45.61436" lon="5.96657">
        <ele>1511.52372732</ele>
        <time>2015-12-16T12:38:51Z</time>
      </trkpt>
      <trkpt lat="45.61436" lon="5.96656">
        <ele>1511.52372732</ele>
        <time>2015-12-16T12:38:56Z</time>
      </trkpt>
      <trkpt lat="45.61436" lon="5.96656">
        <ele>1511.52372732</ele>
        <time>2015-12-16T12:39:06Z</time>
      </trkpt>
      <trkpt lat="45.61436" lon="5.96656">
        <ele>1511.52372732</ele>
        <time>2015-12-16T12:39:11Z</time>
      </trkpt>
      <trkpt lat="45.61436" lon="5.96656">
        <ele>1511.52372732</ele>
        <time>2015-12-16T12:39:21Z</time>
      </trkpt>
      <trkpt lat="45.61436" lon="5.96656">
        <ele>1511.52372732</ele>
        <time>2015-12-16T12:39:26Z</time>
      </trkpt>
      <trkpt lat="45.61437" lon="5.96658">
        <ele>1511.52372732</ele>
        <time>2015-12-16T12:39:36Z</time>
      </trkpt>
      <trkpt lat="45.61436" lon="5.96658">
        <ele>1511.52372732</ele>
        <time>2015-12-16T12:39:41Z</time>
      </trkpt>
      <trkpt lat="45.61437" lon="5.96658">
        <ele>1511.52372732</ele>
        <time>2015-12-16T12:39:51Z</time>
      </trkpt>
      <trkpt lat="45.61437" lon="5.96658">
        <ele>1511.52372732</ele>
        <time>2015-12-16T12:39:56Z</time>
      </trkpt>
      <trkpt lat="45.61437" lon="5.96658">
        <ele>1511.52372732</ele>
        <time>2015-12-16T12:40:06Z</time>
      </trkpt>
      <trkpt lat="45.61437" lon="5.96658">
        <ele>1511.52372732</ele>
        <time>2015-12-16T12:40:11Z</time>
      </trkpt>
      <trkpt lat="45.61437" lon="5.96658">
        <ele>1511.52372732</ele>
        <time>2015-12-16T12:40:21Z</time>
      </trkpt>
      <trkpt lat="45.61437" lon="5.96658">
        <ele>1511.52372732</ele>
        <time>2015-12-16T12:40:26Z</time>
      </trkpt>
      <trkpt lat="45.61437" lon="5.96658">
        <ele>1511.52372732</ele>
        <time>2015-12-16T12:40:41Z</time>
      </trkpt>
      <trkpt lat="45.61437" lon="5.96658">
        <ele>1511.52372732</ele>
        <time>2015-12-16T12:40:56Z</time>
      </trkpt>
      <trkpt lat="45.61437" lon="5.96659">
        <ele>1511.52372732</ele>
        <time>2015-12-16T12:41:01Z</time>
      </trkpt>
      <trkpt lat="45.61437" lon="5.96656">
        <ele>1509.471099465</ele>
        <time>2015-12-16T12:41:11Z</time>
      </trkpt>
      <trkpt lat="45.61438" lon="5.96656">
        <ele>1509.471099465</ele>
        <time>2015-12-16T12:41:16Z</time>
      </trkpt>
      <trkpt lat="45.6144" lon="5.96656">
        <ele>1509.471099465</ele>
        <time>2015-12-16T12:41:26Z</time>
      </trkpt>
      <trkpt lat="45.61441" lon="5.96655">
        <ele>1509.471099465</ele>
        <time>2015-12-16T12:41:31Z</time>
      </trkpt>
      <trkpt lat="45.61441" lon="5.96655">
        <ele>1509.471099465</ele>
        <time>2015-12-16T12:41:41Z</time>
      </trkpt>
      <trkpt lat="45.61441" lon="5.96655">
        <ele>1509.471099465</ele>
        <time>2015-12-16T12:41:46Z</time>
      </trkpt>
      <trkpt lat="45.61441" lon="5.96655">
        <ele>1509.471099465</ele>
        <time>2015-12-16T12:41:56Z</time>
      </trkpt>
      <trkpt lat="45.61441" lon="5.96656">
        <ele>1509.471099465</ele>
        <time>2015-12-16T12:42:01Z</time>
      </trkpt>
      <trkpt lat="45.61442" lon="5.96655">
        <ele>1509.471099465</ele>
        <time>2015-12-16T12:42:11Z</time>
      </trkpt>
      <trkpt lat="45.61442" lon="5.96655">
        <ele>1509.471099465</ele>
        <time>2015-12-16T12:42:17Z</time>
      </trkpt>
      <trkpt lat="45.61442" lon="5.96655">
        <ele>1509.471099465</ele>
        <time>2015-12-16T12:42:26Z</time>
      </trkpt>
      <trkpt lat="45.61442" lon="5.96655">
        <ele>1509.471099465</ele>
        <time>2015-12-16T12:42:31Z</time>
      </trkpt>
      <trkpt lat="45.61442" lon="5.96655">
        <ele>1509.471099465</ele>
        <time>2015-12-16T12:42:41Z</time>
      </trkpt>
      <trkpt lat="45.61442" lon="5.96655">
        <ele>1509.471099465</ele>
        <time>2015-12-16T12:42:46Z</time>
      </trkpt>
      <trkpt lat="45.61442" lon="5.96655">
        <ele>1509.471099465</ele>
        <time>2015-12-16T12:43:01Z</time>
      </trkpt>
      <trkpt lat="45.61442" lon="5.96655">
        <ele>1509.471099465</ele>
        <time>2015-12-16T12:43:06Z</time>
      </trkpt>
      <trkpt lat="45.61442" lon="5.96657">
        <ele>1509.471099465</ele>
        <time>2015-12-16T12:43:16Z</time>
      </trkpt>
      <trkpt lat="45.61442" lon="5.96657">
        <ele>1509.471099465</ele>
        <time>2015-12-16T12:43:21Z</time>
      </trkpt>
      <trkpt lat="45.61442" lon="5.9666">
        <ele>1507.204865185</ele>
        <time>2015-12-16T12:43:31Z</time>
      </trkpt>
      <trkpt lat="45.61442" lon="5.96661">
        <ele>1507.204865185</ele>
        <time>2015-12-16T12:43:36Z</time>
      </trkpt>
      <trkpt lat="45.61442" lon="5.96659">
        <ele>1507.204865185</ele>
        <time>2015-12-16T12:43:47Z</time>
      </trkpt>
      <trkpt lat="45.61441" lon="5.9666">
        <ele>1507.204865185</ele>
        <time>2015-12-16T12:43:52Z</time>
      </trkpt>
      <trkpt lat="45.61442" lon="5.9666">
        <ele>1507.204865185</ele>
        <time>2015-12-16T12:44:03Z</time>
      </trkpt>
      <trkpt lat="45.61442" lon="5.96661">
        <ele>1507.204865185</ele>
        <time>2015-12-16T12:44:07Z</time>
      </trkpt>
      <trkpt lat="45.61442" lon="5.9666">
        <ele>1507.204865185</ele>
        <time>2015-12-16T12:44:17Z</time>
      </trkpt>
      <trkpt lat="45.61442" lon="5.9666">
        <ele>1507.204865185</ele>
        <time>2015-12-16T12:44:21Z</time>
      </trkpt>
      <trkpt lat="45.61442" lon="5.9666">
        <ele>1507.204865185</ele>
        <time>2015-12-16T12:44:36Z</time>
      </trkpt>
      <trkpt lat="45.61442" lon="5.9666">
        <ele>1507.204865185</ele>
        <time>2015-12-16T12:44:41Z</time>
      </trkpt>
      <trkpt lat="45.61442" lon="5.9666">
        <ele>1507.204865185</ele>
        <time>2015-12-16T12:44:51Z</time>
      </trkpt>
      <trkpt lat="45.61442" lon="5.9666">
        <ele>1507.204865185</ele>
        <time>2015-12-16T12:44:56Z</time>
      </trkpt>
      <trkpt lat="45.61441" lon="5.9666">
        <ele>1507.204865185</ele>
        <time>2015-12-16T12:45:06Z</time>
      </trkpt>
      <trkpt lat="45.61441" lon="5.9666">
        <ele>1507.204865185</ele>
        <time>2015-12-16T12:45:11Z</time>
      </trkpt>
      <trkpt lat="45.6144" lon="5.9666">
        <ele>1507.204865185</ele>
        <time>2015-12-16T12:45:21Z</time>
      </trkpt>
      <trkpt lat="45.6144" lon="5.9666">
        <ele>1507.204865185</ele>
        <time>2015-12-16T12:45:27Z</time>
      </trkpt>
      <trkpt lat="45.6144" lon="5.9666">
        <ele>1507.204865185</ele>
        <time>2015-12-16T12:45:36Z</time>
      </trkpt>
      <trkpt lat="45.6144" lon="5.9666">
        <ele>1507.204865185</ele>
        <time>2015-12-16T12:45:41Z</time>
      </trkpt>
      <trkpt lat="45.6144" lon="5.9666">
        <ele>1507.204865185</ele>
        <time>2015-12-16T12:45:51Z</time>
      </trkpt>
      <trkpt lat="45.6144" lon="5.9666">
        <ele>1507.204865185</ele>
        <time>2015-12-16T12:45:56Z</time>
      </trkpt>
      <trkpt lat="45.6144" lon="5.96659">
        <ele>1507.204865185</ele>
        <time>2015-12-16T12:46:06Z</time>
      </trkpt>
      <trkpt lat="45.6144" lon="5.96659">
        <ele>1507.204865185</ele>
        <time>2015-12-16T12:46:11Z</time>
      </trkpt>
      <trkpt lat="45.6144" lon="5.96659">
        <ele>1507.204865185</ele>
        <time>2015-12-16T12:46:26Z</time>
      </trkpt>
      <trkpt lat="45.6144" lon="5.96659">
        <ele>1507.204865185</ele>
        <time>2015-12-16T12:46:31Z</time>
      </trkpt>
      <trkpt lat="45.6144" lon="5.96659">
        <ele>1507.204865185</ele>
        <time>2015-12-16T12:46:41Z</time>
      </trkpt>
      <trkpt lat="45.6144" lon="5.96659">
        <ele>1507.204865185</ele>
        <time>2015-12-16T12:46:47Z</time>
      </trkpt>
      <trkpt lat="45.6144" lon="5.96659">
        <ele>1507.204865185</ele>
        <time>2015-12-16T12:46:56Z</time>
      </trkpt>
      <trkpt lat="45.6144" lon="5.96659">
        <ele>1507.204865185</ele>
        <time>2015-12-16T12:47:01Z</time>
      </trkpt>
      <trkpt lat="45.6144" lon="5.96659">
        <ele>1507.204865185</ele>
        <time>2015-12-16T12:47:11Z</time>
      </trkpt>
      <trkpt lat="45.6144" lon="5.96659">
        <ele>1507.204865185</ele>
        <time>2015-12-16T12:47:16Z</time>
      </trkpt>
      <trkpt lat="45.6144" lon="5.96659">
        <ele>1507.204865185</ele>
        <time>2015-12-16T12:47:26Z</time>
      </trkpt>
      <trkpt lat="45.6144" lon="5.96659">
        <ele>1507.204865185</ele>
        <time>2015-12-16T12:47:31Z</time>
      </trkpt>
      <trkpt lat="45.6144" lon="5.96659">
        <ele>1507.204865185</ele>
        <time>2015-12-16T12:47:41Z</time>
      </trkpt>
      <trkpt lat="45.6144" lon="5.96659">
        <ele>1507.204865185</ele>
        <time>2015-12-16T12:47:46Z</time>
      </trkpt>
      <trkpt lat="45.6144" lon="5.96659">
        <ele>1507.204865185</ele>
        <time>2015-12-16T12:47:56Z</time>
      </trkpt>
      <trkpt lat="45.6144" lon="5.96659">
        <ele>1507.204865185</ele>
        <time>2015-12-16T12:48:01Z</time>
      </trkpt>
      <trkpt lat="45.6144" lon="5.96659">
        <ele>1507.204865185</ele>
        <time>2015-12-16T12:48:11Z</time>
      </trkpt>
      <trkpt lat="45.6144" lon="5.96659">
        <ele>1507.204865185</ele>
        <time>2015-12-16T12:48:16Z</time>
      </trkpt>
      <trkpt lat="45.6144" lon="5.96659">
        <ele>1507.204865185</ele>
        <time>2015-12-16T12:48:31Z</time>
      </trkpt>
      <trkpt lat="45.6144" lon="5.96659">
        <ele>1507.204865185</ele>
        <time>2015-12-16T12:48:36Z</time>
      </trkpt>
      <trkpt lat="45.6144" lon="5.96659">
        <ele>1507.204865185</ele>
        <time>2015-12-16T12:48:46Z</time>
      </trkpt>
      <trkpt lat="45.6144" lon="5.96659">
        <ele>1507.204865185</ele>
        <time>2015-12-16T12:48:51Z</time>
      </trkpt>
      <trkpt lat="45.6144" lon="5.96659">
        <ele>1507.204865185</ele>
        <time>2015-12-16T12:49:01Z</time>
      </trkpt>
      <trkpt lat="45.6144" lon="5.96659">
        <ele>1507.204865185</ele>
        <time>2015-12-16T12:49:06Z</time>
      </trkpt>
      <trkpt lat="45.6144" lon="5.96659">
        <ele>1507.204865185</ele>
        <time>2015-12-16T12:49:16Z</time>
      </trkpt>
      <trkpt lat="45.6144" lon="5.96659">
        <ele>1507.204865185</ele>
        <time>2015-12-16T12:49:21Z</time>
      </trkpt>
      <trkpt lat="45.6144" lon="5.96659">
        <ele>1507.204865185</ele>
        <time>2015-12-16T12:49:31Z</time>
      </trkpt>
      <trkpt lat="45.6144" lon="5.96659">
        <ele>1507.204865185</ele>
        <time>2015-12-16T12:49:36Z</time>
      </trkpt>
      <trkpt lat="45.6144" lon="5.96659">
        <ele>1507.204865185</ele>
        <time>2015-12-16T12:49:46Z</time>
      </trkpt>
      <trkpt lat="45.6144" lon="5.96659">
        <ele>1507.204865185</ele>
        <time>2015-12-16T12:49:51Z</time>
      </trkpt>
      <trkpt lat="45.6144" lon="5.96659">
        <ele>1507.204865185</ele>
        <time>2015-12-16T12:50:01Z</time>
      </trkpt>
      <trkpt lat="45.6144" lon="5.96659">
        <ele>1507.204865185</ele>
        <time>2015-12-16T12:50:06Z</time>
      </trkpt>
      <trkpt lat="45.61441" lon="5.96659">
        <ele>1507.204865185</ele>
        <time>2015-12-16T12:50:16Z</time>
      </trkpt>
      <trkpt lat="45.61441" lon="5.96658">
        <ele>1507.204865185</ele>
        <time>2015-12-16T12:50:21Z</time>
      </trkpt>
      <trkpt lat="45.61441" lon="5.96658">
        <ele>1507.204865185</ele>
        <time>2015-12-16T12:50:31Z</time>
      </trkpt>
      <trkpt lat="45.61441" lon="5.96658">
        <ele>1507.204865185</ele>
        <time>2015-12-16T12:50:36Z</time>
      </trkpt>
      <trkpt lat="45.61441" lon="5.96657">
        <ele>1507.204865185</ele>
        <time>2015-12-16T12:50:51Z</time>
      </trkpt>
      <trkpt lat="45.6144" lon="5.96657">
        <ele>1506.044221535</ele>
        <time>2015-12-16T12:50:56Z</time>
      </trkpt>
      <trkpt lat="45.61441" lon="5.96657">
        <ele>1506.044221535</ele>
        <time>2015-12-16T12:51:06Z</time>
      </trkpt>
      <trkpt lat="45.61441" lon="5.96657">
        <ele>1506.044221535</ele>
        <time>2015-12-16T12:51:11Z</time>
      </trkpt>
      <trkpt lat="45.61443" lon="5.9666">
        <ele>1506.044221535</ele>
        <time>2015-12-16T12:51:21Z</time>
      </trkpt>
      <trkpt lat="45.61444" lon="5.9666">
        <ele>1506.044221535</ele>
        <time>2015-12-16T12:51:26Z</time>
      </trkpt>
      <trkpt lat="45.61449" lon="5.96661">
        <ele>1504.614123395</ele>
        <time>2015-12-16T12:51:36Z</time>
      </trkpt>
      <trkpt lat="45.61449" lon="5.96662">
        <ele>1504.614123395</ele>
        <time>2015-12-16T12:51:41Z</time>
      </trkpt>
      <trkpt lat="45.61452" lon="5.96657">
        <ele>1504.614123395</ele>
        <time>2015-12-16T12:51:51Z</time>
      </trkpt>
      <trkpt lat="45.61456" lon="5.96656">
        <ele>1503.370397505</ele>
        <time>2015-12-16T12:51:56Z</time>
      </trkpt>
      <trkpt lat="45.61468" lon="5.96663">
        <ele>1502.15819653</ele>
        <time>2015-12-16T12:52:07Z</time>
      </trkpt>
      <trkpt lat="45.61473" lon="5.96664">
        <ele>1502.15819653</ele>
        <time>2015-12-16T12:52:12Z</time>
      </trkpt>
      <trkpt lat="45.61483" lon="5.96673">
        <ele>1501.266079741</ele>
        <time>2015-12-16T12:52:22Z</time>
      </trkpt>
      <trkpt lat="45.61487" lon="5.96677">
        <ele>1501.266079741</ele>
        <time>2015-12-16T12:52:27Z</time>
      </trkpt>
      <trkpt lat="45.61495" lon="5.96683">
        <ele>1500.239750448</ele>
        <time>2015-12-16T12:52:37Z</time>
      </trkpt>
      <trkpt lat="45.61501" lon="5.96688">
        <ele>1500.239750448</ele>
        <time>2015-12-16T12:52:42Z</time>
      </trkpt>
      <trkpt lat="45.6151" lon="5.96697">
        <ele>1499.667244375</ele>
        <time>2015-12-16T12:52:52Z</time>
      </trkpt>
      <trkpt lat="45.61512" lon="5.96699">
        <ele>1499.667244375</ele>
        <time>2015-12-16T12:52:57Z</time>
      </trkpt>
      <trkpt lat="45.61526" lon="5.96704">
        <ele>1499.227277008</ele>
        <time>2015-12-16T12:53:12Z</time>
      </trkpt>
      <trkpt lat="45.61539" lon="5.9671">
        <ele>1498.621621944</ele>
        <time>2015-12-16T12:53:22Z</time>
      </trkpt>
      <trkpt lat="45.61544" lon="5.96712">
        <ele>1498.621621944</ele>
        <time>2015-12-16T12:53:27Z</time>
      </trkpt>
      <trkpt lat="45.61559" lon="5.96717">
        <ele>1498.294822306</ele>
        <time>2015-12-16T12:53:42Z</time>
      </trkpt>
      <trkpt lat="45.61559" lon="5.96717">
        <ele>1498.294822306</ele>
        <time>2015-12-16T12:53:47Z</time>
      </trkpt>
      <trkpt lat="45.61559" lon="5.96716">
        <ele>1498.294822306</ele>
        <time>2015-12-16T12:53:57Z</time>
      </trkpt>
      <trkpt lat="45.6156" lon="5.96716">
        <ele>1498.294822306</ele>
        <time>2015-12-16T12:54:02Z</time>
      </trkpt>
      <trkpt lat="45.6157" lon="5.9672">
        <ele>1497.793170332</ele>
        <time>2015-12-16T12:54:11Z</time>
      </trkpt>
      <trkpt lat="45.61574" lon="5.9672">
        <ele>1497.793170332</ele>
        <time>2015-12-16T12:54:16Z</time>
      </trkpt>
      <trkpt lat="45.61588" lon="5.96725">
        <ele>1497.561312166</ele>
        <time>2015-12-16T12:54:27Z</time>
      </trkpt>
      <trkpt lat="45.61588" lon="5.96736">
        <ele>1497.561312166</ele>
        <time>2015-12-16T12:54:32Z</time>
      </trkpt>
      <trkpt lat="45.61597" lon="5.96744">
        <ele>1497.433909232</ele>
        <time>2015-12-16T12:54:42Z</time>
      </trkpt>
      <trkpt lat="45.61601" lon="5.96746">
        <ele>1497.433909232</ele>
        <time>2015-12-16T12:54:47Z</time>
      </trkpt>
      <trkpt lat="45.61612" lon="5.96753">
        <ele>1497.83381447</ele>
        <time>2015-12-16T12:54:58Z</time>
      </trkpt>
      <trkpt lat="45.61617" lon="5.96754">
        <ele>1497.83381447</ele>
        <time>2015-12-16T12:55:01Z</time>
      </trkpt>
      <trkpt lat="45.61623" lon="5.96754">
        <ele>1498.863026447</ele>
        <time>2015-12-16T12:55:12Z</time>
      </trkpt>
      <trkpt lat="45.6163" lon="5.96754">
        <ele>1498.863026447</ele>
        <time>2015-12-16T12:55:17Z</time>
      </trkpt>
      <trkpt lat="45.6164" lon="5.96749">
        <ele>1499.749545214</ele>
        <time>2015-12-16T12:55:27Z</time>
      </trkpt>
      <trkpt lat="45.61644" lon="5.96748">
        <ele>1499.749545214</ele>
        <time>2015-12-16T12:55:32Z</time>
      </trkpt>
      <trkpt lat="45.6165" lon="5.9675">
        <ele>1500.787204946</ele>
        <time>2015-12-16T12:55:43Z</time>
      </trkpt>
      <trkpt lat="45.61658" lon="5.96752">
        <ele>1500.787204946</ele>
        <time>2015-12-16T12:55:47Z</time>
      </trkpt>
      <trkpt lat="45.61665" lon="5.96753">
        <ele>1501.239015778</ele>
        <time>2015-12-16T12:55:52Z</time>
      </trkpt>
      <trkpt lat="45.61679" lon="5.96753">
        <ele>1501.432527725</ele>
        <time>2015-12-16T12:56:02Z</time>
      </trkpt>
      <trkpt lat="45.61686" lon="5.96759">
        <ele>1501.432527725</ele>
        <time>2015-12-16T12:56:06Z</time>
      </trkpt>
      <trkpt lat="45.61696" lon="5.96764">
        <ele>1501.671947003</ele>
        <time>2015-12-16T12:56:17Z</time>
      </trkpt>
      <trkpt lat="45.61702" lon="5.96769">
        <ele>1501.671947003</ele>
        <time>2015-12-16T12:56:22Z</time>
      </trkpt>
      <trkpt lat="45.61709" lon="5.96779">
        <ele>1502.815455073</ele>
        <time>2015-12-16T12:56:32Z</time>
      </trkpt>
      <trkpt lat="45.61714" lon="5.96784">
        <ele>1502.815455073</ele>
        <time>2015-12-16T12:56:37Z</time>
      </trkpt>
      <trkpt lat="45.61721" lon="5.96791">
        <ele>1503.926339702</ele>
        <time>2015-12-16T12:56:47Z</time>
      </trkpt>
      <trkpt lat="45.61725" lon="5.96795">
        <ele>1503.926339702</ele>
        <time>2015-12-16T12:56:52Z</time>
      </trkpt>
      <trkpt lat="45.61738" lon="5.96795">
        <ele>1505.001487961</ele>
        <time>2015-12-16T12:57:02Z</time>
      </trkpt>
      <trkpt lat="45.61744" lon="5.96794">
        <ele>1505.001487961</ele>
        <time>2015-12-16T12:57:07Z</time>
      </trkpt>
      <trkpt lat="45.61749" lon="5.96791">
        <ele>1505.605825106</ele>
        <time>2015-12-16T12:57:17Z</time>
      </trkpt>
      <trkpt lat="45.61759" lon="5.96787">
        <ele>1506.346390346</ele>
        <time>2015-12-16T12:57:22Z</time>
      </trkpt>
      <trkpt lat="45.61763" lon="5.96783">
        <ele>1506.346390346</ele>
        <time>2015-12-16T12:57:32Z</time>
      </trkpt>
      <trkpt lat="45.61763" lon="5.96782">
        <ele>1506.346390346</ele>
        <time>2015-12-16T12:57:37Z</time>
      </trkpt>
      <trkpt lat="45.61767" lon="5.96778">
        <ele>1506.776533925</ele>
        <time>2015-12-16T12:57:47Z</time>
      </trkpt>
      <trkpt lat="45.61776" lon="5.96772">
        <ele>1507.059803432</ele>
        <time>2015-12-16T12:57:51Z</time>
      </trkpt>
      <trkpt lat="45.61798" lon="5.96784">
        <ele>1507.204109349</ele>
        <time>2015-12-16T12:58:07Z</time>
      </trkpt>
      <trkpt lat="45.61803" lon="5.96789">
        <ele>1507.204109349</ele>
        <time>2015-12-16T12:58:12Z</time>
      </trkpt>
      <trkpt lat="45.61808" lon="5.968">
        <ele>1507.505473035</ele>
        <time>2015-12-16T12:58:22Z</time>
      </trkpt>
      <trkpt lat="45.61815" lon="5.96802">
        <ele>1507.505473035</ele>
        <time>2015-12-16T12:58:27Z</time>
      </trkpt>
      <trkpt lat="45.61827" lon="5.96807">
        <ele>1507.805478365</ele>
        <time>2015-12-16T12:58:37Z</time>
      </trkpt>
      <trkpt lat="45.6183" lon="5.96811">
        <ele>1507.805478365</ele>
        <time>2015-12-16T12:58:41Z</time>
      </trkpt>
      <trkpt lat="45.61837" lon="5.96817">
        <ele>1509.254436603</ele>
        <time>2015-12-16T12:58:52Z</time>
      </trkpt>
      <trkpt lat="45.61839" lon="5.96816">
        <ele>1509.254436603</ele>
        <time>2015-12-16T12:58:57Z</time>
      </trkpt>
      <trkpt lat="45.61849" lon="5.96818">
        <ele>1510.321023819</ele>
        <time>2015-12-16T12:59:07Z</time>
      </trkpt>
      <trkpt lat="45.61853" lon="5.96817">
        <ele>1510.321023819</ele>
        <time>2015-12-16T12:59:12Z</time>
      </trkpt>
      <trkpt lat="45.61866" lon="5.96822">
        <ele>1510.452240105</ele>
        <time>2015-12-16T12:59:22Z</time>
      </trkpt>
      <trkpt lat="45.61872" lon="5.96829">
        <ele>1510.452240105</ele>
        <time>2015-12-16T12:59:27Z</time>
      </trkpt>
      <trkpt lat="45.61886" lon="5.96831">
        <ele>1511.011876411</ele>
        <time>2015-12-16T12:59:37Z</time>
      </trkpt>
      <trkpt lat="45.61891" lon="5.96834">
        <ele>1511.011876411</ele>
        <time>2015-12-16T12:59:42Z</time>
      </trkpt>
      <trkpt lat="45.61893" lon="5.96848">
        <ele>1512.54188634</ele>
        <time>2015-12-16T12:59:52Z</time>
      </trkpt>
      <trkpt lat="45.61894" lon="5.96857">
        <ele>1512.54188634</ele>
        <time>2015-12-16T12:59:57Z</time>
      </trkpt>
      <trkpt lat="45.61896" lon="5.96869">
        <ele>1513.524240104</ele>
        <time>2015-12-16T13:00:07Z</time>
      </trkpt>
      <trkpt lat="45.61898" lon="5.96873">
        <ele>1513.524240104</ele>
        <time>2015-12-16T13:00:11Z</time>
      </trkpt>
      <trkpt lat="45.61905" lon="5.96884">
        <ele>1513.851067298</ele>
        <time>2015-12-16T13:00:22Z</time>
      </trkpt>
      <trkpt lat="45.61907" lon="5.96889">
        <ele>1513.851067298</ele>
        <time>2015-12-16T13:00:27Z</time>
      </trkpt>
      <trkpt lat="45.61911" lon="5.96913">
        <ele>1513.136147649</ele>
        <time>2015-12-16T13:00:42Z</time>
      </trkpt>
      <trkpt lat="45.61917" lon="5.96919">
        <ele>1513.136147649</ele>
        <time>2015-12-16T13:00:47Z</time>
      </trkpt>
      <trkpt lat="45.61924" lon="5.96926">
        <ele>1513.042219206</ele>
        <time>2015-12-16T13:00:57Z</time>
      </trkpt>
      <trkpt lat="45.61924" lon="5.96929">
        <ele>1513.042219206</ele>
        <time>2015-12-16T13:01:02Z</time>
      </trkpt>
      <trkpt lat="45.61925" lon="5.96933">
        <ele>1513.042219206</ele>
        <time>2015-12-16T13:01:12Z</time>
      </trkpt>
      <trkpt lat="45.61926" lon="5.96935">
        <ele>1513.042219206</ele>
        <time>2015-12-16T13:01:17Z</time>
      </trkpt>
      <trkpt lat="45.61931" lon="5.96951">
        <ele>1513.090681241</ele>
        <time>2015-12-16T13:01:27Z</time>
      </trkpt>
      <trkpt lat="45.61936" lon="5.96954">
        <ele>1513.090681241</ele>
        <time>2015-12-16T13:01:31Z</time>
      </trkpt>
      <trkpt lat="45.61946" lon="5.96964">
        <ele>1513.126010848</ele>
        <time>2015-12-16T13:01:42Z</time>
      </trkpt>
      <trkpt lat="45.61948" lon="5.96972">
        <ele>1513.126010848</ele>
        <time>2015-12-16T13:01:47Z</time>
      </trkpt>
      <trkpt lat="45.61951" lon="5.9698">
        <ele>1512.283680544</ele>
        <time>2015-12-16T13:01:57Z</time>
      </trkpt>
      <trkpt lat="45.61954" lon="5.96987">
        <ele>1512.283680544</ele>
        <time>2015-12-16T13:02:02Z</time>
      </trkpt>
      <trkpt lat="45.61966" lon="5.97006">
        <ele>1511.494549296</ele>
        <time>2015-12-16T13:02:12Z</time>
      </trkpt>
      <trkpt lat="45.6197" lon="5.97007">
        <ele>1511.494549296</ele>
        <time>2015-12-16T13:02:17Z</time>
      </trkpt>
      <trkpt lat="45.61973" lon="5.97008">
        <ele>1511.494549296</ele>
        <time>2015-12-16T13:02:21Z</time>
      </trkpt>
      <trkpt lat="45.61975" lon="5.97017">
        <ele>1509.747573946</ele>
        <time>2015-12-16T13:02:31Z</time>
      </trkpt>
      <trkpt lat="45.61978" lon="5.97031">
        <ele>1508.126285741</ele>
        <time>2015-12-16T13:02:37Z</time>
      </trkpt>
      <trkpt lat="45.61985" lon="5.9704">
        <ele>1506.337313014</ele>
        <time>2015-12-16T13:02:47Z</time>
      </trkpt>
      <trkpt lat="45.61986" lon="5.9706">
        <ele>1504.10933491</ele>
        <time>2015-12-16T13:03:02Z</time>
      </trkpt>
      <trkpt lat="45.61991" lon="5.97065">
        <ele>1504.10933491</ele>
        <time>2015-12-16T13:03:07Z</time>
      </trkpt>
      <trkpt lat="45.62001" lon="5.97077">
        <ele>1501.768650071</ele>
        <time>2015-12-16T13:03:17Z</time>
      </trkpt>
      <trkpt lat="45.62" lon="5.97085">
        <ele>1501.768650071</ele>
        <time>2015-12-16T13:03:22Z</time>
      </trkpt>
      <trkpt lat="45.61998" lon="5.97086">
        <ele>1501.768650071</ele>
        <time>2015-12-16T13:03:32Z</time>
      </trkpt>
      <trkpt lat="45.61999" lon="5.97086">
        <ele>1501.768650071</ele>
        <time>2015-12-16T13:03:37Z</time>
      </trkpt>
      <trkpt lat="45.62001" lon="5.97091">
        <ele>1499.041453277</ele>
        <time>2015-12-16T13:03:46Z</time>
      </trkpt>
      <trkpt lat="45.62008" lon="5.97109">
        <ele>1495.531000609</ele>
        <time>2015-12-16T13:03:52Z</time>
      </trkpt>
      <trkpt lat="45.62013" lon="5.97125">
        <ele>1492.457067381</ele>
        <time>2015-12-16T13:04:01Z</time>
      </trkpt>
      <trkpt lat="45.62019" lon="5.97127">
        <ele>1492.457067381</ele>
        <time>2015-12-16T13:04:07Z</time>
      </trkpt>
      <trkpt lat="45.6203" lon="5.97133">
        <ele>1489.65153457</ele>
        <time>2015-12-16T13:04:17Z</time>
      </trkpt>
      <trkpt lat="45.62032" lon="5.97139">
        <ele>1489.65153457</ele>
        <time>2015-12-16T13:04:22Z</time>
      </trkpt>
      <trkpt lat="45.62035" lon="5.97142">
        <ele>1489.65153457</ele>
        <time>2015-12-16T13:04:26Z</time>
      </trkpt>
      <trkpt lat="45.6204" lon="5.97148">
        <ele>1486.957796054</ele>
        <time>2015-12-16T13:04:37Z</time>
      </trkpt>
      <trkpt lat="45.62042" lon="5.97158">
        <ele>1486.957796054</ele>
        <time>2015-12-16T13:04:42Z</time>
      </trkpt>
      <trkpt lat="45.62045" lon="5.97165">
        <ele>1484.086224137</ele>
        <time>2015-12-16T13:04:52Z</time>
      </trkpt>
      <trkpt lat="45.62048" lon="5.97166">
        <ele>1484.086224137</ele>
        <time>2015-12-16T13:04:57Z</time>
      </trkpt>
      <trkpt lat="45.62048" lon="5.97168">
        <ele>1484.086224137</ele>
        <time>2015-12-16T13:05:07Z</time>
      </trkpt>
      <trkpt lat="45.62048" lon="5.97169">
        <ele>1484.086224137</ele>
        <time>2015-12-16T13:05:12Z</time>
      </trkpt>
      <trkpt lat="45.62048" lon="5.97169">
        <ele>1484.086224137</ele>
        <time>2015-12-16T13:05:21Z</time>
      </trkpt>
      <trkpt lat="45.62049" lon="5.97178">
        <ele>1480.912961353</ele>
        <time>2015-12-16T13:05:27Z</time>
      </trkpt>
      <trkpt lat="45.62048" lon="5.9719">
        <ele>1480.912961353</ele>
        <time>2015-12-16T13:05:37Z</time>
      </trkpt>
      <trkpt lat="45.62044" lon="5.97201">
        <ele>1477.756299477</ele>
        <time>2015-12-16T13:05:42Z</time>
      </trkpt>
      <trkpt lat="45.62041" lon="5.97216">
        <ele>1474.910960862</ele>
        <time>2015-12-16T13:05:52Z</time>
      </trkpt>
      <trkpt lat="45.62041" lon="5.97218">
        <ele>1474.910960862</ele>
        <time>2015-12-16T13:05:57Z</time>
      </trkpt>
      <trkpt lat="45.6205" lon="5.97215">
        <ele>1472.216658539</ele>
        <time>2015-12-16T13:06:07Z</time>
      </trkpt>
      <trkpt lat="45.62052" lon="5.97218">
        <ele>1472.216658539</ele>
        <time>2015-12-16T13:06:12Z</time>
      </trkpt>
      <trkpt lat="45.62064" lon="5.9723">
        <ele>1468.947849185</ele>
        <time>2015-12-16T13:06:27Z</time>
      </trkpt>
      <trkpt lat="45.62069" lon="5.97235">
        <ele>1468.947849185</ele>
        <time>2015-12-16T13:06:32Z</time>
      </trkpt>
      <trkpt lat="45.6208" lon="5.97248">
        <ele>1465.87483977</ele>
        <time>2015-12-16T13:06:42Z</time>
      </trkpt>
      <trkpt lat="45.62083" lon="5.97252">
        <ele>1465.87483977</ele>
        <time>2015-12-16T13:06:47Z</time>
      </trkpt>
      <trkpt lat="45.62088" lon="5.97265">
        <ele>1461.837176351</ele>
        <time>2015-12-16T13:06:57Z</time>
      </trkpt>
      <trkpt lat="45.6209" lon="5.97276">
        <ele>1461.837176351</ele>
        <time>2015-12-16T13:07:02Z</time>
      </trkpt>
      <trkpt lat="45.62098" lon="5.97298">
        <ele>1458.500280853</ele>
        <time>2015-12-16T13:07:12Z</time>
      </trkpt>
      <trkpt lat="45.621" lon="5.97305">
        <ele>1458.500280853</ele>
        <time>2015-12-16T13:07:17Z</time>
      </trkpt>
      <trkpt lat="45.62102" lon="5.97307">
        <ele>1458.500280853</ele>
        <time>2015-12-16T13:07:27Z</time>
      </trkpt>
      <trkpt lat="45.62102" lon="5.97308">
        <ele>1458.500280853</ele>
        <time>2015-12-16T13:07:31Z</time>
      </trkpt>
      <trkpt lat="45.6211" lon="5.97318">
        <ele>1455.387515047</ele>
        <time>2015-12-16T13:07:42Z</time>
      </trkpt>
      <trkpt lat="45.62111" lon="5.9732">
        <ele>1455.387515047</ele>
        <time>2015-12-16T13:07:47Z</time>
      </trkpt>
      <trkpt lat="45.62121" lon="5.97327">
        <ele>1451.912309642</ele>
        <time>2015-12-16T13:07:57Z</time>
      </trkpt>
      <trkpt lat="45.62123" lon="5.97331">
        <ele>1451.912309642</ele>
        <time>2015-12-16T13:08:02Z</time>
      </trkpt>
      <trkpt lat="45.62133" lon="5.97337">
        <ele>1448.540768376</ele>
        <time>2015-12-16T13:08:12Z</time>
      </trkpt>
      <trkpt lat="45.62134" lon="5.97339">
        <ele>1448.540768376</ele>
        <time>2015-12-16T13:08:17Z</time>
      </trkpt>
      <trkpt lat="45.62155" lon="5.9735">
        <ele>1445.848361588</ele>
        <time>2015-12-16T13:08:33Z</time>
      </trkpt>
      <trkpt lat="45.62158" lon="5.97359">
        <ele>1445.848361588</ele>
        <time>2015-12-16T13:08:37Z</time>
      </trkpt>
      <trkpt lat="45.62168" lon="5.97369">
        <ele>1443.501498739</ele>
        <time>2015-12-16T13:08:47Z</time>
      </trkpt>
      <trkpt lat="45.6217" lon="5.97376">
        <ele>1443.501498739</ele>
        <time>2015-12-16T13:08:52Z</time>
      </trkpt>
      <trkpt lat="45.62179" lon="5.97382">
        <ele>1440.757577489</ele>
        <time>2015-12-16T13:09:02Z</time>
      </trkpt>
      <trkpt lat="45.62183" lon="5.97391">
        <ele>1440.757577489</ele>
        <time>2015-12-16T13:09:07Z</time>
      </trkpt>
      <trkpt lat="45.6219" lon="5.97399">
        <ele>1438.658784233</ele>
        <time>2015-12-16T13:09:17Z</time>
      </trkpt>
      <trkpt lat="45.62194" lon="5.97402">
        <ele>1438.658784233</ele>
        <time>2015-12-16T13:09:22Z</time>
      </trkpt>
      <trkpt lat="45.62201" lon="5.97411">
        <ele>1436.43939878</ele>
        <time>2015-12-16T13:09:32Z</time>
      </trkpt>
      <trkpt lat="45.62203" lon="5.97418">
        <ele>1436.43939878</ele>
        <time>2015-12-16T13:09:37Z</time>
      </trkpt>
      <trkpt lat="45.6221" lon="5.97428">
        <ele>1434.110646667</ele>
        <time>2015-12-16T13:09:47Z</time>
      </trkpt>
      <trkpt lat="45.62213" lon="5.97431">
        <ele>1434.110646667</ele>
        <time>2015-12-16T13:09:52Z</time>
      </trkpt>
      <trkpt lat="45.62222" lon="5.97435">
        <ele>1432.115379057</ele>
        <time>2015-12-16T13:10:01Z</time>
      </trkpt>
      <trkpt lat="45.62225" lon="5.97437">
        <ele>1432.115379057</ele>
        <time>2015-12-16T13:10:07Z</time>
      </trkpt>
      <trkpt lat="45.62229" lon="5.97445">
        <ele>1429.565797006</ele>
        <time>2015-12-16T13:10:22Z</time>
      </trkpt>
      <trkpt lat="45.62229" lon="5.97445">
        <ele>1429.565797006</ele>
        <time>2015-12-16T13:10:37Z</time>
      </trkpt>
      <trkpt lat="45.62249" lon="5.97467">
        <ele>1426.793587337</ele>
        <time>2015-12-16T13:10:52Z</time>
      </trkpt>
      <trkpt lat="45.62254" lon="5.9747">
        <ele>1426.793587337</ele>
        <time>2015-12-16T13:10:57Z</time>
      </trkpt>
      <trkpt lat="45.62261" lon="5.97471">
        <ele>1423.53008041</ele>
        <time>2015-12-16T13:11:07Z</time>
      </trkpt>
      <trkpt lat="45.62266" lon="5.97472">
        <ele>1423.53008041</ele>
        <time>2015-12-16T13:11:11Z</time>
      </trkpt>
      <trkpt lat="45.62275" lon="5.97484">
        <ele>1421.256889372</ele>
        <time>2015-12-16T13:11:22Z</time>
      </trkpt>
      <trkpt lat="45.62277" lon="5.97487">
        <ele>1421.256889372</ele>
        <time>2015-12-16T13:11:27Z</time>
      </trkpt>
      <trkpt lat="45.62289" lon="5.975">
        <ele>1419.038070774</ele>
        <time>2015-12-16T13:11:37Z</time>
      </trkpt>
      <trkpt lat="45.62292" lon="5.97506">
        <ele>1419.038070774</ele>
        <time>2015-12-16T13:11:42Z</time>
      </trkpt>
      <trkpt lat="45.62291" lon="5.97525">
        <ele>1416.582570739</ele>
        <time>2015-12-16T13:11:52Z</time>
      </trkpt>
      <trkpt lat="45.62293" lon="5.97533">
        <ele>1416.582570739</ele>
        <time>2015-12-16T13:11:57Z</time>
      </trkpt>
      <trkpt lat="45.62294" lon="5.97549">
        <ele>1414.34178594</ele>
        <time>2015-12-16T13:12:07Z</time>
      </trkpt>
      <trkpt lat="45.62296" lon="5.97554">
        <ele>1414.34178594</ele>
        <time>2015-12-16T13:12:12Z</time>
      </trkpt>
      <trkpt lat="45.62296" lon="5.97567">
        <ele>1412.012653234</ele>
        <time>2015-12-16T13:12:22Z</time>
      </trkpt>
      <trkpt lat="45.62294" lon="5.97571">
        <ele>1412.012653234</ele>
        <time>2015-12-16T13:12:26Z</time>
      </trkpt>
      <trkpt lat="45.62295" lon="5.97585">
        <ele>1409.746818822</ele>
        <time>2015-12-16T13:12:37Z</time>
      </trkpt>
      <trkpt lat="45.62295" lon="5.97591">
        <ele>1409.746818822</ele>
        <time>2015-12-16T13:12:43Z</time>
      </trkpt>
      <trkpt lat="45.6231" lon="5.97598">
        <ele>1408.11681858</ele>
        <time>2015-12-16T13:12:57Z</time>
      </trkpt>
      <trkpt lat="45.62313" lon="5.97603">
        <ele>1408.11681858</ele>
        <time>2015-12-16T13:13:01Z</time>
      </trkpt>
      <trkpt lat="45.62318" lon="5.97611">
        <ele>1406.354228654</ele>
        <time>2015-12-16T13:13:07Z</time>
      </trkpt>
      <trkpt lat="45.62319" lon="5.97612">
        <ele>1406.354228654</ele>
        <time>2015-12-16T13:13:12Z</time>
      </trkpt>
      <trkpt lat="45.62328" lon="5.97625">
        <ele>1404.179670345</ele>
        <time>2015-12-16T13:13:27Z</time>
      </trkpt>
      <trkpt lat="45.62332" lon="5.97631">
        <ele>1404.179670345</ele>
        <time>2015-12-16T13:13:32Z</time>
      </trkpt>
      <trkpt lat="45.62339" lon="5.97646">
        <ele>1401.479454911</ele>
        <time>2015-12-16T13:13:42Z</time>
      </trkpt>
      <trkpt lat="45.62345" lon="5.9765">
        <ele>1401.479454911</ele>
        <time>2015-12-16T13:13:47Z</time>
      </trkpt>
      <trkpt lat="45.62349" lon="5.97666">
        <ele>1399.014294334</ele>
        <time>2015-12-16T13:13:57Z</time>
      </trkpt>
      <trkpt lat="45.62351" lon="5.97671">
        <ele>1399.014294334</ele>
        <time>2015-12-16T13:14:01Z</time>
      </trkpt>
      <trkpt lat="45.6236" lon="5.97681">
        <ele>1397.055940136</ele>
        <time>2015-12-16T13:14:12Z</time>
      </trkpt>
      <trkpt lat="45.62365" lon="5.97684">
        <ele>1397.055940136</ele>
        <time>2015-12-16T13:14:17Z</time>
      </trkpt>
      <trkpt lat="45.62373" lon="5.97689">
        <ele>1394.990011747</ele>
        <time>2015-12-16T13:14:27Z</time>
      </trkpt>
      <trkpt lat="45.62375" lon="5.97692">
        <ele>1394.990011747</ele>
        <time>2015-12-16T13:14:32Z</time>
      </trkpt>
      <trkpt lat="45.62384" lon="5.97699">
        <ele>1392.823932194</ele>
        <time>2015-12-16T13:14:41Z</time>
      </trkpt>
      <trkpt lat="45.62387" lon="5.97705">
        <ele>1392.823932194</ele>
        <time>2015-12-16T13:14:47Z</time>
      </trkpt>
      <trkpt lat="45.62393" lon="5.97707">
        <ele>1391.141237313</ele>
        <time>2015-12-16T13:14:57Z</time>
      </trkpt>
      <trkpt lat="45.62394" lon="5.97708">
        <ele>1391.141237313</ele>
        <time>2015-12-16T13:15:02Z</time>
      </trkpt>
      <trkpt lat="45.624" lon="5.97715">
        <ele>1389.472402968</ele>
        <time>2015-12-16T13:15:12Z</time>
      </trkpt>
      <trkpt lat="45.62402" lon="5.97717">
        <ele>1389.472402968</ele>
        <time>2015-12-16T13:15:16Z</time>
      </trkpt>
      <trkpt lat="45.62407" lon="5.97724">
        <ele>1387.814639245</ele>
        <time>2015-12-16T13:15:27Z</time>
      </trkpt>
      <trkpt lat="45.62412" lon="5.97728">
        <ele>1387.814639245</ele>
        <time>2015-12-16T13:15:32Z</time>
      </trkpt>
      <trkpt lat="45.62419" lon="5.97747">
        <ele>1385.732953129</ele>
        <time>2015-12-16T13:15:43Z</time>
      </trkpt>
      <trkpt lat="45.62422" lon="5.97754">
        <ele>1385.732953129</ele>
        <time>2015-12-16T13:15:47Z</time>
      </trkpt>
      <trkpt lat="45.62428" lon="5.97765">
        <ele>1383.834237702</ele>
        <time>2015-12-16T13:15:57Z</time>
      </trkpt>
      <trkpt lat="45.6243" lon="5.97769">
        <ele>1383.834237702</ele>
        <time>2015-12-16T13:16:02Z</time>
      </trkpt>
      <trkpt lat="45.62432" lon="5.97776">
        <ele>1383.834237702</ele>
        <time>2015-12-16T13:16:17Z</time>
      </trkpt>
      <trkpt lat="45.62433" lon="5.97778">
        <ele>1381.959706111</ele>
        <time>2015-12-16T13:16:22Z</time>
      </trkpt>
      <trkpt lat="45.62433" lon="5.97778">
        <ele>1381.959706111</ele>
        <time>2015-12-16T13:16:27Z</time>
      </trkpt>
      <trkpt lat="45.62436" lon="5.97783">
        <ele>1381.959706111</ele>
        <time>2015-12-16T13:16:31Z</time>
      </trkpt>
      <trkpt lat="45.62458" lon="5.97809">
        <ele>1378.37691941</ele>
        <time>2015-12-16T13:16:47Z</time>
      </trkpt>
      <trkpt lat="45.62464" lon="5.97814">
        <ele>1378.37691941</ele>
        <time>2015-12-16T13:16:52Z</time>
      </trkpt>
      <trkpt lat="45.62468" lon="5.97826">
        <ele>1375.376471863</ele>
        <time>2015-12-16T13:17:01Z</time>
      </trkpt>
      <trkpt lat="45.62472" lon="5.97835">
        <ele>1375.376471863</ele>
        <time>2015-12-16T13:17:07Z</time>
      </trkpt>
      <trkpt lat="45.62476" lon="5.97847">
        <ele>1373.061477792</ele>
        <time>2015-12-16T13:17:17Z</time>
      </trkpt>
      <trkpt lat="45.62479" lon="5.97852">
        <ele>1373.061477792</ele>
        <time>2015-12-16T13:17:22Z</time>
      </trkpt>
      <trkpt lat="45.62485" lon="5.9786">
        <ele>1370.372638596</ele>
        <time>2015-12-16T13:17:32Z</time>
      </trkpt>
      <trkpt lat="45.62486" lon="5.97866">
        <ele>1370.372638596</ele>
        <time>2015-12-16T13:17:37Z</time>
      </trkpt>
      <trkpt lat="45.62489" lon="5.9788">
        <ele>1367.626492541</ele>
        <time>2015-12-16T13:17:47Z</time>
      </trkpt>
      <trkpt lat="45.62493" lon="5.97886">
        <ele>1367.626492541</ele>
        <time>2015-12-16T13:17:52Z</time>
      </trkpt>
      <trkpt lat="45.62498" lon="5.97891">
        <ele>1365.116458209</ele>
        <time>2015-12-16T13:18:02Z</time>
      </trkpt>
      <trkpt lat="45.62499" lon="5.97892">
        <ele>1365.116458209</ele>
        <time>2015-12-16T13:18:07Z</time>
      </trkpt>
      <trkpt lat="45.625" lon="5.97892">
        <ele>1365.116458209</ele>
        <time>2015-12-16T13:18:17Z</time>
      </trkpt>
      <trkpt lat="45.62503" lon="5.97891">
        <ele>1365.116458209</ele>
        <time>2015-12-16T13:18:21Z</time>
      </trkpt>
      <trkpt lat="45.62515" lon="5.97887">
        <ele>1363.401933998</ele>
        <time>2015-12-16T13:18:32Z</time>
      </trkpt>
      <trkpt lat="45.6252" lon="5.97885">
        <ele>1363.401933998</ele>
        <time>2015-12-16T13:18:37Z</time>
      </trkpt>
      <trkpt lat="45.62526" lon="5.97879">
        <ele>1361.413747292</ele>
        <time>2015-12-16T13:18:47Z</time>
      </trkpt>
      <trkpt lat="45.62531" lon="5.97873">
        <ele>1361.413747292</ele>
        <time>2015-12-16T13:18:52Z</time>
      </trkpt>
      <trkpt lat="45.6254" lon="5.97863">
        <ele>1360.035460606</ele>
        <time>2015-12-16T13:19:02Z</time>
      </trkpt>
      <trkpt lat="45.62547" lon="5.97864">
        <ele>1360.035460606</ele>
        <time>2015-12-16T13:19:07Z</time>
      </trkpt>
      <trkpt lat="45.62562" lon="5.97867">
        <ele>1358.49878467</ele>
        <time>2015-12-16T13:19:22Z</time>
      </trkpt>
      <trkpt lat="45.62566" lon="5.97869">
        <ele>1358.49878467</ele>
        <time>2015-12-16T13:19:26Z</time>
      </trkpt>
      <trkpt lat="45.62569" lon="5.97873">
        <ele>1358.49878467</ele>
        <time>2015-12-16T13:19:37Z</time>
      </trkpt>
      <trkpt lat="45.6257" lon="5.97873">
        <ele>1357.245198051</ele>
        <time>2015-12-16T13:19:42Z</time>
      </trkpt>
      <trkpt lat="45.62583" lon="5.97883">
        <ele>1355.818291612</ele>
        <time>2015-12-16T13:19:52Z</time>
      </trkpt>
      <trkpt lat="45.62589" lon="5.97886">
        <ele>1355.818291612</ele>
        <time>2015-12-16T13:19:57Z</time>
      </trkpt>
      <trkpt lat="45.62604" lon="5.97887">
        <ele>1354.228015736</ele>
        <time>2015-12-16T13:20:06Z</time>
      </trkpt>
      <trkpt lat="45.62612" lon="5.97892">
        <ele>1352.628178736</ele>
        <time>2015-12-16T13:20:12Z</time>
      </trkpt>
      <trkpt lat="45.62623" lon="5.97891">
        <ele>1351.593677222</ele>
        <time>2015-12-16T13:20:22Z</time>
      </trkpt>
      <trkpt lat="45.62627" lon="5.97888">
        <ele>1351.593677222</ele>
        <time>2015-12-16T13:20:27Z</time>
      </trkpt>
      <trkpt lat="45.62631" lon="5.97888">
        <ele>1351.593677222</ele>
        <time>2015-12-16T13:20:37Z</time>
      </trkpt>
      <trkpt lat="45.62632" lon="5.97888">
        <ele>1350.935068546</ele>
        <time>2015-12-16T13:20:42Z</time>
      </trkpt>
      <trkpt lat="45.62637" lon="5.97889">
        <ele>1350.935068546</ele>
        <time>2015-12-16T13:20:51Z</time>
      </trkpt>
      <trkpt lat="45.62645" lon="5.97886">
        <ele>1350.619925932</ele>
        <time>2015-12-16T13:20:57Z</time>
      </trkpt>
      <trkpt lat="45.62659" lon="5.97882">
        <ele>1350.761406276</ele>
        <time>2015-12-16T13:21:07Z</time>
      </trkpt>
      <trkpt lat="45.62665" lon="5.97881">
        <ele>1350.761406276</ele>
        <time>2015-12-16T13:21:12Z</time>
      </trkpt>
      <trkpt lat="45.62679" lon="5.97882">
        <ele>1351.319029558</ele>
        <time>2015-12-16T13:21:22Z</time>
      </trkpt>
      <trkpt lat="45.62683" lon="5.97882">
        <ele>1351.319029558</ele>
        <time>2015-12-16T13:21:26Z</time>
      </trkpt>
      <trkpt lat="45.62696" lon="5.97894">
        <ele>1350.092534158</ele>
        <time>2015-12-16T13:21:37Z</time>
      </trkpt>
      <trkpt lat="45.62699" lon="5.97897">
        <ele>1350.092534158</ele>
        <time>2015-12-16T13:21:41Z</time>
      </trkpt>
      <trkpt lat="45.62707" lon="5.97912">
        <ele>1349.083496767</ele>
        <time>2015-12-16T13:21:52Z</time>
      </trkpt>
      <trkpt lat="45.62711" lon="5.97911">
        <ele>1349.083496767</ele>
        <time>2015-12-16T13:21:57Z</time>
      </trkpt>
      <trkpt lat="45.62719" lon="5.97913">
        <ele>1347.840169093</ele>
        <time>2015-12-16T13:22:02Z</time>
      </trkpt>
      <trkpt lat="45.62728" lon="5.97912">
        <ele>1346.665303458</ele>
        <time>2015-12-16T13:22:12Z</time>
      </trkpt>
      <trkpt lat="45.62735" lon="5.97915">
        <ele>1346.665303458</ele>
        <time>2015-12-16T13:22:17Z</time>
      </trkpt>
      <trkpt lat="45.62745" lon="5.97918">
        <ele>1346.127546937</ele>
        <time>2015-12-16T13:22:27Z</time>
      </trkpt>
      <trkpt lat="45.62749" lon="5.97919">
        <ele>1346.127546937</ele>
        <time>2015-12-16T13:22:32Z</time>
      </trkpt>
      <trkpt lat="45.6276" lon="5.97922">
        <ele>1345.743315888</ele>
        <time>2015-12-16T13:22:42Z</time>
      </trkpt>
      <trkpt lat="45.6276" lon="5.97921">
        <ele>1345.743315888</ele>
        <time>2015-12-16T13:22:47Z</time>
      </trkpt>
      <trkpt lat="45.62771" lon="5.97917">
        <ele>1344.631895735</ele>
        <time>2015-12-16T13:22:57Z</time>
      </trkpt>
      <trkpt lat="45.62775" lon="5.97918">
        <ele>1344.631895735</ele>
        <time>2015-12-16T13:23:01Z</time>
      </trkpt>
      <trkpt lat="45.62791" lon="5.97933">
        <ele>1343.276420672</ele>
        <time>2015-12-16T13:23:12Z</time>
      </trkpt>
      <trkpt lat="45.62798" lon="5.97936">
        <ele>1343.276420672</ele>
        <time>2015-12-16T13:23:17Z</time>
      </trkpt>
      <trkpt lat="45.62807" lon="5.97942">
        <ele>1342.557665806</ele>
        <time>2015-12-16T13:23:27Z</time>
      </trkpt>
      <trkpt lat="45.62812" lon="5.97941">
        <ele>1342.557665806</ele>
        <time>2015-12-16T13:23:31Z</time>
      </trkpt>
      <trkpt lat="45.62827" lon="5.97951">
        <ele>1341.84892133</ele>
        <time>2015-12-16T13:23:47Z</time>
      </trkpt>
      <trkpt lat="45.6283" lon="5.97954">
        <ele>1341.84892133</ele>
        <time>2015-12-16T13:23:52Z</time>
      </trkpt>
      <trkpt lat="45.62835" lon="5.9796">
        <ele>1340.857823177</ele>
        <time>2015-12-16T13:24:02Z</time>
      </trkpt>
      <trkpt lat="45.62837" lon="5.97965">
        <ele>1340.857823177</ele>
        <time>2015-12-16T13:24:07Z</time>
      </trkpt>
      <trkpt lat="45.62845" lon="5.97966">
        <ele>1339.170277506</ele>
        <time>2015-12-16T13:24:17Z</time>
      </trkpt>
      <trkpt lat="45.62848" lon="5.97969">
        <ele>1339.170277506</ele>
        <time>2015-12-16T13:24:22Z</time>
      </trkpt>
      <trkpt lat="45.62857" lon="5.97972">
        <ele>1337.125228714</ele>
        <time>2015-12-16T13:24:32Z</time>
      </trkpt>
      <trkpt lat="45.62862" lon="5.97975">
        <ele>1337.125228714</ele>
        <time>2015-12-16T13:24:37Z</time>
      </trkpt>
      <trkpt lat="45.62871" lon="5.97988">
        <ele>1334.749606706</ele>
        <time>2015-12-16T13:24:47Z</time>
      </trkpt>
      <trkpt lat="45.62873" lon="5.97991">
        <ele>1334.749606706</ele>
        <time>2015-12-16T13:24:51Z</time>
      </trkpt>
      <trkpt lat="45.62875" lon="5.97994">
        <ele>1334.749606706</ele>
        <time>2015-12-16T13:25:02Z</time>
      </trkpt>
      <trkpt lat="45.62878" lon="5.97996">
        <ele>1334.749606706</ele>
        <time>2015-12-16T13:25:06Z</time>
      </trkpt>
      <trkpt lat="45.62891" lon="5.98001">
        <ele>1332.789941836</ele>
        <time>2015-12-16T13:25:17Z</time>
      </trkpt>
      <trkpt lat="45.62898" lon="5.98004">
        <ele>1332.789941836</ele>
        <time>2015-12-16T13:25:22Z</time>
      </trkpt>
      <trkpt lat="45.62915" lon="5.98016">
        <ele>1330.495731644</ele>
        <time>2015-12-16T13:25:32Z</time>
      </trkpt>
      <trkpt lat="45.62916" lon="5.98015">
        <ele>1330.495731644</ele>
        <time>2015-12-16T13:25:36Z</time>
      </trkpt>
      <trkpt lat="45.62921" lon="5.98016">
        <ele>1330.495731644</ele>
        <time>2015-12-16T13:25:42Z</time>
      </trkpt>
      <trkpt lat="45.62933" lon="5.98021">
        <ele>1328.901953933</ele>
        <time>2015-12-16T13:25:52Z</time>
      </trkpt>
      <trkpt lat="45.62937" lon="5.98023">
        <ele>1328.901953933</ele>
        <time>2015-12-16T13:25:56Z</time>
      </trkpt>
      <trkpt lat="45.62942" lon="5.98025">
        <ele>1326.948104048</ele>
        <time>2015-12-16T13:26:07Z</time>
      </trkpt>
      <trkpt lat="45.62943" lon="5.98026">
        <ele>1326.948104048</ele>
        <time>2015-12-16T13:26:12Z</time>
      </trkpt>
      <trkpt lat="45.62944" lon="5.98025">
        <ele>1326.948104048</ele>
        <time>2015-12-16T13:26:22Z</time>
      </trkpt>
      <trkpt lat="45.62944" lon="5.98025">
        <ele>1326.948104048</ele>
        <time>2015-12-16T13:26:27Z</time>
      </trkpt>
      <trkpt lat="45.62958" lon="5.98033">
        <ele>1324.661429394</ele>
        <time>2015-12-16T13:26:37Z</time>
      </trkpt>
      <trkpt lat="45.62964" lon="5.98037">
        <ele>1324.661429394</ele>
        <time>2015-12-16T13:26:42Z</time>
      </trkpt>
      <trkpt lat="45.62978" lon="5.98039">
        <ele>1323.22105228</ele>
        <time>2015-12-16T13:26:52Z</time>
      </trkpt>
      <trkpt lat="45.62984" lon="5.9804">
        <ele>1323.22105228</ele>
        <time>2015-12-16T13:26:57Z</time>
      </trkpt>
      <trkpt lat="45.62996" lon="5.98044">
        <ele>1321.555483585</ele>
        <time>2015-12-16T13:27:06Z</time>
      </trkpt>
      <trkpt lat="45.63001" lon="5.98048">
        <ele>1321.555483585</ele>
        <time>2015-12-16T13:27:12Z</time>
      </trkpt>
      <trkpt lat="45.6301" lon="5.98055">
        <ele>1319.537286004</ele>
        <time>2015-12-16T13:27:22Z</time>
      </trkpt>
      <trkpt lat="45.63012" lon="5.98059">
        <ele>1319.537286004</ele>
        <time>2015-12-16T13:27:27Z</time>
      </trkpt>
      <trkpt lat="45.63012" lon="5.9806">
        <ele>1319.537286004</ele>
        <time>2015-12-16T13:27:32Z</time>
      </trkpt>
      <trkpt lat="45.63014" lon="5.98061">
        <ele>1319.537286004</ele>
        <time>2015-12-16T13:27:37Z</time>
      </trkpt>
      <trkpt lat="45.63016" lon="5.98061">
        <ele>1319.537286004</ele>
        <time>2015-12-16T13:27:42Z</time>
      </trkpt>
      <trkpt lat="45.63023" lon="5.98062">
        <ele>1317.769966228</ele>
        <time>2015-12-16T13:27:47Z</time>
      </trkpt>
      <trkpt lat="45.63038" lon="5.98066">
        <ele>1316.235583021</ele>
        <time>2015-12-16T13:27:57Z</time>
      </trkpt>
      <trkpt lat="45.63043" lon="5.98062">
        <ele>1316.235583021</ele>
        <time>2015-12-16T13:28:01Z</time>
      </trkpt>
      <trkpt lat="45.6306" lon="5.98065">
        <ele>1315.061001512</ele>
        <time>2015-12-16T13:28:12Z</time>
      </trkpt>
      <trkpt lat="45.63067" lon="5.98066">
        <ele>1315.061001512</ele>
        <time>2015-12-16T13:28:17Z</time>
      </trkpt>
      <trkpt lat="45.63078" lon="5.9807">
        <ele>1313.786341956</ele>
        <time>2015-12-16T13:28:27Z</time>
      </trkpt>
      <trkpt lat="45.63081" lon="5.98074">
        <ele>1313.786341956</ele>
        <time>2015-12-16T13:28:31Z</time>
      </trkpt>
      <trkpt lat="45.63083" lon="5.98073">
        <ele>1313.786341956</ele>
        <time>2015-12-16T13:28:42Z</time>
      </trkpt>
      <trkpt lat="45.6309" lon="5.98072">
        <ele>1312.418149134</ele>
        <time>2015-12-16T13:28:47Z</time>
      </trkpt>
      <trkpt lat="45.63098" lon="5.98074">
        <ele>1312.418149134</ele>
        <time>2015-12-16T13:28:57Z</time>
      </trkpt>
      <trkpt lat="45.63103" lon="5.98078">
        <ele>1310.386331286</ele>
        <time>2015-12-16T13:29:01Z</time>
      </trkpt>
      <trkpt lat="45.6312" lon="5.98087">
        <ele>1307.596893565</ele>
        <time>2015-12-16T13:29:12Z</time>
      </trkpt>
      <trkpt lat="45.63127" lon="5.98089">
        <ele>1307.596893565</ele>
        <time>2015-12-16T13:29:17Z</time>
      </trkpt>
      <trkpt lat="45.6314" lon="5.98091">
        <ele>1304.541332742</ele>
        <time>2015-12-16T13:29:27Z</time>
      </trkpt>
      <trkpt lat="45.63146" lon="5.98094">
        <ele>1304.541332742</ele>
        <time>2015-12-16T13:29:32Z</time>
      </trkpt>
      <trkpt lat="45.63156" lon="5.98104">
        <ele>1301.964017763</ele>
        <time>2015-12-16T13:29:42Z</time>
      </trkpt>
      <trkpt lat="45.6316" lon="5.98107">
        <ele>1301.964017763</ele>
        <time>2015-12-16T13:29:47Z</time>
      </trkpt>
      <trkpt lat="45.6317" lon="5.98115">
        <ele>1299.544515363</ele>
        <time>2015-12-16T13:29:57Z</time>
      </trkpt>
      <trkpt lat="45.63175" lon="5.98118">
        <ele>1299.544515363</ele>
        <time>2015-12-16T13:30:02Z</time>
      </trkpt>
      <trkpt lat="45.63185" lon="5.98129">
        <ele>1297.129588582</ele>
        <time>2015-12-16T13:30:12Z</time>
      </trkpt>
      <trkpt lat="45.63191" lon="5.98135">
        <ele>1297.129588582</ele>
        <time>2015-12-16T13:30:17Z</time>
      </trkpt>
      <trkpt lat="45.63198" lon="5.98142">
        <ele>1295.586005219</ele>
        <time>2015-12-16T13:30:27Z</time>
      </trkpt>
      <trkpt lat="45.63203" lon="5.98146">
        <ele>1295.586005219</ele>
        <time>2015-12-16T13:30:32Z</time>
      </trkpt>
      <trkpt lat="45.63207" lon="5.98152">
        <ele>1294.273284311</ele>
        <time>2015-12-16T13:30:37Z</time>
      </trkpt>
      <trkpt lat="45.63211" lon="5.98156">
        <ele>1294.273284311</ele>
        <time>2015-12-16T13:30:47Z</time>
      </trkpt>
      <trkpt lat="45.63216" lon="5.98154">
        <ele>1293.750216277</ele>
        <time>2015-12-16T13:30:51Z</time>
      </trkpt>
      <trkpt lat="45.63221" lon="5.98153">
        <ele>1293.750216277</ele>
        <time>2015-12-16T13:30:56Z</time>
      </trkpt>
      <trkpt lat="45.63227" lon="5.98156">
        <ele>1293.23531184</ele>
        <time>2015-12-16T13:31:01Z</time>
      </trkpt>
      <trkpt lat="45.63231" lon="5.98156">
        <ele>1293.23531184</ele>
        <time>2015-12-16T13:31:12Z</time>
      </trkpt>
      <trkpt lat="45.63237" lon="5.98159">
        <ele>1292.725013937</ele>
        <time>2015-12-16T13:31:17Z</time>
      </trkpt>
      <trkpt lat="45.63247" lon="5.98171">
        <ele>1292.504236769</ele>
        <time>2015-12-16T13:31:27Z</time>
      </trkpt>
      <trkpt lat="45.63251" lon="5.98177">
        <ele>1292.504236769</ele>
        <time>2015-12-16T13:31:32Z</time>
      </trkpt>
      <trkpt lat="45.6326" lon="5.98194">
        <ele>1291.539161287</ele>
        <time>2015-12-16T13:31:42Z</time>
      </trkpt>
      <trkpt lat="45.63259" lon="5.98195">
        <ele>1291.539161287</ele>
        <time>2015-12-16T13:31:47Z</time>
      </trkpt>
      <trkpt lat="45.63274" lon="5.98206">
        <ele>1290.747462148</ele>
        <time>2015-12-16T13:31:57Z</time>
      </trkpt>
      <trkpt lat="45.63279" lon="5.98208">
        <ele>1290.747462148</ele>
        <time>2015-12-16T13:32:02Z</time>
      </trkpt>
      <trkpt lat="45.63296" lon="5.98208">
        <ele>1290.690717972</ele>
        <time>2015-12-16T13:32:17Z</time>
      </trkpt>
      <trkpt lat="45.63301" lon="5.98208">
        <ele>1290.690717972</ele>
        <time>2015-12-16T13:32:22Z</time>
      </trkpt>
      <trkpt lat="45.63313" lon="5.98207">
        <ele>1290.446112158</ele>
        <time>2015-12-16T13:32:32Z</time>
      </trkpt>
      <trkpt lat="45.6332" lon="5.98203">
        <ele>1290.446112158</ele>
        <time>2015-12-16T13:32:37Z</time>
      </trkpt>
      <trkpt lat="45.63333" lon="5.98189">
        <ele>1290.312072568</ele>
        <time>2015-12-16T13:32:47Z</time>
      </trkpt>
      <trkpt lat="45.63338" lon="5.98189">
        <ele>1290.312072568</ele>
        <time>2015-12-16T13:32:52Z</time>
      </trkpt>
      <trkpt lat="45.63352" lon="5.9818">
        <ele>1291.141287363</ele>
        <time>2015-12-16T13:33:06Z</time>
      </trkpt>
      <trkpt lat="45.63358" lon="5.98176">
        <ele>1291.141287363</ele>
        <time>2015-12-16T13:33:11Z</time>
      </trkpt>
      <trkpt lat="45.6337" lon="5.98169">
        <ele>1290.983049633</ele>
        <time>2015-12-16T13:33:22Z</time>
      </trkpt>
      <trkpt lat="45.63379" lon="5.98164">
        <ele>1290.482675743</ele>
        <time>2015-12-16T13:33:27Z</time>
      </trkpt>
      <trkpt lat="45.63392" lon="5.98157">
        <ele>1290.671444598</ele>
        <time>2015-12-16T13:33:37Z</time>
      </trkpt>
      <trkpt lat="45.63398" lon="5.98159">
        <ele>1290.671444598</ele>
        <time>2015-12-16T13:33:42Z</time>
      </trkpt>
      <trkpt lat="45.63408" lon="5.9816">
        <ele>1290.197245653</ele>
        <time>2015-12-16T13:33:52Z</time>
      </trkpt>
      <trkpt lat="45.63416" lon="5.98159">
        <ele>1290.197245653</ele>
        <time>2015-12-16T13:33:57Z</time>
      </trkpt>
      <trkpt lat="45.63428" lon="5.98165">
        <ele>1290.115015996</ele>
        <time>2015-12-16T13:34:07Z</time>
      </trkpt>
      <trkpt lat="45.63433" lon="5.98165">
        <ele>1290.115015996</ele>
        <time>2015-12-16T13:34:11Z</time>
      </trkpt>
      <trkpt lat="45.63446" lon="5.98166">
        <ele>1290.2482968</ele>
        <time>2015-12-16T13:34:22Z</time>
      </trkpt>
      <trkpt lat="45.63451" lon="5.98165">
        <ele>1290.2482968</ele>
        <time>2015-12-16T13:34:26Z</time>
      </trkpt>
      <trkpt lat="45.6347" lon="5.98171">
        <ele>1289.85663401</ele>
        <time>2015-12-16T13:34:42Z</time>
      </trkpt>
      <trkpt lat="45.63474" lon="5.98172">
        <ele>1289.85663401</ele>
        <time>2015-12-16T13:34:46Z</time>
      </trkpt>
      <trkpt lat="45.63486" lon="5.98174">
        <ele>1289.408422651</ele>
        <time>2015-12-16T13:34:57Z</time>
      </trkpt>
      <trkpt lat="45.63488" lon="5.98175">
        <ele>1289.408422651</ele>
        <time>2015-12-16T13:35:02Z</time>
      </trkpt>
      <trkpt lat="45.63493" lon="5.98195">
        <ele>1289.48201595</ele>
        <time>2015-12-16T13:35:12Z</time>
      </trkpt>
      <trkpt lat="45.63494" lon="5.98197">
        <ele>1289.48201595</ele>
        <time>2015-12-16T13:35:17Z</time>
      </trkpt>
      <trkpt lat="45.63497" lon="5.98214">
        <ele>1289.891360955</ele>
        <time>2015-12-16T13:35:27Z</time>
      </trkpt>
      <trkpt lat="45.63503" lon="5.98216">
        <ele>1289.891360955</ele>
        <time>2015-12-16T13:35:32Z</time>
      </trkpt>
      <trkpt lat="45.63506" lon="5.98231">
        <ele>1290.175009319</ele>
        <time>2015-12-16T13:35:42Z</time>
      </trkpt>
      <trkpt lat="45.63509" lon="5.98241">
        <ele>1290.175009319</ele>
        <time>2015-12-16T13:35:47Z</time>
      </trkpt>
      <trkpt lat="45.63514" lon="5.98246">
        <ele>1290.914646987</ele>
        <time>2015-12-16T13:35:51Z</time>
      </trkpt>
      <trkpt lat="45.63514" lon="5.98257">
        <ele>1290.914646987</ele>
        <time>2015-12-16T13:35:57Z</time>
      </trkpt>
      <trkpt lat="45.63515" lon="5.98266">
        <ele>1291.639283387</ele>
        <time>2015-12-16T13:36:02Z</time>
      </trkpt>
      <trkpt lat="45.63513" lon="5.98272">
        <ele>1291.639283387</ele>
        <time>2015-12-16T13:36:06Z</time>
      </trkpt>
      <trkpt lat="45.63514" lon="5.98295">
        <ele>1292.345019065</ele>
        <time>2015-12-16T13:36:17Z</time>
      </trkpt>
      <trkpt lat="45.6352" lon="5.98302">
        <ele>1292.345019065</ele>
        <time>2015-12-16T13:36:22Z</time>
      </trkpt>
      <trkpt lat="45.63521" lon="5.98317">
        <ele>1292.596082199</ele>
        <time>2015-12-16T13:36:31Z</time>
      </trkpt>
      <trkpt lat="45.63522" lon="5.98324">
        <ele>1292.596082199</ele>
        <time>2015-12-16T13:36:37Z</time>
      </trkpt>
      <trkpt lat="45.63522" lon="5.98328">
        <ele>1292.596082199</ele>
        <time>2015-12-16T13:36:47Z</time>
      </trkpt>
      <trkpt lat="45.63522" lon="5.98331">
        <ele>1292.566557842</ele>
        <time>2015-12-16T13:36:52Z</time>
      </trkpt>
      <trkpt lat="45.63519" lon="5.98346">
        <ele>1292.562767892</ele>
        <time>2015-12-16T13:37:02Z</time>
      </trkpt>
      <trkpt lat="45.63521" lon="5.98354">
        <ele>1292.562767892</ele>
        <time>2015-12-16T13:37:07Z</time>
      </trkpt>
      <trkpt lat="45.63525" lon="5.98361">
        <ele>1292.580363839</ele>
        <time>2015-12-16T13:37:11Z</time>
      </trkpt>
      <trkpt lat="45.63533" lon="5.98374">
        <ele>1292.903603994</ele>
        <time>2015-12-16T13:37:22Z</time>
      </trkpt>
      <trkpt lat="45.63539" lon="5.98381">
        <ele>1292.903603994</ele>
        <time>2015-12-16T13:37:27Z</time>
      </trkpt>
      <trkpt lat="45.63547" lon="5.98391">
        <ele>1293.074575284</ele>
        <time>2015-12-16T13:37:37Z</time>
      </trkpt>
      <trkpt lat="45.63547" lon="5.98398">
        <ele>1293.074575284</ele>
        <time>2015-12-16T13:37:42Z</time>
      </trkpt>
      <trkpt lat="45.63558" lon="5.98414">
        <ele>1293.39010776</ele>
        <time>2015-12-16T13:37:52Z</time>
      </trkpt>
      <trkpt lat="45.63563" lon="5.98418">
        <ele>1293.39010776</ele>
        <time>2015-12-16T13:37:56Z</time>
      </trkpt>
      <trkpt lat="45.63573" lon="5.98428">
        <ele>1293.404385756</ele>
        <time>2015-12-16T13:38:07Z</time>
      </trkpt>
      <trkpt lat="45.63579" lon="5.98429">
        <ele>1293.404385756</ele>
        <time>2015-12-16T13:38:12Z</time>
      </trkpt>
      <trkpt lat="45.63594" lon="5.98438">
        <ele>1293.569974206</ele>
        <time>2015-12-16T13:38:22Z</time>
      </trkpt>
      <trkpt lat="45.63596" lon="5.98445">
        <ele>1293.569974206</ele>
        <time>2015-12-16T13:38:27Z</time>
      </trkpt>
      <trkpt lat="45.63607" lon="5.98454">
        <ele>1294.017663658</ele>
        <time>2015-12-16T13:38:36Z</time>
      </trkpt>
      <trkpt lat="45.63611" lon="5.98459">
        <ele>1294.017663658</ele>
        <time>2015-12-16T13:38:42Z</time>
      </trkpt>
      <trkpt lat="45.6362" lon="5.9847">
        <ele>1294.579739398</ele>
        <time>2015-12-16T13:38:52Z</time>
      </trkpt>
      <trkpt lat="45.63625" lon="5.9848">
        <ele>1294.579739398</ele>
        <time>2015-12-16T13:38:57Z</time>
      </trkpt>
      <trkpt lat="45.63634" lon="5.98487">
        <ele>1294.956489861</ele>
        <time>2015-12-16T13:39:06Z</time>
      </trkpt>
      <trkpt lat="45.63637" lon="5.98495">
        <ele>1294.956489861</ele>
        <time>2015-12-16T13:39:12Z</time>
      </trkpt>
      <trkpt lat="45.63649" lon="5.98511">
        <ele>1295.303187673</ele>
        <time>2015-12-16T13:39:22Z</time>
      </trkpt>
      <trkpt lat="45.63655" lon="5.98516">
        <ele>1295.303187673</ele>
        <time>2015-12-16T13:39:26Z</time>
      </trkpt>
      <trkpt lat="45.63669" lon="5.98537">
        <ele>1295.331562728</ele>
        <time>2015-12-16T13:39:42Z</time>
      </trkpt>
      <trkpt lat="45.63672" lon="5.98545">
        <ele>1295.331562728</ele>
        <time>2015-12-16T13:39:47Z</time>
      </trkpt>
      <trkpt lat="45.6368" lon="5.98557">
        <ele>1294.775523348</ele>
        <time>2015-12-16T13:39:57Z</time>
      </trkpt>
      <trkpt lat="45.63684" lon="5.98565">
        <ele>1294.775523348</ele>
        <time>2015-12-16T13:40:02Z</time>
      </trkpt>
      <trkpt lat="45.63694" lon="5.98578">
        <ele>1294.254935359</ele>
        <time>2015-12-16T13:40:12Z</time>
      </trkpt>
      <trkpt lat="45.63697" lon="5.98582">
        <ele>1294.254935359</ele>
        <time>2015-12-16T13:40:16Z</time>
      </trkpt>
      <trkpt lat="45.6371" lon="5.98595">
        <ele>1294.055905575</ele>
        <time>2015-12-16T13:40:27Z</time>
      </trkpt>
      <trkpt lat="45.63716" lon="5.98601">
        <ele>1294.055905575</ele>
        <time>2015-12-16T13:40:32Z</time>
      </trkpt>
      <trkpt lat="45.63721" lon="5.98604">
        <ele>1294.586824423</ele>
        <time>2015-12-16T13:40:36Z</time>
      </trkpt>
      <trkpt lat="45.63725" lon="5.98605">
        <ele>1294.586824423</ele>
        <time>2015-12-16T13:40:41Z</time>
      </trkpt>
      <trkpt lat="45.6373" lon="5.98606">
        <ele>1294.927120511</ele>
        <time>2015-12-16T13:40:46Z</time>
      </trkpt>
      <trkpt lat="45.63736" lon="5.98608">
        <ele>1294.927120511</ele>
        <time>2015-12-16T13:40:51Z</time>
      </trkpt>
      <trkpt lat="45.6374" lon="5.98608">
        <ele>1295.089131881</ele>
        <time>2015-12-16T13:40:56Z</time>
      </trkpt>
      <trkpt lat="45.63743" lon="5.98611">
        <ele>1295.089131881</ele>
        <time>2015-12-16T13:41:01Z</time>
      </trkpt>
      <trkpt lat="45.63743" lon="5.98611">
        <ele>1295.089131881</ele>
        <time>2015-12-16T13:41:06Z</time>
      </trkpt>
      <trkpt lat="45.63743" lon="5.98612">
        <ele>1295.089131881</ele>
        <time>2015-12-16T13:41:11Z</time>
      </trkpt>
      <trkpt lat="45.63743" lon="5.98612">
        <ele>1295.089131881</ele>
        <time>2015-12-16T13:41:16Z</time>
      </trkpt>
      <trkpt lat="45.63743" lon="5.98612">
        <ele>1295.089131881</ele>
        <time>2015-12-16T13:41:21Z</time>
      </trkpt>
      <trkpt lat="45.63743" lon="5.98612">
        <ele>1295.089131881</ele>
        <time>2015-12-16T13:41:26Z</time>
      </trkpt>
      <trkpt lat="45.63743" lon="5.98612">
        <ele>1295.089131881</ele>
        <time>2015-12-16T13:41:31Z</time>
      </trkpt>
      <trkpt lat="45.63743" lon="5.98612">
        <ele>1295.089131881</ele>
        <time>2015-12-16T13:41:36Z</time>
      </trkpt>
      <trkpt lat="45.63743" lon="5.98612">
        <ele>1295.089131881</ele>
        <time>2015-12-16T13:41:41Z</time>
      </trkpt>
      <trkpt lat="45.63743" lon="5.98612">
        <ele>1295.089131881</ele>
        <time>2015-12-16T13:41:46Z</time>
      </trkpt>
      <trkpt lat="45.63743" lon="5.98612">
        <ele>1295.089131881</ele>
        <time>2015-12-16T13:41:51Z</time>
      </trkpt>
      <trkpt lat="45.63743" lon="5.98612">
        <ele>1295.089131881</ele>
        <time>2015-12-16T13:41:56Z</time>
      </trkpt>
      <trkpt lat="45.63743" lon="5.98612">
        <ele>1295.089131881</ele>
        <time>2015-12-16T13:42:01Z</time>
      </trkpt>
      <trkpt lat="45.63743" lon="5.98612">
        <ele>1295.089131881</ele>
        <time>2015-12-16T13:42:06Z</time>
      </trkpt>
      <trkpt lat="45.63743" lon="5.98612">
        <ele>1295.089131881</ele>
        <time>2015-12-16T13:42:11Z</time>
      </trkpt>
      <trkpt lat="45.63743" lon="5.98612">
        <ele>1295.089131881</ele>
        <time>2015-12-16T13:42:16Z</time>
      </trkpt>
      <trkpt lat="45.63743" lon="5.98612">
        <ele>1295.089131881</ele>
        <time>2015-12-16T13:42:21Z</time>
      </trkpt>
      <trkpt lat="45.63743" lon="5.98612">
        <ele>1295.089131881</ele>
        <time>2015-12-16T13:42:26Z</time>
      </trkpt>
      <trkpt lat="45.63743" lon="5.98612">
        <ele>1295.089131881</ele>
        <time>2015-12-16T13:42:31Z</time>
      </trkpt>
      <trkpt lat="45.63743" lon="5.98612">
        <ele>1295.089131881</ele>
        <time>2015-12-16T13:42:36Z</time>
      </trkpt>
      <trkpt lat="45.63743" lon="5.98612">
        <ele>1295.089131881</ele>
        <time>2015-12-16T13:42:41Z</time>
      </trkpt>
      <trkpt lat="45.63743" lon="5.98612">
        <ele>1295.089131881</ele>
        <time>2015-12-16T13:42:51Z</time>
      </trkpt>
      <trkpt lat="45.63743" lon="5.98612">
        <ele>1295.089131881</ele>
        <time>2015-12-16T13:42:56Z</time>
      </trkpt>
      <trkpt lat="45.63743" lon="5.98612">
        <ele>1295.089131881</ele>
        <time>2015-12-16T13:43:06Z</time>
      </trkpt>
      <trkpt lat="45.63743" lon="5.98612">
        <ele>1295.089131881</ele>
        <time>2015-12-16T13:43:11Z</time>
      </trkpt>
      <trkpt lat="45.63743" lon="5.98611">
        <ele>1295.089131881</ele>
        <time>2015-12-16T13:43:26Z</time>
      </trkpt>
      <trkpt lat="45.63743" lon="5.98611">
        <ele>1295.089131881</ele>
        <time>2015-12-16T13:43:31Z</time>
      </trkpt>
      <trkpt lat="45.63743" lon="5.98611">
        <ele>1295.089131881</ele>
        <time>2015-12-16T13:43:41Z</time>
      </trkpt>
      <trkpt lat="45.63743" lon="5.98611">
        <ele>1295.089131881</ele>
        <time>2015-12-16T13:43:46Z</time>
      </trkpt>
      <trkpt lat="45.63743" lon="5.98611">
        <ele>1295.089131881</ele>
        <time>2015-12-16T13:43:56Z</time>
      </trkpt>
      <trkpt lat="45.63743" lon="5.98611">
        <ele>1295.089131881</ele>
        <time>2015-12-16T13:44:01Z</time>
      </trkpt>
      <trkpt lat="45.63743" lon="5.98611">
        <ele>1295.089131881</ele>
        <time>2015-12-16T13:44:11Z</time>
      </trkpt>
      <trkpt lat="45.63743" lon="5.98611">
        <ele>1295.089131881</ele>
        <time>2015-12-16T13:44:16Z</time>
      </trkpt>
      <trkpt lat="45.63743" lon="5.98611">
        <ele>1295.089131881</ele>
        <time>2015-12-16T13:44:26Z</time>
      </trkpt>
      <trkpt lat="45.63743" lon="5.98611">
        <ele>1295.089131881</ele>
        <time>2015-12-16T13:44:31Z</time>
      </trkpt>
      <trkpt lat="45.63742" lon="5.98616">
        <ele>1295.089131881</ele>
        <time>2015-12-16T13:44:41Z</time>
      </trkpt>
      <trkpt lat="45.63733" lon="5.98622">
        <ele>1295.373093769</ele>
        <time>2015-12-16T13:44:46Z</time>
      </trkpt>
      <trkpt lat="45.63723" lon="5.98633">
        <ele>1295.912812876</ele>
        <time>2015-12-16T13:44:56Z</time>
      </trkpt>
      <trkpt lat="45.63721" lon="5.98639">
        <ele>1295.912812876</ele>
        <time>2015-12-16T13:45:02Z</time>
      </trkpt>
      <trkpt lat="45.63713" lon="5.98649">
        <ele>1295.822848252</ele>
        <time>2015-12-16T13:45:11Z</time>
      </trkpt>
      <trkpt lat="45.63709" lon="5.98655">
        <ele>1295.822848252</ele>
        <time>2015-12-16T13:45:16Z</time>
      </trkpt>
      <trkpt lat="45.637" lon="5.98665">
        <ele>1296.158089776</ele>
        <time>2015-12-16T13:45:27Z</time>
      </trkpt>
      <trkpt lat="45.63696" lon="5.9867">
        <ele>1296.158089776</ele>
        <time>2015-12-16T13:45:32Z</time>
      </trkpt>
      <trkpt lat="45.63681" lon="5.98679">
        <ele>1296.16548135</ele>
        <time>2015-12-16T13:45:42Z</time>
      </trkpt>
      <trkpt lat="45.63677" lon="5.98681">
        <ele>1296.16548135</ele>
        <time>2015-12-16T13:45:47Z</time>
      </trkpt>
      <trkpt lat="45.63662" lon="5.98689">
        <ele>1295.724718709</ele>
        <time>2015-12-16T13:46:01Z</time>
      </trkpt>
      <trkpt lat="45.63658" lon="5.98691">
        <ele>1295.724718709</ele>
        <time>2015-12-16T13:46:06Z</time>
      </trkpt>
      <trkpt lat="45.63645" lon="5.98697">
        <ele>1295.013877286</ele>
        <time>2015-12-16T13:46:16Z</time>
      </trkpt>
      <trkpt lat="45.63639" lon="5.98699">
        <ele>1295.013877286</ele>
        <time>2015-12-16T13:46:22Z</time>
      </trkpt>
      <trkpt lat="45.63628" lon="5.98711">
        <ele>1294.054653114</ele>
        <time>2015-12-16T13:46:31Z</time>
      </trkpt>
      <trkpt lat="45.63623" lon="5.98716">
        <ele>1294.054653114</ele>
        <time>2015-12-16T13:46:36Z</time>
      </trkpt>
      <trkpt lat="45.63615" lon="5.98726">
        <ele>1292.579668337</ele>
        <time>2015-12-16T13:46:46Z</time>
      </trkpt>
      <trkpt lat="45.63609" lon="5.98731">
        <ele>1292.579668337</ele>
        <time>2015-12-16T13:46:51Z</time>
      </trkpt>
      <trkpt lat="45.63603" lon="5.98738">
        <ele>1291.063222863</ele>
        <time>2015-12-16T13:46:56Z</time>
      </trkpt>
      <trkpt lat="45.63597" lon="5.98745">
        <ele>1291.063222863</ele>
        <time>2015-12-16T13:47:01Z</time>
      </trkpt>
      <trkpt lat="45.63591" lon="5.98751">
        <ele>1289.800801069</ele>
        <time>2015-12-16T13:47:06Z</time>
      </trkpt>
      <trkpt lat="45.63584" lon="5.98756">
        <ele>1289.800801069</ele>
        <time>2015-12-16T13:47:11Z</time>
      </trkpt>
      <trkpt lat="45.63581" lon="5.98763">
        <ele>1288.777255067</ele>
        <time>2015-12-16T13:47:16Z</time>
      </trkpt>
      <trkpt lat="45.63576" lon="5.98779">
        <ele>1287.833766006</ele>
        <time>2015-12-16T13:47:26Z</time>
      </trkpt>
      <trkpt lat="45.63575" lon="5.98787">
        <ele>1287.833766006</ele>
        <time>2015-12-16T13:47:31Z</time>
      </trkpt>
      <trkpt lat="45.63575" lon="5.98808">
        <ele>1286.822945333</ele>
        <time>2015-12-16T13:47:44Z</time>
      </trkpt>
      <trkpt lat="45.63576" lon="5.9882">
        <ele>1286.822945333</ele>
        <time>2015-12-16T13:47:46Z</time>
      </trkpt>
      <trkpt lat="45.63576" lon="5.98841">
        <ele>1286.04073472</ele>
        <time>2015-12-16T13:47:57Z</time>
      </trkpt>
      <trkpt lat="45.63577" lon="5.98848">
        <ele>1286.04073472</ele>
        <time>2015-12-16T13:48:01Z</time>
      </trkpt>
      <trkpt lat="45.63579" lon="5.98869">
        <ele>1286.048893189</ele>
        <time>2015-12-16T13:48:11Z</time>
      </trkpt>
      <trkpt lat="45.63576" lon="5.9888">
        <ele>1286.048893189</ele>
        <time>2015-12-16T13:48:16Z</time>
      </trkpt>
      <trkpt lat="45.63573" lon="5.98899">
        <ele>1286.068668818</ele>
        <time>2015-12-16T13:48:27Z</time>
      </trkpt>
      <trkpt lat="45.6357" lon="5.98908">
        <ele>1286.068668818</ele>
        <time>2015-12-16T13:48:31Z</time>
      </trkpt>
      <trkpt lat="45.6356" lon="5.9893">
        <ele>1286.531346647</ele>
        <time>2015-12-16T13:48:46Z</time>
      </trkpt>
      <trkpt lat="45.63554" lon="5.98941">
        <ele>1286.682373842</ele>
        <time>2015-12-16T13:48:52Z</time>
      </trkpt>
      <trkpt lat="45.63544" lon="5.98958">
        <ele>1286.544035857</ele>
        <time>2015-12-16T13:49:01Z</time>
      </trkpt>
      <trkpt lat="45.63539" lon="5.98968">
        <ele>1286.544035857</ele>
        <time>2015-12-16T13:49:07Z</time>
      </trkpt>
      <trkpt lat="45.6353" lon="5.98983">
        <ele>1286.137774514</ele>
        <time>2015-12-16T13:49:17Z</time>
      </trkpt>
      <trkpt lat="45.63525" lon="5.98991">
        <ele>1286.137774514</ele>
        <time>2015-12-16T13:49:22Z</time>
      </trkpt>
      <trkpt lat="45.63521" lon="5.99008">
        <ele>1286.204747885</ele>
        <time>2015-12-16T13:49:32Z</time>
      </trkpt>
      <trkpt lat="45.63516" lon="5.99015">
        <ele>1286.204747885</ele>
        <time>2015-12-16T13:49:37Z</time>
      </trkpt>
      <trkpt lat="45.63507" lon="5.99034">
        <ele>1286.277437224</ele>
        <time>2015-12-16T13:49:47Z</time>
      </trkpt>
      <trkpt lat="45.63505" lon="5.99039">
        <ele>1286.277437224</ele>
        <time>2015-12-16T13:49:51Z</time>
      </trkpt>
      <trkpt lat="45.63497" lon="5.99058">
        <ele>1286.354971233</ele>
        <time>2015-12-16T13:50:02Z</time>
      </trkpt>
      <trkpt lat="45.63497" lon="5.99067">
        <ele>1286.354971233</ele>
        <time>2015-12-16T13:50:06Z</time>
      </trkpt>
      <trkpt lat="45.63494" lon="5.99076">
        <ele>1286.436517127</ele>
        <time>2015-12-16T13:50:11Z</time>
      </trkpt>
      <trkpt lat="45.63491" lon="5.99094">
        <ele>1286.088948232</ele>
        <time>2015-12-16T13:50:21Z</time>
      </trkpt>
      <trkpt lat="45.63491" lon="5.99106">
        <ele>1286.088948232</ele>
        <time>2015-12-16T13:50:27Z</time>
      </trkpt>
      <trkpt lat="45.63489" lon="5.99121">
        <ele>1285.488593771</ele>
        <time>2015-12-16T13:50:39Z</time>
      </trkpt>
      <trkpt lat="45.63487" lon="5.99126">
        <ele>1285.488593771</ele>
        <time>2015-12-16T13:50:41Z</time>
      </trkpt>
      <trkpt lat="45.63483" lon="5.99162">
        <ele>1284.078971325</ele>
        <time>2015-12-16T13:50:57Z</time>
      </trkpt>
      <trkpt lat="45.63482" lon="5.9917">
        <ele>1284.078971325</ele>
        <time>2015-12-16T13:51:01Z</time>
      </trkpt>
      <trkpt lat="45.63477" lon="5.99184">
        <ele>1282.499620342</ele>
        <time>2015-12-16T13:51:11Z</time>
      </trkpt>
      <trkpt lat="45.63473" lon="5.99197">
        <ele>1280.911218893</ele>
        <time>2015-12-16T13:51:17Z</time>
      </trkpt>
      <trkpt lat="45.6347" lon="5.99219">
        <ele>1279.030300342</ele>
        <time>2015-12-16T13:51:34Z</time>
      </trkpt>
      <trkpt lat="45.63466" lon="5.99229">
        <ele>1279.030300342</ele>
        <time>2015-12-16T13:51:37Z</time>
      </trkpt>
      <trkpt lat="45.63463" lon="5.99249">
        <ele>1277.027331469</ele>
        <time>2015-12-16T13:51:47Z</time>
      </trkpt>
      <trkpt lat="45.63461" lon="5.99263">
        <ele>1275.204655796</ele>
        <time>2015-12-16T13:51:51Z</time>
      </trkpt>
      <trkpt lat="45.63459" lon="5.99284">
        <ele>1273.697725964</ele>
        <time>2015-12-16T13:52:01Z</time>
      </trkpt>
      <trkpt lat="45.6346" lon="5.99295">
        <ele>1273.697725964</ele>
        <time>2015-12-16T13:52:06Z</time>
      </trkpt>
      <trkpt lat="45.63458" lon="5.99313">
        <ele>1272.342864087</ele>
        <time>2015-12-16T13:52:16Z</time>
      </trkpt>
      <trkpt lat="45.63459" lon="5.99322">
        <ele>1272.342864087</ele>
        <time>2015-12-16T13:52:21Z</time>
      </trkpt>
      <trkpt lat="45.6346" lon="5.99337">
        <ele>1270.843799475</ele>
        <time>2015-12-16T13:52:32Z</time>
      </trkpt>
      <trkpt lat="45.63463" lon="5.99347">
        <ele>1270.843799475</ele>
        <time>2015-12-16T13:52:37Z</time>
      </trkpt>
      <trkpt lat="45.6347" lon="5.99365">
        <ele>1269.214568392</ele>
        <time>2015-12-16T13:52:47Z</time>
      </trkpt>
      <trkpt lat="45.63473" lon="5.99376">
        <ele>1269.214568392</ele>
        <time>2015-12-16T13:52:51Z</time>
      </trkpt>
      <trkpt lat="45.63475" lon="5.99393">
        <ele>1267.180230193</ele>
        <time>2015-12-16T13:53:01Z</time>
      </trkpt>
      <trkpt lat="45.63478" lon="5.99399">
        <ele>1267.180230193</ele>
        <time>2015-12-16T13:53:06Z</time>
      </trkpt>
      <trkpt lat="45.63482" lon="5.9941">
        <ele>1265.063528421</ele>
        <time>2015-12-16T13:53:11Z</time>
      </trkpt>
      <trkpt lat="45.63486" lon="5.99429">
        <ele>1262.58718397</ele>
        <time>2015-12-16T13:53:21Z</time>
      </trkpt>
      <trkpt lat="45.6349" lon="5.99439">
        <ele>1262.58718397</ele>
        <time>2015-12-16T13:53:26Z</time>
      </trkpt>
      <trkpt lat="45.63495" lon="5.99457">
        <ele>1260.359854911</ele>
        <time>2015-12-16T13:53:36Z</time>
      </trkpt>
      <trkpt lat="45.63498" lon="5.99465">
        <ele>1260.359854911</ele>
        <time>2015-12-16T13:53:42Z</time>
      </trkpt>
      <trkpt lat="45.63505" lon="5.99476">
        <ele>1258.51234151</ele>
        <time>2015-12-16T13:53:52Z</time>
      </trkpt>
      <trkpt lat="45.63508" lon="5.99485">
        <ele>1258.51234151</ele>
        <time>2015-12-16T13:53:57Z</time>
      </trkpt>
      <trkpt lat="45.63515" lon="5.99501">
        <ele>1256.299982767</ele>
        <time>2015-12-16T13:54:08Z</time>
      </trkpt>
      <trkpt lat="45.6352" lon="5.99508">
        <ele>1256.299982767</ele>
        <time>2015-12-16T13:54:11Z</time>
      </trkpt>
      <trkpt lat="45.63529" lon="5.99533">
        <ele>1253.466050642</ele>
        <time>2015-12-16T13:54:26Z</time>
      </trkpt>
      <trkpt lat="45.63531" lon="5.99537">
        <ele>1253.466050642</ele>
        <time>2015-12-16T13:54:31Z</time>
      </trkpt>
      <trkpt lat="45.63535" lon="5.99559">
        <ele>1251.071288975</ele>
        <time>2015-12-16T13:54:42Z</time>
      </trkpt>
      <trkpt lat="45.63536" lon="5.9958">
        <ele>1249.088374003</ele>
        <time>2015-12-16T13:54:52Z</time>
      </trkpt>
      <trkpt lat="45.63537" lon="5.99589">
        <ele>1249.088374003</ele>
        <time>2015-12-16T13:54:56Z</time>
      </trkpt>
      <trkpt lat="45.63542" lon="5.99596">
        <ele>1246.914249038</ele>
        <time>2015-12-16T13:55:02Z</time>
      </trkpt>
      <trkpt lat="45.63546" lon="5.99612">
        <ele>1244.855218184</ele>
        <time>2015-12-16T13:55:12Z</time>
      </trkpt>
      <trkpt lat="45.63543" lon="5.99624">
        <ele>1244.855218184</ele>
        <time>2015-12-16T13:55:16Z</time>
      </trkpt>
      <trkpt lat="45.63529" lon="5.99622">
        <ele>1242.329950256</ele>
        <time>2015-12-16T13:55:26Z</time>
      </trkpt>
      <trkpt lat="45.63522" lon="5.99615">
        <ele>1242.329950256</ele>
        <time>2015-12-16T13:55:33Z</time>
      </trkpt>
      <trkpt lat="45.63509" lon="5.99604">
        <ele>1239.953870001</ele>
        <time>2015-12-16T13:55:41Z</time>
      </trkpt>
      <trkpt lat="45.63501" lon="5.99605">
        <ele>1239.953870001</ele>
        <time>2015-12-16T13:55:47Z</time>
      </trkpt>
      <trkpt lat="45.63482" lon="5.99626">
        <ele>1237.864294983</ele>
        <time>2015-12-16T13:56:02Z</time>
      </trkpt>
      <trkpt lat="45.63477" lon="5.99632">
        <ele>1237.864294983</ele>
        <time>2015-12-16T13:56:06Z</time>
      </trkpt>
      <trkpt lat="45.63467" lon="5.99642">
        <ele>1235.611059958</ele>
        <time>2015-12-16T13:56:17Z</time>
      </trkpt>
      <trkpt lat="45.6346" lon="5.99647">
        <ele>1235.611059958</ele>
        <time>2015-12-16T13:56:22Z</time>
      </trkpt>
      <trkpt lat="45.63448" lon="5.99652">
        <ele>1233.497936438</ele>
        <time>2015-12-16T13:56:31Z</time>
      </trkpt>
      <trkpt lat="45.6344" lon="5.99654">
        <ele>1233.497936438</ele>
        <time>2015-12-16T13:56:36Z</time>
      </trkpt>
      <trkpt lat="45.63428" lon="5.99649">
        <ele>1231.517619959</ele>
        <time>2015-12-16T13:56:47Z</time>
      </trkpt>
      <trkpt lat="45.63423" lon="5.99646">
        <ele>1231.517619959</ele>
        <time>2015-12-16T13:56:51Z</time>
      </trkpt>
      <trkpt lat="45.63409" lon="5.99636">
        <ele>1229.951049654</ele>
        <time>2015-12-16T13:57:02Z</time>
      </trkpt>
      <trkpt lat="45.63402" lon="5.99634">
        <ele>1229.951049654</ele>
        <time>2015-12-16T13:57:06Z</time>
      </trkpt>
      <trkpt lat="45.63395" lon="5.99621">
        <ele>1227.616114636</ele>
        <time>2015-12-16T13:57:16Z</time>
      </trkpt>
      <trkpt lat="45.63389" lon="5.9961">
        <ele>1225.581227843</ele>
        <time>2015-12-16T13:57:22Z</time>
      </trkpt>
      <trkpt lat="45.63379" lon="5.99591">
        <ele>1223.682453754</ele>
        <time>2015-12-16T13:57:31Z</time>
      </trkpt>
      <trkpt lat="45.63374" lon="5.99583">
        <ele>1223.682453754</ele>
        <time>2015-12-16T13:57:36Z</time>
      </trkpt>
      <trkpt lat="45.63358" lon="5.99563">
        <ele>1221.767389017</ele>
        <time>2015-12-16T13:57:52Z</time>
      </trkpt>
      <trkpt lat="45.63356" lon="5.99559">
        <ele>1221.767389017</ele>
        <time>2015-12-16T13:57:56Z</time>
      </trkpt>
      <trkpt lat="45.63347" lon="5.99552">
        <ele>1219.40652346</ele>
        <time>2015-12-16T13:58:07Z</time>
      </trkpt>
      <trkpt lat="45.63337" lon="5.99548">
        <ele>1216.923582207</ele>
        <time>2015-12-16T13:58:11Z</time>
      </trkpt>
      <trkpt lat="45.63321" lon="5.99535">
        <ele>1214.186397696</ele>
        <time>2015-12-16T13:58:22Z</time>
      </trkpt>
      <trkpt lat="45.63314" lon="5.9953">
        <ele>1214.186397696</ele>
        <time>2015-12-16T13:58:26Z</time>
      </trkpt>
      <trkpt lat="45.63303" lon="5.99528">
        <ele>1212.225994692</ele>
        <time>2015-12-16T13:58:36Z</time>
      </trkpt>
      <trkpt lat="45.63296" lon="5.99525">
        <ele>1212.225994692</ele>
        <time>2015-12-16T13:58:42Z</time>
      </trkpt>
      <trkpt lat="45.63279" lon="5.9952">
        <ele>1210.2660289</ele>
        <time>2015-12-16T13:58:52Z</time>
      </trkpt>
      <trkpt lat="45.63267" lon="5.99519">
        <ele>1208.884071458</ele>
        <time>2015-12-16T13:58:56Z</time>
      </trkpt>
      <trkpt lat="45.63259" lon="5.99517">
        <ele>1208.884071458</ele>
        <time>2015-12-16T13:59:06Z</time>
      </trkpt>
      <trkpt lat="45.6325" lon="5.99513">
        <ele>1207.892981079</ele>
        <time>2015-12-16T13:59:11Z</time>
      </trkpt>
      <trkpt lat="45.63232" lon="5.99511">
        <ele>1207.118169726</ele>
        <time>2015-12-16T13:59:22Z</time>
      </trkpt>
      <trkpt lat="45.63225" lon="5.99511">
        <ele>1207.118169726</ele>
        <time>2015-12-16T13:59:26Z</time>
      </trkpt>
      <trkpt lat="45.63214" lon="5.99504">
        <ele>1206.397181672</ele>
        <time>2015-12-16T13:59:36Z</time>
      </trkpt>
      <trkpt lat="45.63205" lon="5.995">
        <ele>1205.579270741</ele>
        <time>2015-12-16T13:59:43Z</time>
      </trkpt>
      <trkpt lat="45.63193" lon="5.99493">
        <ele>1206.974869637</ele>
        <time>2015-12-16T13:59:52Z</time>
      </trkpt>
      <trkpt lat="45.63187" lon="5.99492">
        <ele>1206.974869637</ele>
        <time>2015-12-16T13:59:57Z</time>
      </trkpt>
      <trkpt lat="45.63181" lon="5.99484">
        <ele>1207.098103052</ele>
        <time>2015-12-16T14:00:01Z</time>
      </trkpt>
      <trkpt lat="45.63166" lon="5.99476">
        <ele>1207.190159769</ele>
        <time>2015-12-16T14:00:11Z</time>
      </trkpt>
      <trkpt lat="45.6316" lon="5.99473">
        <ele>1207.190159769</ele>
        <time>2015-12-16T14:00:16Z</time>
      </trkpt>
      <trkpt lat="45.63146" lon="5.99461">
        <ele>1206.527689237</ele>
        <time>2015-12-16T14:00:27Z</time>
      </trkpt>
      <trkpt lat="45.63144" lon="5.99457">
        <ele>1206.527689237</ele>
        <time>2015-12-16T14:00:31Z</time>
      </trkpt>
      <trkpt lat="45.63139" lon="5.99442">
        <ele>1205.307271127</ele>
        <time>2015-12-16T14:00:41Z</time>
      </trkpt>
      <trkpt lat="45.63139" lon="5.99436">
        <ele>1205.307271127</ele>
        <time>2015-12-16T14:00:46Z</time>
      </trkpt>
      <trkpt lat="45.6313" lon="5.99422">
        <ele>1203.280293506</ele>
        <time>2015-12-16T14:00:56Z</time>
      </trkpt>
      <trkpt lat="45.63128" lon="5.99412">
        <ele>1203.280293506</ele>
        <time>2015-12-16T14:01:01Z</time>
      </trkpt>
      <trkpt lat="45.63115" lon="5.99399">
        <ele>1201.948025743</ele>
        <time>2015-12-16T14:01:12Z</time>
      </trkpt>
      <trkpt lat="45.63107" lon="5.99394">
        <ele>1200.681972727</ele>
        <time>2015-12-16T14:01:16Z</time>
      </trkpt>
      <trkpt lat="45.63096" lon="5.9939">
        <ele>1199.620202041</ele>
        <time>2015-12-16T14:01:26Z</time>
      </trkpt>
      <trkpt lat="45.63087" lon="5.9939">
        <ele>1199.620202041</ele>
        <time>2015-12-16T14:01:31Z</time>
      </trkpt>
      <trkpt lat="45.63066" lon="5.99389">
        <ele>1198.601868525</ele>
        <time>2015-12-16T14:01:46Z</time>
      </trkpt>
      <trkpt lat="45.63057" lon="5.99387">
        <ele>1198.601868525</ele>
        <time>2015-12-16T14:01:51Z</time>
      </trkpt>
      <trkpt lat="45.63041" lon="5.99391">
        <ele>1197.766071116</ele>
        <time>2015-12-16T14:02:01Z</time>
      </trkpt>
      <trkpt lat="45.6302" lon="5.994">
        <ele>1196.952987801</ele>
        <time>2015-12-16T14:02:17Z</time>
      </trkpt>
      <trkpt lat="45.63014" lon="5.99402">
        <ele>1196.952987801</ele>
        <time>2015-12-16T14:02:21Z</time>
      </trkpt>
      <trkpt lat="45.63003" lon="5.9941">
        <ele>1195.87039718</ele>
        <time>2015-12-16T14:02:32Z</time>
      </trkpt>
      <trkpt lat="45.62998" lon="5.99416">
        <ele>1195.87039718</ele>
        <time>2015-12-16T14:02:36Z</time>
      </trkpt>
      <trkpt lat="45.62987" lon="5.99422">
        <ele>1194.680671914</ele>
        <time>2015-12-16T14:02:46Z</time>
      </trkpt>
      <trkpt lat="45.62988" lon="5.99418">
        <ele>1194.680671914</ele>
        <time>2015-12-16T14:02:51Z</time>
      </trkpt>
      <trkpt lat="45.62979" lon="5.9942">
        <ele>1193.246375044</ele>
        <time>2015-12-16T14:03:01Z</time>
      </trkpt>
      <trkpt lat="45.62972" lon="5.99419">
        <ele>1193.246375044</ele>
        <time>2015-12-16T14:03:06Z</time>
      </trkpt>
      <trkpt lat="45.62958" lon="5.99418">
        <ele>1192.16144869</ele>
        <time>2015-12-16T14:03:16Z</time>
      </trkpt>
      <trkpt lat="45.62951" lon="5.99419">
        <ele>1192.16144869</ele>
        <time>2015-12-16T14:03:21Z</time>
      </trkpt>
      <trkpt lat="45.62935" lon="5.99422">
        <ele>1191.110598748</ele>
        <time>2015-12-16T14:03:31Z</time>
      </trkpt>
      <trkpt lat="45.62928" lon="5.99426">
        <ele>1191.110598748</ele>
        <time>2015-12-16T14:03:36Z</time>
      </trkpt>
      <trkpt lat="45.62906" lon="5.99431">
        <ele>1190.089861085</ele>
        <time>2015-12-16T14:03:51Z</time>
      </trkpt>
      <trkpt lat="45.62889" lon="5.99443">
        <ele>1188.230852479</ele>
        <time>2015-12-16T14:04:06Z</time>
      </trkpt>
      <trkpt lat="45.62882" lon="5.99445">
        <ele>1188.230852479</ele>
        <time>2015-12-16T14:04:11Z</time>
      </trkpt>
      <trkpt lat="45.62869" lon="5.99447">
        <ele>1186.316594832</ele>
        <time>2015-12-16T14:04:21Z</time>
      </trkpt>
      <trkpt lat="45.6286" lon="5.99446">
        <ele>1185.216893936</ele>
        <time>2015-12-16T14:04:27Z</time>
      </trkpt>
      <trkpt lat="45.62846" lon="5.99441">
        <ele>1183.861965214</ele>
        <time>2015-12-16T14:04:37Z</time>
      </trkpt>
      <trkpt lat="45.6284" lon="5.99441">
        <ele>1183.861965214</ele>
        <time>2015-12-16T14:04:41Z</time>
      </trkpt>
      <trkpt lat="45.62826" lon="5.99438">
        <ele>1182.5583591</ele>
        <time>2015-12-16T14:04:52Z</time>
      </trkpt>
      <trkpt lat="45.62815" lon="5.99436">
        <ele>1181.445883669</ele>
        <time>2015-12-16T14:04:57Z</time>
      </trkpt>
      <trkpt lat="45.62801" lon="5.99436">
        <ele>1180.365350067</ele>
        <time>2015-12-16T14:05:07Z</time>
      </trkpt>
      <trkpt lat="45.62796" lon="5.99434">
        <ele>1180.365350067</ele>
        <time>2015-12-16T14:05:11Z</time>
      </trkpt>
      <trkpt lat="45.62779" lon="5.99429">
        <ele>1179.02509404</ele>
        <time>2015-12-16T14:05:27Z</time>
      </trkpt>
      <trkpt lat="45.62771" lon="5.99427">
        <ele>1179.02509404</ele>
        <time>2015-12-16T14:05:31Z</time>
      </trkpt>
      <trkpt lat="45.62759" lon="5.99424">
        <ele>1177.01152428</ele>
        <time>2015-12-16T14:05:42Z</time>
      </trkpt>
      <trkpt lat="45.62752" lon="5.99421">
        <ele>1177.01152428</ele>
        <time>2015-12-16T14:05:46Z</time>
      </trkpt>
      <trkpt lat="45.62736" lon="5.99417">
        <ele>1176.105017435</ele>
        <time>2015-12-16T14:05:56Z</time>
      </trkpt>
      <trkpt lat="45.62728" lon="5.99417">
        <ele>1176.105017435</ele>
        <time>2015-12-16T14:06:02Z</time>
      </trkpt>
      <trkpt lat="45.62704" lon="5.9942">
        <ele>1175.790421055</ele>
        <time>2015-12-16T14:06:12Z</time>
      </trkpt>
      <trkpt lat="45.627" lon="5.99422">
        <ele>1175.790421055</ele>
        <time>2015-12-16T14:06:17Z</time>
      </trkpt>
      <trkpt lat="45.62694" lon="5.99415">
        <ele>1174.003570368</ele>
        <time>2015-12-16T14:06:27Z</time>
      </trkpt>
      <trkpt lat="45.62687" lon="5.99411">
        <ele>1174.003570368</ele>
        <time>2015-12-16T14:06:32Z</time>
      </trkpt>
      <trkpt lat="45.62665" lon="5.99417">
        <ele>1172.150647253</ele>
        <time>2015-12-16T14:06:47Z</time>
      </trkpt>
      <trkpt lat="45.62657" lon="5.99424">
        <ele>1170.958304224</ele>
        <time>2015-12-16T14:06:51Z</time>
      </trkpt>
      <trkpt lat="45.62643" lon="5.99419">
        <ele>1169.656875016</ele>
        <time>2015-12-16T14:07:01Z</time>
      </trkpt>
      <trkpt lat="45.62635" lon="5.99419">
        <ele>1169.656875016</ele>
        <time>2015-12-16T14:07:07Z</time>
      </trkpt>
      <trkpt lat="45.62625" lon="5.99415">
        <ele>1168.110005696</ele>
        <time>2015-12-16T14:07:16Z</time>
      </trkpt>
      <trkpt lat="45.62618" lon="5.99415">
        <ele>1168.110005696</ele>
        <time>2015-12-16T14:07:23Z</time>
      </trkpt>
      <trkpt lat="45.62601" lon="5.99413">
        <ele>1166.336178304</ele>
        <time>2015-12-16T14:07:32Z</time>
      </trkpt>
      <trkpt lat="45.62597" lon="5.99412">
        <ele>1166.336178304</ele>
        <time>2015-12-16T14:07:37Z</time>
      </trkpt>
      <trkpt lat="45.6258" lon="5.99409">
        <ele>1164.209059294</ele>
        <time>2015-12-16T14:07:46Z</time>
      </trkpt>
      <trkpt lat="45.62571" lon="5.99408">
        <ele>1162.765489093</ele>
        <time>2015-12-16T14:07:51Z</time>
      </trkpt>
      <trkpt lat="45.62563" lon="5.99405">
        <ele>1162.765489093</ele>
        <time>2015-12-16T14:07:56Z</time>
      </trkpt>
      <trkpt lat="45.62556" lon="5.99403">
        <ele>1161.234900103</ele>
        <time>2015-12-16T14:08:01Z</time>
      </trkpt>
      <trkpt lat="45.62549" lon="5.99402">
        <ele>1161.234900103</ele>
        <time>2015-12-16T14:08:06Z</time>
      </trkpt>
      <trkpt lat="45.62542" lon="5.99406">
        <ele>1159.912358639</ele>
        <time>2015-12-16T14:08:11Z</time>
      </trkpt>
      <trkpt lat="45.62536" lon="5.9941">
        <ele>1159.912358639</ele>
        <time>2015-12-16T14:08:16Z</time>
      </trkpt>
      <trkpt lat="45.6253" lon="5.99416">
        <ele>1158.638342926</ele>
        <time>2015-12-16T14:08:21Z</time>
      </trkpt>
      <trkpt lat="45.62525" lon="5.99423">
        <ele>1158.638342926</ele>
        <time>2015-12-16T14:08:26Z</time>
      </trkpt>
      <trkpt lat="45.62521" lon="5.99427">
        <ele>1157.264917318</ele>
        <time>2015-12-16T14:08:31Z</time>
      </trkpt>
      <trkpt lat="45.62515" lon="5.99435">
        <ele>1157.264917318</ele>
        <time>2015-12-16T14:08:36Z</time>
      </trkpt>
      <trkpt lat="45.62512" lon="5.9944">
        <ele>1155.36707269</ele>
        <time>2015-12-16T14:08:41Z</time>
      </trkpt>
      <trkpt lat="45.62499" lon="5.99448">
        <ele>1153.993605655</ele>
        <time>2015-12-16T14:08:51Z</time>
      </trkpt>
      <trkpt lat="45.62491" lon="5.9945">
        <ele>1153.993605655</ele>
        <time>2015-12-16T14:08:57Z</time>
      </trkpt>
      <trkpt lat="45.62478" lon="5.99455">
        <ele>1151.80901857</ele>
        <time>2015-12-16T14:09:06Z</time>
      </trkpt>
      <trkpt lat="45.62469" lon="5.99456">
        <ele>1149.739857645</ele>
        <time>2015-12-16T14:09:11Z</time>
      </trkpt>
      <trkpt lat="45.62454" lon="5.99458">
        <ele>1148.067829543</ele>
        <time>2015-12-16T14:09:22Z</time>
      </trkpt>
      <trkpt lat="45.62448" lon="5.99458">
        <ele>1148.067829543</ele>
        <time>2015-12-16T14:09:26Z</time>
      </trkpt>
      <trkpt lat="45.62428" lon="5.99452">
        <ele>1145.467597437</ele>
        <time>2015-12-16T14:09:42Z</time>
      </trkpt>
      <trkpt lat="45.62424" lon="5.99453">
        <ele>1145.467597437</ele>
        <time>2015-12-16T14:09:47Z</time>
      </trkpt>
      <trkpt lat="45.62404" lon="5.9945">
        <ele>1144.028327197</ele>
        <time>2015-12-16T14:09:56Z</time>
      </trkpt>
      <trkpt lat="45.62399" lon="5.99449">
        <ele>1144.028327197</ele>
        <time>2015-12-16T14:10:01Z</time>
      </trkpt>
      <trkpt lat="45.62383" lon="5.99452">
        <ele>1142.367882302</ele>
        <time>2015-12-16T14:10:12Z</time>
      </trkpt>
      <trkpt lat="45.62376" lon="5.99452">
        <ele>1142.367882302</ele>
        <time>2015-12-16T14:10:16Z</time>
      </trkpt>
      <trkpt lat="45.62363" lon="5.99462">
        <ele>1139.926810035</ele>
        <time>2015-12-16T14:10:26Z</time>
      </trkpt>
      <trkpt lat="45.62358" lon="5.99463">
        <ele>1139.926810035</ele>
        <time>2015-12-16T14:10:31Z</time>
      </trkpt>
      <trkpt lat="45.62347" lon="5.9947">
        <ele>1136.90947233</ele>
        <time>2015-12-16T14:10:41Z</time>
      </trkpt>
      <trkpt lat="45.62339" lon="5.99473">
        <ele>1136.90947233</ele>
        <time>2015-12-16T14:10:46Z</time>
      </trkpt>
      <trkpt lat="45.62327" lon="5.9948">
        <ele>1133.939135347</ele>
        <time>2015-12-16T14:10:57Z</time>
      </trkpt>
      <trkpt lat="45.6232" lon="5.99482">
        <ele>1133.939135347</ele>
        <time>2015-12-16T14:11:01Z</time>
      </trkpt>
      <trkpt lat="45.62306" lon="5.99486">
        <ele>1131.160774011</ele>
        <time>2015-12-16T14:11:11Z</time>
      </trkpt>
      <trkpt lat="45.62299" lon="5.99488">
        <ele>1131.160774011</ele>
        <time>2015-12-16T14:11:17Z</time>
      </trkpt>
      <trkpt lat="45.62274" lon="5.99495">
        <ele>1129.140459913</ele>
        <time>2015-12-16T14:11:32Z</time>
      </trkpt>
      <trkpt lat="45.62266" lon="5.99497">
        <ele>1129.140459913</ele>
        <time>2015-12-16T14:11:37Z</time>
      </trkpt>
      <trkpt lat="45.62254" lon="5.99504">
        <ele>1126.959388399</ele>
        <time>2015-12-16T14:11:46Z</time>
      </trkpt>
      <trkpt lat="45.62248" lon="5.9951">
        <ele>1126.959388399</ele>
        <time>2015-12-16T14:11:51Z</time>
      </trkpt>
      <trkpt lat="45.62243" lon="5.99524">
        <ele>1124.487197408</ele>
        <time>2015-12-16T14:12:01Z</time>
      </trkpt>
      <trkpt lat="45.62242" lon="5.9953">
        <ele>1124.487197408</ele>
        <time>2015-12-16T14:12:07Z</time>
      </trkpt>
      <trkpt lat="45.62237" lon="5.99543">
        <ele>1121.603855343</ele>
        <time>2015-12-16T14:12:18Z</time>
      </trkpt>
      <trkpt lat="45.62233" lon="5.99549">
        <ele>1121.603855343</ele>
        <time>2015-12-16T14:12:21Z</time>
      </trkpt>
      <trkpt lat="45.62224" lon="5.99573">
        <ele>1119.063903065</ele>
        <time>2015-12-16T14:12:32Z</time>
      </trkpt>
      <trkpt lat="45.62219" lon="5.9958">
        <ele>1119.063903065</ele>
        <time>2015-12-16T14:12:37Z</time>
      </trkpt>
      <trkpt lat="45.62211" lon="5.99596">
        <ele>1116.556642871</ele>
        <time>2015-12-16T14:12:47Z</time>
      </trkpt>
      <trkpt lat="45.62204" lon="5.99599">
        <ele>1116.556642871</ele>
        <time>2015-12-16T14:12:51Z</time>
      </trkpt>
      <trkpt lat="45.62189" lon="5.99601">
        <ele>1113.794036055</ele>
        <time>2015-12-16T14:13:01Z</time>
      </trkpt>
      <trkpt lat="45.62181" lon="5.99603">
        <ele>1113.794036055</ele>
        <time>2015-12-16T14:13:06Z</time>
      </trkpt>
      <trkpt lat="45.62177" lon="5.99601">
        <ele>1111.51862182</ele>
        <time>2015-12-16T14:13:11Z</time>
      </trkpt>
      <trkpt lat="45.62167" lon="5.99608">
        <ele>1109.552282281</ele>
        <time>2015-12-16T14:13:16Z</time>
      </trkpt>
      <trkpt lat="45.6215" lon="5.99614">
        <ele>1107.729040457</ele>
        <time>2015-12-16T14:13:27Z</time>
      </trkpt>
      <trkpt lat="45.62146" lon="5.99613">
        <ele>1107.729040457</ele>
        <time>2015-12-16T14:13:32Z</time>
      </trkpt>
      <trkpt lat="45.62131" lon="5.99615">
        <ele>1106.182858866</ele>
        <time>2015-12-16T14:13:41Z</time>
      </trkpt>
      <trkpt lat="45.62125" lon="5.99616">
        <ele>1106.182858866</ele>
        <time>2015-12-16T14:13:46Z</time>
      </trkpt>
      <trkpt lat="45.62111" lon="5.99618">
        <ele>1105.037013206</ele>
        <time>2015-12-16T14:13:57Z</time>
      </trkpt>
      <trkpt lat="45.62101" lon="5.9962">
        <ele>1103.828093617</ele>
        <time>2015-12-16T14:14:02Z</time>
      </trkpt>
      <trkpt lat="45.62092" lon="5.99619">
        <ele>1102.559188183</ele>
        <time>2015-12-16T14:14:11Z</time>
      </trkpt>
      <trkpt lat="45.62082" lon="5.9962">
        <ele>1101.521503146</ele>
        <time>2015-12-16T14:14:17Z</time>
      </trkpt>
      <trkpt lat="45.62068" lon="5.99618">
        <ele>1100.407722646</ele>
        <time>2015-12-16T14:14:26Z</time>
      </trkpt>
      <trkpt lat="45.62058" lon="5.99618">
        <ele>1099.509735886</ele>
        <time>2015-12-16T14:14:32Z</time>
      </trkpt>
      <trkpt lat="45.62041" lon="5.99619">
        <ele>1098.520920147</ele>
        <time>2015-12-16T14:14:48Z</time>
      </trkpt>
      <trkpt lat="45.62019" lon="5.9962">
        <ele>1097.87797671</ele>
        <time>2015-12-16T14:15:04Z</time>
      </trkpt>
      <trkpt lat="45.62013" lon="5.99616">
        <ele>1097.87797671</ele>
        <time>2015-12-16T14:15:07Z</time>
      </trkpt>
      <trkpt lat="45.61998" lon="5.99607">
        <ele>1097.119887496</ele>
        <time>2015-12-16T14:15:17Z</time>
      </trkpt>
      <trkpt lat="45.6199" lon="5.996">
        <ele>1096.68449755</ele>
        <time>2015-12-16T14:15:21Z</time>
      </trkpt>
      <trkpt lat="45.61971" lon="5.99589">
        <ele>1096.832488942</ele>
        <time>2015-12-16T14:15:32Z</time>
      </trkpt>
      <trkpt lat="45.61965" lon="5.99587">
        <ele>1096.832488942</ele>
        <time>2015-12-16T14:15:36Z</time>
      </trkpt>
      <trkpt lat="45.61956" lon="5.99584">
        <ele>1096.939119023</ele>
        <time>2015-12-16T14:15:47Z</time>
      </trkpt>
      <trkpt lat="45.6195" lon="5.99583">
        <ele>1096.939119023</ele>
        <time>2015-12-16T14:15:52Z</time>
      </trkpt>
      <trkpt lat="45.61933" lon="5.99585">
        <ele>1096.858027745</ele>
        <time>2015-12-16T14:16:02Z</time>
      </trkpt>
      <trkpt lat="45.61926" lon="5.99587">
        <ele>1096.858027745</ele>
        <time>2015-12-16T14:16:06Z</time>
      </trkpt>
      <trkpt lat="45.61917" lon="5.99592">
        <ele>1096.021849961</ele>
        <time>2015-12-16T14:16:16Z</time>
      </trkpt>
      <trkpt lat="45.61911" lon="5.99595">
        <ele>1096.021849961</ele>
        <time>2015-12-16T14:16:21Z</time>
      </trkpt>
      <trkpt lat="45.61889" lon="5.99602">
        <ele>1094.7717424</ele>
        <time>2015-12-16T14:16:36Z</time>
      </trkpt>
      <trkpt lat="45.61881" lon="5.99608">
        <ele>1093.713247531</ele>
        <time>2015-12-16T14:16:41Z</time>
      </trkpt>
      <trkpt lat="45.61867" lon="5.9961">
        <ele>1092.830508661</ele>
        <time>2015-12-16T14:16:51Z</time>
      </trkpt>
      <trkpt lat="45.61857" lon="5.99615">
        <ele>1092.10840781</ele>
        <time>2015-12-16T14:16:56Z</time>
      </trkpt>
      <trkpt lat="45.61845" lon="5.99609">
        <ele>1090.091441157</ele>
        <time>2015-12-16T14:17:06Z</time>
      </trkpt>
      <trkpt lat="45.61827" lon="5.99606">
        <ele>1087.884611277</ele>
        <time>2015-12-16T14:17:21Z</time>
      </trkpt>
      <trkpt lat="45.61822" lon="5.99607">
        <ele>1087.884611277</ele>
        <time>2015-12-16T14:17:27Z</time>
      </trkpt>
      <trkpt lat="45.61815" lon="5.99615">
        <ele>1085.503561028</ele>
        <time>2015-12-16T14:17:37Z</time>
      </trkpt>
      <trkpt lat="45.61814" lon="5.99618">
        <ele>1085.503561028</ele>
        <time>2015-12-16T14:17:41Z</time>
      </trkpt>
      <trkpt lat="45.618" lon="5.99639">
        <ele>1083.251546372</ele>
        <time>2015-12-16T14:17:51Z</time>
      </trkpt>
      <trkpt lat="45.61794" lon="5.99644">
        <ele>1083.251546372</ele>
        <time>2015-12-16T14:17:56Z</time>
      </trkpt>
      <trkpt lat="45.61779" lon="5.99653">
        <ele>1080.976892465</ele>
        <time>2015-12-16T14:18:07Z</time>
      </trkpt>
      <trkpt lat="45.61771" lon="5.99658">
        <ele>1080.976892465</ele>
        <time>2015-12-16T14:18:12Z</time>
      </trkpt>
      <trkpt lat="45.61751" lon="5.99662">
        <ele>1078.827384907</ele>
        <time>2015-12-16T14:18:26Z</time>
      </trkpt>
      <trkpt lat="45.61743" lon="5.99667">
        <ele>1078.827384907</ele>
        <time>2015-12-16T14:18:32Z</time>
      </trkpt>
      <trkpt lat="45.61731" lon="5.99668">
        <ele>1076.363181139</ele>
        <time>2015-12-16T14:18:41Z</time>
      </trkpt>
      <trkpt lat="45.61726" lon="5.99669">
        <ele>1076.363181139</ele>
        <time>2015-12-16T14:18:46Z</time>
      </trkpt>
      <trkpt lat="45.61712" lon="5.99671">
        <ele>1073.898203373</ele>
        <time>2015-12-16T14:18:57Z</time>
      </trkpt>
      <trkpt lat="45.61707" lon="5.99668">
        <ele>1073.898203373</ele>
        <time>2015-12-16T14:19:02Z</time>
      </trkpt>
      <trkpt lat="45.61691" lon="5.99667">
        <ele>1071.435100552</ele>
        <time>2015-12-16T14:19:11Z</time>
      </trkpt>
      <trkpt lat="45.61683" lon="5.99667">
        <ele>1071.435100552</ele>
        <time>2015-12-16T14:19:16Z</time>
      </trkpt>
      <trkpt lat="45.61669" lon="5.99669">
        <ele>1068.976321234</ele>
        <time>2015-12-16T14:19:27Z</time>
      </trkpt>
      <trkpt lat="45.61665" lon="5.9967">
        <ele>1068.976321234</ele>
        <time>2015-12-16T14:19:31Z</time>
      </trkpt>
      <trkpt lat="45.61657" lon="5.9967">
        <ele>1066.52411368</ele>
        <time>2015-12-16T14:19:36Z</time>
      </trkpt>
      <trkpt lat="45.61651" lon="5.99676">
        <ele>1066.52411368</ele>
        <time>2015-12-16T14:19:41Z</time>
      </trkpt>
      <trkpt lat="45.61649" lon="5.99685">
        <ele>1063.936415725</ele>
        <time>2015-12-16T14:19:46Z</time>
      </trkpt>
      <trkpt lat="45.61651" lon="5.99709">
        <ele>1061.370180894</ele>
        <time>2015-12-16T14:19:57Z</time>
      </trkpt>
      <trkpt lat="45.61648" lon="5.99714">
        <ele>1061.370180894</ele>
        <time>2015-12-16T14:20:01Z</time>
      </trkpt>
      <trkpt lat="45.61634" lon="5.99716">
        <ele>1059.114855438</ele>
        <time>2015-12-16T14:20:11Z</time>
      </trkpt>
      <trkpt lat="45.61625" lon="5.9972">
        <ele>1057.149495294</ele>
        <time>2015-12-16T14:20:17Z</time>
      </trkpt>
      <trkpt lat="45.6161" lon="5.99726">
        <ele>1055.453845349</ele>
        <time>2015-12-16T14:20:27Z</time>
      </trkpt>
      <trkpt lat="45.61604" lon="5.99727">
        <ele>1055.453845349</ele>
        <time>2015-12-16T14:20:31Z</time>
      </trkpt>
      <trkpt lat="45.6159" lon="5.99728">
        <ele>1054.728902201</ele>
        <time>2015-12-16T14:20:42Z</time>
      </trkpt>
      <trkpt lat="45.61584" lon="5.99723">
        <ele>1054.728902201</ele>
        <time>2015-12-16T14:20:46Z</time>
      </trkpt>
      <trkpt lat="45.6157" lon="5.99722">
        <ele>1052.883298616</ele>
        <time>2015-12-16T14:20:56Z</time>
      </trkpt>
      <trkpt lat="45.61563" lon="5.99718">
        <ele>1052.883298616</ele>
        <time>2015-12-16T14:21:02Z</time>
      </trkpt>
      <trkpt lat="45.61546" lon="5.99704">
        <ele>1051.152856934</ele>
        <time>2015-12-16T14:21:17Z</time>
      </trkpt>
      <trkpt lat="45.6154" lon="5.99695">
        <ele>1051.152856934</ele>
        <time>2015-12-16T14:21:22Z</time>
      </trkpt>
      <trkpt lat="45.61528" lon="5.99681">
        <ele>1049.96171155</ele>
        <time>2015-12-16T14:21:31Z</time>
      </trkpt>
      <trkpt lat="45.61521" lon="5.99674">
        <ele>1049.96171155</ele>
        <time>2015-12-16T14:21:37Z</time>
      </trkpt>
      <trkpt lat="45.61508" lon="5.99672">
        <ele>1048.548415337</ele>
        <time>2015-12-16T14:21:47Z</time>
      </trkpt>
      <trkpt lat="45.61505" lon="5.99672">
        <ele>1048.548415337</ele>
        <time>2015-12-16T14:21:52Z</time>
      </trkpt>
      <trkpt lat="45.61485" lon="5.99678">
        <ele>1045.91983567</ele>
        <time>2015-12-16T14:22:06Z</time>
      </trkpt>
      <trkpt lat="45.61477" lon="5.99679">
        <ele>1045.91983567</ele>
        <time>2015-12-16T14:22:12Z</time>
      </trkpt>
      <trkpt lat="45.61465" lon="5.99686">
        <ele>1044.185518295</ele>
        <time>2015-12-16T14:22:22Z</time>
      </trkpt>
      <trkpt lat="45.61456" lon="5.99689">
        <ele>1044.185518295</ele>
        <time>2015-12-16T14:22:26Z</time>
      </trkpt>
      <trkpt lat="45.61444" lon="5.99684">
        <ele>1042.703513907</ele>
        <time>2015-12-16T14:22:37Z</time>
      </trkpt>
      <trkpt lat="45.61436" lon="5.99682">
        <ele>1042.703513907</ele>
        <time>2015-12-16T14:22:41Z</time>
      </trkpt>
      <trkpt lat="45.6143" lon="5.99688">
        <ele>1041.598860042</ele>
        <time>2015-12-16T14:22:51Z</time>
      </trkpt>
      <trkpt lat="45.61426" lon="5.99695">
        <ele>1041.598860042</ele>
        <time>2015-12-16T14:22:56Z</time>
      </trkpt>
      <trkpt lat="45.61422" lon="5.99713">
        <ele>1042.139226404</ele>
        <time>2015-12-16T14:23:10Z</time>
      </trkpt>
      <trkpt lat="45.61421" lon="5.99722">
        <ele>1042.139226404</ele>
        <time>2015-12-16T14:23:11Z</time>
      </trkpt>
      <trkpt lat="45.6141" lon="5.99739">
        <ele>1043.332875252</ele>
        <time>2015-12-16T14:23:22Z</time>
      </trkpt>
      <trkpt lat="45.61401" lon="5.99745">
        <ele>1044.259100349</ele>
        <time>2015-12-16T14:23:26Z</time>
      </trkpt>
      <trkpt lat="45.61388" lon="5.99758">
        <ele>1044.35383099</ele>
        <time>2015-12-16T14:23:41Z</time>
      </trkpt>
      <trkpt lat="45.61383" lon="5.99767">
        <ele>1044.35383099</ele>
        <time>2015-12-16T14:23:46Z</time>
      </trkpt>
      <trkpt lat="45.61365" lon="5.99773">
        <ele>1044.249700083</ele>
        <time>2015-12-16T14:23:56Z</time>
      </trkpt>
      <trkpt lat="45.61357" lon="5.99768">
        <ele>1043.524705592</ele>
        <time>2015-12-16T14:24:01Z</time>
      </trkpt>
      <trkpt lat="45.61341" lon="5.99773">
        <ele>1043.663100456</ele>
        <time>2015-12-16T14:24:12Z</time>
      </trkpt>
      <trkpt lat="45.61333" lon="5.99773">
        <ele>1043.663100456</ele>
        <time>2015-12-16T14:24:17Z</time>
      </trkpt>
      <trkpt lat="45.6132" lon="5.99773">
        <ele>1043.15553412</ele>
        <time>2015-12-16T14:24:26Z</time>
      </trkpt>
      <trkpt lat="45.61313" lon="5.99778">
        <ele>1043.15553412</ele>
        <time>2015-12-16T14:24:31Z</time>
      </trkpt>
      <trkpt lat="45.61306" lon="5.99784">
        <ele>1042.767090967</ele>
        <time>2015-12-16T14:24:41Z</time>
      </trkpt>
      <trkpt lat="45.61302" lon="5.99792">
        <ele>1042.767090967</ele>
        <time>2015-12-16T14:24:47Z</time>
      </trkpt>
      <trkpt lat="45.61298" lon="5.99811">
        <ele>1042.629957803</ele>
        <time>2015-12-16T14:24:56Z</time>
      </trkpt>
      <trkpt lat="45.61297" lon="5.99822">
        <ele>1042.629957803</ele>
        <time>2015-12-16T14:25:01Z</time>
      </trkpt>
      <trkpt lat="45.61297" lon="5.99841">
        <ele>1042.721883678</ele>
        <time>2015-12-16T14:25:12Z</time>
      </trkpt>
      <trkpt lat="45.61298" lon="5.99849">
        <ele>1042.721883678</ele>
        <time>2015-12-16T14:25:16Z</time>
      </trkpt>
      <trkpt lat="45.61301" lon="5.9986">
        <ele>1042.733480306</ele>
        <time>2015-12-16T14:25:21Z</time>
      </trkpt>
      <trkpt lat="45.61296" lon="5.99881">
        <ele>1043.098966393</ele>
        <time>2015-12-16T14:25:31Z</time>
      </trkpt>
      <trkpt lat="45.61288" lon="5.99885">
        <ele>1043.098966393</ele>
        <time>2015-12-16T14:25:36Z</time>
      </trkpt>
      <trkpt lat="45.6128" lon="5.99888">
        <ele>1043.066884436</ele>
        <time>2015-12-16T14:25:41Z</time>
      </trkpt>
      <trkpt lat="45.6127" lon="5.99889">
        <ele>1043.095091299</ele>
        <time>2015-12-16T14:25:46Z</time>
      </trkpt>
      <trkpt lat="45.61263" lon="5.99892">
        <ele>1043.095091299</ele>
        <time>2015-12-16T14:25:51Z</time>
      </trkpt>
      <trkpt lat="45.61258" lon="5.99896">
        <ele>1042.743085201</ele>
        <time>2015-12-16T14:25:56Z</time>
      </trkpt>
      <trkpt lat="45.61254" lon="5.99908">
        <ele>1042.756793316</ele>
        <time>2015-12-16T14:26:01Z</time>
      </trkpt>
      <trkpt lat="45.61271" lon="5.99924">
        <ele>1042.817658804</ele>
        <time>2015-12-16T14:26:11Z</time>
      </trkpt>
      <trkpt lat="45.61279" lon="5.99929">
        <ele>1042.817658804</ele>
        <time>2015-12-16T14:26:16Z</time>
      </trkpt>
      <trkpt lat="45.61284" lon="5.99943">
        <ele>1043.783401025</ele>
        <time>2015-12-16T14:26:26Z</time>
      </trkpt>
      <trkpt lat="45.61307" lon="5.99963">
        <ele>1046.302206698</ele>
        <time>2015-12-16T14:26:42Z</time>
      </trkpt>
      <trkpt lat="45.61311" lon="5.99966">
        <ele>1046.302206698</ele>
        <time>2015-12-16T14:26:46Z</time>
      </trkpt>
      <trkpt lat="45.61314" lon="5.99978">
        <ele>1047.79997745</ele>
        <time>2015-12-16T14:26:56Z</time>
      </trkpt>
      <trkpt lat="45.61317" lon="5.99991">
        <ele>1048.776937105</ele>
        <time>2015-12-16T14:27:02Z</time>
      </trkpt>
      <trkpt lat="45.61322" lon="6.00004">
        <ele>1049.409954592</ele>
        <time>2015-12-16T14:27:12Z</time>
      </trkpt>
      <trkpt lat="45.61324" lon="6.00013">
        <ele>1049.409954592</ele>
        <time>2015-12-16T14:27:16Z</time>
      </trkpt>
      <trkpt lat="45.61324" lon="6.0004">
        <ele>1050.152253179</ele>
        <time>2015-12-16T14:27:26Z</time>
      </trkpt>
      <trkpt lat="45.61325" lon="6.00047">
        <ele>1050.152253179</ele>
        <time>2015-12-16T14:27:31Z</time>
      </trkpt>
      <trkpt lat="45.61334" lon="6.00076">
        <ele>1051.135397226</ele>
        <time>2015-12-16T14:27:46Z</time>
      </trkpt>
      <trkpt lat="45.61336" lon="6.00088">
        <ele>1051.135397226</ele>
        <time>2015-12-16T14:27:51Z</time>
      </trkpt>
      <trkpt lat="45.61339" lon="6.00106">
        <ele>1051.039662824</ele>
        <time>2015-12-16T14:28:01Z</time>
      </trkpt>
      <trkpt lat="45.61343" lon="6.00118">
        <ele>1050.518905348</ele>
        <time>2015-12-16T14:28:07Z</time>
      </trkpt>
      <trkpt lat="45.61346" lon="6.00137">
        <ele>1050.324409045</ele>
        <time>2015-12-16T14:28:16Z</time>
      </trkpt>
      <trkpt lat="45.61346" lon="6.00148">
        <ele>1050.324409045</ele>
        <time>2015-12-16T14:28:22Z</time>
      </trkpt>
      <trkpt lat="45.61345" lon="6.00167">
        <ele>1050.430949319</ele>
        <time>2015-12-16T14:28:31Z</time>
      </trkpt>
      <trkpt lat="45.61346" lon="6.00176">
        <ele>1050.430949319</ele>
        <time>2015-12-16T14:28:36Z</time>
      </trkpt>
      <trkpt lat="45.61344" lon="6.00198">
        <ele>1050.238008708</ele>
        <time>2015-12-16T14:28:47Z</time>
      </trkpt>
      <trkpt lat="45.61341" lon="6.00208">
        <ele>1050.238008708</ele>
        <time>2015-12-16T14:28:52Z</time>
      </trkpt>
      <trkpt lat="45.6134" lon="6.00228">
        <ele>1050.631272169</ele>
        <time>2015-12-16T14:29:02Z</time>
      </trkpt>
      <trkpt lat="45.61342" lon="6.00236">
        <ele>1050.631272169</ele>
        <time>2015-12-16T14:29:06Z</time>
      </trkpt>
      <trkpt lat="45.61353" lon="6.00261">
        <ele>1050.988738449</ele>
        <time>2015-12-16T14:29:21Z</time>
      </trkpt>
      <trkpt lat="45.61354" lon="6.00271">
        <ele>1050.988738449</ele>
        <time>2015-12-16T14:29:27Z</time>
      </trkpt>
      <trkpt lat="45.61354" lon="6.00287">
        <ele>1051.454882237</ele>
        <time>2015-12-16T14:29:36Z</time>
      </trkpt>
      <trkpt lat="45.61352" lon="6.00298">
        <ele>1051.454882237</ele>
        <time>2015-12-16T14:29:41Z</time>
      </trkpt>
      <trkpt lat="45.61345" lon="6.00317">
        <ele>1051.875162519</ele>
        <time>2015-12-16T14:29:51Z</time>
      </trkpt>
      <trkpt lat="45.61342" lon="6.00325">
        <ele>1051.875162519</ele>
        <time>2015-12-16T14:29:56Z</time>
      </trkpt>
      <trkpt lat="45.61342" lon="6.00334">
        <ele>1052.538975342</ele>
        <time>2015-12-16T14:30:01Z</time>
      </trkpt>
      <trkpt lat="45.61343" lon="6.00343">
        <ele>1052.538975342</ele>
        <time>2015-12-16T14:30:06Z</time>
      </trkpt>
      <trkpt lat="45.61345" lon="6.00356">
        <ele>1052.993338978</ele>
        <time>2015-12-16T14:30:12Z</time>
      </trkpt>
      <trkpt lat="45.6135" lon="6.00368">
        <ele>1053.395697514</ele>
        <time>2015-12-16T14:30:22Z</time>
      </trkpt>
      <trkpt lat="45.61356" lon="6.00381">
        <ele>1053.748079167</ele>
        <time>2015-12-16T14:30:27Z</time>
      </trkpt>
      <trkpt lat="45.61359" lon="6.00398">
        <ele>1054.052615386</ele>
        <time>2015-12-16T14:30:36Z</time>
      </trkpt>
      <trkpt lat="45.6136" lon="6.00403">
        <ele>1054.052615386</ele>
        <time>2015-12-16T14:30:41Z</time>
      </trkpt>
      <trkpt lat="45.61359" lon="6.00414">
        <ele>1054.167412001</ele>
        <time>2015-12-16T14:30:46Z</time>
      </trkpt>
      <trkpt lat="45.61358" lon="6.00424">
        <ele>1054.167412001</ele>
        <time>2015-12-16T14:30:51Z</time>
      </trkpt>
      <trkpt lat="45.61356" lon="6.00435">
        <ele>1054.39396752</ele>
        <time>2015-12-16T14:30:56Z</time>
      </trkpt>
      <trkpt lat="45.61354" lon="6.00442">
        <ele>1054.39396752</ele>
        <time>2015-12-16T14:31:01Z</time>
      </trkpt>
      <trkpt lat="45.61353" lon="6.00453">
        <ele>1055.155529725</ele>
        <time>2015-12-16T14:31:06Z</time>
      </trkpt>
      <trkpt lat="45.61353" lon="6.00461">
        <ele>1055.155529725</ele>
        <time>2015-12-16T14:31:11Z</time>
      </trkpt>
      <trkpt lat="45.61354" lon="6.0047">
        <ele>1056.698740332</ele>
        <time>2015-12-16T14:31:16Z</time>
      </trkpt>
      <trkpt lat="45.61355" lon="6.00479">
        <ele>1056.698740332</ele>
        <time>2015-12-16T14:31:21Z</time>
      </trkpt>
      <trkpt lat="45.61359" lon="6.00487">
        <ele>1058.961806471</ele>
        <time>2015-12-16T14:31:26Z</time>
      </trkpt>
      <trkpt lat="45.61363" lon="6.00496">
        <ele>1058.961806471</ele>
        <time>2015-12-16T14:31:31Z</time>
      </trkpt>
      <trkpt lat="45.61366" lon="6.00503">
        <ele>1061.885559526</ele>
        <time>2015-12-16T14:31:36Z</time>
      </trkpt>
      <trkpt lat="45.61365" lon="6.00512">
        <ele>1061.885559526</ele>
        <time>2015-12-16T14:31:41Z</time>
      </trkpt>
      <trkpt lat="45.61363" lon="6.00526">
        <ele>1063.107656351</ele>
        <time>2015-12-16T14:31:46Z</time>
      </trkpt>
      <trkpt lat="45.61364" lon="6.00535">
        <ele>1063.107656351</ele>
        <time>2015-12-16T14:31:51Z</time>
      </trkpt>
      <trkpt lat="45.61368" lon="6.00545">
        <ele>1064.335183751</ele>
        <time>2015-12-16T14:31:56Z</time>
      </trkpt>
      <trkpt lat="45.61372" lon="6.00571">
        <ele>1064.411821303</ele>
        <time>2015-12-16T14:32:11Z</time>
      </trkpt>
      <trkpt lat="45.61376" lon="6.00581">
        <ele>1064.411821303</ele>
        <time>2015-12-16T14:32:17Z</time>
      </trkpt>
      <trkpt lat="45.61381" lon="6.00602">
        <ele>1065.295876083</ele>
        <time>2015-12-16T14:32:26Z</time>
      </trkpt>
      <trkpt lat="45.61382" lon="6.00612">
        <ele>1065.295876083</ele>
        <time>2015-12-16T14:32:31Z</time>
      </trkpt>
      <trkpt lat="45.6138" lon="6.00633">
        <ele>1066.061539556</ele>
        <time>2015-12-16T14:32:41Z</time>
      </trkpt>
      <trkpt lat="45.61381" lon="6.00644">
        <ele>1066.061539556</ele>
        <time>2015-12-16T14:32:47Z</time>
      </trkpt>
      <trkpt lat="45.61379" lon="6.00659">
        <ele>1066.572012788</ele>
        <time>2015-12-16T14:32:56Z</time>
      </trkpt>
      <trkpt lat="45.61376" lon="6.00667">
        <ele>1066.572012788</ele>
        <time>2015-12-16T14:33:01Z</time>
      </trkpt>
      <trkpt lat="45.61372" lon="6.00676">
        <ele>1066.55725625</ele>
        <time>2015-12-16T14:33:07Z</time>
      </trkpt>
      <trkpt lat="45.61362" lon="6.00688">
        <ele>1066.200972267</ele>
        <time>2015-12-16T14:33:16Z</time>
      </trkpt>
      <trkpt lat="45.61359" lon="6.00694">
        <ele>1066.200972267</ele>
        <time>2015-12-16T14:33:21Z</time>
      </trkpt>
      <trkpt lat="45.61355" lon="6.00697">
        <ele>1065.818526224</ele>
        <time>2015-12-16T14:33:26Z</time>
      </trkpt>
      <trkpt lat="45.6135" lon="6.00699">
        <ele>1065.818526224</ele>
        <time>2015-12-16T14:33:31Z</time>
      </trkpt>
      <trkpt lat="45.61349" lon="6.00698">
        <ele>1065.818526224</ele>
        <time>2015-12-16T14:33:41Z</time>
      </trkpt>
      <trkpt lat="45.61349" lon="6.00698">
        <ele>1065.818526224</ele>
        <time>2015-12-16T14:33:46Z</time>
      </trkpt>
      <trkpt lat="45.61343" lon="6.00702">
        <ele>1065.55815667</ele>
        <time>2015-12-16T14:33:56Z</time>
      </trkpt>
      <trkpt lat="45.61341" lon="6.00706">
        <ele>1065.55815667</ele>
        <time>2015-12-16T14:34:03Z</time>
      </trkpt>
      <trkpt lat="45.61341" lon="6.00712">
        <ele>1065.55815667</ele>
        <time>2015-12-16T14:34:11Z</time>
      </trkpt>
      <trkpt lat="45.61345" lon="6.0072">
        <ele>1063.971710883</ele>
        <time>2015-12-16T14:34:16Z</time>
      </trkpt>
      <trkpt lat="45.6135" lon="6.00734">
        <ele>1062.026963066</ele>
        <time>2015-12-16T14:34:26Z</time>
      </trkpt>
      <trkpt lat="45.61352" lon="6.00739">
        <ele>1062.026963066</ele>
        <time>2015-12-16T14:34:31Z</time>
      </trkpt>
      <trkpt lat="45.61357" lon="6.00746">
        <ele>1060.477520039</ele>
        <time>2015-12-16T14:34:36Z</time>
      </trkpt>
      <trkpt lat="45.61362" lon="6.00763">
        <ele>1059.011754417</ele>
        <time>2015-12-16T14:34:46Z</time>
      </trkpt>
      <trkpt lat="45.61364" lon="6.00772">
        <ele>1059.011754417</ele>
        <time>2015-12-16T14:34:51Z</time>
      </trkpt>
      <trkpt lat="45.61358" lon="6.00782">
        <ele>1056.620132435</ele>
        <time>2015-12-16T14:35:06Z</time>
      </trkpt>
      <trkpt lat="45.61352" lon="6.00776">
        <ele>1056.620132435</ele>
        <time>2015-12-16T14:35:11Z</time>
      </trkpt>
      <trkpt lat="45.61339" lon="6.00772">
        <ele>1054.099184001</ele>
        <time>2015-12-16T14:35:21Z</time>
      </trkpt>
      <trkpt lat="45.61331" lon="6.0077">
        <ele>1054.099184001</ele>
        <time>2015-12-16T14:35:26Z</time>
      </trkpt>
      <trkpt lat="45.61325" lon="6.00779">
        <ele>1051.178463543</ele>
        <time>2015-12-16T14:35:36Z</time>
      </trkpt>
      <trkpt lat="45.61322" lon="6.00779">
        <ele>1051.178463543</ele>
        <time>2015-12-16T14:35:41Z</time>
      </trkpt>
      <trkpt lat="45.6132" lon="6.00781">
        <ele>1051.178463543</ele>
        <time>2015-12-16T14:35:46Z</time>
      </trkpt>
      <trkpt lat="45.61319" lon="6.00781">
        <ele>1051.178463543</ele>
        <time>2015-12-16T14:35:51Z</time>
      </trkpt>
      <trkpt lat="45.61316" lon="6.00783">
        <ele>1048.617224075</ele>
        <time>2015-12-16T14:35:56Z</time>
      </trkpt>
      <trkpt lat="45.61302" lon="6.00787">
        <ele>1046.541403785</ele>
        <time>2015-12-16T14:36:06Z</time>
      </trkpt>
      <trkpt lat="45.61295" lon="6.00786">
        <ele>1046.541403785</ele>
        <time>2015-12-16T14:36:11Z</time>
      </trkpt>
      <trkpt lat="45.61274" lon="6.0079">
        <ele>1044.201555467</ele>
        <time>2015-12-16T14:36:26Z</time>
      </trkpt>
      <trkpt lat="45.61267" lon="6.00796">
        <ele>1044.201555467</ele>
        <time>2015-12-16T14:36:31Z</time>
      </trkpt>
      <trkpt lat="45.61263" lon="6.00799">
        <ele>1042.200906949</ele>
        <time>2015-12-16T14:36:36Z</time>
      </trkpt>
      <trkpt lat="45.61258" lon="6.00805">
        <ele>1042.200906949</ele>
        <time>2015-12-16T14:36:46Z</time>
      </trkpt>
      <trkpt lat="45.61258" lon="6.00811">
        <ele>1039.800288523</ele>
        <time>2015-12-16T14:36:51Z</time>
      </trkpt>
      <trkpt lat="45.6125" lon="6.00821">
        <ele>1036.748140174</ele>
        <time>2015-12-16T14:37:01Z</time>
      </trkpt>
      <trkpt lat="45.6125" lon="6.00822">
        <ele>1036.748140174</ele>
        <time>2015-12-16T14:37:07Z</time>
      </trkpt>
      <trkpt lat="45.61243" lon="6.00834">
        <ele>1032.524827764</ele>
        <time>2015-12-16T14:37:22Z</time>
      </trkpt>
      <trkpt lat="45.61241" lon="6.00835">
        <ele>1032.524827764</ele>
        <time>2015-12-16T14:37:26Z</time>
      </trkpt>
      <trkpt lat="45.61232" lon="6.00846">
        <ele>1028.237222546</ele>
        <time>2015-12-16T14:37:37Z</time>
      </trkpt>
      <trkpt lat="45.61228" lon="6.00848">
        <ele>1028.237222546</ele>
        <time>2015-12-16T14:37:42Z</time>
      </trkpt>
      <trkpt lat="45.61218" lon="6.00851">
        <ele>1023.469760054</ele>
        <time>2015-12-16T14:37:52Z</time>
      </trkpt>
      <trkpt lat="45.61213" lon="6.00854">
        <ele>1023.469760054</ele>
        <time>2015-12-16T14:37:56Z</time>
      </trkpt>
      <trkpt lat="45.61201" lon="6.00861">
        <ele>1019.279646141</ele>
        <time>2015-12-16T14:38:07Z</time>
      </trkpt>
      <trkpt lat="45.61194" lon="6.00862">
        <ele>1019.279646141</ele>
        <time>2015-12-16T14:38:12Z</time>
      </trkpt>
      <trkpt lat="45.61188" lon="6.00867">
        <ele>1014.627013524</ele>
        <time>2015-12-16T14:38:21Z</time>
      </trkpt>
      <trkpt lat="45.6118" lon="6.00869">
        <ele>1014.627013524</ele>
        <time>2015-12-16T14:38:26Z</time>
      </trkpt>
      <trkpt lat="45.61168" lon="6.00871">
        <ele>1010.134649102</ele>
        <time>2015-12-16T14:38:36Z</time>
      </trkpt>
      <trkpt lat="45.61161" lon="6.00876">
        <ele>1010.134649102</ele>
        <time>2015-12-16T14:38:42Z</time>
      </trkpt>
      <trkpt lat="45.61157" lon="6.00876">
        <ele>1006.378870927</ele>
        <time>2015-12-16T14:38:46Z</time>
      </trkpt>
      <trkpt lat="45.61155" lon="6.0088">
        <ele>1006.378870927</ele>
        <time>2015-12-16T14:38:51Z</time>
      </trkpt>
      <trkpt lat="45.61154" lon="6.00881">
        <ele>1006.378870927</ele>
        <time>2015-12-16T14:39:05Z</time>
      </trkpt>
      <trkpt lat="45.61153" lon="6.00881">
        <ele>1006.378870927</ele>
        <time>2015-12-16T14:39:06Z</time>
      </trkpt>
      <trkpt lat="45.61153" lon="6.00881">
        <ele>1006.378870927</ele>
        <time>2015-12-16T14:39:24Z</time>
      </trkpt>
      <trkpt lat="45.61143" lon="6.00899">
        <ele>1002.45020075</ele>
        <time>2015-12-16T14:39:37Z</time>
      </trkpt>
      <trkpt lat="45.61137" lon="6.00915">
        <ele>998.082606834</ele>
        <time>2015-12-16T14:39:51Z</time>
      </trkpt>
      <trkpt lat="45.61137" lon="6.00917">
        <ele>998.082606834</ele>
        <time>2015-12-16T14:39:57Z</time>
      </trkpt>
      <trkpt lat="45.61134" lon="6.00931">
        <ele>994.183420378</ele>
        <time>2015-12-16T14:40:07Z</time>
      </trkpt>
      <trkpt lat="45.61131" lon="6.00936">
        <ele>994.183420378</ele>
        <time>2015-12-16T14:40:11Z</time>
      </trkpt>
      <trkpt lat="45.6113" lon="6.00937">
        <ele>994.183420378</ele>
        <time>2015-12-16T14:40:21Z</time>
      </trkpt>
      <trkpt lat="45.61129" lon="6.00939">
        <ele>994.183420378</ele>
        <time>2015-12-16T14:40:26Z</time>
      </trkpt>
      <trkpt lat="45.61117" lon="6.00953">
        <ele>989.718254657</ele>
        <time>2015-12-16T14:40:36Z</time>
      </trkpt>
      <trkpt lat="45.61116" lon="6.0096">
        <ele>989.718254657</ele>
        <time>2015-12-16T14:40:41Z</time>
      </trkpt>
      <trkpt lat="45.61109" lon="6.0097">
        <ele>985.315206385</ele>
        <time>2015-12-16T14:40:51Z</time>
      </trkpt>
      <trkpt lat="45.61104" lon="6.00976">
        <ele>985.315206385</ele>
        <time>2015-12-16T14:40:57Z</time>
      </trkpt>
      <trkpt lat="45.61099" lon="6.0099">
        <ele>980.25873899</ele>
        <time>2015-12-16T14:41:12Z</time>
      </trkpt>
      <trkpt lat="45.61098" lon="6.00993">
        <ele>980.25873899</ele>
        <time>2015-12-16T14:41:16Z</time>
      </trkpt>
      <trkpt lat="45.61093" lon="6.01005">
        <ele>975.904944338</ele>
        <time>2015-12-16T14:41:27Z</time>
      </trkpt>
      <trkpt lat="45.61086" lon="6.01015">
        <ele>971.634551935</ele>
        <time>2015-12-16T14:41:31Z</time>
      </trkpt>
      <trkpt lat="45.61075" lon="6.01025">
        <ele>967.73788515</ele>
        <time>2015-12-16T14:41:42Z</time>
      </trkpt>
      <trkpt lat="45.61072" lon="6.01031">
        <ele>967.73788515</ele>
        <time>2015-12-16T14:41:47Z</time>
      </trkpt>
      <trkpt lat="45.61065" lon="6.0104">
        <ele>963.329671535</ele>
        <time>2015-12-16T14:41:56Z</time>
      </trkpt>
      <trkpt lat="45.61063" lon="6.01044">
        <ele>963.329671535</ele>
        <time>2015-12-16T14:42:01Z</time>
      </trkpt>
      <trkpt lat="45.61051" lon="6.01059">
        <ele>959.175999038</ele>
        <time>2015-12-16T14:42:12Z</time>
      </trkpt>
      <trkpt lat="45.61041" lon="6.01059">
        <ele>955.40919513</ele>
        <time>2015-12-16T14:42:16Z</time>
      </trkpt>
      <trkpt lat="45.61028" lon="6.01068">
        <ele>952.582795973</ele>
        <time>2015-12-16T14:42:27Z</time>
      </trkpt>
      <trkpt lat="45.61023" lon="6.01069">
        <ele>952.582795973</ele>
        <time>2015-12-16T14:42:32Z</time>
      </trkpt>
      <trkpt lat="45.61011" lon="6.01078">
        <ele>949.189169922</ele>
        <time>2015-12-16T14:42:42Z</time>
      </trkpt>
      <trkpt lat="45.61007" lon="6.01078">
        <ele>949.189169922</ele>
        <time>2015-12-16T14:42:47Z</time>
      </trkpt>
      <trkpt lat="45.60998" lon="6.01088">
        <ele>946.138505177</ele>
        <time>2015-12-16T14:42:56Z</time>
      </trkpt>
      <trkpt lat="45.60995" lon="6.01094">
        <ele>946.138505177</ele>
        <time>2015-12-16T14:43:01Z</time>
      </trkpt>
      <trkpt lat="45.60992" lon="6.01092">
        <ele>946.138505177</ele>
        <time>2015-12-16T14:43:12Z</time>
      </trkpt>
      <trkpt lat="45.60991" lon="6.01093">
        <ele>942.831766912</ele>
        <time>2015-12-16T14:43:17Z</time>
      </trkpt>
      <trkpt lat="45.6098" lon="6.01093">
        <ele>940.011370262</ele>
        <time>2015-12-16T14:43:26Z</time>
      </trkpt>
      <trkpt lat="45.60976" lon="6.01092">
        <ele>940.011370262</ele>
        <time>2015-12-16T14:43:32Z</time>
      </trkpt>
      <trkpt lat="45.60964" lon="6.0109">
        <ele>937.64301349</ele>
        <time>2015-12-16T14:43:42Z</time>
      </trkpt>
      <trkpt lat="45.60959" lon="6.01088">
        <ele>937.64301349</ele>
        <time>2015-12-16T14:43:46Z</time>
      </trkpt>
      <trkpt lat="45.60947" lon="6.01083">
        <ele>936.12573776</ele>
        <time>2015-12-16T14:43:57Z</time>
      </trkpt>
      <trkpt lat="45.60944" lon="6.01082">
        <ele>936.12573776</ele>
        <time>2015-12-16T14:44:02Z</time>
      </trkpt>
      <trkpt lat="45.60935" lon="6.01082">
        <ele>935.538439563</ele>
        <time>2015-12-16T14:44:12Z</time>
      </trkpt>
      <trkpt lat="45.60934" lon="6.01083">
        <ele>935.538439563</ele>
        <time>2015-12-16T14:44:17Z</time>
      </trkpt>
      <trkpt lat="45.60916" lon="6.01079">
        <ele>935.663192705</ele>
        <time>2015-12-16T14:44:32Z</time>
      </trkpt>
      <trkpt lat="45.60908" lon="6.01073">
        <ele>935.663192705</ele>
        <time>2015-12-16T14:44:42Z</time>
      </trkpt>
      <trkpt lat="45.60907" lon="6.01066">
        <ele>935.431248282</ele>
        <time>2015-12-16T14:44:47Z</time>
      </trkpt>
      <trkpt lat="45.60901" lon="6.0106">
        <ele>935.431248282</ele>
        <time>2015-12-16T14:44:51Z</time>
      </trkpt>
      <trkpt lat="45.60892" lon="6.01055">
        <ele>935.150232356</ele>
        <time>2015-12-16T14:45:02Z</time>
      </trkpt>
      <trkpt lat="45.60887" lon="6.01055">
        <ele>935.150232356</ele>
        <time>2015-12-16T14:45:06Z</time>
      </trkpt>
      <trkpt lat="45.60876" lon="6.01047">
        <ele>935.681651871</ele>
        <time>2015-12-16T14:45:16Z</time>
      </trkpt>
      <trkpt lat="45.6087" lon="6.01046">
        <ele>935.681651871</ele>
        <time>2015-12-16T14:45:22Z</time>
      </trkpt>
      <trkpt lat="45.60861" lon="6.0104">
        <ele>937.244934074</ele>
        <time>2015-12-16T14:45:31Z</time>
      </trkpt>
      <trkpt lat="45.60856" lon="6.0104">
        <ele>937.244934074</ele>
        <time>2015-12-16T14:45:36Z</time>
      </trkpt>
      <trkpt lat="45.60845" lon="6.01034">
        <ele>939.896346599</ele>
        <time>2015-12-16T14:45:47Z</time>
      </trkpt>
      <trkpt lat="45.6084" lon="6.01033">
        <ele>939.896346599</ele>
        <time>2015-12-16T14:45:51Z</time>
      </trkpt>
      <trkpt lat="45.60831" lon="6.01029">
        <ele>942.676196336</ele>
        <time>2015-12-16T14:46:02Z</time>
      </trkpt>
      <trkpt lat="45.60825" lon="6.01026">
        <ele>942.676196336</ele>
        <time>2015-12-16T14:46:06Z</time>
      </trkpt>
      <trkpt lat="45.60817" lon="6.01023">
        <ele>945.127305397</ele>
        <time>2015-12-16T14:46:16Z</time>
      </trkpt>
      <trkpt lat="45.60811" lon="6.01017">
        <ele>945.127305397</ele>
        <time>2015-12-16T14:46:22Z</time>
      </trkpt>
      <trkpt lat="45.60802" lon="6.01009">
        <ele>947.691753244</ele>
        <time>2015-12-16T14:46:31Z</time>
      </trkpt>
      <trkpt lat="45.60801" lon="6.01007">
        <ele>947.691753244</ele>
        <time>2015-12-16T14:46:36Z</time>
      </trkpt>
      <trkpt lat="45.6079" lon="6.01001">
        <ele>950.202504303</ele>
        <time>2015-12-16T14:46:46Z</time>
      </trkpt>
      <trkpt lat="45.60785" lon="6.01001">
        <ele>950.202504303</ele>
        <time>2015-12-16T14:46:51Z</time>
      </trkpt>
      <trkpt lat="45.6078" lon="6.01">
        <ele>953.657992162</ele>
        <time>2015-12-16T14:46:56Z</time>
      </trkpt>
      <trkpt lat="45.60775" lon="6.00999">
        <ele>953.657992162</ele>
        <time>2015-12-16T14:47:02Z</time>
      </trkpt>
      <trkpt lat="45.6077" lon="6.00995">
        <ele>956.386846457</ele>
        <time>2015-12-16T14:47:07Z</time>
      </trkpt>
      <trkpt lat="45.60748" lon="6.00998">
        <ele>959.580848501</ele>
        <time>2015-12-16T14:47:21Z</time>
      </trkpt>
      <trkpt lat="45.60747" lon="6.00995">
        <ele>959.580848501</ele>
        <time>2015-12-16T14:47:27Z</time>
      </trkpt>
      <trkpt lat="45.60741" lon="6.00997">
        <ele>959.580848501</ele>
        <time>2015-12-16T14:47:36Z</time>
      </trkpt>
      <trkpt lat="45.60738" lon="6.01001">
        <ele>963.622625419</ele>
        <time>2015-12-16T14:47:41Z</time>
      </trkpt>
      <trkpt lat="45.6073" lon="6.01008">
        <ele>967.423490193</ele>
        <time>2015-12-16T14:47:51Z</time>
      </trkpt>
      <trkpt lat="45.60725" lon="6.01006">
        <ele>967.423490193</ele>
        <time>2015-12-16T14:47:56Z</time>
      </trkpt>
      <trkpt lat="45.60718" lon="6.01007">
        <ele>971.560940237</ele>
        <time>2015-12-16T14:48:01Z</time>
      </trkpt>
      <trkpt lat="45.60711" lon="6.01009">
        <ele>971.560940237</ele>
        <time>2015-12-16T14:48:06Z</time>
      </trkpt>
      <trkpt lat="45.60703" lon="6.01008">
        <ele>975.704777911</ele>
        <time>2015-12-16T14:48:11Z</time>
      </trkpt>
      <trkpt lat="45.60695" lon="6.01002">
        <ele>975.704777911</ele>
        <time>2015-12-16T14:48:21Z</time>
      </trkpt>
      <trkpt lat="45.60692" lon="6.01002">
        <ele>978.972961968</ele>
        <time>2015-12-16T14:48:27Z</time>
      </trkpt>
      <trkpt lat="45.60673" lon="6.00991">
        <ele>982.424530502</ele>
        <time>2015-12-16T14:48:41Z</time>
      </trkpt>
      <trkpt lat="45.60659" lon="6.00993">
        <ele>985.599498996</ele>
        <time>2015-12-16T14:48:57Z</time>
      </trkpt>
      <trkpt lat="45.60658" lon="6.00997">
        <ele>985.599498996</ele>
        <time>2015-12-16T14:49:02Z</time>
      </trkpt>
      <trkpt lat="45.60648" lon="6.01001">
        <ele>989.513973981</ele>
        <time>2015-12-16T14:49:12Z</time>
      </trkpt>
      <trkpt lat="45.60643" lon="6.01003">
        <ele>989.513973981</ele>
        <time>2015-12-16T14:49:16Z</time>
      </trkpt>
      <trkpt lat="45.6064" lon="6.01008">
        <ele>993.37843478</ele>
        <time>2015-12-16T14:49:21Z</time>
      </trkpt>
      <trkpt lat="45.60638" lon="6.0101">
        <ele>993.37843478</ele>
        <time>2015-12-16T14:49:26Z</time>
      </trkpt>
    </trkseg>
  </trk>
</gpx>